<?xml version="1.0" encoding="UTF-8" standalone="no" ?><gpx xmlns="http://www.topografix.com/GPX/1/1" xmlns:gpxx="http://www.garmin.com/xmlschemas/GpxExtensions/v3" xmlns:gpxtrkx="http://www.garmin.com/xmlschemas/TrackStatsExtension/v1" xmlns:wptx1="http://www.garmin.com/xmlschemas/WaypointExtension/v1" xmlns:gpxtpx="http://www.garmin.com/xmlschemas/TrackPointExtension/v1" creator="eTrex 20" version="1.1" xmlns:xsi="http://www.w3.org/2001/XMLSchema-instance" xsi:schemaLocation="http://www.topografix.com/GPX/1/1 http://www.topografix.com/GPX/1/1/gpx.xsd http://www.garmin.com/xmlschemas/GpxExtensions/v3 http://www8.garmin.com/xmlschemas/GpxExtensionsv3.xsd http://www.garmin.com/xmlschemas/TrackStatsExtension/v1 http://www8.garmin.com/xmlschemas/TrackStatsExtension.xsd http://www.garmin.com/xmlschemas/WaypointExtension/v1 http://www8.garmin.com/xmlschemas/WaypointExtensionv1.xsd http://www.garmin.com/xmlschemas/TrackPointExtension/v1 http://www.garmin.com/xmlschemas/TrackPointExtensionv1.xsd"><metadata><link href="http://www.garmin.com"><text>Garmin International</text></link><time>2014-09-05T15:23:28Z</time></metadata><trk><name>2014-09-03 11:11:55 Auto</name><extensions><gpxx:TrackExtension><gpxx:DisplayColor>Cyan</gpxx:DisplayColor></gpxx:TrackExtension></extensions><trkseg><trkpt lat="45.9820646793" lon="7.1868909616"><ele>2687.98</ele><time>2014-09-03T09:11:55Z</time></trkpt><trkpt lat="45.9819701314" lon="7.1870489605"><ele>2687.50</ele><time>2014-09-03T09:12:02Z</time></trkpt><trkpt lat="45.9820363484" lon="7.1871641278"><ele>2687.02</ele><time>2014-09-03T09:12:18Z</time></trkpt><trkpt lat="45.9825779870" lon="7.1867156122"><ele>2686.06</ele><time>2014-09-03T09:12:25Z</time></trkpt><trkpt lat="45.9844512586" lon="7.1870504692"><ele>2600.50</ele><time>2014-09-03T09:12:37Z</time></trkpt><trkpt lat="45.9846917354" lon="7.1875610109"><ele>2547.63</ele><time>2014-09-03T09:12:53Z</time></trkpt><trkpt lat="45.9846348222" lon="7.1880097780"><ele>2475.53</ele><time>2014-09-03T09:13:00Z</time></trkpt><trkpt lat="45.9844642505" lon="7.1887110919"><ele>2360.65</ele><time>2014-09-03T09:13:12Z</time></trkpt><trkpt lat="45.9842503443" lon="7.1896035969"><ele>2221.26</ele><time>2014-09-03T09:13:26Z</time></trkpt><trkpt lat="45.9842508473" lon="7.1896967199"><ele>2194.35</ele><time>2014-09-03T09:13:31Z</time></trkpt><trkpt lat="45.9842359275" lon="7.1898259688"><ele>2173.68</ele><time>2014-09-03T09:13:34Z</time></trkpt><trkpt lat="45.9839703050" lon="7.1911461186"><ele>1926.62</ele><time>2014-09-03T09:13:52Z</time></trkpt><trkpt lat="45.9837780241" lon="7.1918740030"><ele>1822.80</ele><time>2014-09-03T09:14:06Z</time></trkpt><trkpt lat="45.9837588295" lon="7.1919508651"><ele>1809.34</ele><time>2014-09-03T09:14:07Z</time></trkpt><trkpt lat="45.9837108012" lon="7.1922965348"><ele>1720.90</ele><time>2014-09-03T09:14:22Z</time></trkpt><trkpt lat="45.9837117232" lon="7.1923345048"><ele>1716.57</ele><time>2014-09-03T09:14:23Z</time></trkpt><trkpt lat="45.9837116394" lon="7.1923573036"><ele>1713.21</ele><time>2014-09-03T09:14:24Z</time></trkpt><trkpt lat="45.9837054368" lon="7.1923895739"><ele>1710.32</ele><time>2014-09-03T09:14:25Z</time></trkpt><trkpt lat="45.9836916905" lon="7.1924289688"><ele>1706.48</ele><time>2014-09-03T09:14:26Z</time></trkpt><trkpt lat="45.9836770222" lon="7.1924647596"><ele>1703.11</ele><time>2014-09-03T09:14:27Z</time></trkpt><trkpt lat="45.9836639464" lon="7.1924920008"><ele>1700.71</ele><time>2014-09-03T09:14:28Z</time></trkpt><trkpt lat="45.9836518764" lon="7.1925196610"><ele>1698.31</ele><time>2014-09-03T09:14:29Z</time></trkpt><trkpt lat="45.9834904410" lon="7.1929230820"><ele>1661.30</ele><time>2014-09-03T09:14:44Z</time></trkpt><trkpt lat="45.9833608568" lon="7.1933741122"><ele>1578.14</ele><time>2014-09-03T09:14:59Z</time></trkpt><trkpt lat="45.9830938932" lon="7.1941224486"><ele>1512.77</ele><time>2014-09-03T09:15:19Z</time></trkpt><trkpt lat="45.9828911349" lon="7.1944723092"><ele>1494.51</ele><time>2014-09-03T09:15:34Z</time></trkpt><trkpt lat="45.9826844372" lon="7.1947459783"><ele>1480.57</ele><time>2014-09-03T09:15:48Z</time></trkpt><trkpt lat="45.9825238399" lon="7.1949917357"><ele>1472.40</ele><time>2014-09-03T09:16:03Z</time></trkpt><trkpt lat="45.9825098421" lon="7.1949644107"><ele>1465.67</ele><time>2014-09-03T09:16:20Z</time></trkpt><trkpt lat="45.9825185593" lon="7.1950048115"><ele>1456.53</ele><time>2014-09-03T09:16:48Z</time></trkpt><trkpt lat="45.9825230855" lon="7.1950582042"><ele>1447.40</ele><time>2014-09-03T09:17:26Z</time></trkpt><trkpt lat="45.9824991133" lon="7.1950728726"><ele>1439.71</ele><time>2014-09-03T09:17:48Z</time></trkpt><trkpt lat="45.9823237639" lon="7.1953451168"><ele>1438.75</ele><time>2014-09-03T09:18:00Z</time></trkpt><trkpt lat="45.9820770845" lon="7.1958257351"><ele>1441.15</ele><time>2014-09-03T09:18:19Z</time></trkpt><trkpt lat="45.9818813670" lon="7.1962402202"><ele>1444.52</ele><time>2014-09-03T09:18:34Z</time></trkpt><trkpt lat="45.9816848114" lon="7.1965606604"><ele>1446.92</ele><time>2014-09-03T09:18:47Z</time></trkpt><trkpt lat="45.9814555664" lon="7.1968139615"><ele>1448.84</ele><time>2014-09-03T09:19:00Z</time></trkpt><trkpt lat="45.9811549075" lon="7.1970049012"><ele>1450.77</ele><time>2014-09-03T09:19:16Z</time></trkpt><trkpt lat="45.9808249958" lon="7.1970786620"><ele>1455.09</ele><time>2014-09-03T09:19:33Z</time></trkpt><trkpt lat="45.9805922303" lon="7.1970951743"><ele>1455.57</ele><time>2014-09-03T09:19:46Z</time></trkpt><trkpt lat="45.9803150408" lon="7.1971591283"><ele>1457.98</ele><time>2014-09-03T09:20:02Z</time></trkpt><trkpt lat="45.9802485723" lon="7.1971762273"><ele>1458.46</ele><time>2014-09-03T09:20:06Z</time></trkpt><trkpt lat="45.9802317247" lon="7.1971904766"><ele>1458.46</ele><time>2014-09-03T09:20:07Z</time></trkpt><trkpt lat="45.9802144580" lon="7.1972014569"><ele>1458.46</ele><time>2014-09-03T09:20:08Z</time></trkpt><trkpt lat="45.9801954310" lon="7.1972081624"><ele>1458.46</ele><time>2014-09-03T09:20:09Z</time></trkpt><trkpt lat="45.9801794216" lon="7.1972109284"><ele>1458.46</ele><time>2014-09-03T09:20:10Z</time></trkpt><trkpt lat="45.9800683614" lon="7.1972416062"><ele>1458.46</ele><time>2014-09-03T09:20:17Z</time></trkpt><trkpt lat="45.9800512623" lon="7.1972542629"><ele>1457.98</ele><time>2014-09-03T09:20:18Z</time></trkpt><trkpt lat="45.9800314810" lon="7.1972651593"><ele>1457.98</ele><time>2014-09-03T09:20:19Z</time></trkpt><trkpt lat="45.9800131246" lon="7.1972784027"><ele>1457.50</ele><time>2014-09-03T09:20:20Z</time></trkpt><trkpt lat="45.9799941815" lon="7.1972934902"><ele>1457.50</ele><time>2014-09-03T09:20:21Z</time></trkpt><trkpt lat="45.9797774255" lon="7.1974933147"><ele>1457.02</ele><time>2014-09-03T09:20:35Z</time></trkpt><trkpt lat="45.9795862343" lon="7.1977505554"><ele>1458.94</ele><time>2014-09-03T09:20:49Z</time></trkpt><trkpt lat="45.9794129804" lon="7.1980179381"><ele>1460.38</ele><time>2014-09-03T09:21:03Z</time></trkpt><trkpt lat="45.9793728311" lon="7.1980999969"><ele>1461.34</ele><time>2014-09-03T09:21:07Z</time></trkpt><trkpt lat="45.9793605935" lon="7.1981168445"><ele>1461.34</ele><time>2014-09-03T09:21:08Z</time></trkpt><trkpt lat="45.9792415705" lon="7.1984112170"><ele>1462.30</ele><time>2014-09-03T09:21:21Z</time></trkpt><trkpt lat="45.9790626168" lon="7.1987987962"><ele>1463.26</ele><time>2014-09-03T09:21:38Z</time></trkpt><trkpt lat="45.9788969066" lon="7.1991209965"><ele>1464.23</ele><time>2014-09-03T09:21:52Z</time></trkpt><trkpt lat="45.9786674939" lon="7.1994757187"><ele>1467.11</ele><time>2014-09-03T09:22:09Z</time></trkpt><trkpt lat="45.9784628917" lon="7.1997912973"><ele>1468.07</ele><time>2014-09-03T09:22:24Z</time></trkpt><trkpt lat="45.9782452974" lon="7.2000838257"><ele>1468.07</ele><time>2014-09-03T09:22:38Z</time></trkpt><trkpt lat="45.9779880568" lon="7.2004066966"><ele>1470.95</ele><time>2014-09-03T09:22:55Z</time></trkpt><trkpt lat="45.9777419642" lon="7.2006525379"><ele>1470.47</ele><time>2014-09-03T09:23:10Z</time></trkpt><trkpt lat="45.9774229489" lon="7.2009227704"><ele>1474.80</ele><time>2014-09-03T09:23:29Z</time></trkpt><trkpt lat="45.9771303367" lon="7.2011553682"><ele>1477.20</ele><time>2014-09-03T09:23:46Z</time></trkpt><trkpt lat="45.9768908657" lon="7.2014363296"><ele>1476.24</ele><time>2014-09-03T09:24:02Z</time></trkpt><trkpt lat="45.9766617883" lon="7.2017293610"><ele>1476.24</ele><time>2014-09-03T09:24:18Z</time></trkpt><trkpt lat="45.9764040448" lon="7.2019809857"><ele>1478.65</ele><time>2014-09-03T09:24:35Z</time></trkpt><trkpt lat="45.9761656635" lon="7.2021970712"><ele>1480.57</ele><time>2014-09-03T09:24:50Z</time></trkpt><trkpt lat="45.9759473987" lon="7.2024101391"><ele>1482.01</ele><time>2014-09-03T09:25:04Z</time></trkpt><trkpt lat="45.9756742325" lon="7.2027565632"><ele>1483.45</ele><time>2014-09-03T09:25:24Z</time></trkpt><trkpt lat="45.9753742442" lon="7.2031834535"><ele>1485.37</ele><time>2014-09-03T09:25:45Z</time></trkpt><trkpt lat="45.9751919378" lon="7.2034137044"><ele>1487.30</ele><time>2014-09-03T09:25:57Z</time></trkpt><trkpt lat="45.9751768503" lon="7.2034311388"><ele>1487.78</ele><time>2014-09-03T09:25:58Z</time></trkpt><trkpt lat="45.9748890158" lon="7.2037343122"><ele>1490.66</ele><time>2014-09-03T09:26:16Z</time></trkpt><trkpt lat="45.9748747665" lon="7.2037478071"><ele>1490.66</ele><time>2014-09-03T09:26:17Z</time></trkpt><trkpt lat="45.9748613555" lon="7.2037619725"><ele>1490.66</ele><time>2014-09-03T09:26:18Z</time></trkpt><trkpt lat="45.9746044502" lon="7.2039834224"><ele>1491.62</ele><time>2014-09-03T09:26:32Z</time></trkpt><trkpt lat="45.9744370636" lon="7.2041634656"><ele>1491.62</ele><time>2014-09-03T09:26:43Z</time></trkpt><trkpt lat="45.9742683358" lon="7.2043630388"><ele>1491.62</ele><time>2014-09-03T09:26:56Z</time></trkpt><trkpt lat="45.9742545895" lon="7.2043716721"><ele>1491.62</ele><time>2014-09-03T09:26:57Z</time></trkpt><trkpt lat="45.9742372390" lon="7.2043866757"><ele>1491.62</ele><time>2014-09-03T09:26:59Z</time></trkpt><trkpt lat="45.9741644841" lon="7.2044161800"><ele>1492.58</ele><time>2014-09-03T09:27:05Z</time></trkpt><trkpt lat="45.9741562698" lon="7.2044274956"><ele>1492.58</ele><time>2014-09-03T09:27:06Z</time></trkpt><trkpt lat="45.9741404280" lon="7.2044512164"><ele>1492.10</ele><time>2014-09-03T09:27:08Z</time></trkpt><trkpt lat="45.9741186351" lon="7.2045615222"><ele>1492.10</ele><time>2014-09-03T09:27:14Z</time></trkpt><trkpt lat="45.9741126001" lon="7.2045785375"><ele>1492.10</ele><time>2014-09-03T09:27:15Z</time></trkpt><trkpt lat="45.9741054755" lon="7.2046083771"><ele>1492.10</ele><time>2014-09-03T09:27:17Z</time></trkpt><trkpt lat="45.9741027933" lon="7.2046236321"><ele>1492.10</ele><time>2014-09-03T09:27:18Z</time></trkpt><trkpt lat="45.9740965907" lon="7.2046361212"><ele>1492.10</ele><time>2014-09-03T09:27:19Z</time></trkpt><trkpt lat="45.9740936570" lon="7.2046476882"><ele>1492.58</ele><time>2014-09-03T09:27:20Z</time></trkpt><trkpt lat="45.9740926512" lon="7.2046636976"><ele>1492.58</ele><time>2014-09-03T09:27:21Z</time></trkpt><trkpt lat="45.9740901366" lon="7.2046792042"><ele>1492.10</ele><time>2014-09-03T09:27:22Z</time></trkpt><trkpt lat="45.9740867838" lon="7.2046958841"><ele>1492.10</ele><time>2014-09-03T09:27:23Z</time></trkpt><trkpt lat="45.9740852751" lon="7.2047372069"><ele>1491.14</ele><time>2014-09-03T09:27:35Z</time></trkpt><trkpt lat="45.9740887117" lon="7.2047828883"><ele>1490.18</ele><time>2014-09-03T09:28:00Z</time></trkpt><trkpt lat="45.9740671702" lon="7.2049171664"><ele>1490.18</ele><time>2014-09-03T09:28:06Z</time></trkpt><trkpt lat="45.9740563575" lon="7.2049416415"><ele>1490.18</ele><time>2014-09-03T09:28:07Z</time></trkpt><trkpt lat="45.9740505740" lon="7.2049573995"><ele>1490.18</ele><time>2014-09-03T09:28:08Z</time></trkpt><trkpt lat="45.9740420245" lon="7.2049798630"><ele>1490.18</ele><time>2014-09-03T09:28:09Z</time></trkpt><trkpt lat="45.9740355704" lon="7.2050060984"><ele>1490.18</ele><time>2014-09-03T09:28:10Z</time></trkpt><trkpt lat="45.9740304574" lon="7.2050348483"><ele>1490.18</ele><time>2014-09-03T09:28:11Z</time></trkpt><trkpt lat="45.9740235843" lon="7.2050624248"><ele>1490.18</ele><time>2014-09-03T09:28:12Z</time></trkpt><trkpt lat="45.9739168826" lon="7.2054593079"><ele>1492.10</ele><time>2014-09-03T09:28:25Z</time></trkpt><trkpt lat="45.9738042299" lon="7.2059450392"><ele>1494.99</ele><time>2014-09-03T09:28:41Z</time></trkpt><trkpt lat="45.9736879729" lon="7.2063319478"><ele>1496.91</ele><time>2014-09-03T09:28:54Z</time></trkpt><trkpt lat="45.9735230170" lon="7.2067181021"><ele>1498.83</ele><time>2014-09-03T09:29:08Z</time></trkpt><trkpt lat="45.9732865635" lon="7.2071054298"><ele>1499.79</ele><time>2014-09-03T09:29:23Z</time></trkpt><trkpt lat="45.9730403870" lon="7.2073933482"><ele>1503.16</ele><time>2014-09-03T09:29:36Z</time></trkpt><trkpt lat="45.9730242938" lon="7.2074117884"><ele>1503.64</ele><time>2014-09-03T09:29:37Z</time></trkpt><trkpt lat="45.9727367107" lon="7.2076137923"><ele>1505.08</ele><time>2014-09-03T09:29:52Z</time></trkpt><trkpt lat="45.9724190366" lon="7.2077566199"><ele>1508.45</ele><time>2014-09-03T09:30:08Z</time></trkpt><trkpt lat="45.9721643943" lon="7.2078649141"><ele>1508.93</ele><time>2014-09-03T09:30:22Z</time></trkpt><trkpt lat="45.9720873646" lon="7.2078829352"><ele>1510.85</ele><time>2014-09-03T09:30:35Z</time></trkpt><trkpt lat="45.9720969200" lon="7.2078771517"><ele>1509.41</ele><time>2014-09-03T09:31:06Z</time></trkpt><trkpt lat="45.9720985126" lon="7.2078996990"><ele>1513.25</ele><time>2014-09-03T09:31:46Z</time></trkpt><trkpt lat="45.9720869455" lon="7.2078602202"><ele>1512.29</ele><time>2014-09-03T09:32:19Z</time></trkpt><trkpt lat="45.9720871970" lon="7.2078857850"><ele>1513.73</ele><time>2014-09-03T09:32:45Z</time></trkpt><trkpt lat="45.9719956666" lon="7.2079367470"><ele>1512.77</ele><time>2014-09-03T09:33:06Z</time></trkpt><trkpt lat="45.9716324788" lon="7.2081736196"><ele>1515.18</ele><time>2014-09-03T09:33:24Z</time></trkpt><trkpt lat="45.9713452309" lon="7.2083837539"><ele>1519.02</ele><time>2014-09-03T09:33:39Z</time></trkpt><trkpt lat="45.9710299876" lon="7.2085750289"><ele>1521.90</ele><time>2014-09-03T09:33:55Z</time></trkpt><trkpt lat="45.9707033448" lon="7.2087080497"><ele>1523.83</ele><time>2014-09-03T09:34:11Z</time></trkpt><trkpt lat="45.9704175219" lon="7.2087881807"><ele>1524.31</ele><time>2014-09-03T09:34:26Z</time></trkpt><trkpt lat="45.9701943956" lon="7.2088119853"><ele>1526.23</ele><time>2014-09-03T09:34:40Z</time></trkpt><trkpt lat="45.9699262585" lon="7.2088135779"><ele>1528.15</ele><time>2014-09-03T09:34:57Z</time></trkpt><trkpt lat="45.9699106682" lon="7.2088088840"><ele>1528.63</ele><time>2014-09-03T09:34:58Z</time></trkpt><trkpt lat="45.9698950779" lon="7.2088079620"><ele>1528.15</ele><time>2014-09-03T09:34:59Z</time></trkpt><trkpt lat="45.9698779788" lon="7.2088093869"><ele>1528.15</ele><time>2014-09-03T09:35:00Z</time></trkpt><trkpt lat="45.9698623884" lon="7.2088060342"><ele>1528.63</ele><time>2014-09-03T09:35:01Z</time></trkpt><trkpt lat="45.9698485583" lon="7.2088072076"><ele>1529.11</ele><time>2014-09-03T09:35:02Z</time></trkpt><trkpt lat="45.9696888831" lon="7.2087502945"><ele>1530.56</ele><time>2014-09-03T09:35:11Z</time></trkpt><trkpt lat="45.9694805928" lon="7.2086932138"><ele>1532.96</ele><time>2014-09-03T09:35:27Z</time></trkpt><trkpt lat="45.9694766533" lon="7.2086730972"><ele>1534.40</ele><time>2014-09-03T09:35:50Z</time></trkpt><trkpt lat="45.9694562014" lon="7.2086580936"><ele>1533.92</ele><time>2014-09-03T09:35:52Z</time></trkpt><trkpt lat="45.9692361765" lon="7.2086349595"><ele>1534.40</ele><time>2014-09-03T09:36:06Z</time></trkpt><trkpt lat="45.9690213483" lon="7.2085637972"><ele>1535.36</ele><time>2014-09-03T09:36:19Z</time></trkpt><trkpt lat="45.9687359445" lon="7.2084487975"><ele>1538.25</ele><time>2014-09-03T09:36:36Z</time></trkpt><trkpt lat="45.9684989043" lon="7.2084127553"><ele>1540.17</ele><time>2014-09-03T09:36:50Z</time></trkpt><trkpt lat="45.9683741815" lon="7.2083837539"><ele>1540.65</ele><time>2014-09-03T09:36:58Z</time></trkpt><trkpt lat="45.9683564957" lon="7.2083856817"><ele>1540.65</ele><time>2014-09-03T09:36:59Z</time></trkpt><trkpt lat="45.9683405701" lon="7.2083818261"><ele>1540.65</ele><time>2014-09-03T09:37:00Z</time></trkpt><trkpt lat="45.9680704214" lon="7.2083750367"><ele>1541.61</ele><time>2014-09-03T09:37:16Z</time></trkpt><trkpt lat="45.9678053856" lon="7.2084176168"><ele>1542.57</ele><time>2014-09-03T09:37:32Z</time></trkpt><trkpt lat="45.9675217420" lon="7.2085113265"><ele>1543.53</ele><time>2014-09-03T09:37:49Z</time></trkpt><trkpt lat="45.9672570415" lon="7.2085980792"><ele>1545.94</ele><time>2014-09-03T09:38:05Z</time></trkpt><trkpt lat="45.9670248628" lon="7.2087250650"><ele>1548.34</ele><time>2014-09-03T09:38:19Z</time></trkpt><trkpt lat="45.9667677898" lon="7.2088987380"><ele>1550.26</ele><time>2014-09-03T09:38:36Z</time></trkpt><trkpt lat="45.9667530376" lon="7.2089027613"><ele>1550.74</ele><time>2014-09-03T09:38:37Z</time></trkpt><trkpt lat="45.9667385370" lon="7.2089143284"><ele>1550.74</ele><time>2014-09-03T09:38:38Z</time></trkpt><trkpt lat="45.9667247906" lon="7.2089300025"><ele>1550.74</ele><time>2014-09-03T09:38:39Z</time></trkpt><trkpt lat="45.9665206075" lon="7.2090875823"><ele>1552.19</ele><time>2014-09-03T09:38:53Z</time></trkpt><trkpt lat="45.9665059391" lon="7.2090957966"><ele>1552.67</ele><time>2014-09-03T09:38:54Z</time></trkpt><trkpt lat="45.9664900135" lon="7.2091061901"><ele>1553.15</ele><time>2014-09-03T09:38:55Z</time></trkpt><trkpt lat="45.9664757643" lon="7.2091160808"><ele>1553.15</ele><time>2014-09-03T09:38:56Z</time></trkpt><trkpt lat="45.9664615989" lon="7.2091266420"><ele>1553.63</ele><time>2014-09-03T09:38:57Z</time></trkpt><trkpt lat="45.9664494451" lon="7.2091394663"><ele>1553.63</ele><time>2014-09-03T09:38:58Z</time></trkpt><trkpt lat="45.9664345253" lon="7.2091514524"><ele>1554.11</ele><time>2014-09-03T09:38:59Z</time></trkpt><trkpt lat="45.9661974013" lon="7.2092980519"><ele>1554.11</ele><time>2014-09-03T09:39:14Z</time></trkpt><trkpt lat="45.9661538992" lon="7.2093195934"><ele>1554.59</ele><time>2014-09-03T09:39:17Z</time></trkpt><trkpt lat="45.9661399014" lon="7.2093301546"><ele>1554.59</ele><time>2014-09-03T09:39:18Z</time></trkpt><trkpt lat="45.9661101457" lon="7.2093444876"><ele>1554.59</ele><time>2014-09-03T09:39:20Z</time></trkpt><trkpt lat="45.9660944715" lon="7.2093503550"><ele>1554.59</ele><time>2014-09-03T09:39:21Z</time></trkpt><trkpt lat="45.9658166114" lon="7.2094179131"><ele>1556.51</ele><time>2014-09-03T09:39:38Z</time></trkpt><trkpt lat="45.9655376617" lon="7.2094376106"><ele>1557.47</ele><time>2014-09-03T09:39:55Z</time></trkpt><trkpt lat="45.9652940836" lon="7.2094220202"><ele>1559.88</ele><time>2014-09-03T09:40:10Z</time></trkpt><trkpt lat="45.9650637489" lon="7.2093951143"><ele>1562.28</ele><time>2014-09-03T09:40:24Z</time></trkpt><trkpt lat="45.9649205860" lon="7.2094014846"><ele>1562.76</ele><time>2014-09-03T09:40:33Z</time></trkpt><trkpt lat="45.9648837056" lon="7.2094258759"><ele>1563.24</ele><time>2014-09-03T09:40:36Z</time></trkpt><trkpt lat="45.9648713004" lon="7.2094343416"><ele>1563.72</ele><time>2014-09-03T09:40:37Z</time></trkpt><trkpt lat="45.9648568835" lon="7.2094374429"><ele>1563.72</ele><time>2014-09-03T09:40:38Z</time></trkpt><trkpt lat="45.9648062568" lon="7.2094488423"><ele>1564.20</ele><time>2014-09-03T09:40:48Z</time></trkpt><trkpt lat="45.9648329113" lon="7.2094682883"><ele>1564.20</ele><time>2014-09-03T09:41:17Z</time></trkpt><trkpt lat="45.9648227692" lon="7.2094536200"><ele>1563.72</ele><time>2014-09-03T09:41:44Z</time></trkpt><trkpt lat="45.9648083523" lon="7.2094542906"><ele>1565.64</ele><time>2014-09-03T09:42:15Z</time></trkpt><trkpt lat="45.9648162313" lon="7.2094778437"><ele>1566.12</ele><time>2014-09-03T09:42:45Z</time></trkpt><trkpt lat="45.9648314863" lon="7.2094521113"><ele>1562.76</ele><time>2014-09-03T09:43:16Z</time></trkpt><trkpt lat="45.9648264572" lon="7.2094298154"><ele>1558.92</ele><time>2014-09-03T09:43:49Z</time></trkpt><trkpt lat="45.9648486692" lon="7.2094330844"><ele>1557.95</ele><time>2014-09-03T09:44:30Z</time></trkpt><trkpt lat="45.9648402873" lon="7.2094495129"><ele>1556.99</ele><time>2014-09-03T09:45:10Z</time></trkpt><trkpt lat="45.9648279659" lon="7.2094474174"><ele>1559.88</ele><time>2014-09-03T09:45:45Z</time></trkpt><trkpt lat="45.9648140520" lon="7.2094516084"><ele>1560.84</ele><time>2014-09-03T09:46:29Z</time></trkpt><trkpt lat="45.9647856373" lon="7.2094812803"><ele>1560.84</ele><time>2014-09-03T09:46:38Z</time></trkpt><trkpt lat="45.9647791833" lon="7.2094891593"><ele>1560.84</ele><time>2014-09-03T09:46:39Z</time></trkpt><trkpt lat="45.9647677001" lon="7.2094964515"><ele>1561.32</ele><time>2014-09-03T09:46:40Z</time></trkpt><trkpt lat="45.9647515230" lon="7.2094986308"><ele>1560.84</ele><time>2014-09-03T09:46:41Z</time></trkpt><trkpt lat="45.9647396207" lon="7.2094987985"><ele>1560.84</ele><time>2014-09-03T09:46:42Z</time></trkpt><trkpt lat="45.9647231083" lon="7.2094917577"><ele>1560.84</ele><time>2014-09-03T09:46:43Z</time></trkpt><trkpt lat="45.9647102840" lon="7.2094893269"><ele>1560.84</ele><time>2014-09-03T09:46:44Z</time></trkpt><trkpt lat="45.9646924306" lon="7.2094894107"><ele>1560.84</ele><time>2014-09-03T09:46:45Z</time></trkpt><trkpt lat="45.9646756668" lon="7.2094847169"><ele>1561.32</ele><time>2014-09-03T09:46:46Z</time></trkpt><trkpt lat="45.9646589030" lon="7.2094797716"><ele>1561.32</ele><time>2014-09-03T09:46:47Z</time></trkpt><trkpt lat="45.9646412171" lon="7.2094774246"><ele>1561.32</ele><time>2014-09-03T09:46:48Z</time></trkpt><trkpt lat="45.9646232799" lon="7.2094715573"><ele>1561.32</ele><time>2014-09-03T09:46:49Z</time></trkpt><trkpt lat="45.9646036662" lon="7.2094702162"><ele>1561.32</ele><time>2014-09-03T09:46:50Z</time></trkpt><trkpt lat="45.9645874053" lon="7.2094681207"><ele>1561.32</ele><time>2014-09-03T09:46:51Z</time></trkpt><trkpt lat="45.9645707253" lon="7.2094641812"><ele>1561.32</ele><time>2014-09-03T09:46:52Z</time></trkpt><trkpt lat="45.9645548835" lon="7.2094646003"><ele>1561.80</ele><time>2014-09-03T09:46:53Z</time></trkpt><trkpt lat="45.9643083718" lon="7.2094314080"><ele>1562.28</ele><time>2014-09-03T09:47:07Z</time></trkpt><trkpt lat="45.9639989957" lon="7.2094090283"><ele>1563.72</ele><time>2014-09-03T09:47:25Z</time></trkpt><trkpt lat="45.9637211356" lon="7.2094304860"><ele>1565.16</ele><time>2014-09-03T09:47:41Z</time></trkpt><trkpt lat="45.9634589497" lon="7.2094551288"><ele>1567.09</ele><time>2014-09-03T09:47:56Z</time></trkpt><trkpt lat="45.9634424374" lon="7.2094585653"><ele>1567.09</ele><time>2014-09-03T09:47:57Z</time></trkpt><trkpt lat="45.9634232428" lon="7.2094594035"><ele>1567.09</ele><time>2014-09-03T09:47:58Z</time></trkpt><trkpt lat="45.9634053893" lon="7.2094633430"><ele>1567.57</ele><time>2014-09-03T09:47:59Z</time></trkpt><trkpt lat="45.9633839317" lon="7.2094701324"><ele>1568.05</ele><time>2014-09-03T09:48:00Z</time></trkpt><trkpt lat="45.9633613005" lon="7.2094729822"><ele>1568.53</ele><time>2014-09-03T09:48:01Z</time></trkpt><trkpt lat="45.9630022198" lon="7.2095285542"><ele>1571.41</ele><time>2014-09-03T09:48:19Z</time></trkpt><trkpt lat="45.9627432190" lon="7.2095716372"><ele>1574.30</ele><time>2014-09-03T09:48:34Z</time></trkpt><trkpt lat="45.9626210947" lon="7.2095661890"><ele>1574.30</ele><time>2014-09-03T09:48:42Z</time></trkpt><trkpt lat="45.9626064263" lon="7.2095699608"><ele>1574.78</ele><time>2014-09-03T09:48:43Z</time></trkpt><trkpt lat="45.9625915904" lon="7.2095726430"><ele>1574.78</ele><time>2014-09-03T09:48:44Z</time></trkpt><trkpt lat="45.9625768382" lon="7.2095757443"><ele>1574.78</ele><time>2014-09-03T09:48:45Z</time></trkpt><trkpt lat="45.9625623375" lon="7.2095767502"><ele>1575.26</ele><time>2014-09-03T09:48:46Z</time></trkpt><trkpt lat="45.9625478368" lon="7.2095708828"><ele>1575.26</ele><time>2014-09-03T09:48:47Z</time></trkpt><trkpt lat="45.9625329170" lon="7.2095678654"><ele>1575.74</ele><time>2014-09-03T09:48:48Z</time></trkpt><trkpt lat="45.9625154827" lon="7.2095638420"><ele>1575.74</ele><time>2014-09-03T09:48:49Z</time></trkpt><trkpt lat="45.9625017364" lon="7.2095601540"><ele>1575.74</ele><time>2014-09-03T09:48:50Z</time></trkpt><trkpt lat="45.9624848887" lon="7.2095571365"><ele>1575.74</ele><time>2014-09-03T09:48:51Z</time></trkpt><trkpt lat="45.9624676220" lon="7.2095554601"><ele>1575.74</ele><time>2014-09-03T09:48:52Z</time></trkpt><trkpt lat="45.9622249659" lon="7.2095302306"><ele>1577.18</ele><time>2014-09-03T09:49:07Z</time></trkpt><trkpt lat="45.9619559906" lon="7.2094409633"><ele>1577.66</ele><time>2014-09-03T09:49:23Z</time></trkpt><trkpt lat="45.9616870992" lon="7.2093250416"><ele>1579.58</ele><time>2014-09-03T09:49:40Z</time></trkpt><trkpt lat="45.9613867756" lon="7.2091879137"><ele>1581.03</ele><time>2014-09-03T09:50:00Z</time></trkpt><trkpt lat="45.9613452014" lon="7.2091475967"><ele>1582.47</ele><time>2014-09-03T09:50:12Z</time></trkpt><trkpt lat="45.9613448661" lon="7.2091583256"><ele>1583.43</ele><time>2014-09-03T09:50:37Z</time></trkpt><trkpt lat="45.9613161162" lon="7.2091549728"><ele>1582.95</ele><time>2014-09-03T09:50:43Z</time></trkpt><trkpt lat="45.9612930659" lon="7.2091538832"><ele>1583.43</ele><time>2014-09-03T09:50:45Z</time></trkpt><trkpt lat="45.9612313751" lon="7.2091282345"><ele>1583.43</ele><time>2014-09-03T09:50:49Z</time></trkpt><trkpt lat="45.9612162039" lon="7.2091184277"><ele>1583.43</ele><time>2014-09-03T09:50:50Z</time></trkpt><trkpt lat="45.9611998592" lon="7.2091070283"><ele>1583.91</ele><time>2014-09-03T09:50:51Z</time></trkpt><trkpt lat="45.9611836821" lon="7.2090974730"><ele>1583.91</ele><time>2014-09-03T09:50:52Z</time></trkpt><trkpt lat="45.9611652419" lon="7.2090890910"><ele>1583.91</ele><time>2014-09-03T09:50:53Z</time></trkpt><trkpt lat="45.9611490648" lon="7.2090766020"><ele>1583.91</ele><time>2014-09-03T09:50:54Z</time></trkpt><trkpt lat="45.9611342289" lon="7.2090646159"><ele>1583.91</ele><time>2014-09-03T09:50:55Z</time></trkpt><trkpt lat="45.9611144476" lon="7.2090549767"><ele>1583.91</ele><time>2014-09-03T09:50:56Z</time></trkpt><trkpt lat="45.9610986058" lon="7.2090517078"><ele>1583.91</ele><time>2014-09-03T09:50:57Z</time></trkpt><trkpt lat="45.9610832669" lon="7.2090448346"><ele>1583.91</ele><time>2014-09-03T09:50:58Z</time></trkpt><trkpt lat="45.9610654134" lon="7.2090389673"><ele>1583.91</ele><time>2014-09-03T09:50:59Z</time></trkpt><trkpt lat="45.9610512480" lon="7.2090327647"><ele>1583.91</ele><time>2014-09-03T09:51:00Z</time></trkpt><trkpt lat="45.9610337298" lon="7.2090244666"><ele>1583.91</ele><time>2014-09-03T09:51:01Z</time></trkpt><trkpt lat="45.9610178042" lon="7.2090154141"><ele>1583.91</ele><time>2014-09-03T09:51:02Z</time></trkpt><trkpt lat="45.9610007890" lon="7.2090113070"><ele>1583.91</ele><time>2014-09-03T09:51:03Z</time></trkpt><trkpt lat="45.9609834384" lon="7.2090044338"><ele>1583.91</ele><time>2014-09-03T09:51:04Z</time></trkpt><trkpt lat="45.9609680157" lon="7.2090001591"><ele>1583.91</ele><time>2014-09-03T09:51:05Z</time></trkpt><trkpt lat="45.9606029000" lon="7.2088620253"><ele>1588.24</ele><time>2014-09-03T09:51:24Z</time></trkpt><trkpt lat="45.9602560569" lon="7.2087638732"><ele>1593.04</ele><time>2014-09-03T09:51:43Z</time></trkpt><trkpt lat="45.9602379519" lon="7.2087593470"><ele>1593.04</ele><time>2014-09-03T09:51:44Z</time></trkpt><trkpt lat="45.9602187574" lon="7.2087572515"><ele>1593.52</ele><time>2014-09-03T09:51:45Z</time></trkpt><trkpt lat="45.9598624427" lon="7.2086822335"><ele>1594.48</ele><time>2014-09-03T09:52:04Z</time></trkpt><trkpt lat="45.9595544077" lon="7.2086385638"><ele>1594.00</ele><time>2014-09-03T09:52:21Z</time></trkpt><trkpt lat="45.9592873603" lon="7.2086272482"><ele>1595.45</ele><time>2014-09-03T09:52:36Z</time></trkpt><trkpt lat="45.9589996934" lon="7.2086269967"><ele>1595.93</ele><time>2014-09-03T09:52:52Z</time></trkpt><trkpt lat="45.9589824267" lon="7.2086254880"><ele>1595.93</ele><time>2014-09-03T09:52:53Z</time></trkpt><trkpt lat="45.9587053210" lon="7.2086480353"><ele>1597.37</ele><time>2014-09-03T09:53:08Z</time></trkpt><trkpt lat="45.9585025627" lon="7.2086687386"><ele>1599.29</ele><time>2014-09-03T09:53:20Z</time></trkpt><trkpt lat="45.9584837034" lon="7.2086673975"><ele>1599.29</ele><time>2014-09-03T09:53:21Z</time></trkpt><trkpt lat="45.9584650118" lon="7.2086709179"><ele>1599.29</ele><time>2014-09-03T09:53:22Z</time></trkpt><trkpt lat="45.9584470745" lon="7.2086748574"><ele>1599.29</ele><time>2014-09-03T09:53:23Z</time></trkpt><trkpt lat="45.9584282152" lon="7.2086817306"><ele>1599.29</ele><time>2014-09-03T09:53:24Z</time></trkpt><trkpt lat="45.9584087692" lon="7.2086889390"><ele>1599.29</ele><time>2014-09-03T09:53:25Z</time></trkpt><trkpt lat="45.9583900776" lon="7.2086907830"><ele>1599.77</ele><time>2014-09-03T09:53:26Z</time></trkpt><trkpt lat="45.9580958728" lon="7.2087733448"><ele>1601.69</ele><time>2014-09-03T09:53:42Z</time></trkpt><trkpt lat="45.9577731695" lon="7.2088718321"><ele>1607.94</ele><time>2014-09-03T09:53:58Z</time></trkpt><trkpt lat="45.9574839100" lon="7.2089734208"><ele>1609.38</ele><time>2014-09-03T09:54:14Z</time></trkpt><trkpt lat="45.9574435931" lon="7.2089879215"><ele>1609.38</ele><time>2014-09-03T09:54:16Z</time></trkpt><trkpt lat="45.9574233927" lon="7.2089880053"><ele>1609.38</ele><time>2014-09-03T09:54:17Z</time></trkpt><trkpt lat="45.9574026894" lon="7.2089934535"><ele>1609.38</ele><time>2014-09-03T09:54:18Z</time></trkpt><trkpt lat="45.9573839977" lon="7.2089979798"><ele>1609.38</ele><time>2014-09-03T09:54:19Z</time></trkpt><trkpt lat="45.9573664796" lon="7.2090080380"><ele>1609.38</ele><time>2014-09-03T09:54:20Z</time></trkpt><trkpt lat="45.9571177047" lon="7.2091273963"><ele>1611.31</ele><time>2014-09-03T09:54:34Z</time></trkpt><trkpt lat="45.9568210691" lon="7.2092780191"><ele>1612.27</ele><time>2014-09-03T09:54:50Z</time></trkpt><trkpt lat="45.9565432929" lon="7.2093880735"><ele>1612.27</ele><time>2014-09-03T09:55:07Z</time></trkpt><trkpt lat="45.9564603120" lon="7.2094216850"><ele>1612.27</ele><time>2014-09-03T09:55:13Z</time></trkpt><trkpt lat="45.9564489964" lon="7.2094208468"><ele>1612.75</ele><time>2014-09-03T09:55:14Z</time></trkpt><trkpt lat="45.9564425424" lon="7.2094120458"><ele>1612.75</ele><time>2014-09-03T09:55:15Z</time></trkpt><trkpt lat="45.9564471524" lon="7.2093257122"><ele>1614.19</ele><time>2014-09-03T09:55:25Z</time></trkpt><trkpt lat="45.9564389382" lon="7.2093371954"><ele>1614.19</ele><time>2014-09-03T09:55:44Z</time></trkpt><trkpt lat="45.9564644191" lon="7.2093907557"><ele>1614.19</ele><time>2014-09-03T09:56:15Z</time></trkpt><trkpt lat="45.9564899839" lon="7.2093270533"><ele>1613.23</ele><time>2014-09-03T09:56:48Z</time></trkpt><trkpt lat="45.9565164708" lon="7.2093519475"><ele>1613.23</ele><time>2014-09-03T09:57:32Z</time></trkpt><trkpt lat="45.9564721305" lon="7.2093308251"><ele>1615.63</ele><time>2014-09-03T09:58:02Z</time></trkpt><trkpt lat="45.9564511757" lon="7.2093661968"><ele>1621.40</ele><time>2014-09-03T09:58:39Z</time></trkpt><trkpt lat="45.9564468171" lon="7.2093817033"><ele>1619.96</ele><time>2014-09-03T09:58:51Z</time></trkpt><trkpt lat="45.9563631658" lon="7.2094303183"><ele>1619.96</ele><time>2014-09-03T09:58:57Z</time></trkpt><trkpt lat="45.9561730642" lon="7.2095196694"><ele>1619.96</ele><time>2014-09-03T09:59:07Z</time></trkpt><trkpt lat="45.9561415482" lon="7.2096103616"><ele>1620.44</ele><time>2014-09-03T09:59:11Z</time></trkpt><trkpt lat="45.9561386146" lon="7.2097966913"><ele>1621.40</ele><time>2014-09-03T09:59:23Z</time></trkpt><trkpt lat="45.9561559651" lon="7.2098504193"><ele>1620.92</ele><time>2014-09-03T09:59:29Z</time></trkpt><trkpt lat="45.9561866429" lon="7.2098638304"><ele>1621.88</ele><time>2014-09-03T09:59:40Z</time></trkpt><trkpt lat="45.9561762493" lon="7.2098561190"><ele>1620.92</ele><time>2014-09-03T10:00:00Z</time></trkpt><trkpt lat="45.9561550431" lon="7.2098460607"><ele>1618.04</ele><time>2014-09-03T10:00:37Z</time></trkpt><trkpt lat="45.9561613295" lon="7.2098769061"><ele>1619.00</ele><time>2014-09-03T10:00:57Z</time></trkpt><trkpt lat="45.9561692923" lon="7.2098918259"><ele>1619.00</ele><time>2014-09-03T10:01:19Z</time></trkpt><trkpt lat="45.9561779257" lon="7.2099142056"><ele>1619.96</ele><time>2014-09-03T10:01:52Z</time></trkpt><trkpt lat="45.9561656043" lon="7.2098377626"><ele>1619.96</ele><time>2014-09-03T10:02:23Z</time></trkpt><trkpt lat="45.9561557975" lon="7.2098339908"><ele>1619.48</ele><time>2014-09-03T10:02:45Z</time></trkpt><trkpt lat="45.9561321605" lon="7.2098306380"><ele>1620.44</ele><time>2014-09-03T10:03:13Z</time></trkpt><trkpt lat="45.9561487567" lon="7.2098597232"><ele>1621.40</ele><time>2014-09-03T10:03:33Z</time></trkpt><trkpt lat="45.9561704658" lon="7.2098646685"><ele>1622.36</ele><time>2014-09-03T10:03:55Z</time></trkpt><trkpt lat="45.9561826196" lon="7.2098626569"><ele>1624.77</ele><time>2014-09-03T10:04:20Z</time></trkpt><trkpt lat="45.9561489243" lon="7.2098707035"><ele>1622.84</ele><time>2014-09-03T10:04:48Z</time></trkpt><trkpt lat="45.9561530314" lon="7.2098622378"><ele>1619.96</ele><time>2014-09-03T10:05:21Z</time></trkpt><trkpt lat="45.9561435599" lon="7.2098354157"><ele>1619.96</ele><time>2014-09-03T10:05:40Z</time></trkpt><trkpt lat="45.9561394528" lon="7.2098215017"><ele>1619.96</ele><time>2014-09-03T10:05:41Z</time></trkpt><trkpt lat="45.9561377764" lon="7.2098059114"><ele>1620.44</ele><time>2014-09-03T10:05:42Z</time></trkpt><trkpt lat="45.9561358485" lon="7.2097882256"><ele>1620.44</ele><time>2014-09-03T10:05:43Z</time></trkpt><trkpt lat="45.9561346751" lon="7.2097681928"><ele>1620.44</ele><time>2014-09-03T10:05:44Z</time></trkpt><trkpt lat="45.9561369382" lon="7.2097521834"><ele>1619.96</ele><time>2014-09-03T10:05:45Z</time></trkpt><trkpt lat="45.9560945258" lon="7.2097125370"><ele>1619.96</ele><time>2014-09-03T10:05:55Z</time></trkpt><trkpt lat="45.9559877403" lon="7.2098450549"><ele>1619.96</ele><time>2014-09-03T10:06:05Z</time></trkpt><trkpt lat="45.9559449088" lon="7.2098497488"><ele>1620.44</ele><time>2014-09-03T10:06:08Z</time></trkpt><trkpt lat="45.9558776021" lon="7.2098025586"><ele>1620.92</ele><time>2014-09-03T10:06:15Z</time></trkpt><trkpt lat="45.9558506124" lon="7.2097617388"><ele>1621.40</ele><time>2014-09-03T10:06:20Z</time></trkpt><trkpt lat="45.9557951242" lon="7.2097128723"><ele>1621.40</ele><time>2014-09-03T10:06:24Z</time></trkpt><trkpt lat="45.9557700623" lon="7.2096935101"><ele>1621.40</ele><time>2014-09-03T10:06:25Z</time></trkpt><trkpt lat="45.9557542205" lon="7.2096909955"><ele>1620.92</ele><time>2014-09-03T10:06:26Z</time></trkpt><trkpt lat="45.9557345230" lon="7.2096937615"><ele>1621.40</ele><time>2014-09-03T10:06:27Z</time></trkpt><trkpt lat="45.9554968961" lon="7.2097224277"><ele>1622.84</ele><time>2014-09-03T10:06:39Z</time></trkpt><trkpt lat="45.9551658109" lon="7.2097717132"><ele>1623.32</ele><time>2014-09-03T10:06:55Z</time></trkpt><trkpt lat="45.9548379947" lon="7.2097899020"><ele>1623.80</ele><time>2014-09-03T10:07:10Z</time></trkpt><trkpt lat="45.9545099270" lon="7.2097630799"><ele>1626.21</ele><time>2014-09-03T10:07:25Z</time></trkpt><trkpt lat="45.9542458970" lon="7.2097297199"><ele>1626.69</ele><time>2014-09-03T10:07:38Z</time></trkpt><trkpt lat="45.9539295640" lon="7.2096511815"><ele>1627.17</ele><time>2014-09-03T10:07:53Z</time></trkpt><trkpt lat="45.9536237083" lon="7.2095696256"><ele>1628.61</ele><time>2014-09-03T10:08:08Z</time></trkpt><trkpt lat="45.9533030167" lon="7.2094653547"><ele>1631.49</ele><time>2014-09-03T10:08:24Z</time></trkpt><trkpt lat="45.9529777989" lon="7.2093801945"><ele>1634.86</ele><time>2014-09-03T10:08:40Z</time></trkpt><trkpt lat="45.9526834264" lon="7.2093068529"><ele>1637.26</ele><time>2014-09-03T10:08:55Z</time></trkpt><trkpt lat="45.9523196518" lon="7.2092461679"><ele>1638.22</ele><time>2014-09-03T10:09:13Z</time></trkpt><trkpt lat="45.9520358406" lon="7.2092168313"><ele>1639.67</ele><time>2014-09-03T10:09:28Z</time></trkpt><trkpt lat="45.9517456591" lon="7.2092026658"><ele>1642.07</ele><time>2014-09-03T10:09:42Z</time></trkpt><trkpt lat="45.9514393844" lon="7.2092199326"><ele>1643.51</ele><time>2014-09-03T10:09:58Z</time></trkpt><trkpt lat="45.9511761088" lon="7.2092462517"><ele>1646.88</ele><time>2014-09-03T10:10:11Z</time></trkpt><trkpt lat="45.9508255776" lon="7.2092968784"><ele>1650.72</ele><time>2014-09-03T10:10:29Z</time></trkpt><trkpt lat="45.9505683370" lon="7.2093525343"><ele>1651.68</ele><time>2014-09-03T10:10:42Z</time></trkpt><trkpt lat="45.9503165446" lon="7.2093647718"><ele>1652.64</ele><time>2014-09-03T10:10:56Z</time></trkpt><trkpt lat="45.9500921611" lon="7.2093915939"><ele>1653.60</ele><time>2014-09-03T10:11:11Z</time></trkpt><trkpt lat="45.9500792529" lon="7.2093868162"><ele>1653.60</ele><time>2014-09-03T10:11:12Z</time></trkpt><trkpt lat="45.9500684403" lon="7.2093838826"><ele>1653.60</ele><time>2014-09-03T10:11:13Z</time></trkpt><trkpt lat="45.9500577953" lon="7.2093803622"><ele>1653.60</ele><time>2014-09-03T10:11:14Z</time></trkpt><trkpt lat="45.9500462282" lon="7.2093769256"><ele>1653.60</ele><time>2014-09-03T10:11:15Z</time></trkpt><trkpt lat="45.9500340745" lon="7.2093708068"><ele>1653.60</ele><time>2014-09-03T10:11:16Z</time></trkpt><trkpt lat="45.9500220045" lon="7.2093635146"><ele>1653.60</ele><time>2014-09-03T10:11:17Z</time></trkpt><trkpt lat="45.9500111919" lon="7.2093561385"><ele>1653.12</ele><time>2014-09-03T10:11:18Z</time></trkpt><trkpt lat="45.9499552008" lon="7.2093143966"><ele>1651.68</ele><time>2014-09-03T10:11:32Z</time></trkpt><trkpt lat="45.9499676898" lon="7.2093600780"><ele>1648.80</ele><time>2014-09-03T10:11:48Z</time></trkpt><trkpt lat="45.9499702044" lon="7.2093903366"><ele>1643.51</ele><time>2014-09-03T10:12:27Z</time></trkpt><trkpt lat="45.9499609843" lon="7.2093708068"><ele>1649.28</ele><time>2014-09-03T10:12:52Z</time></trkpt><trkpt lat="45.9497730620" lon="7.2095189150"><ele>1654.57</ele><time>2014-09-03T10:13:03Z</time></trkpt><trkpt lat="45.9494620096" lon="7.2096626647"><ele>1657.45</ele><time>2014-09-03T10:13:17Z</time></trkpt><trkpt lat="45.9490695689" lon="7.2097193263"><ele>1662.26</ele><time>2014-09-03T10:13:34Z</time></trkpt><trkpt lat="45.9487330355" lon="7.2096920013"><ele>1665.14</ele><time>2014-09-03T10:13:50Z</time></trkpt><trkpt lat="45.9484941512" lon="7.2096676938"><ele>1665.14</ele><time>2014-09-03T10:14:04Z</time></trkpt><trkpt lat="45.9484520741" lon="7.2096571326"><ele>1665.62</ele><time>2014-09-03T10:14:07Z</time></trkpt><trkpt lat="45.9484395012" lon="7.2096548695"><ele>1666.10</ele><time>2014-09-03T10:14:08Z</time></trkpt><trkpt lat="45.9484233242" lon="7.2096500080"><ele>1666.10</ele><time>2014-09-03T10:14:09Z</time></trkpt><trkpt lat="45.9484094102" lon="7.2096450627"><ele>1666.10</ele><time>2014-09-03T10:14:10Z</time></trkpt><trkpt lat="45.9483956639" lon="7.2096418776"><ele>1666.10</ele><time>2014-09-03T10:14:11Z</time></trkpt><trkpt lat="45.9483820852" lon="7.2096367646"><ele>1666.10</ele><time>2014-09-03T10:14:12Z</time></trkpt><trkpt lat="45.9482799936" lon="7.2095961124"><ele>1668.02</ele><time>2014-09-03T10:14:19Z</time></trkpt><trkpt lat="45.9482662473" lon="7.2095883172"><ele>1668.02</ele><time>2014-09-03T10:14:20Z</time></trkpt><trkpt lat="45.9482510760" lon="7.2095846292"><ele>1668.51</ele><time>2014-09-03T10:14:21Z</time></trkpt><trkpt lat="45.9482357372" lon="7.2095811926"><ele>1668.99</ele><time>2014-09-03T10:14:22Z</time></trkpt><trkpt lat="45.9482203145" lon="7.2095809411"><ele>1668.99</ele><time>2014-09-03T10:14:23Z</time></trkpt><trkpt lat="45.9482025448" lon="7.2095824499"><ele>1669.47</ele><time>2014-09-03T10:14:24Z</time></trkpt><trkpt lat="45.9481856134" lon="7.2095852159"><ele>1669.95</ele><time>2014-09-03T10:14:25Z</time></trkpt><trkpt lat="45.9481701069" lon="7.2095843777"><ele>1669.95</ele><time>2014-09-03T10:14:26Z</time></trkpt><trkpt lat="45.9481537621" lon="7.2095857188"><ele>1670.43</ele><time>2014-09-03T10:14:27Z</time></trkpt><trkpt lat="45.9481377527" lon="7.2095888201"><ele>1670.43</ele><time>2014-09-03T10:14:28Z</time></trkpt><trkpt lat="45.9481219109" lon="7.2095904127"><ele>1670.91</ele><time>2014-09-03T10:14:29Z</time></trkpt><trkpt lat="45.9481048957" lon="7.2095907480"><ele>1671.39</ele><time>2014-09-03T10:14:30Z</time></trkpt><trkpt lat="45.9480882995" lon="7.2095889039"><ele>1671.39</ele><time>2014-09-03T10:14:31Z</time></trkpt><trkpt lat="45.9480718710" lon="7.2095873952"><ele>1671.87</ele><time>2014-09-03T10:14:32Z</time></trkpt><trkpt lat="45.9480255190" lon="7.2095849644"><ele>1672.35</ele><time>2014-09-03T10:14:35Z</time></trkpt><trkpt lat="45.9480090067" lon="7.2095808573"><ele>1672.35</ele><time>2014-09-03T10:14:36Z</time></trkpt><trkpt lat="45.9479912370" lon="7.2095765825"><ele>1672.35</ele><time>2014-09-03T10:14:37Z</time></trkpt><trkpt lat="45.9479748085" lon="7.2095788456"><ele>1672.35</ele><time>2014-09-03T10:14:38Z</time></trkpt><trkpt lat="45.9479575418" lon="7.2095827013"><ele>1672.83</ele><time>2014-09-03T10:14:39Z</time></trkpt><trkpt lat="45.9479415324" lon="7.2095837910"><ele>1672.83</ele><time>2014-09-03T10:14:40Z</time></trkpt><trkpt lat="45.9477541130" lon="7.2095508501"><ele>1674.75</ele><time>2014-09-03T10:14:52Z</time></trkpt><trkpt lat="45.9475765005" lon="7.2095577233"><ele>1676.20</ele><time>2014-09-03T10:15:04Z</time></trkpt><trkpt lat="45.9474281408" lon="7.2095806058"><ele>1677.16</ele><time>2014-09-03T10:15:13Z</time></trkpt><trkpt lat="45.9474127181" lon="7.2095801029"><ele>1677.16</ele><time>2014-09-03T10:15:14Z</time></trkpt><trkpt lat="45.9473667853" lon="7.2095853835"><ele>1677.64</ele><time>2014-09-03T10:15:17Z</time></trkpt><trkpt lat="45.9473507758" lon="7.2095903289"><ele>1677.64</ele><time>2014-09-03T10:15:18Z</time></trkpt><trkpt lat="45.9473335929" lon="7.2095931787"><ele>1677.64</ele><time>2014-09-03T10:15:19Z</time></trkpt><trkpt lat="45.9473156556" lon="7.2095932625"><ele>1677.64</ele><time>2014-09-03T10:15:20Z</time></trkpt><trkpt lat="45.9472986404" lon="7.2095940169"><ele>1678.12</ele><time>2014-09-03T10:15:21Z</time></trkpt><trkpt lat="45.9472824633" lon="7.2095950227"><ele>1678.12</ele><time>2014-09-03T10:15:22Z</time></trkpt><trkpt lat="45.9472652804" lon="7.2095938493"><ele>1678.60</ele><time>2014-09-03T10:15:23Z</time></trkpt><trkpt lat="45.9472479299" lon="7.2095923405"><ele>1678.60</ele><time>2014-09-03T10:15:24Z</time></trkpt><trkpt lat="45.9469211195" lon="7.2096024826"><ele>1679.56</ele><time>2014-09-03T10:15:43Z</time></trkpt><trkpt lat="45.9466469474" lon="7.2095764987"><ele>1681.48</ele><time>2014-09-03T10:15:59Z</time></trkpt><trkpt lat="45.9465629607" lon="7.2095619980"><ele>1682.44</ele><time>2014-09-03T10:16:05Z</time></trkpt><trkpt lat="45.9465504717" lon="7.2095573880"><ele>1682.44</ele><time>2014-09-03T10:16:06Z</time></trkpt><trkpt lat="45.9465385694" lon="7.2095565498"><ele>1682.44</ele><time>2014-09-03T10:16:07Z</time></trkpt><trkpt lat="45.9465295170" lon="7.2095404565"><ele>1682.44</ele><time>2014-09-03T10:16:22Z</time></trkpt><trkpt lat="45.9465407487" lon="7.2095474135"><ele>1678.60</ele><time>2014-09-03T10:16:53Z</time></trkpt><trkpt lat="45.9465393238" lon="7.2095551249"><ele>1675.72</ele><time>2014-09-03T10:17:13Z</time></trkpt><trkpt lat="45.9465145133" lon="7.2095310688"><ele>1676.68</ele><time>2014-09-03T10:17:41Z</time></trkpt><trkpt lat="45.9465313610" lon="7.2095090244"><ele>1676.20</ele><time>2014-09-03T10:18:13Z</time></trkpt><trkpt lat="45.9465146810" lon="7.2095390316"><ele>1675.72</ele><time>2014-09-03T10:18:45Z</time></trkpt><trkpt lat="45.9464581031" lon="7.2095151432"><ele>1677.16</ele><time>2014-09-03T10:18:57Z</time></trkpt><trkpt lat="45.9464070573" lon="7.2095138859"><ele>1678.12</ele><time>2014-09-03T10:19:12Z</time></trkpt><trkpt lat="45.9462497290" lon="7.2094642650"><ele>1679.56</ele><time>2014-09-03T10:19:21Z</time></trkpt><trkpt lat="45.9462316241" lon="7.2094579786"><ele>1679.56</ele><time>2014-09-03T10:19:22Z</time></trkpt><trkpt lat="45.9462147765" lon="7.2094511054"><ele>1680.04</ele><time>2014-09-03T10:19:23Z</time></trkpt><trkpt lat="45.9461976774" lon="7.2094407957"><ele>1680.52</ele><time>2014-09-03T10:19:24Z</time></trkpt><trkpt lat="45.9461806621" lon="7.2094310727"><ele>1681.00</ele><time>2014-09-03T10:19:25Z</time></trkpt><trkpt lat="45.9458882175" lon="7.2093205154"><ele>1684.37</ele><time>2014-09-03T10:19:42Z</time></trkpt><trkpt lat="45.9458749741" lon="7.2093240358"><ele>1684.37</ele><time>2014-09-03T10:19:43Z</time></trkpt><trkpt lat="45.9458587971" lon="7.2093222756"><ele>1684.37</ele><time>2014-09-03T10:19:44Z</time></trkpt><trkpt lat="45.9458416980" lon="7.2093157377"><ele>1684.37</ele><time>2014-09-03T10:19:45Z</time></trkpt><trkpt lat="45.9458237607" lon="7.2093061823"><ele>1684.37</ele><time>2014-09-03T10:19:46Z</time></trkpt><trkpt lat="45.9455816913" lon="7.2091703117"><ele>1684.37</ele><time>2014-09-03T10:20:01Z</time></trkpt><trkpt lat="45.9452536236" lon="7.2090341896"><ele>1685.81</ele><time>2014-09-03T10:20:20Z</time></trkpt><trkpt lat="45.9450011607" lon="7.2089450061"><ele>1689.17</ele><time>2014-09-03T10:20:35Z</time></trkpt><trkpt lat="45.9447327722" lon="7.2088735085"><ele>1692.54</ele><time>2014-09-03T10:20:51Z</time></trkpt><trkpt lat="45.9445607755" lon="7.2088222113"><ele>1695.42</ele><time>2014-09-03T10:21:01Z</time></trkpt><trkpt lat="45.9445428383" lon="7.2088238038"><ele>1695.90</ele><time>2014-09-03T10:21:02Z</time></trkpt><trkpt lat="45.9445254877" lon="7.2088223789"><ele>1696.38</ele><time>2014-09-03T10:21:03Z</time></trkpt><trkpt lat="45.9445099812" lon="7.2088170145"><ele>1696.38</ele><time>2014-09-03T10:21:04Z</time></trkpt><trkpt lat="45.9444945585" lon="7.2088137455"><ele>1696.38</ele><time>2014-09-03T10:21:05Z</time></trkpt><trkpt lat="45.9444791358" lon="7.2088113986"><ele>1696.86</ele><time>2014-09-03T10:21:06Z</time></trkpt><trkpt lat="45.9442534950" lon="7.2087992448"><ele>1696.86</ele><time>2014-09-03T10:21:21Z</time></trkpt><trkpt lat="45.9439835139" lon="7.2087368835"><ele>1698.79</ele><time>2014-09-03T10:21:39Z</time></trkpt><trkpt lat="45.9438243415" lon="7.2087635379"><ele>1699.75</ele><time>2014-09-03T10:21:48Z</time></trkpt><trkpt lat="45.9438051470" lon="7.2087580897"><ele>1700.23</ele><time>2014-09-03T10:21:49Z</time></trkpt><trkpt lat="45.9437874611" lon="7.2087539826"><ele>1700.23</ele><time>2014-09-03T10:21:50Z</time></trkpt><trkpt lat="45.9437704459" lon="7.2087559942"><ele>1700.23</ele><time>2014-09-03T10:21:51Z</time></trkpt><trkpt lat="45.9437548555" lon="7.2087601013"><ele>1700.23</ele><time>2014-09-03T10:21:52Z</time></trkpt><trkpt lat="45.9435145464" lon="7.2087438405"><ele>1702.63</ele><time>2014-09-03T10:22:09Z</time></trkpt><trkpt lat="45.9433132131" lon="7.2087318543"><ele>1703.59</ele><time>2014-09-03T10:22:25Z</time></trkpt><trkpt lat="45.9430565592" lon="7.2087980714"><ele>1702.15</ele><time>2014-09-03T10:22:42Z</time></trkpt><trkpt lat="45.9428211953" lon="7.2088595945"><ele>1700.23</ele><time>2014-09-03T10:22:59Z</time></trkpt><trkpt lat="45.9425930399" lon="7.2088927031"><ele>1698.31</ele><time>2014-09-03T10:23:15Z</time></trkpt><trkpt lat="45.9423674829" lon="7.2089184355"><ele>1698.31</ele><time>2014-09-03T10:23:32Z</time></trkpt><trkpt lat="45.9422026109" lon="7.2089978959"><ele>1699.75</ele><time>2014-09-03T10:23:38Z</time></trkpt><trkpt lat="45.9421790577" lon="7.2090061940"><ele>1700.23</ele><time>2014-09-03T10:23:39Z</time></trkpt><trkpt lat="45.9421513136" lon="7.2090213653"><ele>1700.71</ele><time>2014-09-03T10:23:40Z</time></trkpt><trkpt lat="45.9418264311" lon="7.2091145720"><ele>1704.55</ele><time>2014-09-03T10:23:56Z</time></trkpt><trkpt lat="45.9418064822" lon="7.2091214452"><ele>1705.04</ele><time>2014-09-03T10:23:57Z</time></trkpt><trkpt lat="45.9417899698" lon="7.2091243789"><ele>1705.52</ele><time>2014-09-03T10:23:58Z</time></trkpt><trkpt lat="45.9417713620" lon="7.2091261391"><ele>1706.00</ele><time>2014-09-03T10:23:59Z</time></trkpt><trkpt lat="45.9417499043" lon="7.2091278154"><ele>1706.96</ele><time>2014-09-03T10:24:00Z</time></trkpt><trkpt lat="45.9417236689" lon="7.2091316711"><ele>1707.44</ele><time>2014-09-03T10:24:01Z</time></trkpt><trkpt lat="45.9416761436" lon="7.2091335990"><ele>1708.88</ele><time>2014-09-03T10:24:03Z</time></trkpt><trkpt lat="45.9413890634" lon="7.2091331799"><ele>1713.21</ele><time>2014-09-03T10:24:20Z</time></trkpt><trkpt lat="45.9412334114" lon="7.2089909390"><ele>1721.86</ele><time>2014-09-03T10:24:35Z</time></trkpt><trkpt lat="45.9412220959" lon="7.2089818865"><ele>1729.55</ele><time>2014-09-03T10:24:54Z</time></trkpt><trkpt lat="45.9412395302" lon="7.2089958843"><ele>1732.91</ele><time>2014-09-03T10:25:11Z</time></trkpt><trkpt lat="45.9412154742" lon="7.2090175096"><ele>1732.43</ele><time>2014-09-03T10:25:38Z</time></trkpt><trkpt lat="45.9412577190" lon="7.2089941241"><ele>1733.88</ele><time>2014-09-03T10:26:04Z</time></trkpt><trkpt lat="45.9412329085" lon="7.2089811321"><ele>1733.39</ele><time>2014-09-03T10:26:29Z</time></trkpt><trkpt lat="45.9412391949" lon="7.2089870833"><ele>1732.91</ele><time>2014-09-03T10:26:56Z</time></trkpt><trkpt lat="45.9412390273" lon="7.2089983150"><ele>1734.36</ele><time>2014-09-03T10:27:16Z</time></trkpt><trkpt lat="45.9412180725" lon="7.2089915257"><ele>1731.47</ele><time>2014-09-03T10:27:37Z</time></trkpt><trkpt lat="45.9412099421" lon="7.2089937050"><ele>1728.59</ele><time>2014-09-03T10:27:55Z</time></trkpt><trkpt lat="45.9411981236" lon="7.2089740075"><ele>1729.07</ele><time>2014-09-03T10:28:06Z</time></trkpt><trkpt lat="45.9411950223" lon="7.2089927830"><ele>1727.63</ele><time>2014-09-03T10:28:23Z</time></trkpt><trkpt lat="45.9411793482" lon="7.2090289090"><ele>1725.22</ele><time>2014-09-03T10:28:44Z</time></trkpt><trkpt lat="45.9411863890" lon="7.2090739198"><ele>1725.70</ele><time>2014-09-03T10:29:12Z</time></trkpt><trkpt lat="45.9411988780" lon="7.2090585809"><ele>1727.63</ele><time>2014-09-03T10:29:35Z</time></trkpt><trkpt lat="45.9411828686" lon="7.2090690583"><ele>1725.22</ele><time>2014-09-03T10:30:00Z</time></trkpt><trkpt lat="45.9411687870" lon="7.2090444993"><ele>1726.18</ele><time>2014-09-03T10:30:24Z</time></trkpt><trkpt lat="45.9411782585" lon="7.2090233769"><ele>1728.11</ele><time>2014-09-03T10:30:45Z</time></trkpt><trkpt lat="45.9411573038" lon="7.2090152465"><ele>1725.22</ele><time>2014-09-03T10:31:07Z</time></trkpt><trkpt lat="45.9411676973" lon="7.2090211976"><ele>1722.34</ele><time>2014-09-03T10:31:32Z</time></trkpt><trkpt lat="45.9411691222" lon="7.2089916933"><ele>1720.42</ele><time>2014-09-03T10:31:53Z</time></trkpt><trkpt lat="45.9411948547" lon="7.2089954652"><ele>1723.30</ele><time>2014-09-03T10:32:12Z</time></trkpt><trkpt lat="45.9411966149" lon="7.2090077866"><ele>1724.26</ele><time>2014-09-03T10:32:42Z</time></trkpt><trkpt lat="45.9411928430" lon="7.2090165038"><ele>1726.67</ele><time>2014-09-03T10:33:00Z</time></trkpt><trkpt lat="45.9411595669" lon="7.2090441640"><ele>1720.42</ele><time>2014-09-03T10:33:28Z</time></trkpt><trkpt lat="45.9411356784" lon="7.2090166714"><ele>1719.94</ele><time>2014-09-03T10:34:07Z</time></trkpt><trkpt lat="45.9411360137" lon="7.2090091277"><ele>1720.90</ele><time>2014-09-03T10:34:33Z</time></trkpt><trkpt lat="45.9411287215" lon="7.2089793719"><ele>1717.05</ele><time>2014-09-03T10:34:58Z</time></trkpt><trkpt lat="45.9411467426" lon="7.2090249695"><ele>1719.94</ele><time>2014-09-03T10:35:23Z</time></trkpt><trkpt lat="45.9411303140" lon="7.2090380453"><ele>1718.97</ele><time>2014-09-03T10:35:35Z</time></trkpt><trkpt lat="45.9411020670" lon="7.2090297472"><ele>1718.97</ele><time>2014-09-03T10:35:38Z</time></trkpt><trkpt lat="45.9410896618" lon="7.2090198565"><ele>1718.97</ele><time>2014-09-03T10:35:39Z</time></trkpt><trkpt lat="45.9410752449" lon="7.2090118937"><ele>1718.97</ele><time>2014-09-03T10:35:40Z</time></trkpt><trkpt lat="45.9410605766" lon="7.2090059426"><ele>1718.97</ele><time>2014-09-03T10:35:41Z</time></trkpt><trkpt lat="45.9410464950" lon="7.2089953814"><ele>1718.97</ele><time>2014-09-03T10:35:42Z</time></trkpt><trkpt lat="45.9410315752" lon="7.2089870833"><ele>1718.97</ele><time>2014-09-03T10:35:43Z</time></trkpt><trkpt lat="45.9410174936" lon="7.2089787852"><ele>1718.97</ele><time>2014-09-03T10:35:44Z</time></trkpt><trkpt lat="45.9410014842" lon="7.2089720797"><ele>1718.97</ele><time>2014-09-03T10:35:45Z</time></trkpt><trkpt lat="45.9409853071" lon="7.2089630272"><ele>1718.97</ele><time>2014-09-03T10:35:46Z</time></trkpt><trkpt lat="45.9409691300" lon="7.2089552321"><ele>1719.46</ele><time>2014-09-03T10:35:47Z</time></trkpt><trkpt lat="45.9409534559" lon="7.2089482751"><ele>1719.46</ele><time>2014-09-03T10:35:48Z</time></trkpt><trkpt lat="45.9409392066" lon="7.2089389712"><ele>1719.94</ele><time>2014-09-03T10:35:49Z</time></trkpt><trkpt lat="45.9409241192" lon="7.2089308407"><ele>1719.94</ele><time>2014-09-03T10:35:50Z</time></trkpt><trkpt lat="45.9409105405" lon="7.2089192737"><ele>1719.94</ele><time>2014-09-03T10:35:51Z</time></trkpt><trkpt lat="45.9408952016" lon="7.2089087125"><ele>1719.94</ele><time>2014-09-03T10:35:52Z</time></trkpt><trkpt lat="45.9408792760" lon="7.2088995762"><ele>1720.42</ele><time>2014-09-03T10:35:53Z</time></trkpt><trkpt lat="45.9408642724" lon="7.2088901885"><ele>1720.42</ele><time>2014-09-03T10:35:54Z</time></trkpt><trkpt lat="45.9407294076" lon="7.2087974008"><ele>1720.90</ele><time>2014-09-03T10:36:09Z</time></trkpt><trkpt lat="45.9407346044" lon="7.2087311000"><ele>1725.22</ele><time>2014-09-03T10:36:25Z</time></trkpt><trkpt lat="45.9407161642" lon="7.2086700797"><ele>1735.32</ele><time>2014-09-03T10:36:52Z</time></trkpt><trkpt lat="45.9407187626" lon="7.2087076306"><ele>1734.84</ele><time>2014-09-03T10:37:08Z</time></trkpt><trkpt lat="45.9406899288" lon="7.2087177727"><ele>1734.84</ele><time>2014-09-03T10:37:14Z</time></trkpt><trkpt lat="45.9406779427" lon="7.2087118216"><ele>1734.84</ele><time>2014-09-03T10:37:15Z</time></trkpt><trkpt lat="45.9406672139" lon="7.2087000869"><ele>1734.84</ele><time>2014-09-03T10:37:16Z</time></trkpt><trkpt lat="45.9406548925" lon="7.2086873464"><ele>1734.84</ele><time>2014-09-03T10:37:17Z</time></trkpt><trkpt lat="45.9406393860" lon="7.2086749412"><ele>1734.84</ele><time>2014-09-03T10:37:18Z</time></trkpt><trkpt lat="45.9406227060" lon="7.2086653858"><ele>1734.36</ele><time>2014-09-03T10:37:19Z</time></trkpt><trkpt lat="45.9406063613" lon="7.2086588480"><ele>1734.36</ele><time>2014-09-03T10:37:20Z</time></trkpt><trkpt lat="45.9405922797" lon="7.2086589318"><ele>1734.84</ele><time>2014-09-03T10:37:21Z</time></trkpt><trkpt lat="45.9405796230" lon="7.2086590156"><ele>1734.36</ele><time>2014-09-03T10:37:22Z</time></trkpt><trkpt lat="45.9405652899" lon="7.2086499631"><ele>1734.84</ele><time>2014-09-03T10:37:23Z</time></trkpt><trkpt lat="45.9403140005" lon="7.2085179482"><ele>1733.88</ele><time>2014-09-03T10:37:39Z</time></trkpt><trkpt lat="45.9400412533" lon="7.2084486298"><ele>1731.47</ele><time>2014-09-03T10:37:55Z</time></trkpt><trkpt lat="45.9397688415" lon="7.2084239870"><ele>1732.43</ele><time>2014-09-03T10:38:11Z</time></trkpt><trkpt lat="45.9395623114" lon="7.2084071394"><ele>1735.80</ele><time>2014-09-03T10:38:23Z</time></trkpt><trkpt lat="45.9393301327" lon="7.2084106598"><ele>1740.12</ele><time>2014-09-03T10:38:36Z</time></trkpt><trkpt lat="45.9390469920" lon="7.2084191255"><ele>1745.89</ele><time>2014-09-03T10:38:52Z</time></trkpt><trkpt lat="45.9388155676" lon="7.2084560059"><ele>1747.81</ele><time>2014-09-03T10:39:06Z</time></trkpt><trkpt lat="45.9387501888" lon="7.2084786370"><ele>1747.33</ele><time>2014-09-03T10:39:10Z</time></trkpt><trkpt lat="45.9387325868" lon="7.2084830794"><ele>1747.33</ele><time>2014-09-03T10:39:11Z</time></trkpt><trkpt lat="45.9384724963" lon="7.2085076384"><ele>1747.81</ele><time>2014-09-03T10:39:26Z</time></trkpt><trkpt lat="45.9381683171" lon="7.2085194569"><ele>1754.06</ele><time>2014-09-03T10:39:44Z</time></trkpt><trkpt lat="45.9379391558" lon="7.2084968258"><ele>1760.31</ele><time>2014-09-03T10:39:59Z</time></trkpt><trkpt lat="45.9377010260" lon="7.2085119132"><ele>1765.60</ele><time>2014-09-03T10:40:14Z</time></trkpt><trkpt lat="45.9374749660" lon="7.2085208818"><ele>1765.60</ele><time>2014-09-03T10:40:28Z</time></trkpt><trkpt lat="45.9372479841" lon="7.2085045371"><ele>1766.56</ele><time>2014-09-03T10:40:42Z</time></trkpt><trkpt lat="45.9370090999" lon="7.2084555030"><ele>1768.96</ele><time>2014-09-03T10:40:57Z</time></trkpt><trkpt lat="45.9367494285" lon="7.2083985060"><ele>1767.52</ele><time>2014-09-03T10:41:12Z</time></trkpt><trkpt lat="45.9364686348" lon="7.2083112504"><ele>1767.04</ele><time>2014-09-03T10:41:28Z</time></trkpt><trkpt lat="45.9362180158" lon="7.2082459554"><ele>1762.23</ele><time>2014-09-03T10:41:43Z</time></trkpt><trkpt lat="45.9359742701" lon="7.2081545088"><ele>1758.39</ele><time>2014-09-03T10:42:00Z</time></trkpt><trkpt lat="45.9358332027" lon="7.2080971766"><ele>1756.47</ele><time>2014-09-03T10:42:10Z</time></trkpt><trkpt lat="45.9358174447" lon="7.2080947459"><ele>1755.99</ele><time>2014-09-03T10:42:11Z</time></trkpt><trkpt lat="45.9357890300" lon="7.2080849390"><ele>1755.50</ele><time>2014-09-03T10:42:13Z</time></trkpt><trkpt lat="45.9357731882" lon="7.2080821730"><ele>1755.02</ele><time>2014-09-03T10:42:14Z</time></trkpt><trkpt lat="45.9357574303" lon="7.2080814186"><ele>1755.02</ele><time>2014-09-03T10:42:15Z</time></trkpt><trkpt lat="45.9357417561" lon="7.2080789879"><ele>1754.54</ele><time>2014-09-03T10:42:16Z</time></trkpt><trkpt lat="45.9357259981" lon="7.2080745455"><ele>1754.54</ele><time>2014-09-03T10:42:17Z</time></trkpt><trkpt lat="45.9357136767" lon="7.2080618888"><ele>1754.54</ele><time>2014-09-03T10:42:18Z</time></trkpt><trkpt lat="45.9357019421" lon="7.2080530878"><ele>1754.06</ele><time>2014-09-03T10:42:19Z</time></trkpt><trkpt lat="45.9356878605" lon="7.2080485616"><ele>1754.06</ele><time>2014-09-03T10:42:20Z</time></trkpt><trkpt lat="45.9356713481" lon="7.2080443706"><ele>1754.06</ele><time>2014-09-03T10:42:21Z</time></trkpt><trkpt lat="45.9354967531" lon="7.2079536784"><ele>1753.58</ele><time>2014-09-03T10:42:33Z</time></trkpt><trkpt lat="45.9354521614" lon="7.2078595497"><ele>1758.87</ele><time>2014-09-03T10:42:44Z</time></trkpt><trkpt lat="45.9354593698" lon="7.2078369185"><ele>1765.60</ele><time>2014-09-03T10:43:07Z</time></trkpt><trkpt lat="45.9354322124" lon="7.2077732999"><ele>1771.37</ele><time>2014-09-03T10:43:48Z</time></trkpt><trkpt lat="45.9354250878" lon="7.2077507526"><ele>1775.21</ele><time>2014-09-03T10:44:32Z</time></trkpt><trkpt lat="45.9354131017" lon="7.2077748924"><ele>1774.73</ele><time>2014-09-03T10:45:00Z</time></trkpt><trkpt lat="45.9352521691" lon="7.2077619005"><ele>1773.77</ele><time>2014-09-03T10:45:13Z</time></trkpt><trkpt lat="45.9349553660" lon="7.2077193204"><ele>1772.81</ele><time>2014-09-03T10:45:29Z</time></trkpt><trkpt lat="45.9346649330" lon="7.2076956835"><ele>1772.81</ele><time>2014-09-03T10:45:45Z</time></trkpt><trkpt lat="45.9344032500" lon="7.2076442186"><ele>1776.17</ele><time>2014-09-03T10:46:00Z</time></trkpt><trkpt lat="45.9341470990" lon="7.2075575497"><ele>1777.61</ele><time>2014-09-03T10:46:15Z</time></trkpt><trkpt lat="45.9339010064" lon="7.2074961103"><ele>1777.13</ele><time>2014-09-03T10:46:29Z</time></trkpt><trkpt lat="45.9337171912" lon="7.2073888220"><ele>1775.69</ele><time>2014-09-03T10:46:42Z</time></trkpt><trkpt lat="45.9334488865" lon="7.2072576452"><ele>1770.89</ele><time>2014-09-03T10:47:00Z</time></trkpt><trkpt lat="45.9332997724" lon="7.2071714792"><ele>1769.92</ele><time>2014-09-03T10:47:12Z</time></trkpt><trkpt lat="45.9330248460" lon="7.2070365306"><ele>1769.44</ele><time>2014-09-03T10:47:27Z</time></trkpt><trkpt lat="45.9328692779" lon="7.2069912683"><ele>1768.48</ele><time>2014-09-03T10:47:42Z</time></trkpt><trkpt lat="45.9327314794" lon="7.2069583274"><ele>1768.96</ele><time>2014-09-03T10:47:55Z</time></trkpt><trkpt lat="45.9324858896" lon="7.2068564873"><ele>1769.44</ele><time>2014-09-03T10:48:10Z</time></trkpt><trkpt lat="45.9322320018" lon="7.2067572456"><ele>1770.89</ele><time>2014-09-03T10:48:26Z</time></trkpt><trkpt lat="45.9319580812" lon="7.2066229675"><ele>1770.89</ele><time>2014-09-03T10:48:42Z</time></trkpt><trkpt lat="45.9317162633" lon="7.2064475343"><ele>1771.37</ele><time>2014-09-03T10:48:58Z</time></trkpt><trkpt lat="45.9314720985" lon="7.2062717658"><ele>1770.89</ele><time>2014-09-03T10:49:15Z</time></trkpt><trkpt lat="45.9311921429" lon="7.2060720250"><ele>1773.29</ele><time>2014-09-03T10:49:33Z</time></trkpt><trkpt lat="45.9309518337" lon="7.2059656586"><ele>1775.21</ele><time>2014-09-03T10:49:50Z</time></trkpt><trkpt lat="45.9309006203" lon="7.2059422731"><ele>1776.65</ele><time>2014-09-03T10:49:54Z</time></trkpt><trkpt lat="45.9308907297" lon="7.2059244197"><ele>1777.61</ele><time>2014-09-03T10:49:55Z</time></trkpt><trkpt lat="45.9308341518" lon="7.2058486473"><ele>1786.27</ele><time>2014-09-03T10:50:07Z</time></trkpt><trkpt lat="45.9308265243" lon="7.2057969309"><ele>1793.48</ele><time>2014-09-03T10:50:27Z</time></trkpt><trkpt lat="45.9308461379" lon="7.2057580389"><ele>1802.13</ele><time>2014-09-03T10:50:53Z</time></trkpt><trkpt lat="45.9308533464" lon="7.2057379223"><ele>1805.01</ele><time>2014-09-03T10:51:19Z</time></trkpt><trkpt lat="45.9308494069" lon="7.2056940850"><ele>1808.86</ele><time>2014-09-03T10:51:44Z</time></trkpt><trkpt lat="45.9308489878" lon="7.2057220805"><ele>1809.82</ele><time>2014-09-03T10:52:15Z</time></trkpt><trkpt lat="45.9308596328" lon="7.2057162132"><ele>1809.82</ele><time>2014-09-03T10:52:50Z</time></trkpt><trkpt lat="45.9308362473" lon="7.2057539318"><ele>1804.05</ele><time>2014-09-03T10:53:13Z</time></trkpt><trkpt lat="45.9308625665" lon="7.2057585418"><ele>1807.42</ele><time>2014-09-03T10:53:41Z</time></trkpt><trkpt lat="45.9308404382" lon="7.2057979368"><ele>1806.45</ele><time>2014-09-03T10:53:50Z</time></trkpt><trkpt lat="45.9308259375" lon="7.2057867888"><ele>1806.45</ele><time>2014-09-03T10:53:55Z</time></trkpt><trkpt lat="45.9308141191" lon="7.2057842743"><ele>1805.97</ele><time>2014-09-03T10:53:56Z</time></trkpt><trkpt lat="45.9308000375" lon="7.2057775687"><ele>1805.97</ele><time>2014-09-03T10:53:57Z</time></trkpt><trkpt lat="45.9305682778" lon="7.2056588810"><ele>1805.97</ele><time>2014-09-03T10:54:11Z</time></trkpt><trkpt lat="45.9303127974" lon="7.2055696975"><ele>1809.34</ele><time>2014-09-03T10:54:25Z</time></trkpt><trkpt lat="45.9300576523" lon="7.2053316515"><ele>1816.55</ele><time>2014-09-03T10:54:41Z</time></trkpt><trkpt lat="45.9298405610" lon="7.2051041666"><ele>1822.32</ele><time>2014-09-03T10:54:56Z</time></trkpt><trkpt lat="45.9296671394" lon="7.2049138136"><ele>1827.12</ele><time>2014-09-03T10:55:10Z</time></trkpt><trkpt lat="45.9296301752" lon="7.2048650309"><ele>1828.08</ele><time>2014-09-03T10:55:13Z</time></trkpt><trkpt lat="45.9296176862" lon="7.2048553079"><ele>1828.56</ele><time>2014-09-03T10:55:14Z</time></trkpt><trkpt lat="45.9294730984" lon="7.2047420684"><ele>1827.60</ele><time>2014-09-03T10:55:27Z</time></trkpt><trkpt lat="45.9292710945" lon="7.2045902722"><ele>1825.68</ele><time>2014-09-03T10:55:43Z</time></trkpt><trkpt lat="45.9289695136" lon="7.2043496277"><ele>1826.16</ele><time>2014-09-03T10:56:02Z</time></trkpt><trkpt lat="45.9287316352" lon="7.2042290960"><ele>1826.16</ele><time>2014-09-03T10:56:17Z</time></trkpt><trkpt lat="45.9284677729" lon="7.2041958198"><ele>1826.64</ele><time>2014-09-03T10:56:34Z</time></trkpt><trkpt lat="45.9282040782" lon="7.2041291837"><ele>1828.08</ele><time>2014-09-03T10:56:50Z</time></trkpt><trkpt lat="45.9280102048" lon="7.2040617932"><ele>1830.97</ele><time>2014-09-03T10:57:03Z</time></trkpt><trkpt lat="45.9279926866" lon="7.2040545009"><ele>1831.45</ele><time>2014-09-03T10:57:04Z</time></trkpt><trkpt lat="45.9279782698" lon="7.2040504776"><ele>1831.45</ele><time>2014-09-03T10:57:05Z</time></trkpt><trkpt lat="45.9279636014" lon="7.2040453646"><ele>1831.93</ele><time>2014-09-03T10:57:06Z</time></trkpt><trkpt lat="45.9279449098" lon="7.2040364798"><ele>1831.93</ele><time>2014-09-03T10:57:07Z</time></trkpt><trkpt lat="45.9279257152" lon="7.2040311154"><ele>1831.93</ele><time>2014-09-03T10:57:08Z</time></trkpt><trkpt lat="45.9279068559" lon="7.2040251642"><ele>1831.45</ele><time>2014-09-03T10:57:09Z</time></trkpt><trkpt lat="45.9278834704" lon="7.2040161956"><ele>1830.97</ele><time>2014-09-03T10:57:10Z</time></trkpt><trkpt lat="45.9278662875" lon="7.2040096577"><ele>1830.97</ele><time>2014-09-03T10:57:11Z</time></trkpt><trkpt lat="45.9276178479" lon="7.2039386630"><ele>1832.89</ele><time>2014-09-03T10:57:26Z</time></trkpt><trkpt lat="45.9273478668" lon="7.2038649023"><ele>1838.18</ele><time>2014-09-03T10:57:43Z</time></trkpt><trkpt lat="45.9272259939" lon="7.2038395889"><ele>1842.98</ele><time>2014-09-03T10:57:52Z</time></trkpt><trkpt lat="45.9272104874" lon="7.2038164549"><ele>1843.95</ele><time>2014-09-03T10:57:53Z</time></trkpt><trkpt lat="45.9271951485" lon="7.2037943266"><ele>1844.43</ele><time>2014-09-03T10:57:54Z</time></trkpt><trkpt lat="45.9271806479" lon="7.2037773952"><ele>1844.91</ele><time>2014-09-03T10:57:55Z</time></trkpt><trkpt lat="45.9271678235" lon="7.2037598770"><ele>1845.39</ele><time>2014-09-03T10:57:56Z</time></trkpt><trkpt lat="45.9271170292" lon="7.2037269361"><ele>1845.39</ele><time>2014-09-03T10:58:07Z</time></trkpt><trkpt lat="45.9271088988" lon="7.2037129384"><ele>1842.02</ele><time>2014-09-03T10:58:28Z</time></trkpt><trkpt lat="45.9270987567" lon="7.2037623078"><ele>1836.74</ele><time>2014-09-03T10:58:45Z</time></trkpt><trkpt lat="45.9270924702" lon="7.2037326358"><ele>1834.33</ele><time>2014-09-03T10:59:04Z</time></trkpt><trkpt lat="45.9270970803" lon="7.2037543450"><ele>1835.29</ele><time>2014-09-03T10:59:24Z</time></trkpt><trkpt lat="45.9270850942" lon="7.2037521657"><ele>1832.41</ele><time>2014-09-03T10:59:45Z</time></trkpt><trkpt lat="45.9271111619" lon="7.2037598770"><ele>1832.89</ele><time>2014-09-03T11:00:04Z</time></trkpt><trkpt lat="45.9270801488" lon="7.2037831787"><ele>1826.16</ele><time>2014-09-03T11:00:25Z</time></trkpt><trkpt lat="45.9270788077" lon="7.2037896328"><ele>1825.68</ele><time>2014-09-03T11:00:43Z</time></trkpt><trkpt lat="45.9270780534" lon="7.2037738748"><ele>1827.12</ele><time>2014-09-03T11:01:03Z</time></trkpt><trkpt lat="45.9270829987" lon="7.2037762217"><ele>1827.60</ele><time>2014-09-03T11:01:19Z</time></trkpt><trkpt lat="45.9270805679" lon="7.2037659958"><ele>1830.49</ele><time>2014-09-03T11:01:34Z</time></trkpt><trkpt lat="45.9270855971" lon="7.2037563566"><ele>1826.64</ele><time>2014-09-03T11:01:55Z</time></trkpt><trkpt lat="45.9270830825" lon="7.2037320491"><ele>1828.56</ele><time>2014-09-03T11:02:10Z</time></trkpt><trkpt lat="45.9270905424" lon="7.2037392575"><ele>1830.01</ele><time>2014-09-03T11:02:28Z</time></trkpt><trkpt lat="45.9270916320" lon="7.2037103400"><ele>1831.93</ele><time>2014-09-03T11:02:45Z</time></trkpt><trkpt lat="45.9270900395" lon="7.2037143633"><ele>1828.08</ele><time>2014-09-03T11:03:00Z</time></trkpt><trkpt lat="45.9270851780" lon="7.2037849389"><ele>1824.24</ele><time>2014-09-03T11:03:15Z</time></trkpt><trkpt lat="45.9270819090" lon="7.2037913091"><ele>1823.28</ele><time>2014-09-03T11:03:32Z</time></trkpt><trkpt lat="45.9270861838" lon="7.2037901357"><ele>1824.24</ele><time>2014-09-03T11:03:52Z</time></trkpt><trkpt lat="45.9270923026" lon="7.2038022056"><ele>1823.28</ele><time>2014-09-03T11:04:11Z</time></trkpt><trkpt lat="45.9270914644" lon="7.2037926503"><ele>1822.80</ele><time>2014-09-03T11:04:40Z</time></trkpt><trkpt lat="45.9270874411" lon="7.2037949134"><ele>1822.80</ele><time>2014-09-03T11:05:07Z</time></trkpt><trkpt lat="45.9270892013" lon="7.2037672531"><ele>1829.05</ele><time>2014-09-03T11:05:34Z</time></trkpt><trkpt lat="45.9270997625" lon="7.2037717793"><ele>1831.93</ele><time>2014-09-03T11:06:02Z</time></trkpt><trkpt lat="45.9270802327" lon="7.2037522495"><ele>1830.01</ele><time>2014-09-03T11:06:23Z</time></trkpt><trkpt lat="45.9270134289" lon="7.2037768085"><ele>1832.41</ele><time>2014-09-03T11:06:34Z</time></trkpt><trkpt lat="45.9268563520" lon="7.2037525009"><ele>1834.33</ele><time>2014-09-03T11:06:47Z</time></trkpt><trkpt lat="45.9266121034" lon="7.2036209889"><ele>1836.74</ele><time>2014-09-03T11:07:02Z</time></trkpt><trkpt lat="45.9263681062" lon="7.2034814302"><ele>1840.10</ele><time>2014-09-03T11:07:18Z</time></trkpt><trkpt lat="45.9261751547" lon="7.2033198271"><ele>1841.06</ele><time>2014-09-03T11:07:34Z</time></trkpt><trkpt lat="45.9259548783" lon="7.2031964455"><ele>1842.02</ele><time>2014-09-03T11:07:50Z</time></trkpt><trkpt lat="45.9257070255" lon="7.2030962817"><ele>1843.47</ele><time>2014-09-03T11:08:08Z</time></trkpt></trkseg><trkseg><trkpt lat="45.9221537691" lon="7.2014022153"><ele>1843.47</ele><time>2014-09-03T11:11:00Z</time></trkpt><trkpt lat="45.9219091013" lon="7.2012101859"><ele>1839.62</ele><time>2014-09-03T11:11:16Z</time></trkpt><trkpt lat="45.9216098674" lon="7.2011800949"><ele>1840.58</ele><time>2014-09-03T11:11:29Z</time></trkpt><trkpt lat="45.9212531336" lon="7.2012262791"><ele>1842.98</ele><time>2014-09-03T11:11:44Z</time></trkpt><trkpt lat="45.9209202882" lon="7.2013061587"><ele>1846.35</ele><time>2014-09-03T11:11:58Z</time></trkpt><trkpt lat="45.9206558391" lon="7.2013839427"><ele>1844.91</ele><time>2014-09-03T11:12:09Z</time></trkpt><trkpt lat="45.9205629677" lon="7.2013916541"><ele>1844.91</ele><time>2014-09-03T11:12:14Z</time></trkpt><trkpt lat="45.9205280151" lon="7.2013525106"><ele>1848.27</ele><time>2014-09-03T11:12:26Z</time></trkpt><trkpt lat="45.9205057193" lon="7.2014053166"><ele>1855.00</ele><time>2014-09-03T11:12:51Z</time></trkpt><trkpt lat="45.9205287695" lon="7.2014237568"><ele>1850.68</ele><time>2014-09-03T11:13:23Z</time></trkpt><trkpt lat="45.9205161128" lon="7.2013888042"><ele>1852.12</ele><time>2014-09-03T11:13:49Z</time></trkpt><trkpt lat="45.9205327928" lon="7.2013767343"><ele>1855.48</ele><time>2014-09-03T11:14:08Z</time></trkpt><trkpt lat="45.9205362294" lon="7.2013624851"><ele>1854.52</ele><time>2014-09-03T11:14:31Z</time></trkpt><trkpt lat="45.9205177892" lon="7.2012951784"><ele>1859.33</ele><time>2014-09-03T11:14:53Z</time></trkpt><trkpt lat="45.9205237404" lon="7.2013458889"><ele>1855.00</ele><time>2014-09-03T11:15:21Z</time></trkpt><trkpt lat="45.9205193818" lon="7.2013415303"><ele>1855.00</ele><time>2014-09-03T11:15:22Z</time></trkpt><trkpt lat="45.9205080662" lon="7.2013555281"><ele>1855.48</ele><time>2014-09-03T11:15:26Z</time></trkpt><trkpt lat="45.9204727784" lon="7.2013753932"><ele>1855.96</ele><time>2014-09-03T11:15:34Z</time></trkpt><trkpt lat="45.9204597026" lon="7.2013756447"><ele>1855.96</ele><time>2014-09-03T11:15:35Z</time></trkpt><trkpt lat="45.9204415139" lon="7.2013781592"><ele>1856.44</ele><time>2014-09-03T11:15:36Z</time></trkpt><trkpt lat="45.9204217326" lon="7.2013824340"><ele>1856.44</ele><time>2014-09-03T11:15:37Z</time></trkpt><trkpt lat="45.9203999396" lon="7.2013879661"><ele>1856.44</ele><time>2014-09-03T11:15:38Z</time></trkpt><trkpt lat="45.9203783143" lon="7.2013937496"><ele>1856.44</ele><time>2014-09-03T11:15:39Z</time></trkpt><trkpt lat="45.9200318065" lon="7.2014674265"><ele>1860.77</ele><time>2014-09-03T11:15:52Z</time></trkpt><trkpt lat="45.9196354263" lon="7.2014991101"><ele>1862.69</ele><time>2014-09-03T11:16:06Z</time></trkpt><trkpt lat="45.9192694724" lon="7.2014572006"><ele>1862.21</ele><time>2014-09-03T11:16:20Z</time></trkpt><trkpt lat="45.9189505409" lon="7.2014702763"><ele>1862.21</ele><time>2014-09-03T11:16:33Z</time></trkpt><trkpt lat="45.9185501374" lon="7.2015452944"><ele>1862.69</ele><time>2014-09-03T11:16:48Z</time></trkpt><trkpt lat="45.9181652404" lon="7.2017150279"><ele>1863.17</ele><time>2014-09-03T11:17:03Z</time></trkpt><trkpt lat="45.9177170601" lon="7.2018795647"><ele>1862.69</ele><time>2014-09-03T11:17:20Z</time></trkpt><trkpt lat="45.9173823707" lon="7.2019356396"><ele>1863.17</ele><time>2014-09-03T11:17:32Z</time></trkpt><trkpt lat="45.9173555486" lon="7.2019288503"><ele>1863.65</ele><time>2014-09-03T11:17:33Z</time></trkpt><trkpt lat="45.9169533849" lon="7.2018498089"><ele>1867.98</ele><time>2014-09-03T11:17:48Z</time></trkpt><trkpt lat="45.9165998362" lon="7.2017100826"><ele>1873.75</ele><time>2014-09-03T11:18:02Z</time></trkpt><trkpt lat="45.9162567649" lon="7.2015898023"><ele>1880.96</ele><time>2014-09-03T11:18:16Z</time></trkpt><trkpt lat="45.9158262704" lon="7.2015090846"><ele>1887.21</ele><time>2014-09-03T11:18:32Z</time></trkpt><trkpt lat="45.9153883159" lon="7.2015550174"><ele>1889.13</ele><time>2014-09-03T11:18:47Z</time></trkpt><trkpt lat="45.9150101244" lon="7.2016601264"><ele>1889.61</ele><time>2014-09-03T11:19:01Z</time></trkpt><trkpt lat="45.9145860001" lon="7.2016111761"><ele>1888.65</ele><time>2014-09-03T11:19:17Z</time></trkpt><trkpt lat="45.9142247401" lon="7.2015744634"><ele>1889.61</ele><time>2014-09-03T11:19:31Z</time></trkpt><trkpt lat="45.9138673358" lon="7.2015372477"><ele>1892.97</ele><time>2014-09-03T11:19:46Z</time></trkpt><trkpt lat="45.9134661779" lon="7.2015426122"><ele>1895.38</ele><time>2014-09-03T11:20:03Z</time></trkpt><trkpt lat="45.9130466636" lon="7.2016164567"><ele>1891.53</ele><time>2014-09-03T11:20:20Z</time></trkpt><trkpt lat="45.9129003156" lon="7.2016530018"><ele>1891.05</ele><time>2014-09-03T11:20:28Z</time></trkpt><trkpt lat="45.9128879942" lon="7.2016421892"><ele>1891.05</ele><time>2014-09-03T11:20:29Z</time></trkpt><trkpt lat="45.9128485154" lon="7.2016048059"><ele>1888.65</ele><time>2014-09-03T11:20:41Z</time></trkpt><trkpt lat="45.9128058515" lon="7.2016320471"><ele>1891.05</ele><time>2014-09-03T11:21:08Z</time></trkpt><trkpt lat="45.9127718210" lon="7.2016361542"><ele>1902.59</ele><time>2014-09-03T11:21:48Z</time></trkpt><trkpt lat="45.9127950389" lon="7.2016545944"><ele>1905.47</ele><time>2014-09-03T11:22:20Z</time></trkpt><trkpt lat="45.9128087014" lon="7.2016709391"><ele>1902.59</ele><time>2014-09-03T11:22:43Z</time></trkpt><trkpt lat="45.9128081147" lon="7.2016468830"><ele>1901.14</ele><time>2014-09-03T11:22:59Z</time></trkpt><trkpt lat="45.9128045104" lon="7.2016356513"><ele>1901.63</ele><time>2014-09-03T11:23:04Z</time></trkpt><trkpt lat="45.9127930272" lon="7.2016370762"><ele>1901.63</ele><time>2014-09-03T11:23:05Z</time></trkpt><trkpt lat="45.9127800353" lon="7.2016403452"><ele>1902.11</ele><time>2014-09-03T11:23:06Z</time></trkpt><trkpt lat="45.9125398099" lon="7.2016706876"><ele>1903.07</ele><time>2014-09-03T11:23:21Z</time></trkpt><trkpt lat="45.9121729340" lon="7.2016387526"><ele>1905.47</ele><time>2014-09-03T11:23:40Z</time></trkpt><trkpt lat="45.9119164478" lon="7.2015689313"><ele>1912.68</ele><time>2014-09-03T11:23:53Z</time></trkpt><trkpt lat="45.9115251806" lon="7.2014235053"><ele>1921.81</ele><time>2014-09-03T11:24:12Z</time></trkpt><trkpt lat="45.9111657646" lon="7.2012850363"><ele>1931.43</ele><time>2014-09-03T11:24:30Z</time></trkpt><trkpt lat="45.9108044207" lon="7.2011634987"><ele>1940.56</ele><time>2014-09-03T11:24:46Z</time></trkpt><trkpt lat="45.9104827233" lon="7.2010531928"><ele>1953.06</ele><time>2014-09-03T11:25:01Z</time></trkpt><trkpt lat="45.9101107344" lon="7.2009944357"><ele>1967.96</ele><time>2014-09-03T11:25:16Z</time></trkpt><trkpt lat="45.9098044597" lon="7.2009872273"><ele>1980.93</ele><time>2014-09-03T11:25:28Z</time></trkpt><trkpt lat="45.9094226640" lon="7.2009440605"><ele>1995.83</ele><time>2014-09-03T11:25:41Z</time></trkpt><trkpt lat="45.9090502560" lon="7.2008868959"><ele>2018.91</ele><time>2014-09-03T11:25:57Z</time></trkpt><trkpt lat="45.9086459968" lon="7.2008023225"><ele>2035.25</ele><time>2014-09-03T11:26:12Z</time></trkpt><trkpt lat="45.9082522988" lon="7.2008247860"><ele>2053.51</ele><time>2014-09-03T11:26:27Z</time></trkpt><trkpt lat="45.9081637859" lon="7.2008291446"><ele>2055.92</ele><time>2014-09-03T11:26:30Z</time></trkpt><trkpt lat="45.9081393946" lon="7.2008257080"><ele>2056.88</ele><time>2014-09-03T11:26:31Z</time></trkpt><trkpt lat="45.9081170987" lon="7.2008240316"><ele>2058.32</ele><time>2014-09-03T11:26:32Z</time></trkpt><trkpt lat="45.9080953058" lon="7.2008232772"><ele>2060.24</ele><time>2014-09-03T11:26:33Z</time></trkpt><trkpt lat="45.9080736805" lon="7.2008211818"><ele>2061.68</ele><time>2014-09-03T11:26:34Z</time></trkpt><trkpt lat="45.9077518154" lon="7.2007841337"><ele>2071.30</ele><time>2014-09-03T11:26:47Z</time></trkpt><trkpt lat="45.9074455407" lon="7.2007709742"><ele>2087.64</ele><time>2014-09-03T11:27:02Z</time></trkpt><trkpt lat="45.9071379248" lon="7.2008050885"><ele>2093.89</ele><time>2014-09-03T11:27:16Z</time></trkpt><trkpt lat="45.9068167303" lon="7.2008490097"><ele>2093.89</ele><time>2014-09-03T11:27:30Z</time></trkpt><trkpt lat="45.9064765088" lon="7.2008345090"><ele>2104.46</ele><time>2014-09-03T11:27:46Z</time></trkpt><trkpt lat="45.9061682224" lon="7.2008046694"><ele>2112.63</ele><time>2014-09-03T11:28:03Z</time></trkpt><trkpt lat="45.9058513027" lon="7.2007451579"><ele>2126.57</ele><time>2014-09-03T11:28:20Z</time></trkpt><trkpt lat="45.9054917190" lon="7.2006594948"><ele>2128.02</ele><time>2014-09-03T11:28:37Z</time></trkpt><trkpt lat="45.9050926566" lon="7.2005260549"><ele>2123.21</ele><time>2014-09-03T11:28:53Z</time></trkpt><trkpt lat="45.9047961049" lon="7.2004192695"><ele>2120.81</ele><time>2014-09-03T11:29:07Z</time></trkpt><trkpt lat="45.9046719689" lon="7.2003258113"><ele>2122.73</ele><time>2014-09-03T11:29:14Z</time></trkpt><trkpt lat="45.9046521876" lon="7.2003015038"><ele>2123.69</ele><time>2014-09-03T11:29:15Z</time></trkpt><trkpt lat="45.9046308976" lon="7.2002781183"><ele>2124.17</ele><time>2014-09-03T11:29:16Z</time></trkpt><trkpt lat="45.9043339267" lon="7.1998855099"><ele>2123.69</ele><time>2014-09-03T11:29:32Z</time></trkpt><trkpt lat="45.9041636903" lon="7.1993842721"><ele>2135.23</ele><time>2014-09-03T11:29:47Z</time></trkpt><trkpt lat="45.9039756842" lon="7.1986919269"><ele>2142.92</ele><time>2014-09-03T11:30:06Z</time></trkpt><trkpt lat="45.9038170986" lon="7.1981501207"><ele>2139.07</ele><time>2014-09-03T11:30:19Z</time></trkpt><trkpt lat="45.9035466146" lon="7.1977701690"><ele>2121.29</ele><time>2014-09-03T11:30:34Z</time></trkpt><trkpt lat="45.9034158569" lon="7.1977157705"><ele>2094.85</ele><time>2014-09-03T11:30:49Z</time></trkpt><trkpt lat="45.9032170381" lon="7.1977222245"><ele>2037.65</ele><time>2014-09-03T11:31:29Z</time></trkpt><trkpt lat="45.9032361489" lon="7.1977907047"><ele>2010.25</ele><time>2014-09-03T11:32:14Z</time></trkpt><trkpt lat="45.9030892979" lon="7.1975715179"><ele>1993.91</ele><time>2014-09-03T11:32:34Z</time></trkpt><trkpt lat="45.9026464820" lon="7.1968489140"><ele>1934.31</ele><time>2014-09-03T11:32:51Z</time></trkpt><trkpt lat="45.9024776705" lon="7.1964229457"><ele>1930.46</ele><time>2014-09-03T11:33:04Z</time></trkpt><trkpt lat="45.9022428934" lon="7.1960404795"><ele>1930.95</ele><time>2014-09-03T11:33:19Z</time></trkpt><trkpt lat="45.9019666258" lon="7.1957912855"><ele>1931.43</ele><time>2014-09-03T11:33:35Z</time></trkpt><trkpt lat="45.9016518015" lon="7.1956706699"><ele>1932.87</ele><time>2014-09-03T11:33:48Z</time></trkpt><trkpt lat="45.9012455307" lon="7.1956698317"><ele>1932.87</ele><time>2014-09-03T11:34:04Z</time></trkpt><trkpt lat="45.9009646531" lon="7.1956861764"><ele>1934.31</ele><time>2014-09-03T11:34:16Z</time></trkpt><trkpt lat="45.9007147886" lon="7.1958229691"><ele>1934.79</ele><time>2014-09-03T11:34:29Z</time></trkpt><trkpt lat="45.9005285427" lon="7.1959132422"><ele>1937.19</ele><time>2014-09-03T11:34:41Z</time></trkpt><trkpt lat="45.9003702924" lon="7.1959625278"><ele>1938.64</ele><time>2014-09-03T11:34:51Z</time></trkpt><trkpt lat="45.9003565460" lon="7.1959667187"><ele>1939.12</ele><time>2014-09-03T11:34:52Z</time></trkpt><trkpt lat="45.9003435541" lon="7.1959782019"><ele>1938.64</ele><time>2014-09-03T11:34:53Z</time></trkpt><trkpt lat="45.9003315680" lon="7.1959967259"><ele>1938.16</ele><time>2014-09-03T11:34:57Z</time></trkpt><trkpt lat="45.9002635069" lon="7.1959958039"><ele>1938.16</ele><time>2014-09-03T11:35:04Z</time></trkpt><trkpt lat="45.9001718927" lon="7.1960239671"><ele>1939.12</ele><time>2014-09-03T11:35:18Z</time></trkpt><trkpt lat="45.9001558833" lon="7.1960257273"><ele>1940.08</ele><time>2014-09-03T11:35:33Z</time></trkpt><trkpt lat="45.9001728985" lon="7.1960433293"><ele>1937.67</ele><time>2014-09-03T11:35:45Z</time></trkpt><trkpt lat="45.9001518600" lon="7.1961108875"><ele>1936.71</ele><time>2014-09-03T11:36:06Z</time></trkpt><trkpt lat="45.9001350962" lon="7.1961410623"><ele>1935.75</ele><time>2014-09-03T11:36:24Z</time></trkpt><trkpt lat="45.9001329169" lon="7.1961983945"><ele>1936.71</ele><time>2014-09-03T11:36:47Z</time></trkpt><trkpt lat="45.9001178294" lon="7.1961752605"><ele>1939.12</ele><time>2014-09-03T11:37:15Z</time></trkpt><trkpt lat="45.9001015685" lon="7.1961771045"><ele>1941.52</ele><time>2014-09-03T11:37:40Z</time></trkpt><trkpt lat="45.9000995569" lon="7.1961465105"><ele>1941.04</ele><time>2014-09-03T11:37:49Z</time></trkpt><trkpt lat="45.9001144767" lon="7.1960453410"><ele>1942.48</ele><time>2014-09-03T11:37:55Z</time></trkpt><trkpt lat="45.9001087770" lon="7.1960315946"><ele>1942.48</ele><time>2014-09-03T11:37:56Z</time></trkpt><trkpt lat="45.9001008142" lon="7.1960132383"><ele>1942.48</ele><time>2014-09-03T11:37:57Z</time></trkpt><trkpt lat="45.9000906721" lon="7.1959955525"><ele>1942.48</ele><time>2014-09-03T11:37:58Z</time></trkpt><trkpt lat="45.9000776801" lon="7.1959837340"><ele>1942.96</ele><time>2014-09-03T11:37:59Z</time></trkpt><trkpt lat="45.8998452500" lon="7.1958559100"><ele>1944.40</ele><time>2014-09-03T11:38:14Z</time></trkpt><trkpt lat="45.8996083774" lon="7.1957982425"><ele>1943.92</ele><time>2014-09-03T11:38:28Z</time></trkpt><trkpt lat="45.8995814715" lon="7.1957980748"><ele>1943.44</ele><time>2014-09-03T11:38:30Z</time></trkpt><trkpt lat="45.8995709103" lon="7.1958062891"><ele>1943.44</ele><time>2014-09-03T11:38:31Z</time></trkpt><trkpt lat="45.8995622769" lon="7.1958960593"><ele>1942.48</ele><time>2014-09-03T11:38:41Z</time></trkpt><trkpt lat="45.8995433338" lon="7.1959295869"><ele>1942.00</ele><time>2014-09-03T11:39:16Z</time></trkpt><trkpt lat="45.8995521348" lon="7.1959837340"><ele>1942.96</ele><time>2014-09-03T11:39:47Z</time></trkpt><trkpt lat="45.8995362930" lon="7.1959638689"><ele>1946.33</ele><time>2014-09-03T11:40:22Z</time></trkpt><trkpt lat="45.8995364606" lon="7.1959534753"><ele>1947.29</ele><time>2014-09-03T11:40:57Z</time></trkpt><trkpt lat="45.8995290846" lon="7.1959709935"><ele>1945.36</ele><time>2014-09-03T11:41:16Z</time></trkpt><trkpt lat="45.8995340299" lon="7.1958251484"><ele>1945.36</ele><time>2014-09-03T11:41:23Z</time></trkpt><trkpt lat="45.8995059505" lon="7.1958116535"><ele>1945.36</ele><time>2014-09-03T11:41:24Z</time></trkpt><trkpt lat="45.8994930424" lon="7.1958047803"><ele>1945.85</ele><time>2014-09-03T11:41:25Z</time></trkpt><trkpt lat="45.8991396613" lon="7.1957028564"><ele>1944.88</ele><time>2014-09-03T11:41:40Z</time></trkpt><trkpt lat="45.8989044651" lon="7.1956171095"><ele>1946.81</ele><time>2014-09-03T11:41:50Z</time></trkpt><trkpt lat="45.8988887910" lon="7.1956337057"><ele>1946.81</ele><time>2014-09-03T11:41:51Z</time></trkpt><trkpt lat="45.8988640644" lon="7.1957029402"><ele>1946.33</ele><time>2014-09-03T11:41:57Z</time></trkpt><trkpt lat="45.8988561016" lon="7.1957209613"><ele>1944.88</ele><time>2014-09-03T11:42:10Z</time></trkpt><trkpt lat="45.8988370746" lon="7.1957012638"><ele>1946.81</ele><time>2014-09-03T11:42:36Z</time></trkpt><trkpt lat="45.8988221548" lon="7.1956712566"><ele>1946.33</ele><time>2014-09-03T11:42:39Z</time></trkpt><trkpt lat="45.8987953328" lon="7.1955748647"><ele>1946.33</ele><time>2014-09-03T11:42:44Z</time></trkpt><trkpt lat="45.8987763897" lon="7.1955347154"><ele>1946.33</ele><time>2014-09-03T11:42:45Z</time></trkpt><trkpt lat="45.8987597097" lon="7.1955146827"><ele>1946.33</ele><time>2014-09-03T11:42:46Z</time></trkpt><trkpt lat="45.8987360727" lon="7.1954881959"><ele>1946.33</ele><time>2014-09-03T11:42:47Z</time></trkpt><trkpt lat="45.8987120166" lon="7.1954673249"><ele>1946.81</ele><time>2014-09-03T11:42:48Z</time></trkpt><trkpt lat="45.8986915648" lon="7.1954419278"><ele>1946.81</ele><time>2014-09-03T11:42:49Z</time></trkpt><trkpt lat="45.8986710291" lon="7.1954141837"><ele>1946.81</ele><time>2014-09-03T11:42:50Z</time></trkpt><trkpt lat="45.8986535948" lon="7.1953850146"><ele>1947.29</ele><time>2014-09-03T11:42:51Z</time></trkpt><trkpt lat="45.8983575460" lon="7.1949433722"><ele>1949.21</ele><time>2014-09-03T11:43:08Z</time></trkpt><trkpt lat="45.8980749082" lon="7.1942895837"><ele>1953.06</ele><time>2014-09-03T11:43:29Z</time></trkpt><trkpt lat="45.8979521133" lon="7.1937335283"><ele>1953.06</ele><time>2014-09-03T11:43:46Z</time></trkpt><trkpt lat="45.8980263770" lon="7.1932783071"><ele>1954.50</ele><time>2014-09-03T11:44:01Z</time></trkpt><trkpt lat="45.8981236909" lon="7.1927627362"><ele>1956.90</ele><time>2014-09-03T11:44:19Z</time></trkpt><trkpt lat="45.8982683625" lon="7.1923014801"><ele>1958.82</ele><time>2014-09-03T11:44:36Z</time></trkpt><trkpt lat="45.8984238468" lon="7.1918960474"><ele>1961.71</ele><time>2014-09-03T11:44:53Z</time></trkpt><trkpt lat="45.8985715359" lon="7.1914627030"><ele>1963.63</ele><time>2014-09-03T11:45:09Z</time></trkpt><trkpt lat="45.8987204824" lon="7.1913037822"><ele>1966.03</ele><time>2014-09-03T11:45:20Z</time></trkpt><trkpt lat="45.8987277746" lon="7.1912869345"><ele>1966.03</ele><time>2014-09-03T11:45:21Z</time></trkpt><trkpt lat="45.8987364080" lon="7.1912670694"><ele>1966.03</ele><time>2014-09-03T11:45:22Z</time></trkpt><trkpt lat="45.8987483941" lon="7.1912472043"><ele>1966.03</ele><time>2014-09-03T11:45:23Z</time></trkpt><trkpt lat="45.8987624757" lon="7.1912290156"><ele>1966.03</ele><time>2014-09-03T11:45:24Z</time></trkpt><trkpt lat="45.8987738751" lon="7.1912078932"><ele>1966.51</ele><time>2014-09-03T11:45:25Z</time></trkpt><trkpt lat="45.8987835981" lon="7.1911849268"><ele>1966.51</ele><time>2014-09-03T11:45:26Z</time></trkpt><trkpt lat="45.8987892140" lon="7.1911622118"><ele>1966.51</ele><time>2014-09-03T11:45:27Z</time></trkpt><trkpt lat="45.8987939078" lon="7.1911389939"><ele>1966.51</ele><time>2014-09-03T11:45:28Z</time></trkpt><trkpt lat="45.8988351468" lon="7.1908424422"><ele>1968.44</ele><time>2014-09-03T11:45:41Z</time></trkpt><trkpt lat="45.8988648187" lon="7.1906643268"><ele>1969.88</ele><time>2014-09-03T11:45:50Z</time></trkpt><trkpt lat="45.8988694288" lon="7.1906479821"><ele>1969.88</ele><time>2014-09-03T11:45:51Z</time></trkpt><trkpt lat="45.8988725301" lon="7.1906259377"><ele>1969.88</ele><time>2014-09-03T11:45:52Z</time></trkpt><trkpt lat="45.8988743741" lon="7.1906076651"><ele>1969.88</ele><time>2014-09-03T11:45:53Z</time></trkpt><trkpt lat="45.8988753799" lon="7.1905862913"><ele>1970.36</ele><time>2014-09-03T11:45:54Z</time></trkpt><trkpt lat="45.8988770563" lon="7.1905693598"><ele>1970.36</ele><time>2014-09-03T11:45:55Z</time></trkpt><trkpt lat="45.8988818340" lon="7.1905534342"><ele>1970.84</ele><time>2014-09-03T11:45:56Z</time></trkpt><trkpt lat="45.8988887910" lon="7.1905344073"><ele>1970.84</ele><time>2014-09-03T11:45:57Z</time></trkpt><trkpt lat="45.8988962509" lon="7.1905136202"><ele>1970.84</ele><time>2014-09-03T11:45:58Z</time></trkpt><trkpt lat="45.8989035431" lon="7.1904936712"><ele>1971.32</ele><time>2014-09-03T11:45:59Z</time></trkpt><trkpt lat="45.8989089914" lon="7.1904729679"><ele>1971.32</ele><time>2014-09-03T11:46:00Z</time></trkpt><trkpt lat="45.8989131823" lon="7.1904539410"><ele>1971.32</ele><time>2014-09-03T11:46:01Z</time></trkpt><trkpt lat="45.8989185467" lon="7.1904361714"><ele>1971.80</ele><time>2014-09-03T11:46:02Z</time></trkpt><trkpt lat="45.8989271801" lon="7.1903806832"><ele>1974.69</ele><time>2014-09-03T11:46:15Z</time></trkpt><trkpt lat="45.8989466261" lon="7.1903526038"><ele>1972.76</ele><time>2014-09-03T11:46:43Z</time></trkpt><trkpt lat="45.8989418484" lon="7.1903005522"><ele>1974.20</ele><time>2014-09-03T11:46:51Z</time></trkpt><trkpt lat="45.8989389148" lon="7.1902793460"><ele>1974.20</ele><time>2014-09-03T11:46:52Z</time></trkpt><trkpt lat="45.8989436924" lon="7.1902552061"><ele>1975.17</ele><time>2014-09-03T11:46:53Z</time></trkpt><trkpt lat="45.8989555947" lon="7.1902293898"><ele>1975.17</ele><time>2014-09-03T11:46:54Z</time></trkpt><trkpt lat="45.8989640605" lon="7.1902060043"><ele>1975.65</ele><time>2014-09-03T11:46:55Z</time></trkpt><trkpt lat="45.8989690896" lon="7.1901816130"><ele>1976.13</ele><time>2014-09-03T11:46:56Z</time></trkpt><trkpt lat="45.8989753760" lon="7.1901565511"><ele>1976.13</ele><time>2014-09-03T11:46:57Z</time></trkpt><trkpt lat="45.8989814948" lon="7.1901315730"><ele>1976.61</ele><time>2014-09-03T11:46:58Z</time></trkpt><trkpt lat="45.8989552595" lon="7.1897835564"><ele>1979.01</ele><time>2014-09-03T11:47:12Z</time></trkpt><trkpt lat="45.8988490608" lon="7.1894649602"><ele>1983.34</ele><time>2014-09-03T11:47:27Z</time></trkpt><trkpt lat="45.8987891302" lon="7.1892576758"><ele>1986.70</ele><time>2014-09-03T11:47:37Z</time></trkpt><trkpt lat="45.8987784013" lon="7.1892378945"><ele>1987.18</ele><time>2014-09-03T11:47:38Z</time></trkpt><trkpt lat="45.8987768926" lon="7.1892149281"><ele>1987.66</ele><time>2014-09-03T11:47:39Z</time></trkpt><trkpt lat="45.8987758867" lon="7.1891942248"><ele>1988.62</ele><time>2014-09-03T11:47:40Z</time></trkpt><trkpt lat="45.8987733722" lon="7.1891771257"><ele>1989.10</ele><time>2014-09-03T11:47:41Z</time></trkpt><trkpt lat="45.8987701032" lon="7.1891589370"><ele>1989.59</ele><time>2014-09-03T11:47:42Z</time></trkpt><trkpt lat="45.8987670019" lon="7.1891389042"><ele>1990.07</ele><time>2014-09-03T11:47:43Z</time></trkpt><trkpt lat="45.8987645712" lon="7.1891196258"><ele>1990.07</ele><time>2014-09-03T11:47:44Z</time></trkpt><trkpt lat="45.8987606317" lon="7.1890983358"><ele>1990.55</ele><time>2014-09-03T11:47:45Z</time></trkpt><trkpt lat="45.8987604640" lon="7.1890768781"><ele>1991.03</ele><time>2014-09-03T11:47:46Z</time></trkpt><trkpt lat="45.8987580333" lon="7.1890596952"><ele>1991.03</ele><time>2014-09-03T11:47:47Z</time></trkpt><trkpt lat="45.8987502381" lon="7.1890449431"><ele>1991.03</ele><time>2014-09-03T11:47:48Z</time></trkpt><trkpt lat="45.8987442870" lon="7.1890270896"><ele>1991.51</ele><time>2014-09-03T11:47:49Z</time></trkpt><trkpt lat="45.8987331390" lon="7.1890134271"><ele>1991.51</ele><time>2014-09-03T11:47:50Z</time></trkpt><trkpt lat="45.8987258468" lon="7.1889945678"><ele>1991.99</ele><time>2014-09-03T11:47:51Z</time></trkpt><trkpt lat="45.8987219073" lon="7.1889755409"><ele>1992.47</ele><time>2014-09-03T11:47:52Z</time></trkpt><trkpt lat="45.8987194765" lon="7.1889560111"><ele>1992.95</ele><time>2014-09-03T11:47:53Z</time></trkpt><trkpt lat="45.8987155370" lon="7.1889366489"><ele>1993.43</ele><time>2014-09-03T11:47:54Z</time></trkpt><trkpt lat="45.8987163752" lon="7.1889138501"><ele>1993.91</ele><time>2014-09-03T11:47:55Z</time></trkpt><trkpt lat="45.8987116814" lon="7.1888954937"><ele>1994.39</ele><time>2014-09-03T11:47:56Z</time></trkpt><trkpt lat="45.8987023775" lon="7.1888808254"><ele>1995.35</ele><time>2014-09-03T11:47:57Z</time></trkpt><trkpt lat="45.8986963425" lon="7.1888648160"><ele>1995.35</ele><time>2014-09-03T11:47:58Z</time></trkpt><trkpt lat="45.8986930735" lon="7.1888465434"><ele>1995.83</ele><time>2014-09-03T11:47:59Z</time></trkpt><trkpt lat="45.8986877091" lon="7.1888294443"><ele>1995.83</ele><time>2014-09-03T11:48:00Z</time></trkpt><trkpt lat="45.8986830153" lon="7.1888116747"><ele>1996.32</ele><time>2014-09-03T11:48:01Z</time></trkpt><trkpt lat="45.8986805845" lon="7.1887912229"><ele>1996.32</ele><time>2014-09-03T11:48:02Z</time></trkpt><trkpt lat="45.8986785728" lon="7.1887710225"><ele>1996.80</ele><time>2014-09-03T11:48:03Z</time></trkpt><trkpt lat="45.8986753877" lon="7.1887491457"><ele>1996.80</ele><time>2014-09-03T11:48:04Z</time></trkpt><trkpt lat="45.8986684307" lon="7.1887353994"><ele>1997.28</ele><time>2014-09-03T11:48:05Z</time></trkpt><trkpt lat="45.8986732922" lon="7.1887413505"><ele>1997.28</ele><time>2014-09-03T11:48:17Z</time></trkpt><trkpt lat="45.8987029642" lon="7.1886919811"><ele>1992.47</ele><time>2014-09-03T11:48:53Z</time></trkpt><trkpt lat="45.8986540139" lon="7.1887285262"><ele>1991.99</ele><time>2014-09-03T11:49:32Z</time></trkpt><trkpt lat="45.8987203147" lon="7.1887183841"><ele>1992.95</ele><time>2014-09-03T11:50:07Z</time></trkpt><trkpt lat="45.8986323886" lon="7.1886433661"><ele>1996.32</ele><time>2014-09-03T11:50:32Z</time></trkpt><trkpt lat="45.8984735515" lon="7.1883333195"><ele>1996.32</ele><time>2014-09-03T11:50:48Z</time></trkpt><trkpt lat="45.8983510081" lon="7.1880688705"><ele>1996.32</ele><time>2014-09-03T11:51:02Z</time></trkpt><trkpt lat="45.8983002976" lon="7.1879603248"><ele>1997.28</ele><time>2014-09-03T11:51:08Z</time></trkpt><trkpt lat="45.8982899878" lon="7.1879412141"><ele>1997.28</ele><time>2014-09-03T11:51:09Z</time></trkpt><trkpt lat="45.8982821926" lon="7.1879247855"><ele>1997.76</ele><time>2014-09-03T11:51:10Z</time></trkpt><trkpt lat="45.8982170653" lon="7.1877627634"><ele>1999.68</ele><time>2014-09-03T11:51:19Z</time></trkpt><trkpt lat="45.8982092701" lon="7.1877454128"><ele>2000.16</ele><time>2014-09-03T11:51:20Z</time></trkpt><trkpt lat="45.8980770875" lon="7.1875692252"><ele>2002.56</ele><time>2014-09-03T11:51:34Z</time></trkpt><trkpt lat="45.8980659395" lon="7.1875610948"><ele>2003.04</ele><time>2014-09-03T11:51:35Z</time></trkpt><trkpt lat="45.8980142232" lon="7.1875280701"><ele>2003.52</ele><time>2014-09-03T11:51:40Z</time></trkpt><trkpt lat="45.8980050031" lon="7.1875282377"><ele>2004.01</ele><time>2014-09-03T11:51:41Z</time></trkpt><trkpt lat="45.8979947772" lon="7.1875284053"><ele>2004.01</ele><time>2014-09-03T11:51:42Z</time></trkpt><trkpt lat="45.8979849704" lon="7.1875293273"><ele>2004.49</ele><time>2014-09-03T11:51:43Z</time></trkpt><trkpt lat="45.8979743253" lon="7.1875305846"><ele>2004.01</ele><time>2014-09-03T11:51:44Z</time></trkpt><trkpt lat="45.8979626745" lon="7.1875310875"><ele>2004.01</ele><time>2014-09-03T11:51:45Z</time></trkpt><trkpt lat="45.8979516942" lon="7.1875284053"><ele>2004.01</ele><time>2014-09-03T11:51:46Z</time></trkpt><trkpt lat="45.8979401272" lon="7.1875278186"><ele>2004.49</ele><time>2014-09-03T11:51:47Z</time></trkpt><trkpt lat="45.8979277220" lon="7.1875270642"><ele>2004.49</ele><time>2014-09-03T11:51:48Z</time></trkpt><trkpt lat="45.8978376165" lon="7.1875154134"><ele>2005.93</ele><time>2014-09-03T11:51:55Z</time></trkpt><trkpt lat="45.8976454195" lon="7.1873827279"><ele>2008.33</ele><time>2014-09-03T11:52:10Z</time></trkpt><trkpt lat="45.8973452635" lon="7.1872400679"><ele>2007.85</ele><time>2014-09-03T11:52:31Z</time></trkpt><trkpt lat="45.8973307628" lon="7.1872374695"><ele>2008.33</ele><time>2014-09-03T11:52:32Z</time></trkpt><trkpt lat="45.8973168489" lon="7.1872325242"><ele>2008.33</ele><time>2014-09-03T11:52:33Z</time></trkpt><trkpt lat="45.8970307745" lon="7.1872242261"><ele>2010.73</ele><time>2014-09-03T11:52:52Z</time></trkpt><trkpt lat="45.8967710193" lon="7.1871379763"><ele>2013.62</ele><time>2014-09-03T11:53:10Z</time></trkpt><trkpt lat="45.8966763876" lon="7.1870992519"><ele>2014.10</ele><time>2014-09-03T11:53:17Z</time></trkpt><trkpt lat="45.8966649882" lon="7.1870890260"><ele>2014.10</ele><time>2014-09-03T11:53:18Z</time></trkpt><trkpt lat="45.8966516610" lon="7.1870819852"><ele>2014.10</ele><time>2014-09-03T11:53:19Z</time></trkpt><trkpt lat="45.8966368251" lon="7.1870725974"><ele>2014.58</ele><time>2014-09-03T11:53:20Z</time></trkpt><trkpt lat="45.8966230787" lon="7.1870655566"><ele>2014.58</ele><time>2014-09-03T11:53:21Z</time></trkpt><trkpt lat="45.8966112603" lon="7.1870611981"><ele>2015.06</ele><time>2014-09-03T11:53:22Z</time></trkpt><trkpt lat="45.8965986874" lon="7.1870532352"><ele>2015.54</ele><time>2014-09-03T11:53:23Z</time></trkpt><trkpt lat="45.8965885453" lon="7.1870463621"><ele>2015.54</ele><time>2014-09-03T11:53:24Z</time></trkpt><trkpt lat="45.8965767268" lon="7.1870431770"><ele>2015.54</ele><time>2014-09-03T11:53:25Z</time></trkpt><trkpt lat="45.8965661656" lon="7.1870334540"><ele>2016.02</ele><time>2014-09-03T11:53:26Z</time></trkpt><trkpt lat="45.8965523355" lon="7.1870261617"><ele>2016.02</ele><time>2014-09-03T11:53:27Z</time></trkpt><trkpt lat="45.8965384215" lon="7.1870224737"><ele>2016.50</ele><time>2014-09-03T11:53:28Z</time></trkpt><trkpt lat="45.8965245076" lon="7.1870176122"><ele>2016.50</ele><time>2014-09-03T11:53:29Z</time></trkpt><trkpt lat="45.8965121023" lon="7.1870156843"><ele>2016.98</ele><time>2014-09-03T11:53:30Z</time></trkpt><trkpt lat="45.8964393474" lon="7.1869845036"><ele>2018.91</ele><time>2014-09-03T11:53:36Z</time></trkpt><trkpt lat="45.8964011259" lon="7.1869625431"><ele>2020.35</ele><time>2014-09-03T11:53:48Z</time></trkpt><trkpt lat="45.8963881340" lon="7.1869439352"><ele>2020.35</ele><time>2014-09-03T11:54:24Z</time></trkpt><trkpt lat="45.8963583782" lon="7.1869128384"><ele>2024.67</ele><time>2014-09-03T11:55:06Z</time></trkpt><trkpt lat="45.8963716216" lon="7.1869021095"><ele>2022.27</ele><time>2014-09-03T11:55:45Z</time></trkpt><trkpt lat="45.8963940013" lon="7.1868915483"><ele>2016.50</ele><time>2014-09-03T11:55:58Z</time></trkpt><trkpt lat="45.8964105975" lon="7.1869277582"><ele>2009.29</ele><time>2014-09-03T11:56:39Z</time></trkpt><trkpt lat="45.8963331487" lon="7.1869059652"><ele>2012.18</ele><time>2014-09-03T11:56:52Z</time></trkpt><trkpt lat="45.8963200729" lon="7.1869089827"><ele>2011.70</ele><time>2014-09-03T11:56:53Z</time></trkpt><trkpt lat="45.8963075839" lon="7.1869111620"><ele>2012.18</ele><time>2014-09-03T11:56:54Z</time></trkpt><trkpt lat="45.8962884732" lon="7.1869040374"><ele>2012.18</ele><time>2014-09-03T11:56:55Z</time></trkpt><trkpt lat="45.8962772414" lon="7.1868925542"><ele>2012.66</ele><time>2014-09-03T11:56:56Z</time></trkpt><trkpt lat="45.8962054923" lon="7.1868690848"><ele>2013.14</ele><time>2014-09-03T11:57:01Z</time></trkpt><trkpt lat="45.8961932547" lon="7.1868640557"><ele>2013.14</ele><time>2014-09-03T11:57:02Z</time></trkpt><trkpt lat="45.8961802628" lon="7.1868586075"><ele>2013.14</ele><time>2014-09-03T11:57:03Z</time></trkpt><trkpt lat="45.8961647563" lon="7.1868550032"><ele>2013.14</ele><time>2014-09-03T11:57:04Z</time></trkpt><trkpt lat="45.8961500879" lon="7.1868519858"><ele>2013.62</ele><time>2014-09-03T11:57:05Z</time></trkpt><trkpt lat="45.8960573003" lon="7.1868427657"><ele>2014.10</ele><time>2014-09-03T11:57:11Z</time></trkpt><trkpt lat="45.8960433025" lon="7.1868339647"><ele>2014.58</ele><time>2014-09-03T11:57:12Z</time></trkpt><trkpt lat="45.8960298914" lon="7.1868286002"><ele>2014.58</ele><time>2014-09-03T11:57:13Z</time></trkpt><trkpt lat="45.8960165642" lon="7.1868259180"><ele>2014.10</ele><time>2014-09-03T11:57:14Z</time></trkpt><trkpt lat="45.8960042428" lon="7.1868228167"><ele>2014.10</ele><time>2014-09-03T11:57:15Z</time></trkpt><trkpt lat="45.8959893230" lon="7.1868222300"><ele>2014.58</ele><time>2014-09-03T11:57:16Z</time></trkpt><trkpt lat="45.8959742356" lon="7.1868261695"><ele>2014.58</ele><time>2014-09-03T11:57:17Z</time></trkpt><trkpt lat="45.8959587291" lon="7.1868270915"><ele>2014.58</ele><time>2014-09-03T11:57:18Z</time></trkpt><trkpt lat="45.8959437255" lon="7.1868250798"><ele>2015.06</ele><time>2014-09-03T11:57:19Z</time></trkpt><trkpt lat="45.8956752531" lon="7.1868148539"><ele>2017.94</ele><time>2014-09-03T11:57:37Z</time></trkpt><trkpt lat="45.8955155779" lon="7.1867805719"><ele>2019.87</ele><time>2014-09-03T11:57:49Z</time></trkpt><trkpt lat="45.8953302540" lon="7.1867549233"><ele>2023.23</ele><time>2014-09-03T11:58:03Z</time></trkpt><trkpt lat="45.8952914458" lon="7.1867141873"><ele>2023.71</ele><time>2014-09-03T11:58:15Z</time></trkpt><trkpt lat="45.8952411544" lon="7.1866763849"><ele>2027.08</ele><time>2014-09-03T11:58:47Z</time></trkpt><trkpt lat="45.8952241391" lon="7.1866817493"><ele>2032.84</ele><time>2014-09-03T11:59:24Z</time></trkpt><trkpt lat="45.8952258993" lon="7.1866694279"><ele>2029.96</ele><time>2014-09-03T11:59:52Z</time></trkpt><trkpt lat="45.8952141646" lon="7.1866894607"><ele>2029.48</ele><time>2014-09-03T12:00:00Z</time></trkpt><trkpt lat="45.8952062018" lon="7.1866801567"><ele>2029.96</ele><time>2014-09-03T12:00:01Z</time></trkpt><trkpt lat="45.8951550722" lon="7.1866623033"><ele>2029.96</ele><time>2014-09-03T12:00:05Z</time></trkpt><trkpt lat="45.8951448463" lon="7.1866545081"><ele>2029.96</ele><time>2014-09-03T12:00:06Z</time></trkpt><trkpt lat="45.8949309401" lon="7.1865986846"><ele>2031.40</ele><time>2014-09-03T12:00:21Z</time></trkpt><trkpt lat="45.8948917128" lon="7.1865737066"><ele>2031.88</ele><time>2014-09-03T12:00:24Z</time></trkpt><trkpt lat="45.8948759548" lon="7.1865701862"><ele>2031.88</ele><time>2014-09-03T12:00:25Z</time></trkpt><trkpt lat="45.8948618732" lon="7.1865637321"><ele>2031.88</ele><time>2014-09-03T12:00:26Z</time></trkpt><trkpt lat="45.8948487137" lon="7.1865555178"><ele>2032.36</ele><time>2014-09-03T12:00:27Z</time></trkpt><trkpt lat="45.8948314469" lon="7.1865519974"><ele>2032.36</ele><time>2014-09-03T12:00:28Z</time></trkpt><trkpt lat="45.8947498910" lon="7.1864969283"><ele>2032.84</ele><time>2014-09-03T12:00:34Z</time></trkpt><trkpt lat="45.8945248369" lon="7.1864525881"><ele>2034.29</ele><time>2014-09-03T12:00:50Z</time></trkpt><trkpt lat="45.8942784928" lon="7.1864513308"><ele>2035.73</ele><time>2014-09-03T12:01:07Z</time></trkpt><trkpt lat="45.8940735552" lon="7.1864808351"><ele>2037.17</ele><time>2014-09-03T12:01:23Z</time></trkpt><trkpt lat="45.8940118644" lon="7.1864628140"><ele>2037.17</ele><time>2014-09-03T12:01:28Z</time></trkpt><trkpt lat="45.8939997107" lon="7.1864636522"><ele>2037.17</ele><time>2014-09-03T12:01:29Z</time></trkpt><trkpt lat="45.8939866349" lon="7.1864648256"><ele>2037.17</ele><time>2014-09-03T12:01:30Z</time></trkpt><trkpt lat="45.8939726371" lon="7.1864691004"><ele>2037.65</ele><time>2014-09-03T12:01:31Z</time></trkpt><trkpt lat="45.8939585555" lon="7.1864742134"><ele>2037.65</ele><time>2014-09-03T12:01:32Z</time></trkpt><trkpt lat="45.8939447254" lon="7.1864697710"><ele>2037.65</ele><time>2014-09-03T12:01:33Z</time></trkpt><trkpt lat="45.8939305600" lon="7.1864660829"><ele>2037.65</ele><time>2014-09-03T12:01:34Z</time></trkpt><trkpt lat="45.8939158078" lon="7.1864693519"><ele>2037.65</ele><time>2014-09-03T12:01:35Z</time></trkpt><trkpt lat="45.8939024806" lon="7.1864752192"><ele>2037.65</ele><time>2014-09-03T12:01:36Z</time></trkpt><trkpt lat="45.8938902430" lon="7.1864809189"><ele>2037.65</ele><time>2014-09-03T12:01:37Z</time></trkpt><trkpt lat="45.8938762452" lon="7.1864836849"><ele>2037.65</ele><time>2014-09-03T12:01:38Z</time></trkpt><trkpt lat="45.8936855569" lon="7.1864687651"><ele>2038.13</ele><time>2014-09-03T12:01:52Z</time></trkpt><trkpt lat="45.8934539650" lon="7.1864625625"><ele>2039.09</ele><time>2014-09-03T12:02:09Z</time></trkpt><trkpt lat="45.8932794537" lon="7.1864308789"><ele>2041.02</ele><time>2014-09-03T12:02:23Z</time></trkpt><trkpt lat="45.8932101354" lon="7.1864128578"><ele>2041.98</ele><time>2014-09-03T12:02:35Z</time></trkpt><trkpt lat="45.8932258096" lon="7.1864172164"><ele>2039.57</ele><time>2014-09-03T12:03:26Z</time></trkpt><trkpt lat="45.8932046033" lon="7.1864406858"><ele>2041.50</ele><time>2014-09-03T12:04:14Z</time></trkpt><trkpt lat="45.8932046033" lon="7.1864142828"><ele>2042.94</ele><time>2014-09-03T12:04:54Z</time></trkpt><trkpt lat="45.8932176791" lon="7.1864096727"><ele>2043.90</ele><time>2014-09-03T12:05:44Z</time></trkpt><trkpt lat="45.8932265639" lon="7.1864258498"><ele>2045.82</ele><time>2014-09-03T12:06:29Z</time></trkpt><trkpt lat="45.8932247199" lon="7.1863996983"><ele>2044.38</ele><time>2014-09-03T12:07:03Z</time></trkpt><trkpt lat="45.8932301681" lon="7.1864220779"><ele>2042.94</ele><time>2014-09-03T12:07:57Z</time></trkpt><trkpt lat="45.8932269830" lon="7.1864202339"><ele>2041.98</ele><time>2014-09-03T12:08:44Z</time></trkpt><trkpt lat="45.8932134882" lon="7.1864457149"><ele>2038.13</ele><time>2014-09-03T12:09:32Z</time></trkpt><trkpt lat="45.8932147454" lon="7.1864416078"><ele>2042.46</ele><time>2014-09-03T12:10:10Z</time></trkpt><trkpt lat="45.8931978140" lon="7.1864385903"><ele>2041.02</ele><time>2014-09-03T12:10:41Z</time></trkpt><trkpt lat="45.8931267355" lon="7.1864251792"><ele>2041.50</ele><time>2014-09-03T12:10:52Z</time></trkpt><trkpt lat="45.8930349536" lon="7.1864395123"><ele>2043.42</ele><time>2014-09-03T12:10:58Z</time></trkpt><trkpt lat="45.8930207044" lon="7.1864378359"><ele>2043.42</ele><time>2014-09-03T12:10:59Z</time></trkpt><trkpt lat="45.8928520605" lon="7.1864772309"><ele>2045.34</ele><time>2014-09-03T12:11:10Z</time></trkpt><trkpt lat="45.8928370569" lon="7.1864779852"><ele>2045.82</ele><time>2014-09-03T12:11:11Z</time></trkpt><trkpt lat="45.8927602787" lon="7.1865046397"><ele>2046.30</ele><time>2014-09-03T12:11:16Z</time></trkpt><trkpt lat="45.8927442692" lon="7.1865084115"><ele>2046.30</ele><time>2014-09-03T12:11:17Z</time></trkpt><trkpt lat="45.8927285112" lon="7.1865153685"><ele>2046.78</ele><time>2014-09-03T12:11:18Z</time></trkpt><trkpt lat="45.8927104063" lon="7.1865202300"><ele>2046.78</ele><time>2014-09-03T12:11:19Z</time></trkpt><trkpt lat="45.8926967438" lon="7.1865230799"><ele>2046.78</ele><time>2014-09-03T12:11:20Z</time></trkpt><trkpt lat="45.8924547583" lon="7.1865893807"><ele>2050.15</ele><time>2014-09-03T12:11:38Z</time></trkpt><trkpt lat="45.8923722804" lon="7.1866096649"><ele>2051.59</ele><time>2014-09-03T12:11:44Z</time></trkpt><trkpt lat="45.8923575282" lon="7.1866142750"><ele>2051.59</ele><time>2014-09-03T12:11:45Z</time></trkpt><trkpt lat="45.8923452068" lon="7.1866177954"><ele>2052.07</ele><time>2014-09-03T12:11:46Z</time></trkpt><trkpt lat="45.8923316281" lon="7.1866239980"><ele>2052.55</ele><time>2014-09-03T12:11:47Z</time></trkpt><trkpt lat="45.8923210669" lon="7.1866283566"><ele>2053.03</ele><time>2014-09-03T12:11:48Z</time></trkpt><trkpt lat="45.8923098352" lon="7.1866348106"><ele>2053.03</ele><time>2014-09-03T12:11:49Z</time></trkpt><trkpt lat="45.8922907244" lon="7.1866338886"><ele>2056.40</ele><time>2014-09-03T12:12:02Z</time></trkpt><trkpt lat="45.8922523353" lon="7.1866546758"><ele>2056.88</ele><time>2014-09-03T12:12:13Z</time></trkpt><trkpt lat="45.8922376670" lon="7.1866559330"><ele>2056.88</ele><time>2014-09-03T12:12:14Z</time></trkpt><trkpt lat="45.8922198135" lon="7.1866624709"><ele>2057.36</ele><time>2014-09-03T12:12:15Z</time></trkpt><trkpt lat="45.8922038879" lon="7.1866683383"><ele>2057.36</ele><time>2014-09-03T12:12:16Z</time></trkpt><trkpt lat="45.8921903931" lon="7.1866714396"><ele>2057.36</ele><time>2014-09-03T12:12:17Z</time></trkpt><trkpt lat="45.8921738807" lon="7.1866809111"><ele>2057.36</ele><time>2014-09-03T12:12:18Z</time></trkpt><trkpt lat="45.8921623975" lon="7.1866882034"><ele>2057.36</ele><time>2014-09-03T12:12:19Z</time></trkpt><trkpt lat="45.8921494894" lon="7.1866948251"><ele>2057.36</ele><time>2014-09-03T12:12:20Z</time></trkpt><trkpt lat="45.8921350725" lon="7.1866965853"><ele>2057.36</ele><time>2014-09-03T12:12:21Z</time></trkpt><trkpt lat="45.8921178058" lon="7.1866980102"><ele>2057.36</ele><time>2014-09-03T12:12:22Z</time></trkpt><trkpt lat="45.8921059873" lon="7.1867036261"><ele>2057.36</ele><time>2014-09-03T12:12:23Z</time></trkpt><trkpt lat="45.8920938335" lon="7.1867120918"><ele>2057.36</ele><time>2014-09-03T12:12:24Z</time></trkpt><trkpt lat="45.8920820151" lon="7.1867193002"><ele>2057.36</ele><time>2014-09-03T12:12:25Z</time></trkpt><trkpt lat="45.8920692746" lon="7.1867256705"><ele>2057.36</ele><time>2014-09-03T12:12:26Z</time></trkpt><trkpt lat="45.8920570370" lon="7.1867294423"><ele>2057.36</ele><time>2014-09-03T12:12:27Z</time></trkpt><trkpt lat="45.8920428716" lon="7.1867339686"><ele>2057.36</ele><time>2014-09-03T12:12:28Z</time></trkpt><trkpt lat="45.8920292929" lon="7.1867419314"><ele>2057.36</ele><time>2014-09-03T12:12:29Z</time></trkpt><trkpt lat="45.8920157980" lon="7.1867487207"><ele>2057.36</ele><time>2014-09-03T12:12:30Z</time></trkpt><trkpt lat="45.8920023870" lon="7.1867519896"><ele>2057.36</ele><time>2014-09-03T12:12:31Z</time></trkpt><trkpt lat="45.8919896465" lon="7.1867560968"><ele>2057.36</ele><time>2014-09-03T12:12:32Z</time></trkpt><trkpt lat="45.8919757325" lon="7.1867610421"><ele>2057.36</ele><time>2014-09-03T12:12:33Z</time></trkpt><trkpt lat="45.8919621538" lon="7.1867649816"><ele>2057.84</ele><time>2014-09-03T12:12:34Z</time></trkpt><trkpt lat="45.8917650115" lon="7.1868233196"><ele>2059.28</ele><time>2014-09-03T12:12:51Z</time></trkpt><trkpt lat="45.8917067572" lon="7.1868498065"><ele>2059.28</ele><time>2014-09-03T12:13:03Z</time></trkpt><trkpt lat="45.8917484153" lon="7.1869577654"><ele>2061.68</ele><time>2014-09-03T12:13:50Z</time></trkpt><trkpt lat="45.8917366806" lon="7.1869152691"><ele>2059.76</ele><time>2014-09-03T12:14:33Z</time></trkpt><trkpt lat="45.8917922527" lon="7.1869545802"><ele>2063.13</ele><time>2014-09-03T12:15:20Z</time></trkpt><trkpt lat="45.8918136265" lon="7.1870142594"><ele>2071.78</ele><time>2014-09-03T12:16:14Z</time></trkpt><trkpt lat="45.8917813562" lon="7.1869588550"><ele>2072.74</ele><time>2014-09-03T12:16:56Z</time></trkpt><trkpt lat="45.8917587250" lon="7.1869612020"><ele>2071.30</ele><time>2014-09-03T12:17:39Z</time></trkpt><trkpt lat="45.8917405363" lon="7.1870064642"><ele>2064.09</ele><time>2014-09-03T12:18:22Z</time></trkpt><trkpt lat="45.8917150553" lon="7.1870067157"><ele>2063.13</ele><time>2014-09-03T12:18:56Z</time></trkpt><trkpt lat="45.8917316515" lon="7.1869584359"><ele>2066.97</ele><time>2014-09-03T12:19:32Z</time></trkpt><trkpt lat="45.8917431347" lon="7.1869228128"><ele>2066.97</ele><time>2014-09-03T12:20:07Z</time></trkpt><trkpt lat="45.8917729743" lon="7.1869885270"><ele>2074.66</ele><time>2014-09-03T12:20:46Z</time></trkpt><trkpt lat="45.8917538635" lon="7.1869874373"><ele>2079.47</ele><time>2014-09-03T12:21:15Z</time></trkpt><trkpt lat="45.8916968666" lon="7.1870174445"><ele>2077.55</ele><time>2014-09-03T12:21:44Z</time></trkpt><trkpt lat="45.8916973695" lon="7.1869636327"><ele>2072.74</ele><time>2014-09-03T12:22:14Z</time></trkpt><trkpt lat="45.8916754089" lon="7.1870078053"><ele>2073.70</ele><time>2014-09-03T12:22:47Z</time></trkpt><trkpt lat="45.8916824497" lon="7.1869858447"><ele>2075.62</ele><time>2014-09-03T12:23:14Z</time></trkpt><trkpt lat="45.8916753251" lon="7.1870000102"><ele>2075.62</ele><time>2014-09-03T12:23:56Z</time></trkpt><trkpt lat="45.8916735649" lon="7.1869461145"><ele>2073.22</ele><time>2014-09-03T12:24:30Z</time></trkpt><trkpt lat="45.8916597348" lon="7.1868863516"><ele>2064.09</ele><time>2014-09-03T12:25:08Z</time></trkpt><trkpt lat="45.8916792646" lon="7.1868719347"><ele>2058.32</ele><time>2014-09-03T12:25:40Z</time></trkpt><trkpt lat="45.8916760795" lon="7.1868726052"><ele>2053.51</ele><time>2014-09-03T12:26:14Z</time></trkpt><trkpt lat="45.8916916698" lon="7.1869230643"><ele>2053.51</ele><time>2014-09-03T12:26:55Z</time></trkpt><trkpt lat="45.8917006385" lon="7.1868695039"><ele>2051.59</ele><time>2014-09-03T12:27:34Z</time></trkpt><trkpt lat="45.8917029016" lon="7.1868596971"><ele>2051.11</ele><time>2014-09-03T12:28:15Z</time></trkpt><trkpt lat="45.8917308971" lon="7.1868451126"><ele>2052.07</ele><time>2014-09-03T12:28:47Z</time></trkpt><trkpt lat="45.8917302266" lon="7.1868783049"><ele>2050.63</ele><time>2014-09-03T12:29:26Z</time></trkpt><trkpt lat="45.8917469904" lon="7.1868590266"><ele>2048.71</ele><time>2014-09-03T12:30:15Z</time></trkpt><trkpt lat="45.8917619102" lon="7.1868559252"><ele>2047.75</ele><time>2014-09-03T12:30:44Z</time></trkpt><trkpt lat="45.8917027339" lon="7.1868846752"><ele>2049.67</ele><time>2014-09-03T12:30:55Z</time></trkpt><trkpt lat="45.8916918375" lon="7.1868871897"><ele>2050.15</ele><time>2014-09-03T12:30:56Z</time></trkpt><trkpt lat="45.8916777559" lon="7.1868923865"><ele>2051.11</ele><time>2014-09-03T12:30:57Z</time></trkpt><trkpt lat="45.8916643448" lon="7.1869042050"><ele>2051.59</ele><time>2014-09-03T12:30:58Z</time></trkpt><trkpt lat="45.8916531131" lon="7.1869159397"><ele>2052.07</ele><time>2014-09-03T12:30:59Z</time></trkpt><trkpt lat="45.8914532885" lon="7.1870727651"><ele>2056.88</ele><time>2014-09-03T12:31:14Z</time></trkpt><trkpt lat="45.8912191819" lon="7.1873038542"><ele>2059.76</ele><time>2014-09-03T12:31:32Z</time></trkpt><trkpt lat="45.8910171781" lon="7.1874989010"><ele>2062.65</ele><time>2014-09-03T12:31:48Z</time></trkpt><trkpt lat="45.8909569960" lon="7.1875398885"><ele>2064.57</ele><time>2014-09-03T12:31:52Z</time></trkpt><trkpt lat="45.8907461911" lon="7.1876705624"><ele>2069.86</ele><time>2014-09-03T12:32:06Z</time></trkpt><trkpt lat="45.8907301817" lon="7.1876764297"><ele>2070.34</ele><time>2014-09-03T12:32:07Z</time></trkpt><trkpt lat="45.8907161839" lon="7.1876864880"><ele>2070.82</ele><time>2014-09-03T12:32:08Z</time></trkpt><trkpt lat="45.8907026052" lon="7.1876973845"><ele>2071.30</ele><time>2014-09-03T12:32:09Z</time></trkpt><trkpt lat="45.8906887751" lon="7.1877067722"><ele>2071.78</ele><time>2014-09-03T12:32:10Z</time></trkpt><trkpt lat="45.8906767052" lon="7.1877128072"><ele>2071.78</ele><time>2014-09-03T12:32:11Z</time></trkpt><trkpt lat="45.8906364720" lon="7.1877475921"><ele>2072.74</ele><time>2014-09-03T12:32:14Z</time></trkpt><trkpt lat="45.8906205464" lon="7.1877563931"><ele>2072.74</ele><time>2014-09-03T12:32:15Z</time></trkpt><trkpt lat="45.8905700035" lon="7.1877804492"><ele>2073.70</ele><time>2014-09-03T12:32:19Z</time></trkpt><trkpt lat="45.8905612864" lon="7.1877925191"><ele>2073.70</ele><time>2014-09-03T12:32:20Z</time></trkpt><trkpt lat="45.8905521501" lon="7.1878028288"><ele>2073.70</ele><time>2014-09-03T12:32:21Z</time></trkpt><trkpt lat="45.8905410860" lon="7.1878099535"><ele>2074.18</ele><time>2014-09-03T12:32:22Z</time></trkpt><trkpt lat="45.8905287646" lon="7.1878158208"><ele>2074.18</ele><time>2014-09-03T12:32:23Z</time></trkpt><trkpt lat="45.8905168623" lon="7.1878176648"><ele>2074.66</ele><time>2014-09-03T12:32:24Z</time></trkpt><trkpt lat="45.8905043732" lon="7.1878220234"><ele>2074.66</ele><time>2014-09-03T12:32:25Z</time></trkpt><trkpt lat="45.8904935606" lon="7.1878307406"><ele>2074.66</ele><time>2014-09-03T12:32:26Z</time></trkpt><trkpt lat="45.8904835023" lon="7.1878386196"><ele>2075.14</ele><time>2014-09-03T12:32:27Z</time></trkpt><trkpt lat="45.8904722705" lon="7.1878435649"><ele>2075.62</ele><time>2014-09-03T12:32:28Z</time></trkpt><trkpt lat="45.8904588595" lon="7.1878509410"><ele>2075.62</ele><time>2014-09-03T12:32:29Z</time></trkpt><trkpt lat="45.8904465381" lon="7.1878551319"><ele>2076.10</ele><time>2014-09-03T12:32:30Z</time></trkpt><trkpt lat="45.8904233202" lon="7.1878698841"><ele>2076.10</ele><time>2014-09-03T12:32:32Z</time></trkpt><trkpt lat="45.8904136810" lon="7.1878795233"><ele>2076.10</ele><time>2014-09-03T12:32:33Z</time></trkpt><trkpt lat="45.8904021978" lon="7.1878863126"><ele>2076.59</ele><time>2014-09-03T12:32:34Z</time></trkpt><trkpt lat="45.8903907146" lon="7.1878861450"><ele>2076.59</ele><time>2014-09-03T12:32:35Z</time></trkpt><trkpt lat="45.8903804887" lon="7.1878888272"><ele>2076.59</ele><time>2014-09-03T12:32:36Z</time></trkpt><trkpt lat="45.8903687540" lon="7.1878985502"><ele>2077.07</ele><time>2014-09-03T12:32:37Z</time></trkpt><trkpt lat="45.8903481346" lon="7.1879112069"><ele>2077.55</ele><time>2014-09-03T12:32:39Z</time></trkpt><trkpt lat="45.8903370705" lon="7.1879142243"><ele>2077.55</ele><time>2014-09-03T12:32:40Z</time></trkpt><trkpt lat="45.8903254196" lon="7.1879172418"><ele>2077.55</ele><time>2014-09-03T12:32:41Z</time></trkpt><trkpt lat="45.8902896289" lon="7.1879237797"><ele>2078.03</ele><time>2014-09-03T12:32:44Z</time></trkpt><trkpt lat="45.8902789839" lon="7.1879332513"><ele>2078.03</ele><time>2014-09-03T12:32:45Z</time></trkpt><trkpt lat="45.8902699314" lon="7.1879450697"><ele>2078.03</ele><time>2014-09-03T12:32:46Z</time></trkpt><trkpt lat="45.8902585320" lon="7.1879549604"><ele>2078.03</ele><time>2014-09-03T12:32:47Z</time></trkpt><trkpt lat="45.8902457915" lon="7.1879604086"><ele>2078.51</ele><time>2014-09-03T12:32:48Z</time></trkpt><trkpt lat="45.8901031315" lon="7.1880812757"><ele>2079.95</ele><time>2014-09-03T12:33:01Z</time></trkpt><trkpt lat="45.8900079969" lon="7.1881686989"><ele>2080.43</ele><time>2014-09-03T12:33:10Z</time></trkpt><trkpt lat="45.8900008723" lon="7.1881821100"><ele>2080.43</ele><time>2014-09-03T12:33:11Z</time></trkpt><trkpt lat="45.8899901435" lon="7.1881914977"><ele>2080.43</ele><time>2014-09-03T12:33:12Z</time></trkpt><trkpt lat="45.8899665903" lon="7.1882146318"><ele>2080.91</ele><time>2014-09-03T12:33:14Z</time></trkpt><trkpt lat="45.8899572864" lon="7.1882248577"><ele>2080.91</ele><time>2014-09-03T12:33:15Z</time></trkpt><trkpt lat="45.8899478149" lon="7.1882328205"><ele>2081.39</ele><time>2014-09-03T12:33:16Z</time></trkpt><trkpt lat="45.8899382595" lon="7.1882398613"><ele>2081.39</ele><time>2014-09-03T12:33:17Z</time></trkpt><trkpt lat="45.8899305481" lon="7.1882513445"><ele>2081.39</ele><time>2014-09-03T12:33:18Z</time></trkpt><trkpt lat="45.8899232559" lon="7.1882631630"><ele>2081.39</ele><time>2014-09-03T12:33:19Z</time></trkpt><trkpt lat="45.8899129461" lon="7.1882718801"><ele>2081.39</ele><time>2014-09-03T12:33:20Z</time></trkpt><trkpt lat="45.8899040613" lon="7.1882839501"><ele>2081.39</ele><time>2014-09-03T12:33:21Z</time></trkpt><trkpt lat="45.8898985293" lon="7.1882999595"><ele>2081.87</ele><time>2014-09-03T12:33:22Z</time></trkpt><trkpt lat="45.8898898959" lon="7.1883134544"><ele>2081.87</ele><time>2014-09-03T12:33:23Z</time></trkpt><trkpt lat="45.8898797538" lon="7.1883251891"><ele>2081.87</ele><time>2014-09-03T12:33:24Z</time></trkpt><trkpt lat="45.8898695279" lon="7.1883375943"><ele>2082.35</ele><time>2014-09-03T12:33:25Z</time></trkpt><trkpt lat="45.8898598049" lon="7.1883469820"><ele>2082.35</ele><time>2014-09-03T12:33:26Z</time></trkpt><trkpt lat="45.8898501657" lon="7.1883531008"><ele>2082.35</ele><time>2014-09-03T12:33:27Z</time></trkpt><trkpt lat="45.8898391016" lon="7.1883570403"><ele>2082.83</ele><time>2014-09-03T12:33:28Z</time></trkpt><trkpt lat="45.8898285404" lon="7.1883625723"><ele>2082.83</ele><time>2014-09-03T12:33:29Z</time></trkpt><trkpt lat="45.8898163028" lon="7.1883730497"><ele>2082.83</ele><time>2014-09-03T12:33:30Z</time></trkpt><trkpt lat="45.8896494191" lon="7.1885463875"><ele>2084.28</ele><time>2014-09-03T12:33:46Z</time></trkpt><trkpt lat="45.8896444738" lon="7.1885600500"><ele>2084.28</ele><time>2014-09-03T12:33:47Z</time></trkpt><trkpt lat="45.8896353375" lon="7.1885679290"><ele>2084.76</ele><time>2014-09-03T12:33:48Z</time></trkpt><trkpt lat="45.8896142989" lon="7.1885855310"><ele>2084.76</ele><time>2014-09-03T12:33:50Z</time></trkpt><trkpt lat="45.8896044921" lon="7.1885944158"><ele>2084.76</ele><time>2014-09-03T12:33:51Z</time></trkpt><trkpt lat="45.8895954397" lon="7.1886004508"><ele>2085.24</ele><time>2014-09-03T12:33:52Z</time></trkpt><trkpt lat="45.8895852137" lon="7.1886084974"><ele>2085.24</ele><time>2014-09-03T12:33:53Z</time></trkpt><trkpt lat="45.8895725571" lon="7.1886134427"><ele>2085.24</ele><time>2014-09-03T12:33:54Z</time></trkpt><trkpt lat="45.8895578887" lon="7.1886199806"><ele>2085.24</ele><time>2014-09-03T12:33:55Z</time></trkpt><trkpt lat="45.8895459026" lon="7.1886287816"><ele>2085.72</ele><time>2014-09-03T12:33:56Z</time></trkpt><trkpt lat="45.8895322401" lon="7.1886396781"><ele>2086.20</ele><time>2014-09-03T12:33:57Z</time></trkpt><trkpt lat="45.8895185776" lon="7.1886428632"><ele>2086.20</ele><time>2014-09-03T12:33:58Z</time></trkpt><trkpt lat="45.8895055018" lon="7.1886483114"><ele>2086.68</ele><time>2014-09-03T12:33:59Z</time></trkpt><trkpt lat="45.8894925937" lon="7.1886565257"><ele>2086.68</ele><time>2014-09-03T12:34:00Z</time></trkpt><trkpt lat="45.8894807752" lon="7.1886637341"><ele>2087.16</ele><time>2014-09-03T12:34:01Z</time></trkpt><trkpt lat="45.8894697949" lon="7.1886666678"><ele>2087.64</ele><time>2014-09-03T12:34:02Z</time></trkpt><trkpt lat="45.8894561324" lon="7.1886709426"><ele>2088.12</ele><time>2014-09-03T12:34:03Z</time></trkpt><trkpt lat="45.8894445654" lon="7.1886737086"><ele>2088.12</ele><time>2014-09-03T12:34:04Z</time></trkpt><trkpt lat="45.8894314896" lon="7.1886800788"><ele>2088.60</ele><time>2014-09-03T12:34:05Z</time></trkpt><trkpt lat="45.8894210961" lon="7.1886869520"><ele>2088.60</ele><time>2014-09-03T12:34:06Z</time></trkpt><trkpt lat="45.8893964533" lon="7.1886779834"><ele>2088.60</ele><time>2014-09-03T12:34:16Z</time></trkpt><trkpt lat="45.8893903345" lon="7.1886618063"><ele>2086.68</ele><time>2014-09-03T12:34:39Z</time></trkpt><trkpt lat="45.8892600797" lon="7.1886775643"><ele>2087.64</ele><time>2014-09-03T12:34:59Z</time></trkpt><trkpt lat="45.8891459182" lon="7.1887037158"><ele>2090.04</ele><time>2014-09-03T12:35:07Z</time></trkpt><trkpt lat="45.8891322557" lon="7.1887025423"><ele>2090.04</ele><time>2014-09-03T12:35:08Z</time></trkpt><trkpt lat="45.8891185932" lon="7.1887071524"><ele>2090.04</ele><time>2014-09-03T12:35:09Z</time></trkpt><trkpt lat="45.8891047630" lon="7.1887125168"><ele>2090.04</ele><time>2014-09-03T12:35:10Z</time></trkpt><trkpt lat="45.8890907653" lon="7.1887175459"><ele>2090.52</ele><time>2014-09-03T12:35:11Z</time></trkpt><trkpt lat="45.8890772704" lon="7.1887201443"><ele>2090.52</ele><time>2014-09-03T12:35:12Z</time></trkpt><trkpt lat="45.8890626021" lon="7.1887224074"><ele>2091.00</ele><time>2014-09-03T12:35:13Z</time></trkpt><trkpt lat="45.8890486043" lon="7.1887255087"><ele>2091.00</ele><time>2014-09-03T12:35:14Z</time></trkpt><trkpt lat="45.8888512105" lon="7.1887151152"><ele>2093.89</ele><time>2014-09-03T12:35:27Z</time></trkpt><trkpt lat="45.8886524756" lon="7.1887398418"><ele>2096.29</ele><time>2014-09-03T12:35:41Z</time></trkpt><trkpt lat="45.8886389807" lon="7.1887403447"><ele>2096.29</ele><time>2014-09-03T12:35:42Z</time></trkpt><trkpt lat="45.8886235580" lon="7.1887386683"><ele>2096.77</ele><time>2014-09-03T12:35:43Z</time></trkpt><trkpt lat="45.8886100631" lon="7.1887396742"><ele>2096.77</ele><time>2014-09-03T12:35:44Z</time></trkpt><trkpt lat="45.8885969035" lon="7.1887419373"><ele>2096.77</ele><time>2014-09-03T12:35:45Z</time></trkpt><trkpt lat="45.8885833248" lon="7.1887456253"><ele>2097.25</ele><time>2014-09-03T12:35:46Z</time></trkpt><trkpt lat="45.8885697462" lon="7.1887488104"><ele>2097.25</ele><time>2014-09-03T12:35:47Z</time></trkpt><trkpt lat="45.8885553293" lon="7.1887558512"><ele>2097.25</ele><time>2014-09-03T12:35:48Z</time></trkpt><trkpt lat="45.8885424212" lon="7.1887597907"><ele>2097.25</ele><time>2014-09-03T12:35:49Z</time></trkpt><trkpt lat="45.8885294292" lon="7.1887644008"><ele>2097.25</ele><time>2014-09-03T12:35:50Z</time></trkpt><trkpt lat="45.8885168564" lon="7.1887695976"><ele>2097.25</ele><time>2014-09-03T12:35:51Z</time></trkpt><trkpt lat="45.8885021880" lon="7.1887750458"><ele>2097.73</ele><time>2014-09-03T12:35:52Z</time></trkpt><trkpt lat="45.8884917945" lon="7.1887726989"><ele>2098.21</ele><time>2014-09-03T12:35:53Z</time></trkpt><trkpt lat="45.8884793893" lon="7.1887711901"><ele>2098.21</ele><time>2014-09-03T12:35:54Z</time></trkpt><trkpt lat="45.8884647209" lon="7.1887737047"><ele>2098.70</ele><time>2014-09-03T12:35:55Z</time></trkpt><trkpt lat="45.8884525672" lon="7.1887733694"><ele>2098.70</ele><time>2014-09-03T12:35:56Z</time></trkpt><trkpt lat="45.8882582746" lon="7.1888099983"><ele>2101.58</ele><time>2014-09-03T12:36:11Z</time></trkpt><trkpt lat="45.8881454542" lon="7.1888080705"><ele>2103.02</ele><time>2014-09-03T12:36:24Z</time></trkpt><trkpt lat="45.8881132677" lon="7.1887561027"><ele>2103.02</ele><time>2014-09-03T12:36:46Z</time></trkpt><trkpt lat="45.8880910557" lon="7.1888001915"><ele>2103.50</ele><time>2014-09-03T12:37:16Z</time></trkpt><trkpt lat="45.8879064862" lon="7.1887986828"><ele>2106.87</ele><time>2014-09-03T12:37:29Z</time></trkpt><trkpt lat="45.8878649957" lon="7.1887960844"><ele>2107.83</ele><time>2014-09-03T12:37:32Z</time></trkpt><trkpt lat="45.8878516685" lon="7.1887950785"><ele>2107.83</ele><time>2014-09-03T12:37:33Z</time></trkpt><trkpt lat="45.8878373355" lon="7.1887966711"><ele>2107.83</ele><time>2014-09-03T12:37:34Z</time></trkpt><trkpt lat="45.8878230024" lon="7.1887927316"><ele>2108.31</ele><time>2014-09-03T12:37:35Z</time></trkpt><trkpt lat="45.8878100943" lon="7.1887825895"><ele>2108.31</ele><time>2014-09-03T12:37:36Z</time></trkpt><trkpt lat="45.8877810929" lon="7.1887747105"><ele>2108.79</ele><time>2014-09-03T12:37:38Z</time></trkpt><trkpt lat="45.8877667598" lon="7.1887716092"><ele>2108.79</ele><time>2014-09-03T12:37:39Z</time></trkpt><trkpt lat="45.8877523430" lon="7.1887710225"><ele>2109.27</ele><time>2014-09-03T12:37:40Z</time></trkpt><trkpt lat="45.8877385966" lon="7.1887696814"><ele>2109.27</ele><time>2014-09-03T12:37:41Z</time></trkpt><trkpt lat="45.8877247665" lon="7.1887635626"><ele>2109.75</ele><time>2014-09-03T12:37:42Z</time></trkpt><trkpt lat="45.8877114393" lon="7.1887577791"><ele>2109.75</ele><time>2014-09-03T12:37:43Z</time></trkpt><trkpt lat="45.8875204157" lon="7.1887364890"><ele>2112.15</ele><time>2014-09-03T12:37:56Z</time></trkpt><trkpt lat="45.8875081781" lon="7.1887307055"><ele>2112.15</ele><time>2014-09-03T12:37:57Z</time></trkpt><trkpt lat="45.8874197491" lon="7.1886750497"><ele>2114.08</ele><time>2014-09-03T12:38:04Z</time></trkpt><trkpt lat="45.8874102775" lon="7.1886599623"><ele>2114.08</ele><time>2014-09-03T12:38:05Z</time></trkpt><trkpt lat="45.8873887360" lon="7.1886326373"><ele>2114.56</ele><time>2014-09-03T12:38:07Z</time></trkpt><trkpt lat="45.8873778395" lon="7.1886181366"><ele>2114.56</ele><time>2014-09-03T12:38:08Z</time></trkpt><trkpt lat="45.8873652667" lon="7.1886058990"><ele>2115.04</ele><time>2014-09-03T12:38:09Z</time></trkpt><trkpt lat="45.8873246145" lon="7.1885483991"><ele>2116.00</ele><time>2014-09-03T12:38:13Z</time></trkpt><trkpt lat="45.8873179927" lon="7.1885341499"><ele>2116.48</ele><time>2014-09-03T12:38:14Z</time></trkpt><trkpt lat="45.8873087727" lon="7.1885195654"><ele>2116.48</ele><time>2014-09-03T12:38:15Z</time></trkpt><trkpt lat="45.8872985467" lon="7.1885040589"><ele>2116.96</ele><time>2014-09-03T12:38:16Z</time></trkpt><trkpt lat="45.8872901648" lon="7.1884878818"><ele>2116.96</ele><time>2014-09-03T12:38:17Z</time></trkpt><trkpt lat="45.8872817829" lon="7.1884730458"><ele>2116.96</ele><time>2014-09-03T12:38:18Z</time></trkpt><trkpt lat="45.8872728981" lon="7.1884581260"><ele>2117.44</ele><time>2014-09-03T12:38:19Z</time></trkpt><trkpt lat="45.8872644324" lon="7.1884442121"><ele>2117.92</ele><time>2014-09-03T12:38:20Z</time></trkpt><trkpt lat="45.8872556314" lon="7.1884221677"><ele>2120.81</ele><time>2014-09-03T12:38:36Z</time></trkpt><trkpt lat="45.8872371074" lon="7.1884044819"><ele>2121.77</ele><time>2014-09-03T12:38:50Z</time></trkpt><trkpt lat="45.8871308248" lon="7.1882606484"><ele>2123.21</ele><time>2014-09-03T12:39:00Z</time></trkpt><trkpt lat="45.8871223591" lon="7.1882455610"><ele>2123.21</ele><time>2014-09-03T12:39:01Z</time></trkpt><trkpt lat="45.8870728221" lon="7.1881661844"><ele>2124.65</ele><time>2014-09-03T12:39:07Z</time></trkpt><trkpt lat="45.8870618418" lon="7.1881526895"><ele>2125.13</ele><time>2014-09-03T12:39:08Z</time></trkpt><trkpt lat="45.8870516997" lon="7.1881380212"><ele>2125.13</ele><time>2014-09-03T12:39:09Z</time></trkpt><trkpt lat="45.8870420605" lon="7.1881235205"><ele>2125.13</ele><time>2014-09-03T12:39:10Z</time></trkpt><trkpt lat="45.8870312478" lon="7.1881112829"><ele>2125.13</ele><time>2014-09-03T12:39:11Z</time></trkpt><trkpt lat="45.8870207705" lon="7.1880979557"><ele>2125.61</ele><time>2014-09-03T12:39:12Z</time></trkpt><trkpt lat="45.8870078623" lon="7.1880859695"><ele>2125.61</ele><time>2014-09-03T12:39:13Z</time></trkpt><trkpt lat="45.8869939484" lon="7.1880718879"><ele>2125.61</ele><time>2014-09-03T12:39:14Z</time></trkpt><trkpt lat="45.8869828843" lon="7.1880595665"><ele>2125.61</ele><time>2014-09-03T12:39:15Z</time></trkpt><trkpt lat="45.8869703114" lon="7.1880489215"><ele>2126.09</ele><time>2014-09-03T12:39:16Z</time></trkpt><trkpt lat="45.8869573195" lon="7.1880377736"><ele>2126.09</ele><time>2014-09-03T12:39:17Z</time></trkpt><trkpt lat="45.8868556470" lon="7.1879608277"><ele>2127.05</ele><time>2014-09-03T12:39:26Z</time></trkpt><trkpt lat="45.8868128154" lon="7.1879423875"><ele>2126.57</ele><time>2014-09-03T12:39:39Z</time></trkpt><trkpt lat="45.8868185151" lon="7.1878552157"><ele>2126.09</ele><time>2014-09-03T12:40:12Z</time></trkpt><trkpt lat="45.8868272323" lon="7.1878558863"><ele>2123.69</ele><time>2014-09-03T12:40:42Z</time></trkpt><trkpt lat="45.8868099656" lon="7.1878608316"><ele>2126.09</ele><time>2014-09-03T12:40:49Z</time></trkpt><trkpt lat="45.8867400605" lon="7.1878387872"><ele>2126.09</ele><time>2014-09-03T12:40:56Z</time></trkpt><trkpt lat="45.8867237158" lon="7.1878356021"><ele>2126.09</ele><time>2014-09-03T12:40:57Z</time></trkpt><trkpt lat="45.8867069520" lon="7.1878272202"><ele>2126.09</ele><time>2014-09-03T12:40:58Z</time></trkpt><trkpt lat="45.8866912778" lon="7.1878185030"><ele>2126.57</ele><time>2014-09-03T12:40:59Z</time></trkpt><trkpt lat="45.8866761066" lon="7.1878078580"><ele>2126.57</ele><time>2014-09-03T12:41:00Z</time></trkpt><trkpt lat="45.8866332751" lon="7.1877682954"><ele>2127.53</ele><time>2014-09-03T12:41:03Z</time></trkpt><trkpt lat="45.8866218757" lon="7.1877506096"><ele>2127.53</ele><time>2014-09-03T12:41:04Z</time></trkpt><trkpt lat="45.8866082970" lon="7.1877361089"><ele>2127.53</ele><time>2014-09-03T12:41:05Z</time></trkpt><trkpt lat="45.8865958080" lon="7.1877225302"><ele>2127.53</ele><time>2014-09-03T12:41:06Z</time></trkpt><trkpt lat="45.8865851630" lon="7.1877045929"><ele>2127.53</ele><time>2014-09-03T12:41:07Z</time></trkpt><trkpt lat="45.8864745218" lon="7.1873978991"><ele>2129.94</ele><time>2014-09-03T12:41:22Z</time></trkpt><trkpt lat="45.8863674849" lon="7.1871312708"><ele>2131.38</ele><time>2014-09-03T12:41:37Z</time></trkpt><trkpt lat="45.8863350470" lon="7.1870756987"><ele>2131.38</ele><time>2014-09-03T12:41:41Z</time></trkpt><trkpt lat="45.8863259107" lon="7.1870647185"><ele>2131.38</ele><time>2014-09-03T12:41:42Z</time></trkpt><trkpt lat="45.8863143437" lon="7.1870570909"><ele>2130.90</ele><time>2014-09-03T12:41:43Z</time></trkpt><trkpt lat="45.8863047045" lon="7.1870524809"><ele>2130.90</ele><time>2014-09-03T12:41:44Z</time></trkpt><trkpt lat="45.8862942271" lon="7.1870474517"><ele>2130.90</ele><time>2014-09-03T12:41:45Z</time></trkpt><trkpt lat="45.8862613700" lon="7.1870267484"><ele>2131.86</ele><time>2014-09-03T12:41:54Z</time></trkpt><trkpt lat="45.8862643037" lon="7.1869931370"><ele>2131.38</ele><time>2014-09-03T12:42:05Z</time></trkpt><trkpt lat="45.8862700034" lon="7.1870062966"><ele>2133.78</ele><time>2014-09-03T12:42:37Z</time></trkpt><trkpt lat="45.8862797264" lon="7.1869969927"><ele>2131.86</ele><time>2014-09-03T12:43:12Z</time></trkpt><trkpt lat="45.8862689137" lon="7.1869886946"><ele>2133.78</ele><time>2014-09-03T12:44:03Z</time></trkpt><trkpt lat="45.8862429298" lon="7.1870435122"><ele>2131.86</ele><time>2014-09-03T12:44:44Z</time></trkpt><trkpt lat="45.8862182871" lon="7.1870276704"><ele>2134.74</ele><time>2014-09-03T12:45:19Z</time></trkpt><trkpt lat="45.8862166945" lon="7.1870518103"><ele>2132.82</ele><time>2014-09-03T12:45:48Z</time></trkpt><trkpt lat="45.8862145990" lon="7.1870547440"><ele>2130.42</ele><time>2014-09-03T12:46:02Z</time></trkpt><trkpt lat="45.8862034511" lon="7.1870673168"><ele>2130.42</ele><time>2014-09-03T12:46:03Z</time></trkpt><trkpt lat="45.8861935604" lon="7.1870801412"><ele>2130.42</ele><time>2014-09-03T12:46:04Z</time></trkpt><trkpt lat="45.8861844242" lon="7.1870948933"><ele>2130.90</ele><time>2014-09-03T12:46:05Z</time></trkpt><trkpt lat="45.8861771319" lon="7.1871132497"><ele>2130.90</ele><time>2014-09-03T12:46:06Z</time></trkpt><trkpt lat="45.8861823287" lon="7.1871348750"><ele>2130.90</ele><time>2014-09-03T12:46:07Z</time></trkpt><trkpt lat="45.8861964941" lon="7.1871629544"><ele>2130.90</ele><time>2014-09-03T12:46:08Z</time></trkpt><trkpt lat="45.8862009365" lon="7.1872000024"><ele>2130.90</ele><time>2014-09-03T12:46:09Z</time></trkpt><trkpt lat="45.8861960750" lon="7.1872344520"><ele>2131.38</ele><time>2014-09-03T12:46:10Z</time></trkpt><trkpt lat="45.8861895371" lon="7.1872641239"><ele>2131.38</ele><time>2014-09-03T12:46:11Z</time></trkpt><trkpt lat="45.8861877769" lon="7.1872889344"><ele>2131.86</ele><time>2014-09-03T12:46:12Z</time></trkpt><trkpt lat="45.8861907106" lon="7.1873150021"><ele>2131.86</ele><time>2014-09-03T12:46:13Z</time></trkpt><trkpt lat="45.8861919679" lon="7.1873410698"><ele>2131.86</ele><time>2014-09-03T12:46:14Z</time></trkpt><trkpt lat="45.8861982543" lon="7.1873895172"><ele>2131.86</ele><time>2014-09-03T12:46:16Z</time></trkpt><trkpt lat="45.8862027805" lon="7.1874123160"><ele>2132.34</ele><time>2014-09-03T12:46:17Z</time></trkpt><trkpt lat="45.8862085640" lon="7.1874343604"><ele>2132.34</ele><time>2014-09-03T12:46:18Z</time></trkpt><trkpt lat="45.8862130065" lon="7.1874555666"><ele>2132.34</ele><time>2014-09-03T12:46:19Z</time></trkpt><trkpt lat="45.8862166945" lon="7.1874776948"><ele>2132.82</ele><time>2014-09-03T12:46:20Z</time></trkpt><trkpt lat="45.8862201311" lon="7.1875014156"><ele>2132.82</ele><time>2014-09-03T12:46:21Z</time></trkpt><trkpt lat="45.8862212207" lon="7.1875243820"><ele>2133.30</ele><time>2014-09-03T12:46:22Z</time></trkpt><trkpt lat="45.8862208854" lon="7.1875489410"><ele>2133.30</ele><time>2014-09-03T12:46:23Z</time></trkpt><trkpt lat="45.8862220589" lon="7.1875710692"><ele>2133.30</ele><time>2014-09-03T12:46:24Z</time></trkpt><trkpt lat="45.8862265013" lon="7.1877050120"><ele>2134.26</ele><time>2014-09-03T12:46:30Z</time></trkpt><trkpt lat="45.8862246573" lon="7.1877288166"><ele>2134.74</ele><time>2014-09-03T12:46:31Z</time></trkpt><trkpt lat="45.8862257469" lon="7.1877512801"><ele>2134.74</ele><time>2014-09-03T12:46:32Z</time></trkpt><trkpt lat="45.8862975799" lon="7.1880716365"><ele>2135.71</ele><time>2014-09-03T12:46:46Z</time></trkpt><trkpt lat="45.8863051236" lon="7.1881212573"><ele>2135.71</ele><time>2014-09-03T12:46:48Z</time></trkpt><trkpt lat="45.8863013517" lon="7.1881450620"><ele>2135.71</ele><time>2014-09-03T12:46:49Z</time></trkpt><trkpt lat="45.8862943109" lon="7.1881662682"><ele>2135.71</ele><time>2014-09-03T12:46:50Z</time></trkpt><trkpt lat="45.8862845041" lon="7.1881794278"><ele>2135.71</ele><time>2014-09-03T12:46:51Z</time></trkpt><trkpt lat="45.8862702549" lon="7.1881837863"><ele>2135.71</ele><time>2014-09-03T12:46:52Z</time></trkpt><trkpt lat="45.8862498868" lon="7.1881745663"><ele>2136.19</ele><time>2014-09-03T12:46:53Z</time></trkpt><trkpt lat="45.8862401638" lon="7.1881695371"><ele>2136.67</ele><time>2014-09-03T12:46:54Z</time></trkpt><trkpt lat="45.8862311952" lon="7.1881648432"><ele>2136.67</ele><time>2014-09-03T12:46:55Z</time></trkpt><trkpt lat="45.8862211369" lon="7.1881511807"><ele>2136.67</ele><time>2014-09-03T12:46:56Z</time></trkpt><trkpt lat="45.8862143476" lon="7.1881356742"><ele>2136.67</ele><time>2014-09-03T12:46:57Z</time></trkpt><trkpt lat="45.8861149382" lon="7.1879140567"><ele>2139.07</ele><time>2014-09-03T12:47:10Z</time></trkpt><trkpt lat="45.8860424347" lon="7.1877618413"><ele>2140.51</ele><time>2014-09-03T12:47:19Z</time></trkpt><trkpt lat="45.8860337175" lon="7.1877489332"><ele>2140.99</ele><time>2014-09-03T12:47:20Z</time></trkpt><trkpt lat="45.8860305324" lon="7.1877340972"><ele>2140.99</ele><time>2014-09-03T12:47:21Z</time></trkpt><trkpt lat="45.8860281855" lon="7.1877167467"><ele>2140.99</ele><time>2014-09-03T12:47:22Z</time></trkpt><trkpt lat="45.8860220667" lon="7.1876992285"><ele>2141.47</ele><time>2014-09-03T12:47:23Z</time></trkpt><trkpt lat="45.8860101644" lon="7.1876665391"><ele>2141.95</ele><time>2014-09-03T12:47:25Z</time></trkpt><trkpt lat="45.8859881200" lon="7.1876276471"><ele>2142.44</ele><time>2014-09-03T12:47:28Z</time></trkpt><trkpt lat="45.8859821688" lon="7.1876124758"><ele>2142.92</ele><time>2014-09-03T12:47:29Z</time></trkpt><trkpt lat="45.8859746251" lon="7.1875961311"><ele>2142.92</ele><time>2014-09-03T12:47:30Z</time></trkpt><trkpt lat="45.8859675843" lon="7.1875810437"><ele>2142.92</ele><time>2014-09-03T12:47:31Z</time></trkpt><trkpt lat="45.8859654889" lon="7.1875628550"><ele>2143.40</ele><time>2014-09-03T12:47:32Z</time></trkpt><trkpt lat="45.8859628905" lon="7.1875436604"><ele>2143.40</ele><time>2014-09-03T12:47:33Z</time></trkpt><trkpt lat="45.8859573584" lon="7.1875263099"><ele>2143.40</ele><time>2014-09-03T12:47:34Z</time></trkpt><trkpt lat="45.8859515749" lon="7.1875109710"><ele>2143.40</ele><time>2014-09-03T12:47:35Z</time></trkpt><trkpt lat="45.8859426901" lon="7.1874990687"><ele>2143.40</ele><time>2014-09-03T12:47:36Z</time></trkpt><trkpt lat="45.8859315421" lon="7.1874888428"><ele>2143.40</ele><time>2014-09-03T12:47:37Z</time></trkpt><trkpt lat="45.8859198913" lon="7.1874757670"><ele>2143.40</ele><time>2014-09-03T12:47:38Z</time></trkpt><trkpt lat="45.8859092463" lon="7.1874630265"><ele>2143.40</ele><time>2014-09-03T12:47:39Z</time></trkpt><trkpt lat="45.8858994395" lon="7.1874476876"><ele>2143.40</ele><time>2014-09-03T12:47:40Z</time></trkpt><trkpt lat="45.8858915605" lon="7.1874331031"><ele>2143.88</ele><time>2014-09-03T12:47:41Z</time></trkpt><trkpt lat="45.8858861122" lon="7.1874150820"><ele>2143.88</ele><time>2014-09-03T12:47:42Z</time></trkpt><trkpt lat="45.8858794067" lon="7.1874002460"><ele>2143.88</ele><time>2014-09-03T12:47:43Z</time></trkpt><trkpt lat="45.8858715277" lon="7.1873850748"><ele>2143.88</ele><time>2014-09-03T12:47:44Z</time></trkpt><trkpt lat="45.8857260179" lon="7.1871650498"><ele>2146.76</ele><time>2014-09-03T12:48:00Z</time></trkpt><trkpt lat="45.8856503293" lon="7.1870247368"><ele>2149.65</ele><time>2014-09-03T12:48:10Z</time></trkpt><trkpt lat="45.8856465574" lon="7.1870090626"><ele>2149.16</ele><time>2014-09-03T12:48:11Z</time></trkpt><trkpt lat="45.8856440429" lon="7.1869936399"><ele>2149.16</ele><time>2014-09-03T12:48:12Z</time></trkpt><trkpt lat="45.8856344875" lon="7.1869569272"><ele>2149.65</ele><time>2014-09-03T12:48:15Z</time></trkpt><trkpt lat="45.8855911531" lon="7.1868465375"><ele>2151.09</ele><time>2014-09-03T12:48:23Z</time></trkpt><trkpt lat="45.8855810948" lon="7.1868372336"><ele>2151.57</ele><time>2014-09-03T12:48:24Z</time></trkpt><trkpt lat="45.8855738863" lon="7.1868254151"><ele>2151.57</ele><time>2014-09-03T12:48:25Z</time></trkpt><trkpt lat="45.8855677675" lon="7.1868123394"><ele>2151.57</ele><time>2014-09-03T12:48:26Z</time></trkpt><trkpt lat="45.8855696116" lon="7.1867721062"><ele>2153.49</ele><time>2014-09-03T12:48:37Z</time></trkpt><trkpt lat="45.8855883032" lon="7.1867817454"><ele>2157.82</ele><time>2014-09-03T12:49:04Z</time></trkpt><trkpt lat="45.8855643310" lon="7.1867760457"><ele>2159.26</ele><time>2014-09-03T12:49:28Z</time></trkpt><trkpt lat="45.8855614811" lon="7.1867524087"><ele>2156.86</ele><time>2014-09-03T12:49:55Z</time></trkpt><trkpt lat="45.8855481539" lon="7.1867009439"><ele>2153.49</ele><time>2014-09-03T12:50:23Z</time></trkpt><trkpt lat="45.8855375089" lon="7.1866789833"><ele>2152.53</ele><time>2014-09-03T12:50:29Z</time></trkpt><trkpt lat="45.8855274506" lon="7.1866773069"><ele>2152.53</ele><time>2014-09-03T12:50:30Z</time></trkpt><trkpt lat="45.8855179790" lon="7.1866692603"><ele>2152.05</ele><time>2014-09-03T12:50:31Z</time></trkpt><trkpt lat="45.8855139557" lon="7.1866536699"><ele>2152.53</ele><time>2014-09-03T12:50:32Z</time></trkpt><trkpt lat="45.8855104353" lon="7.1866369061"><ele>2152.53</ele><time>2014-09-03T12:50:33Z</time></trkpt><trkpt lat="45.8855033945" lon="7.1866193041"><ele>2153.01</ele><time>2014-09-03T12:50:34Z</time></trkpt><trkpt lat="45.8854971081" lon="7.1866007801"><ele>2153.49</ele><time>2014-09-03T12:50:35Z</time></trkpt><trkpt lat="45.8854916599" lon="7.1865807474"><ele>2153.97</ele><time>2014-09-03T12:50:36Z</time></trkpt><trkpt lat="45.8854862954" lon="7.1865625586"><ele>2153.97</ele><time>2014-09-03T12:50:37Z</time></trkpt><trkpt lat="45.8854792546" lon="7.1865463816"><ele>2154.45</ele><time>2014-09-03T12:50:38Z</time></trkpt><trkpt lat="45.8854697831" lon="7.1865316294"><ele>2154.45</ele><time>2014-09-03T12:50:39Z</time></trkpt><trkpt lat="45.8854624908" lon="7.1865141951"><ele>2154.45</ele><time>2014-09-03T12:50:40Z</time></trkpt><trkpt lat="45.8854546957" lon="7.1864998620"><ele>2154.93</ele><time>2014-09-03T12:50:41Z</time></trkpt><trkpt lat="45.8854456432" lon="7.1864883788"><ele>2154.93</ele><time>2014-09-03T12:50:42Z</time></trkpt><trkpt lat="45.8854380995" lon="7.1864696871"><ele>2154.93</ele><time>2014-09-03T12:50:43Z</time></trkpt><trkpt lat="45.8854259457" lon="7.1864497382"><ele>2154.93</ele><time>2014-09-03T12:50:44Z</time></trkpt><trkpt lat="45.8854165580" lon="7.1864343993"><ele>2155.41</ele><time>2014-09-03T12:50:45Z</time></trkpt><trkpt lat="45.8854079247" lon="7.1864169650"><ele>2155.41</ele><time>2014-09-03T12:50:46Z</time></trkpt><trkpt lat="45.8852847945" lon="7.1861728840"><ele>2159.26</ele><time>2014-09-03T12:51:01Z</time></trkpt><trkpt lat="45.8852789272" lon="7.1861579642"><ele>2159.26</ele><time>2014-09-03T12:51:02Z</time></trkpt><trkpt lat="45.8852723893" lon="7.1861428767"><ele>2159.26</ele><time>2014-09-03T12:51:03Z</time></trkpt><trkpt lat="45.8852648456" lon="7.1861263644"><ele>2159.74</ele><time>2014-09-03T12:51:04Z</time></trkpt><trkpt lat="45.8852547035" lon="7.1861120313"><ele>2159.74</ele><time>2014-09-03T12:51:05Z</time></trkpt><trkpt lat="45.8852468245" lon="7.1860971954"><ele>2159.74</ele><time>2014-09-03T12:51:06Z</time></trkpt><trkpt lat="45.8852385264" lon="7.1860803477"><ele>2159.74</ele><time>2014-09-03T12:51:07Z</time></trkpt><trkpt lat="45.8852323238" lon="7.1860622428"><ele>2159.74</ele><time>2014-09-03T12:51:08Z</time></trkpt><trkpt lat="45.8852272108" lon="7.1860448923"><ele>2160.22</ele><time>2014-09-03T12:51:09Z</time></trkpt><trkpt lat="45.8851826191" lon="7.1859641746"><ele>2160.70</ele><time>2014-09-03T12:51:14Z</time></trkpt><trkpt lat="45.8851773385" lon="7.1859456506"><ele>2160.70</ele><time>2014-09-03T12:51:15Z</time></trkpt><trkpt lat="45.8851713873" lon="7.1859287191"><ele>2161.18</ele><time>2014-09-03T12:51:16Z</time></trkpt><trkpt lat="45.8851650171" lon="7.1859122906"><ele>2161.18</ele><time>2014-09-03T12:51:17Z</time></trkpt><trkpt lat="45.8851568028" lon="7.1858989634"><ele>2161.18</ele><time>2014-09-03T12:51:18Z</time></trkpt><trkpt lat="45.8851485047" lon="7.1858856361"><ele>2161.66</ele><time>2014-09-03T12:51:19Z</time></trkpt><trkpt lat="45.8851402905" lon="7.1858677827"><ele>2161.66</ele><time>2014-09-03T12:51:20Z</time></trkpt><trkpt lat="45.8851327468" lon="7.1858465765"><ele>2161.66</ele><time>2014-09-03T12:51:21Z</time></trkpt><trkpt lat="45.8851257898" lon="7.1858246997"><ele>2161.66</ele><time>2014-09-03T12:51:22Z</time></trkpt><trkpt lat="45.8851188328" lon="7.1858055051"><ele>2162.14</ele><time>2014-09-03T12:51:23Z</time></trkpt><trkpt lat="45.8851096965" lon="7.1857928485"><ele>2162.14</ele><time>2014-09-03T12:51:24Z</time></trkpt><trkpt lat="45.8851013985" lon="7.1857781801"><ele>2162.62</ele><time>2014-09-03T12:51:25Z</time></trkpt><trkpt lat="45.8850951958" lon="7.1857640985"><ele>2162.62</ele><time>2014-09-03T12:51:26Z</time></trkpt><trkpt lat="45.8850632608" lon="7.1857003123"><ele>2164.55</ele><time>2014-09-03T12:51:32Z</time></trkpt><trkpt lat="45.8850318287" lon="7.1856632642"><ele>2165.03</ele><time>2014-09-03T12:51:46Z</time></trkpt><trkpt lat="45.8850397076" lon="7.1856574807"><ele>2158.78</ele><time>2014-09-03T12:52:38Z</time></trkpt><trkpt lat="45.8850291464" lon="7.1856543794"><ele>2157.82</ele><time>2014-09-03T12:53:13Z</time></trkpt><trkpt lat="45.8850204293" lon="7.1856561396"><ele>2159.74</ele><time>2014-09-03T12:53:36Z</time></trkpt><trkpt lat="45.8850143105" lon="7.1856980491"><ele>2161.18</ele><time>2014-09-03T12:54:12Z</time></trkpt><trkpt lat="45.8850075211" lon="7.1856755856"><ele>2162.62</ele><time>2014-09-03T12:54:47Z</time></trkpt><trkpt lat="45.8850046713" lon="7.1856413037"><ele>2161.66</ele><time>2014-09-03T12:55:01Z</time></trkpt><trkpt lat="45.8849996421" lon="7.1856341790"><ele>2161.18</ele><time>2014-09-03T12:55:02Z</time></trkpt><trkpt lat="45.8849933557" lon="7.1856265515"><ele>2161.18</ele><time>2014-09-03T12:55:03Z</time></trkpt><trkpt lat="45.8849853929" lon="7.1856171638"><ele>2161.18</ele><time>2014-09-03T12:55:04Z</time></trkpt><trkpt lat="45.8849778492" lon="7.1856031660"><ele>2161.66</ele><time>2014-09-03T12:55:05Z</time></trkpt><trkpt lat="45.8849661145" lon="7.1855889168"><ele>2161.66</ele><time>2014-09-03T12:55:06Z</time></trkpt><trkpt lat="45.8849547990" lon="7.1855778527"><ele>2161.66</ele><time>2014-09-03T12:55:07Z</time></trkpt><trkpt lat="45.8849426452" lon="7.1855652798"><ele>2162.14</ele><time>2014-09-03T12:55:08Z</time></trkpt><trkpt lat="45.8849308267" lon="7.1855529584"><ele>2162.14</ele><time>2014-09-03T12:55:09Z</time></trkpt><trkpt lat="45.8849202655" lon="7.1855435707"><ele>2162.14</ele><time>2014-09-03T12:55:10Z</time></trkpt><trkpt lat="45.8849079441" lon="7.1855355240"><ele>2162.62</ele><time>2014-09-03T12:55:11Z</time></trkpt><trkpt lat="45.8848960418" lon="7.1855223645"><ele>2162.62</ele><time>2014-09-03T12:55:12Z</time></trkpt><trkpt lat="45.8848824631" lon="7.1855098754"><ele>2163.10</ele><time>2014-09-03T12:55:13Z</time></trkpt><trkpt lat="45.8846825548" lon="7.1853533853"><ele>2165.51</ele><time>2014-09-03T12:55:30Z</time></trkpt><trkpt lat="45.8844948839" lon="7.1853131521"><ele>2165.03</ele><time>2014-09-03T12:55:44Z</time></trkpt><trkpt lat="45.8844084665" lon="7.1852942929"><ele>2165.51</ele><time>2014-09-03T12:55:51Z</time></trkpt><trkpt lat="45.8843965642" lon="7.1852890961"><ele>2165.03</ele><time>2014-09-03T12:55:52Z</time></trkpt><trkpt lat="45.8843844943" lon="7.1852885932"><ele>2165.03</ele><time>2014-09-03T12:55:53Z</time></trkpt><trkpt lat="45.8843725920" lon="7.1852906886"><ele>2165.51</ele><time>2014-09-03T12:55:54Z</time></trkpt><trkpt lat="45.8843606059" lon="7.1852932870"><ele>2165.51</ele><time>2014-09-03T12:55:55Z</time></trkpt><trkpt lat="45.8843487874" lon="7.1852938738"><ele>2165.51</ele><time>2014-09-03T12:55:56Z</time></trkpt><trkpt lat="45.8843371365" lon="7.1852951311"><ele>2165.51</ele><time>2014-09-03T12:55:57Z</time></trkpt><trkpt lat="45.8843271621" lon="7.1852945443"><ele>2165.51</ele><time>2014-09-03T12:55:58Z</time></trkpt><trkpt lat="45.8843168523" lon="7.1852916945"><ele>2165.51</ele><time>2014-09-03T12:55:59Z</time></trkpt><trkpt lat="45.8842724282" lon="7.1852965560"><ele>2165.51</ele><time>2014-09-03T12:56:03Z</time></trkpt><trkpt lat="45.8842591848" lon="7.1852978133"><ele>2165.99</ele><time>2014-09-03T12:56:04Z</time></trkpt><trkpt lat="45.8842464443" lon="7.1853004117"><ele>2165.99</ele><time>2014-09-03T12:56:05Z</time></trkpt><trkpt lat="45.8842333686" lon="7.1853047702"><ele>2165.99</ele><time>2014-09-03T12:56:06Z</time></trkpt><trkpt lat="45.8842205442" lon="7.1853052732"><ele>2165.99</ele><time>2014-09-03T12:56:07Z</time></trkpt><trkpt lat="45.8842088096" lon="7.1853078716"><ele>2165.99</ele><time>2014-09-03T12:56:08Z</time></trkpt><trkpt lat="45.8841974102" lon="7.1853095479"><ele>2166.47</ele><time>2014-09-03T12:56:09Z</time></trkpt><trkpt lat="45.8841853403" lon="7.1853097156"><ele>2166.47</ele><time>2014-09-03T12:56:10Z</time></trkpt><trkpt lat="45.8841705043" lon="7.1853104699"><ele>2166.47</ele><time>2014-09-03T12:56:11Z</time></trkpt><trkpt lat="45.8841560874" lon="7.1853124816"><ele>2166.95</ele><time>2014-09-03T12:56:12Z</time></trkpt><trkpt lat="45.8841410838" lon="7.1853160020"><ele>2167.43</ele><time>2014-09-03T12:56:13Z</time></trkpt><trkpt lat="45.8840208873" lon="7.1853468474"><ele>2168.39</ele><time>2014-09-03T12:56:22Z</time></trkpt><trkpt lat="45.8839959092" lon="7.1853569057"><ele>2168.39</ele><time>2014-09-03T12:56:24Z</time></trkpt><trkpt lat="45.8839823306" lon="7.1853543073"><ele>2168.39</ele><time>2014-09-03T12:56:25Z</time></trkpt><trkpt lat="45.8839709312" lon="7.1853547264"><ele>2168.39</ele><time>2014-09-03T12:56:26Z</time></trkpt><trkpt lat="45.8839602862" lon="7.1853584144"><ele>2168.87</ele><time>2014-09-03T12:56:27Z</time></trkpt><trkpt lat="45.8839470427" lon="7.1853665449"><ele>2168.87</ele><time>2014-09-03T12:56:28Z</time></trkpt><trkpt lat="45.8839353081" lon="7.1853694785"><ele>2169.35</ele><time>2014-09-03T12:56:29Z</time></trkpt><trkpt lat="45.8839116711" lon="7.1853724960"><ele>2169.35</ele><time>2014-09-03T12:56:31Z</time></trkpt><trkpt lat="45.8838985953" lon="7.1853710711"><ele>2169.35</ele><time>2014-09-03T12:56:32Z</time></trkpt><trkpt lat="45.8837480564" lon="7.1853949595"><ele>2170.79</ele><time>2014-09-03T12:56:44Z</time></trkpt><trkpt lat="45.8837377466" lon="7.1853990667"><ele>2170.79</ele><time>2014-09-03T12:56:45Z</time></trkpt><trkpt lat="45.8837263472" lon="7.1854009107"><ele>2170.79</ele><time>2014-09-03T12:56:46Z</time></trkpt><trkpt lat="45.8837151155" lon="7.1854001563"><ele>2171.27</ele><time>2014-09-03T12:56:47Z</time></trkpt><trkpt lat="45.8837016206" lon="7.1854005754"><ele>2171.27</ele><time>2014-09-03T12:56:48Z</time></trkpt><trkpt lat="45.8836886287" lon="7.1854017489"><ele>2171.27</ele><time>2014-09-03T12:56:49Z</time></trkpt><trkpt lat="45.8836771455" lon="7.1854006592"><ele>2171.76</ele><time>2014-09-03T12:56:50Z</time></trkpt><trkpt lat="45.8836551849" lon="7.1853994858"><ele>2171.76</ele><time>2014-09-03T12:56:52Z</time></trkpt><trkpt lat="45.8836217411" lon="7.1853744239"><ele>2172.24</ele><time>2014-09-03T12:56:55Z</time></trkpt><trkpt lat="45.8835520037" lon="7.1853310894"><ele>2173.68</ele><time>2014-09-03T12:57:04Z</time></trkpt><trkpt lat="45.8835006226" lon="7.1853044350"><ele>2173.68</ele><time>2014-09-03T12:57:15Z</time></trkpt><trkpt lat="45.8834979404" lon="7.1853730828"><ele>2163.10</ele><time>2014-09-03T12:57:52Z</time></trkpt><trkpt lat="45.8835009579" lon="7.1852759365"><ele>2165.03</ele><time>2014-09-03T12:58:25Z</time></trkpt><trkpt lat="45.8834844455" lon="7.1852781158"><ele>2161.66</ele><time>2014-09-03T12:58:51Z</time></trkpt><trkpt lat="45.8834736329" lon="7.1852616873"><ele>2160.22</ele><time>2014-09-03T12:59:24Z</time></trkpt><trkpt lat="45.8834880497" lon="7.1852490306"><ele>2162.14</ele><time>2014-09-03T12:59:55Z</time></trkpt><trkpt lat="45.8835338149" lon="7.1853123140"><ele>2154.93</ele><time>2014-09-03T13:00:29Z</time></trkpt><trkpt lat="45.8835339826" lon="7.1852594241"><ele>2158.30</ele><time>2014-09-03T13:00:56Z</time></trkpt><trkpt lat="45.8835386764" lon="7.1852413192"><ele>2165.51</ele><time>2014-09-03T13:01:10Z</time></trkpt><trkpt lat="45.8835131954" lon="7.1851954702"><ele>2167.91</ele><time>2014-09-03T13:01:44Z</time></trkpt><trkpt lat="45.8835098427" lon="7.1851882618"><ele>2171.76</ele><time>2014-09-03T13:02:19Z</time></trkpt><trkpt lat="45.8835442085" lon="7.1851737611"><ele>2168.87</ele><time>2014-09-03T13:02:50Z</time></trkpt><trkpt lat="45.8835209068" lon="7.1852627769"><ele>2170.79</ele><time>2014-09-03T13:03:20Z</time></trkpt><trkpt lat="45.8835167997" lon="7.1852375474"><ele>2166.95</ele><time>2014-09-03T13:03:44Z</time></trkpt><trkpt lat="45.8835390955" lon="7.1852613520"><ele>2170.79</ele><time>2014-09-03T13:04:08Z</time></trkpt><trkpt lat="45.8835748024" lon="7.1852640342"><ele>2175.60</ele><time>2014-09-03T13:04:47Z</time></trkpt><trkpt lat="45.8836039715" lon="7.1852219570"><ele>2175.60</ele><time>2014-09-03T13:05:26Z</time></trkpt><trkpt lat="45.8835788257" lon="7.1852803789"><ele>2180.89</ele><time>2014-09-03T13:06:16Z</time></trkpt><trkpt lat="45.8835648280" lon="7.1852862462"><ele>2182.33</ele><time>2014-09-03T13:06:51Z</time></trkpt><trkpt lat="45.8835615590" lon="7.1853473503"><ele>2182.33</ele><time>2014-09-03T13:07:37Z</time></trkpt><trkpt lat="45.8835819270" lon="7.1853117272"><ele>2182.33</ele><time>2014-09-03T13:08:16Z</time></trkpt><trkpt lat="45.8835904766" lon="7.1852721646"><ele>2176.08</ele><time>2014-09-03T13:09:00Z</time></trkpt><trkpt lat="45.8836115152" lon="7.1851764433"><ele>2171.76</ele><time>2014-09-03T13:09:28Z</time></trkpt><trkpt lat="45.8835820109" lon="7.1853302512"><ele>2173.20</ele><time>2014-09-03T13:10:16Z</time></trkpt><trkpt lat="45.8835717849" lon="7.1853046026"><ele>2170.31</ele><time>2014-09-03T13:10:54Z</time></trkpt><trkpt lat="45.8835630678" lon="7.1852631122"><ele>2169.83</ele><time>2014-09-03T13:11:24Z</time></trkpt><trkpt lat="45.8835276961" lon="7.1852711588"><ele>2168.87</ele><time>2014-09-03T13:11:52Z</time></trkpt><trkpt lat="45.8835099265" lon="7.1852582507"><ele>2166.47</ele><time>2014-09-03T13:12:22Z</time></trkpt><trkpt lat="45.8835027181" lon="7.1852678899"><ele>2167.91</ele><time>2014-09-03T13:12:52Z</time></trkpt><trkpt lat="45.8835418615" lon="7.1852471028"><ele>2176.56</ele><time>2014-09-03T13:13:19Z</time></trkpt><trkpt lat="45.8835246786" lon="7.1853164211"><ele>2172.24</ele><time>2014-09-03T13:13:57Z</time></trkpt><trkpt lat="45.8835454658" lon="7.1853056923"><ele>2175.12</ele><time>2014-09-03T13:14:30Z</time></trkpt><trkpt lat="45.8835597988" lon="7.1853165887"><ele>2176.08</ele><time>2014-09-03T13:15:04Z</time></trkpt><trkpt lat="45.8835945837" lon="7.1852745954"><ele>2178.48</ele><time>2014-09-03T13:15:40Z</time></trkpt><trkpt lat="45.8835516684" lon="7.1853090450"><ele>2176.56</ele><time>2014-09-03T13:16:17Z</time></trkpt><trkpt lat="45.8835820947" lon="7.1852844022"><ele>2175.60</ele><time>2014-09-03T13:16:46Z</time></trkpt><trkpt lat="45.8835756406" lon="7.1853154153"><ele>2177.52</ele><time>2014-09-03T13:17:27Z</time></trkpt><trkpt lat="45.8835582063" lon="7.1852413192"><ele>2177.52</ele><time>2014-09-03T13:17:57Z</time></trkpt><trkpt lat="45.8835546859" lon="7.1853295807"><ele>2180.41</ele><time>2014-09-03T13:18:24Z</time></trkpt><trkpt lat="45.8835681807" lon="7.1853093803"><ele>2178.48</ele><time>2014-09-03T13:18:59Z</time></trkpt><trkpt lat="45.8835858665" lon="7.1853040997"><ele>2181.85</ele><time>2014-09-03T13:19:20Z</time></trkpt><trkpt lat="45.8836468868" lon="7.1852949634"><ele>2178.97</ele><time>2014-09-03T13:19:52Z</time></trkpt><trkpt lat="45.8836084139" lon="7.1852352843"><ele>2179.45</ele><time>2014-09-03T13:20:20Z</time></trkpt><trkpt lat="45.8835916501" lon="7.1852150839"><ele>2180.89</ele><time>2014-09-03T13:20:50Z</time></trkpt><trkpt lat="45.8835739642" lon="7.1852400620"><ele>2180.41</ele><time>2014-09-03T13:21:21Z</time></trkpt><trkpt lat="45.8835956734" lon="7.1852533892"><ele>2181.37</ele><time>2014-09-03T13:21:51Z</time></trkpt><trkpt lat="45.8835888002" lon="7.1852852404"><ele>2176.56</ele><time>2014-09-03T13:22:22Z</time></trkpt><trkpt lat="45.8835649118" lon="7.1852393914"><ele>2177.52</ele><time>2014-09-03T13:22:56Z</time></trkpt><trkpt lat="45.8835780714" lon="7.1853072010"><ele>2175.60</ele><time>2014-09-03T13:23:24Z</time></trkpt><trkpt lat="45.8835477289" lon="7.1852815524"><ele>2175.12</ele><time>2014-09-03T13:23:59Z</time></trkpt><trkpt lat="45.8835826814" lon="7.1852905210"><ele>2175.60</ele><time>2014-09-03T13:24:26Z</time></trkpt><trkpt lat="45.8835641574" lon="7.1852579992"><ele>2177.04</ele><time>2014-09-03T13:24:58Z</time></trkpt><trkpt lat="45.8835958410" lon="7.1852623578"><ele>2177.52</ele><time>2014-09-03T13:25:27Z</time></trkpt><trkpt lat="45.8835895546" lon="7.1852674708"><ele>2178.00</ele><time>2014-09-03T13:26:04Z</time></trkpt><trkpt lat="45.8835741319" lon="7.1852522995"><ele>2174.16</ele><time>2014-09-03T13:26:42Z</time></trkpt><trkpt lat="45.8835788257" lon="7.1852529701"><ele>2173.68</ele><time>2014-09-03T13:27:18Z</time></trkpt><trkpt lat="45.8835903928" lon="7.1852253936"><ele>2177.04</ele><time>2014-09-03T13:27:53Z</time></trkpt><trkpt lat="45.8835716173" lon="7.1852682251"><ele>2173.68</ele><time>2014-09-03T13:28:28Z</time></trkpt><trkpt lat="45.8835774846" lon="7.1853288263"><ele>2173.20</ele><time>2014-09-03T13:29:12Z</time></trkpt><trkpt lat="45.8836048935" lon="7.1852688119"><ele>2178.97</ele><time>2014-09-03T13:29:43Z</time></trkpt><trkpt lat="45.8836288657" lon="7.1853008308"><ele>2176.56</ele><time>2014-09-03T13:30:26Z</time></trkpt><trkpt lat="45.8836043067" lon="7.1852491982"><ele>2178.48</ele><time>2014-09-03T13:30:59Z</time></trkpt><trkpt lat="45.8836301230" lon="7.1852573287"><ele>2176.08</ele><time>2014-09-03T13:31:40Z</time></trkpt><trkpt lat="45.8836428635" lon="7.1852709912"><ele>2176.56</ele><time>2014-09-03T13:32:05Z</time></trkpt><trkpt lat="45.8836431149" lon="7.1852515452"><ele>2179.93</ele><time>2014-09-03T13:32:39Z</time></trkpt><trkpt lat="45.8836346492" lon="7.1852974780"><ele>2179.93</ele><time>2014-09-03T13:33:15Z</time></trkpt><trkpt lat="45.8836214058" lon="7.1852768585"><ele>2180.41</ele><time>2014-09-03T13:33:46Z</time></trkpt><trkpt lat="45.8836180530" lon="7.1852944605"><ele>2176.56</ele><time>2014-09-03T13:34:28Z</time></trkpt><trkpt lat="45.8836296201" lon="7.1852602623"><ele>2178.00</ele><time>2014-09-03T13:35:05Z</time></trkpt><trkpt lat="45.8836267702" lon="7.1852796245"><ele>2175.60</ele><time>2014-09-03T13:35:37Z</time></trkpt><trkpt lat="45.8835742995" lon="7.1852766909"><ele>2177.04</ele><time>2014-09-03T13:36:00Z</time></trkpt><trkpt lat="45.8835366648" lon="7.1852266509"><ele>2169.35</ele><time>2014-09-03T13:36:28Z</time></trkpt><trkpt lat="45.8835335635" lon="7.1852729190"><ele>2166.47</ele><time>2014-09-03T13:37:04Z</time></trkpt><trkpt lat="45.8835346531" lon="7.1853235457"><ele>2171.76</ele><time>2014-09-03T13:37:41Z</time></trkpt><trkpt lat="45.8835433703" lon="7.1853027586"><ele>2170.31</ele><time>2014-09-03T13:38:13Z</time></trkpt><trkpt lat="45.8835356589" lon="7.1853072010"><ele>2168.87</ele><time>2014-09-03T13:38:33Z</time></trkpt><trkpt lat="45.8835639898" lon="7.1853044350"><ele>2165.99</ele><time>2014-09-03T13:39:06Z</time></trkpt><trkpt lat="45.8835382573" lon="7.1852859110"><ele>2173.20</ele><time>2014-09-03T13:39:42Z</time></trkpt><trkpt lat="45.8835275285" lon="7.1853377111"><ele>2171.76</ele><time>2014-09-03T13:39:46Z</time></trkpt><trkpt lat="45.8834903967" lon="7.1853643656"><ele>2172.24</ele><time>2014-09-03T13:39:55Z</time></trkpt><trkpt lat="45.8834800031" lon="7.1853686403"><ele>2172.24</ele><time>2014-09-03T13:39:56Z</time></trkpt><trkpt lat="45.8834665082" lon="7.1853721607"><ele>2172.72</ele><time>2014-09-03T13:39:57Z</time></trkpt><trkpt lat="45.8834525943" lon="7.1853800397"><ele>2172.72</ele><time>2014-09-03T13:39:58Z</time></trkpt><trkpt lat="45.8834347408" lon="7.1853861585"><ele>2172.72</ele><time>2014-09-03T13:39:59Z</time></trkpt><trkpt lat="45.8834204078" lon="7.1853913553"><ele>2172.72</ele><time>2014-09-03T13:40:00Z</time></trkpt><trkpt lat="45.8834048174" lon="7.1853986476"><ele>2172.72</ele><time>2014-09-03T13:40:01Z</time></trkpt><trkpt lat="45.8833905682" lon="7.1854020841"><ele>2172.72</ele><time>2014-09-03T13:40:02Z</time></trkpt><trkpt lat="45.8833757322" lon="7.1854040120"><ele>2172.24</ele><time>2014-09-03T13:40:03Z</time></trkpt><trkpt lat="45.8833620697" lon="7.1854097117"><ele>2172.72</ele><time>2014-09-03T13:40:04Z</time></trkpt><trkpt lat="45.8833475690" lon="7.1854201052"><ele>2172.24</ele><time>2014-09-03T13:40:05Z</time></trkpt><trkpt lat="45.8830735646" lon="7.1854840592"><ele>2174.16</ele><time>2014-09-03T13:40:22Z</time></trkpt><trkpt lat="45.8829518594" lon="7.1854982246"><ele>2175.12</ele><time>2014-09-03T13:40:29Z</time></trkpt><trkpt lat="45.8829369396" lon="7.1854930278"><ele>2175.12</ele><time>2014-09-03T13:40:30Z</time></trkpt><trkpt lat="45.8829199243" lon="7.1854908485"><ele>2175.60</ele><time>2014-09-03T13:40:31Z</time></trkpt><trkpt lat="45.8829022385" lon="7.1854880825"><ele>2175.60</ele><time>2014-09-03T13:40:32Z</time></trkpt><trkpt lat="45.8828832116" lon="7.1854841430"><ele>2175.12</ele><time>2014-09-03T13:40:33Z</time></trkpt><trkpt lat="45.8828660287" lon="7.1854829695"><ele>2175.12</ele><time>2014-09-03T13:40:34Z</time></trkpt><trkpt lat="45.8826430701" lon="7.1853736695"><ele>2177.04</ele><time>2014-09-03T13:40:48Z</time></trkpt><trkpt lat="45.8825464267" lon="7.1853001602"><ele>2177.52</ele><time>2014-09-03T13:40:55Z</time></trkpt><trkpt lat="45.8825359493" lon="7.1852854919"><ele>2178.00</ele><time>2014-09-03T13:40:56Z</time></trkpt><trkpt lat="45.8825247176" lon="7.1852755174"><ele>2178.00</ele><time>2014-09-03T13:40:57Z</time></trkpt><trkpt lat="45.8825149108" lon="7.1852632798"><ele>2178.48</ele><time>2014-09-03T13:40:58Z</time></trkpt><trkpt lat="45.8825026732" lon="7.1852524672"><ele>2178.97</ele><time>2014-09-03T13:40:59Z</time></trkpt><trkpt lat="45.8824889269" lon="7.1852402296"><ele>2178.97</ele><time>2014-09-03T13:41:00Z</time></trkpt><trkpt lat="45.8824783657" lon="7.1852270700"><ele>2178.97</ele><time>2014-09-03T13:41:01Z</time></trkpt><trkpt lat="45.8824705705" lon="7.1852155030"><ele>2179.45</ele><time>2014-09-03T13:41:02Z</time></trkpt><trkpt lat="45.8824591711" lon="7.1851975657"><ele>2181.85</ele><time>2014-09-03T13:41:18Z</time></trkpt><trkpt lat="45.8824432455" lon="7.1851734258"><ele>2181.85</ele><time>2014-09-03T13:41:39Z</time></trkpt><trkpt lat="45.8824408147" lon="7.1851752698"><ele>2180.89</ele><time>2014-09-03T13:41:54Z</time></trkpt><trkpt lat="45.8824422397" lon="7.1851775330"><ele>2181.37</ele><time>2014-09-03T13:42:04Z</time></trkpt><trkpt lat="45.8824328519" lon="7.1851677261"><ele>2181.85</ele><time>2014-09-03T13:42:05Z</time></trkpt><trkpt lat="45.8824235480" lon="7.1851531416"><ele>2182.33</ele><time>2014-09-03T13:42:06Z</time></trkpt><trkpt lat="45.8824134897" lon="7.1851349529"><ele>2182.33</ele><time>2014-09-03T13:42:07Z</time></trkpt><trkpt lat="45.8824013360" lon="7.1851171833"><ele>2182.33</ele><time>2014-09-03T13:42:08Z</time></trkpt><trkpt lat="45.8823901042" lon="7.1851020120"><ele>2182.33</ele><time>2014-09-03T13:42:09Z</time></trkpt><trkpt lat="45.8823785372" lon="7.1850888524"><ele>2182.81</ele><time>2014-09-03T13:42:10Z</time></trkpt><trkpt lat="45.8823415730" lon="7.1850425005"><ele>2182.81</ele><time>2014-09-03T13:42:13Z</time></trkpt><trkpt lat="45.8823289163" lon="7.1850309335"><ele>2182.81</ele><time>2014-09-03T13:42:14Z</time></trkpt><trkpt lat="45.8821471129" lon="7.1847918816"><ele>2186.18</ele><time>2014-09-03T13:42:30Z</time></trkpt><trkpt lat="45.8819487970" lon="7.1845675819"><ele>2189.54</ele><time>2014-09-03T13:42:46Z</time></trkpt><trkpt lat="45.8819409180" lon="7.1845499799"><ele>2190.02</ele><time>2014-09-03T13:42:47Z</time></trkpt><trkpt lat="45.8819305245" lon="7.1845326293"><ele>2190.50</ele><time>2014-09-03T13:42:48Z</time></trkpt><trkpt lat="45.8819190413" lon="7.1845203079"><ele>2190.50</ele><time>2014-09-03T13:42:49Z</time></trkpt><trkpt lat="45.8819039539" lon="7.1845071483"><ele>2190.98</ele><time>2014-09-03T13:42:50Z</time></trkpt><trkpt lat="45.8818938956" lon="7.1844960004"><ele>2191.46</ele><time>2014-09-03T13:42:51Z</time></trkpt><trkpt lat="45.8818799816" lon="7.1844880376"><ele>2191.46</ele><time>2014-09-03T13:42:52Z</time></trkpt><trkpt lat="45.8818673249" lon="7.1844838466"><ele>2191.46</ele><time>2014-09-03T13:42:53Z</time></trkpt><trkpt lat="45.8818553388" lon="7.1844705194"><ele>2191.94</ele><time>2014-09-03T13:42:54Z</time></trkpt><trkpt lat="45.8818421792" lon="7.1844614670"><ele>2192.42</ele><time>2014-09-03T13:42:55Z</time></trkpt><trkpt lat="45.8818291873" lon="7.1844492294"><ele>2192.90</ele><time>2014-09-03T13:42:56Z</time></trkpt><trkpt lat="45.8818179555" lon="7.1844374947"><ele>2192.90</ele><time>2014-09-03T13:42:57Z</time></trkpt><trkpt lat="45.8816083241" lon="7.1842879616"><ele>2195.31</ele><time>2014-09-03T13:43:15Z</time></trkpt><trkpt lat="45.8814276103" lon="7.1842354909"><ele>2197.23</ele><time>2014-09-03T13:43:30Z</time></trkpt><trkpt lat="45.8812372573" lon="7.1841600537"><ele>2198.19</ele><time>2014-09-03T13:43:45Z</time></trkpt><trkpt lat="45.8811199106" lon="7.1840960160"><ele>2199.63</ele><time>2014-09-03T13:43:59Z</time></trkpt><trkpt lat="45.8811153006" lon="7.1840593033"><ele>2196.27</ele><time>2014-09-03T13:44:23Z</time></trkpt><trkpt lat="45.8810746484" lon="7.1840551123"><ele>2194.83</ele><time>2014-09-03T13:45:06Z</time></trkpt><trkpt lat="45.8810805995" lon="7.1840880532"><ele>2200.11</ele><time>2014-09-03T13:45:41Z</time></trkpt><trkpt lat="45.8810913283" lon="7.1841077507"><ele>2199.63</ele><time>2014-09-03T13:46:19Z</time></trkpt><trkpt lat="45.8811040688" lon="7.1841331478"><ele>2198.67</ele><time>2014-09-03T13:46:58Z</time></trkpt><trkpt lat="45.8810988721" lon="7.1840986144"><ele>2200.11</ele><time>2014-09-03T13:47:28Z</time></trkpt><trkpt lat="45.8810923342" lon="7.1840772405"><ele>2200.11</ele><time>2014-09-03T13:48:03Z</time></trkpt><trkpt lat="45.8810800128" lon="7.1840972733"><ele>2197.71</ele><time>2014-09-03T13:48:30Z</time></trkpt><trkpt lat="45.8811075892" lon="7.1840986982"><ele>2198.19</ele><time>2014-09-03T13:49:02Z</time></trkpt><trkpt lat="45.8810909931" lon="7.1841256879"><ele>2204.44</ele><time>2014-09-03T13:49:35Z</time></trkpt><trkpt lat="45.8810835332" lon="7.1841016319"><ele>2210.69</ele><time>2014-09-03T13:50:06Z</time></trkpt><trkpt lat="45.8810845390" lon="7.1841204911"><ele>2209.73</ele><time>2014-09-03T13:50:38Z</time></trkpt><trkpt lat="45.8810997941" lon="7.1841703635"><ele>2207.32</ele><time>2014-09-03T13:51:01Z</time></trkpt><trkpt lat="45.8811050747" lon="7.1841539349"><ele>2203.96</ele><time>2014-09-03T13:51:32Z</time></trkpt><trkpt lat="45.8810897358" lon="7.1841106843"><ele>2203.48</ele><time>2014-09-03T13:51:51Z</time></trkpt><trkpt lat="45.8810585551" lon="7.1840950940"><ele>2204.44</ele><time>2014-09-03T13:51:54Z</time></trkpt><trkpt lat="45.8808211796" lon="7.1840382647"><ele>2205.88</ele><time>2014-09-03T13:52:08Z</time></trkpt><trkpt lat="45.8807039168" lon="7.1838313155"><ele>2206.84</ele><time>2014-09-03T13:52:20Z</time></trkpt><trkpt lat="45.8806957863" lon="7.1837070957"><ele>2206.84</ele><time>2014-09-03T13:52:26Z</time></trkpt><trkpt lat="45.8806911763" lon="7.1836868115"><ele>2206.84</ele><time>2014-09-03T13:52:27Z</time></trkpt><trkpt lat="45.8806869853" lon="7.1836689580"><ele>2206.84</ele><time>2014-09-03T13:52:28Z</time></trkpt><trkpt lat="45.8806822915" lon="7.1836481709"><ele>2207.32</ele><time>2014-09-03T13:52:29Z</time></trkpt><trkpt lat="45.8806794416" lon="7.1836304851"><ele>2207.32</ele><time>2014-09-03T13:52:30Z</time></trkpt><trkpt lat="45.8806787711" lon="7.1836107038"><ele>2207.32</ele><time>2014-09-03T13:52:31Z</time></trkpt><trkpt lat="45.8806765918" lon="7.1835957002"><ele>2207.32</ele><time>2014-09-03T13:52:32Z</time></trkpt><trkpt lat="45.8806731552" lon="7.1835784335"><ele>2207.81</ele><time>2014-09-03T13:52:33Z</time></trkpt><trkpt lat="45.8806735743" lon="7.1835633460"><ele>2207.81</ele><time>2014-09-03T13:52:34Z</time></trkpt><trkpt lat="45.8806842193" lon="7.1835058462"><ele>2208.29</ele><time>2014-09-03T13:52:46Z</time></trkpt><trkpt lat="45.8806299884" lon="7.1835088637"><ele>2211.65</ele><time>2014-09-03T13:53:15Z</time></trkpt><trkpt lat="45.8806308266" lon="7.1835258789"><ele>2213.57</ele><time>2014-09-03T13:53:38Z</time></trkpt><trkpt lat="45.8806215227" lon="7.1835399605"><ele>2216.46</ele><time>2014-09-03T13:54:04Z</time></trkpt><trkpt lat="45.8806637675" lon="7.1835028287"><ele>2218.86</ele><time>2014-09-03T13:54:28Z</time></trkpt><trkpt lat="45.8806376159" lon="7.1835491806"><ele>2217.42</ele><time>2014-09-03T13:54:50Z</time></trkpt><trkpt lat="45.8806464169" lon="7.1834797785"><ele>2216.94</ele><time>2014-09-03T13:54:57Z</time></trkpt><trkpt lat="45.8806447405" lon="7.1834629308"><ele>2216.94</ele><time>2014-09-03T13:54:58Z</time></trkpt><trkpt lat="45.8806441538" lon="7.1834431496"><ele>2216.94</ele><time>2014-09-03T13:54:59Z</time></trkpt><trkpt lat="45.8806392923" lon="7.1832916886"><ele>2215.98</ele><time>2014-09-03T13:55:06Z</time></trkpt><trkpt lat="45.8806439862" lon="7.1832636930"><ele>2215.50</ele><time>2014-09-03T13:55:07Z</time></trkpt><trkpt lat="45.8806395438" lon="7.1832424030"><ele>2215.01</ele><time>2014-09-03T13:55:08Z</time></trkpt><trkpt lat="45.8806384541" lon="7.1832204424"><ele>2215.01</ele><time>2014-09-03T13:55:09Z</time></trkpt><trkpt lat="45.8806371968" lon="7.1831980627"><ele>2215.01</ele><time>2014-09-03T13:55:10Z</time></trkpt><trkpt lat="45.8806370292" lon="7.1831754316"><ele>2214.53</ele><time>2014-09-03T13:55:11Z</time></trkpt><trkpt lat="45.8805946168" lon="7.1828740183"><ele>2215.01</ele><time>2014-09-03T13:55:25Z</time></trkpt><trkpt lat="45.8805947006" lon="7.1828506328"><ele>2215.50</ele><time>2014-09-03T13:55:26Z</time></trkpt><trkpt lat="45.8805956226" lon="7.1828277502"><ele>2215.50</ele><time>2014-09-03T13:55:27Z</time></trkpt><trkpt lat="45.8805936109" lon="7.1828098129"><ele>2215.50</ele><time>2014-09-03T13:55:28Z</time></trkpt><trkpt lat="45.8805897553" lon="7.1827897802"><ele>2215.50</ele><time>2014-09-03T13:55:29Z</time></trkpt><trkpt lat="45.8805855643" lon="7.1827703342"><ele>2215.50</ele><time>2014-09-03T13:55:30Z</time></trkpt><trkpt lat="45.8805801999" lon="7.1827497985"><ele>2215.50</ele><time>2014-09-03T13:55:31Z</time></trkpt><trkpt lat="45.8805531263" lon="7.1826519817"><ele>2216.46</ele><time>2014-09-03T13:55:36Z</time></trkpt><trkpt lat="45.8805433195" lon="7.1826353017"><ele>2216.46</ele><time>2014-09-03T13:55:37Z</time></trkpt><trkpt lat="45.8805326745" lon="7.1826220583"><ele>2216.46</ele><time>2014-09-03T13:55:38Z</time></trkpt><trkpt lat="45.8803693950" lon="7.1826908737"><ele>2216.94</ele><time>2014-09-03T13:55:52Z</time></trkpt><trkpt lat="45.8802593406" lon="7.1828984935"><ele>2216.94</ele><time>2014-09-03T13:56:05Z</time></trkpt><trkpt lat="45.8802516293" lon="7.1829134971"><ele>2216.94</ele><time>2014-09-03T13:56:06Z</time></trkpt><trkpt lat="45.8802427445" lon="7.1829285845"><ele>2216.94</ele><time>2014-09-03T13:56:07Z</time></trkpt><trkpt lat="45.8802346140" lon="7.1829418279"><ele>2217.42</ele><time>2014-09-03T13:56:08Z</time></trkpt><trkpt lat="45.8802269027" lon="7.1829553228"><ele>2217.42</ele><time>2014-09-03T13:56:09Z</time></trkpt><trkpt lat="45.8802206162" lon="7.1829677280"><ele>2217.42</ele><time>2014-09-03T13:56:10Z</time></trkpt><trkpt lat="45.8801994938" lon="7.1830135770"><ele>2218.38</ele><time>2014-09-03T13:56:13Z</time></trkpt><trkpt lat="45.8801913634" lon="7.1830304246"><ele>2218.38</ele><time>2014-09-03T13:56:14Z</time></trkpt><trkpt lat="45.8801800478" lon="7.1830448415"><ele>2218.38</ele><time>2014-09-03T13:56:15Z</time></trkpt><trkpt lat="45.8800968155" lon="7.1831592545"><ele>2219.82</ele><time>2014-09-03T13:56:24Z</time></trkpt><trkpt lat="45.8800851647" lon="7.1831641998"><ele>2220.30</ele><time>2014-09-03T13:56:25Z</time></trkpt><trkpt lat="45.8800717536" lon="7.1831687260"><ele>2220.30</ele><time>2014-09-03T13:56:26Z</time></trkpt><trkpt lat="45.8799997531" lon="7.1831461787"><ele>2220.78</ele><time>2014-09-03T13:56:32Z</time></trkpt><trkpt lat="45.8799927123" lon="7.1831338573"><ele>2221.26</ele><time>2014-09-03T13:56:33Z</time></trkpt><trkpt lat="45.8799847495" lon="7.1831181832"><ele>2221.74</ele><time>2014-09-03T13:56:34Z</time></trkpt><trkpt lat="45.8799755294" lon="7.1831055265"><ele>2222.22</ele><time>2014-09-03T13:56:35Z</time></trkpt><trkpt lat="45.8799663931" lon="7.1830924507"><ele>2222.22</ele><time>2014-09-03T13:56:36Z</time></trkpt><trkpt lat="45.8799056243" lon="7.1829680633"><ele>2225.11</ele><time>2014-09-03T13:56:46Z</time></trkpt><trkpt lat="45.8798993379" lon="7.1829562448"><ele>2225.11</ele><time>2014-09-03T13:56:47Z</time></trkpt><trkpt lat="45.8798951469" lon="7.1829404868"><ele>2225.59</ele><time>2014-09-03T13:56:48Z</time></trkpt><trkpt lat="45.8798886091" lon="7.1829207055"><ele>2225.59</ele><time>2014-09-03T13:56:49Z</time></trkpt><trkpt lat="45.8798843343" lon="7.1829081327"><ele>2225.59</ele><time>2014-09-03T13:56:50Z</time></trkpt><trkpt lat="45.8798803948" lon="7.1828978229"><ele>2226.07</ele><time>2014-09-03T13:56:51Z</time></trkpt><trkpt lat="45.8798788860" lon="7.1828828193"><ele>2226.55</ele><time>2014-09-03T13:56:52Z</time></trkpt><trkpt lat="45.8798736054" lon="7.1828724258"><ele>2226.07</ele><time>2014-09-03T13:56:53Z</time></trkpt><trkpt lat="45.8798674867" lon="7.1828620322"><ele>2226.55</ele><time>2014-09-03T13:56:54Z</time></trkpt><trkpt lat="45.8798549976" lon="7.1827711724"><ele>2227.51</ele><time>2014-09-03T13:57:04Z</time></trkpt><trkpt lat="45.8798424248" lon="7.1827432606"><ele>2230.88</ele><time>2014-09-03T13:57:29Z</time></trkpt><trkpt lat="45.8798156027" lon="7.1827973239"><ele>2223.67</ele><time>2014-09-03T13:58:17Z</time></trkpt><trkpt lat="45.8798317797" lon="7.1827166900"><ele>2226.55</ele><time>2014-09-03T13:58:57Z</time></trkpt><trkpt lat="45.8798442688" lon="7.1827595215"><ele>2226.07</ele><time>2014-09-03T13:59:22Z</time></trkpt><trkpt lat="45.8798245713" lon="7.1827416681"><ele>2222.71</ele><time>2014-09-03T13:59:57Z</time></trkpt><trkpt lat="45.8798425924" lon="7.1827093139"><ele>2224.15</ele><time>2014-09-03T14:00:24Z</time></trkpt><trkpt lat="45.8798435144" lon="7.1827386506"><ele>2224.15</ele><time>2014-09-03T14:00:41Z</time></trkpt><trkpt lat="45.8798358869" lon="7.1827267483"><ele>2224.15</ele><time>2014-09-03T14:00:42Z</time></trkpt><trkpt lat="45.8797710110" lon="7.1826145984"><ele>2226.07</ele><time>2014-09-03T14:00:53Z</time></trkpt><trkpt lat="45.8797287662" lon="7.1825109981"><ele>2226.55</ele><time>2014-09-03T14:00:58Z</time></trkpt><trkpt lat="45.8797141816" lon="7.1825037897"><ele>2226.07</ele><time>2014-09-03T14:00:59Z</time></trkpt><trkpt lat="45.8796989266" lon="7.1824955754"><ele>2226.55</ele><time>2014-09-03T14:01:00Z</time></trkpt><trkpt lat="45.8796858508" lon="7.1824828349"><ele>2226.07</ele><time>2014-09-03T14:01:01Z</time></trkpt><trkpt lat="45.8796736132" lon="7.1824679151"><ele>2226.07</ele><time>2014-09-03T14:01:02Z</time></trkpt><trkpt lat="45.8796602860" lon="7.1824628022"><ele>2225.59</ele><time>2014-09-03T14:01:03Z</time></trkpt><trkpt lat="45.8796447795" lon="7.1824572701"><ele>2225.59</ele><time>2014-09-03T14:01:04Z</time></trkpt><trkpt lat="45.8796312008" lon="7.1824530791"><ele>2225.59</ele><time>2014-09-03T14:01:05Z</time></trkpt><trkpt lat="45.8796179574" lon="7.1824476309"><ele>2225.59</ele><time>2014-09-03T14:01:06Z</time></trkpt><trkpt lat="45.8796025347" lon="7.1824349742"><ele>2225.59</ele><time>2014-09-03T14:01:07Z</time></trkpt><trkpt lat="45.8795874473" lon="7.1824285202"><ele>2225.59</ele><time>2014-09-03T14:01:08Z</time></trkpt><trkpt lat="45.8795758802" lon="7.1824318729"><ele>2225.11</ele><time>2014-09-03T14:01:09Z</time></trkpt><trkpt lat="45.8795636427" lon="7.1824427694"><ele>2224.63</ele><time>2014-09-03T14:01:10Z</time></trkpt><trkpt lat="45.8795483038" lon="7.1824542526"><ele>2224.63</ele><time>2014-09-03T14:01:11Z</time></trkpt><trkpt lat="45.8795307018" lon="7.1824565995"><ele>2224.15</ele><time>2014-09-03T14:01:12Z</time></trkpt><trkpt lat="45.8795163687" lon="7.1824563481"><ele>2224.63</ele><time>2014-09-03T14:01:13Z</time></trkpt><trkpt lat="45.8795023710" lon="7.1824580245"><ele>2224.63</ele><time>2014-09-03T14:01:14Z</time></trkpt><trkpt lat="45.8794893790" lon="7.1824551746"><ele>2225.11</ele><time>2014-09-03T14:01:15Z</time></trkpt><trkpt lat="45.8794778958" lon="7.1824643947"><ele>2225.59</ele><time>2014-09-03T14:01:16Z</time></trkpt><trkpt lat="45.8794652391" lon="7.1824731957"><ele>2225.11</ele><time>2014-09-03T14:01:17Z</time></trkpt><trkpt lat="45.8794519957" lon="7.1824823320"><ele>2225.59</ele><time>2014-09-03T14:01:18Z</time></trkpt><trkpt lat="45.8794390038" lon="7.1824924741"><ele>2225.59</ele><time>2014-09-03T14:01:19Z</time></trkpt><trkpt lat="45.8794274367" lon="7.1824960783"><ele>2225.59</ele><time>2014-09-03T14:01:20Z</time></trkpt><trkpt lat="45.8794137742" lon="7.1825005207"><ele>2225.59</ele><time>2014-09-03T14:01:21Z</time></trkpt><trkpt lat="45.8794045541" lon="7.1825096570"><ele>2226.07</ele><time>2014-09-03T14:01:22Z</time></trkpt><trkpt lat="45.8793934900" lon="7.1825197991"><ele>2226.07</ele><time>2014-09-03T14:01:23Z</time></trkpt><trkpt lat="45.8792742155" lon="7.1825550869"><ele>2227.03</ele><time>2014-09-03T14:01:32Z</time></trkpt><trkpt lat="45.8792681806" lon="7.1825628821"><ele>2227.51</ele><time>2014-09-03T14:01:33Z</time></trkpt><trkpt lat="45.8792587928" lon="7.1825742815"><ele>2227.51</ele><time>2014-09-03T14:01:34Z</time></trkpt><trkpt lat="45.8792466391" lon="7.1825820766"><ele>2227.99</ele><time>2014-09-03T14:01:35Z</time></trkpt><trkpt lat="45.8792033885" lon="7.1825876925"><ele>2228.47</ele><time>2014-09-03T14:01:41Z</time></trkpt><trkpt lat="45.8791848645" lon="7.1825788915"><ele>2228.47</ele><time>2014-09-03T14:01:51Z</time></trkpt><trkpt lat="45.8792013768" lon="7.1826017741"><ele>2227.03</ele><time>2014-09-03T14:02:27Z</time></trkpt><trkpt lat="45.8791577909" lon="7.1826009359"><ele>2227.99</ele><time>2014-09-03T14:02:56Z</time></trkpt><trkpt lat="45.8791715372" lon="7.1825842559"><ele>2226.55</ele><time>2014-09-03T14:03:30Z</time></trkpt><trkpt lat="45.8791390993" lon="7.1826189570"><ele>2221.74</ele><time>2014-09-03T14:03:58Z</time></trkpt><trkpt lat="45.8791267779" lon="7.1826317813"><ele>2221.74</ele><time>2014-09-03T14:03:59Z</time></trkpt><trkpt lat="45.8788899891" lon="7.1827290114"><ele>2224.63</ele><time>2014-09-03T14:04:14Z</time></trkpt><trkpt lat="45.8788762428" lon="7.1827298496"><ele>2224.63</ele><time>2014-09-03T14:04:15Z</time></trkpt><trkpt lat="45.8788592275" lon="7.1827330347"><ele>2224.63</ele><time>2014-09-03T14:04:16Z</time></trkpt><trkpt lat="45.8788442239" lon="7.1827438474"><ele>2224.63</ele><time>2014-09-03T14:04:17Z</time></trkpt><trkpt lat="45.8788280468" lon="7.1827549115"><ele>2225.11</ele><time>2014-09-03T14:04:18Z</time></trkpt><trkpt lat="45.8788140491" lon="7.1827617008"><ele>2225.59</ele><time>2014-09-03T14:04:19Z</time></trkpt><trkpt lat="45.8787100296" lon="7.1828113217"><ele>2226.55</ele><time>2014-09-03T14:04:26Z</time></trkpt><trkpt lat="45.8786944393" lon="7.1828201227"><ele>2227.03</ele><time>2014-09-03T14:04:27Z</time></trkpt><trkpt lat="45.8784356061" lon="7.1828909498"><ele>2230.88</ele><time>2014-09-03T14:04:45Z</time></trkpt><trkpt lat="45.8784218598" lon="7.1828922071"><ele>2230.88</ele><time>2014-09-03T14:04:46Z</time></trkpt><trkpt lat="45.8784027491" lon="7.1828850824"><ele>2230.88</ele><time>2014-09-03T14:04:47Z</time></trkpt><trkpt lat="45.8783885837" lon="7.1828921232"><ele>2230.88</ele><time>2014-09-03T14:04:48Z</time></trkpt><trkpt lat="45.8783727419" lon="7.1828929614"><ele>2230.40</ele><time>2014-09-03T14:04:49Z</time></trkpt><trkpt lat="45.8783588279" lon="7.1828940511"><ele>2230.40</ele><time>2014-09-03T14:04:50Z</time></trkpt><trkpt lat="45.8783440758" lon="7.1828976553"><ele>2230.40</ele><time>2014-09-03T14:04:51Z</time></trkpt><trkpt lat="45.8783291560" lon="7.1828994155"><ele>2230.40</ele><time>2014-09-03T14:04:52Z</time></trkpt><trkpt lat="45.8783144038" lon="7.1829041932"><ele>2230.40</ele><time>2014-09-03T14:04:53Z</time></trkpt><trkpt lat="45.8783011604" lon="7.1829062048"><ele>2231.36</ele><time>2014-09-03T14:04:54Z</time></trkpt><trkpt lat="45.8782874141" lon="7.1829103120"><ele>2231.36</ele><time>2014-09-03T14:04:55Z</time></trkpt><trkpt lat="45.8782778587" lon="7.1829136647"><ele>2231.84</ele><time>2014-09-03T14:04:56Z</time></trkpt><trkpt lat="45.8782377932" lon="7.1829200350"><ele>2233.28</ele><time>2014-09-03T14:05:00Z</time></trkpt><trkpt lat="45.8782284893" lon="7.1829294227"><ele>2233.28</ele><time>2014-09-03T14:05:01Z</time></trkpt><trkpt lat="45.8782148268" lon="7.1829374693"><ele>2233.28</ele><time>2014-09-03T14:05:02Z</time></trkpt><trkpt lat="45.8781197760" lon="7.1829587594"><ele>2233.28</ele><time>2014-09-03T14:05:09Z</time></trkpt><trkpt lat="45.8781092986" lon="7.1829623636"><ele>2233.28</ele><time>2014-09-03T14:05:10Z</time></trkpt><trkpt lat="45.8780981507" lon="7.1829684824"><ele>2233.28</ele><time>2014-09-03T14:05:11Z</time></trkpt><trkpt lat="45.8780875895" lon="7.1829735115"><ele>2233.28</ele><time>2014-09-03T14:05:12Z</time></trkpt><trkpt lat="45.8780766092" lon="7.1829756070"><ele>2233.28</ele><time>2014-09-03T14:05:13Z</time></trkpt><trkpt lat="45.8779446781" lon="7.1830035187"><ele>2234.72</ele><time>2014-09-03T14:05:24Z</time></trkpt><trkpt lat="45.8779356256" lon="7.1830067039"><ele>2234.72</ele><time>2014-09-03T14:05:25Z</time></trkpt><trkpt lat="45.8779254835" lon="7.1830026805"><ele>2234.72</ele><time>2014-09-03T14:05:26Z</time></trkpt><trkpt lat="45.8779152576" lon="7.1830061171"><ele>2235.20</ele><time>2014-09-03T14:05:27Z</time></trkpt><trkpt lat="45.8779031038" lon="7.1830061171"><ele>2235.20</ele><time>2014-09-03T14:05:28Z</time></trkpt><trkpt lat="45.8778923750" lon="7.1830051113"><ele>2235.68</ele><time>2014-09-03T14:05:29Z</time></trkpt><trkpt lat="45.8778837416" lon="7.1830042731"><ele>2235.68</ele><time>2014-09-03T14:05:30Z</time></trkpt><trkpt lat="45.8778276667" lon="7.1829791274"><ele>2237.13</ele><time>2014-09-03T14:05:41Z</time></trkpt><trkpt lat="45.8778122440" lon="7.1829502098"><ele>2236.64</ele><time>2014-09-03T14:06:24Z</time></trkpt><trkpt lat="45.8778225537" lon="7.1829551551"><ele>2237.61</ele><time>2014-09-03T14:07:14Z</time></trkpt><trkpt lat="45.8778219670" lon="7.1829860006"><ele>2237.13</ele><time>2014-09-03T14:08:02Z</time></trkpt><trkpt lat="45.8778154291" lon="7.1830284968"><ele>2236.16</ele><time>2014-09-03T14:08:28Z</time></trkpt><trkpt lat="45.8777737711" lon="7.1830241382"><ele>2235.68</ele><time>2014-09-03T14:08:33Z</time></trkpt><trkpt lat="45.8777591866" lon="7.1830264013"><ele>2235.68</ele><time>2014-09-03T14:08:34Z</time></trkpt><trkpt lat="45.8777449373" lon="7.1830268204"><ele>2235.68</ele><time>2014-09-03T14:08:35Z</time></trkpt><trkpt lat="45.8777304366" lon="7.1830267366"><ele>2235.68</ele><time>2014-09-03T14:08:36Z</time></trkpt><trkpt lat="45.8777147625" lon="7.1830310952"><ele>2236.64</ele><time>2014-09-03T14:08:37Z</time></trkpt><trkpt lat="45.8774680831" lon="7.1828847472"><ele>2241.45</ele><time>2014-09-03T14:08:54Z</time></trkpt><trkpt lat="45.8774327114" lon="7.1828542370"><ele>2241.93</ele><time>2014-09-03T14:08:57Z</time></trkpt><trkpt lat="45.8774227370" lon="7.1828420833"><ele>2241.93</ele><time>2014-09-03T14:08:58Z</time></trkpt><trkpt lat="45.8772240859" lon="7.1826627944"><ele>2246.74</ele><time>2014-09-03T14:09:14Z</time></trkpt><trkpt lat="45.8772142790" lon="7.1826508921"><ele>2247.22</ele><time>2014-09-03T14:09:15Z</time></trkpt><trkpt lat="45.8772039693" lon="7.1826434322"><ele>2246.74</ele><time>2014-09-03T14:09:16Z</time></trkpt><trkpt lat="45.8771944977" lon="7.1826332901"><ele>2247.22</ele><time>2014-09-03T14:09:17Z</time></trkpt><trkpt lat="45.8771825116" lon="7.1826297697"><ele>2246.74</ele><time>2014-09-03T14:09:18Z</time></trkpt><trkpt lat="45.8771711122" lon="7.1826246567"><ele>2246.74</ele><time>2014-09-03T14:09:19Z</time></trkpt><trkpt lat="45.8771600481" lon="7.1826200467"><ele>2247.22</ele><time>2014-09-03T14:09:20Z</time></trkpt><trkpt lat="45.8771504089" lon="7.1826155204"><ele>2247.22</ele><time>2014-09-03T14:09:21Z</time></trkpt><trkpt lat="45.8771346509" lon="7.1826058812"><ele>2247.70</ele><time>2014-09-03T14:09:22Z</time></trkpt><trkpt lat="45.8770746365" lon="7.1825502254"><ele>2248.18</ele><time>2014-09-03T14:09:28Z</time></trkpt><trkpt lat="45.8770638239" lon="7.1825357247"><ele>2248.18</ele><time>2014-09-03T14:09:29Z</time></trkpt><trkpt lat="45.8770540170" lon="7.1825291030"><ele>2248.66</ele><time>2014-09-03T14:09:30Z</time></trkpt><trkpt lat="45.8770427853" lon="7.1825164463"><ele>2248.66</ele><time>2014-09-03T14:09:31Z</time></trkpt><trkpt lat="45.8770349901" lon="7.1825137641"><ele>2249.14</ele><time>2014-09-03T14:09:32Z</time></trkpt><trkpt lat="45.8770071622" lon="7.1824947372"><ele>2249.14</ele><time>2014-09-03T14:09:34Z</time></trkpt><trkpt lat="45.8769314736" lon="7.1824394166"><ele>2249.14</ele><time>2014-09-03T14:09:41Z</time></trkpt><trkpt lat="45.8769098483" lon="7.1824214794"><ele>2250.58</ele><time>2014-09-03T14:09:43Z</time></trkpt><trkpt lat="45.8768951800" lon="7.1824148577"><ele>2250.58</ele><time>2014-09-03T14:09:44Z</time></trkpt><trkpt lat="45.8768819366" lon="7.1824063081"><ele>2250.58</ele><time>2014-09-03T14:09:45Z</time></trkpt><trkpt lat="45.8768738061" lon="7.1823953278"><ele>2250.58</ele><time>2014-09-03T14:09:46Z</time></trkpt><trkpt lat="45.8768652566" lon="7.1823890414"><ele>2250.58</ele><time>2014-09-03T14:09:47Z</time></trkpt><trkpt lat="45.8768567909" lon="7.1823849343"><ele>2250.58</ele><time>2014-09-03T14:09:48Z</time></trkpt><trkpt lat="45.8768419549" lon="7.1823800728"><ele>2251.06</ele><time>2014-09-03T14:09:49Z</time></trkpt><trkpt lat="45.8768314775" lon="7.1823762171"><ele>2251.06</ele><time>2014-09-03T14:09:50Z</time></trkpt><trkpt lat="45.8767738100" lon="7.1823086590"><ele>2252.99</ele><time>2014-09-03T14:10:01Z</time></trkpt><trkpt lat="45.8768100198" lon="7.1822886262"><ele>2255.87</ele><time>2014-09-03T14:10:38Z</time></trkpt><trkpt lat="45.8768064994" lon="7.1823084913"><ele>2252.99</ele><time>2014-09-03T14:11:17Z</time></trkpt><trkpt lat="45.8767753188" lon="7.1823152807"><ele>2252.03</ele><time>2014-09-03T14:11:41Z</time></trkpt><trkpt lat="45.8767562080" lon="7.1823212318"><ele>2252.03</ele><time>2014-09-03T14:11:43Z</time></trkpt><trkpt lat="45.8767420426" lon="7.1823136881"><ele>2252.03</ele><time>2014-09-03T14:11:44Z</time></trkpt><trkpt lat="45.8764891606" lon="7.1821159590"><ele>2255.39</ele><time>2014-09-03T14:12:01Z</time></trkpt><trkpt lat="45.8763032500" lon="7.1819408610"><ele>2258.27</ele><time>2014-09-03T14:12:15Z</time></trkpt><trkpt lat="45.8762914315" lon="7.1819302160"><ele>2257.79</ele><time>2014-09-03T14:12:16Z</time></trkpt><trkpt lat="45.8762795292" lon="7.1819228400"><ele>2258.27</ele><time>2014-09-03T14:12:17Z</time></trkpt><trkpt lat="45.8762698062" lon="7.1819100156"><ele>2258.27</ele><time>2014-09-03T14:12:18Z</time></trkpt><trkpt lat="45.8762575686" lon="7.1818919946"><ele>2258.75</ele><time>2014-09-03T14:12:19Z</time></trkpt><trkpt lat="45.8762457501" lon="7.1818764042"><ele>2258.75</ele><time>2014-09-03T14:12:20Z</time></trkpt><trkpt lat="45.8762339316" lon="7.1818645857"><ele>2258.75</ele><time>2014-09-03T14:12:21Z</time></trkpt><trkpt lat="45.8762149885" lon="7.1818487439"><ele>2259.24</ele><time>2014-09-03T14:12:22Z</time></trkpt><trkpt lat="45.8761286549" lon="7.1817666013"><ele>2261.16</ele><time>2014-09-03T14:12:29Z</time></trkpt><trkpt lat="45.8761191834" lon="7.1817536931"><ele>2261.16</ele><time>2014-09-03T14:12:30Z</time></trkpt><trkpt lat="45.8760620188" lon="7.1816794295"><ele>2262.60</ele><time>2014-09-03T14:12:36Z</time></trkpt><trkpt lat="45.8760506194" lon="7.1816666890"><ele>2263.08</ele><time>2014-09-03T14:12:37Z</time></trkpt><trkpt lat="45.8760403935" lon="7.1816614084"><ele>2263.08</ele><time>2014-09-03T14:12:38Z</time></trkpt><trkpt lat="45.8760317601" lon="7.1816518530"><ele>2263.08</ele><time>2014-09-03T14:12:39Z</time></trkpt><trkpt lat="45.8760217018" lon="7.1816461533"><ele>2263.08</ele><time>2014-09-03T14:12:40Z</time></trkpt><trkpt lat="45.8760125656" lon="7.1816350892"><ele>2263.08</ele><time>2014-09-03T14:12:41Z</time></trkpt><trkpt lat="45.8760016691" lon="7.1816259529"><ele>2263.56</ele><time>2014-09-03T14:12:42Z</time></trkpt><trkpt lat="45.8759906050" lon="7.1816125419"><ele>2263.08</ele><time>2014-09-03T14:12:43Z</time></trkpt><trkpt lat="45.8759787027" lon="7.1815986279"><ele>2263.08</ele><time>2014-09-03T14:12:44Z</time></trkpt><trkpt lat="45.8759672195" lon="7.1815863065"><ele>2263.08</ele><time>2014-09-03T14:12:45Z</time></trkpt><trkpt lat="45.8759565745" lon="7.1815761644"><ele>2263.56</ele><time>2014-09-03T14:12:46Z</time></trkpt><trkpt lat="45.8759455103" lon="7.1815723088"><ele>2263.56</ele><time>2014-09-03T14:12:47Z</time></trkpt><trkpt lat="45.8758562431" lon="7.1815189160"><ele>2265.48</ele><time>2014-09-03T14:12:58Z</time></trkpt><trkpt lat="45.8758642897" lon="7.1814638469"><ele>2262.60</ele><time>2014-09-03T14:13:33Z</time></trkpt><trkpt lat="45.8758768626" lon="7.1815112885"><ele>2266.45</ele><time>2014-09-03T14:14:04Z</time></trkpt><trkpt lat="45.8758640382" lon="7.1814961173"><ele>2263.08</ele><time>2014-09-03T14:14:42Z</time></trkpt><trkpt lat="45.8758213744" lon="7.1814622544"><ele>2260.20</ele><time>2014-09-03T14:15:09Z</time></trkpt><trkpt lat="45.8758093882" lon="7.1814733185"><ele>2259.72</ele><time>2014-09-03T14:15:10Z</time></trkpt><trkpt lat="45.8757980727" lon="7.1814717259"><ele>2260.68</ele><time>2014-09-03T14:15:11Z</time></trkpt><trkpt lat="45.8757789619" lon="7.1814706363"><ele>2261.64</ele><time>2014-09-03T14:15:12Z</time></trkpt><trkpt lat="45.8757655509" lon="7.1814655233"><ele>2260.68</ele><time>2014-09-03T14:15:13Z</time></trkpt><trkpt lat="45.8757544030" lon="7.1814669482"><ele>2260.20</ele><time>2014-09-03T14:15:14Z</time></trkpt><trkpt lat="45.8757366333" lon="7.1814626735"><ele>2260.20</ele><time>2014-09-03T14:15:15Z</time></trkpt><trkpt lat="45.8757210430" lon="7.1814625058"><ele>2261.16</ele><time>2014-09-03T14:15:16Z</time></trkpt><trkpt lat="45.8757039439" lon="7.1814480890"><ele>2260.68</ele><time>2014-09-03T14:15:17Z</time></trkpt><trkpt lat="45.8756881021" lon="7.1814464126"><ele>2261.16</ele><time>2014-09-03T14:15:18Z</time></trkpt><trkpt lat="45.8756735176" lon="7.1814353485"><ele>2261.16</ele><time>2014-09-03T14:15:19Z</time></trkpt><trkpt lat="45.8754110802" lon="7.1813089494"><ele>2265.00</ele><time>2014-09-03T14:15:35Z</time></trkpt><trkpt lat="45.8751638979" lon="7.1812258009"><ele>2269.33</ele><time>2014-09-03T14:15:50Z</time></trkpt><trkpt lat="45.8748941682" lon="7.1811931953"><ele>2269.81</ele><time>2014-09-03T14:16:07Z</time></trkpt><trkpt lat="45.8746912424" lon="7.1810953785"><ele>2272.69</ele><time>2014-09-03T14:16:23Z</time></trkpt><trkpt lat="45.8746824414" lon="7.1810885053"><ele>2273.17</ele><time>2014-09-03T14:16:24Z</time></trkpt><trkpt lat="45.8746712096" lon="7.1810817998"><ele>2273.66</ele><time>2014-09-03T14:16:25Z</time></trkpt><trkpt lat="45.8746593073" lon="7.1810677182"><ele>2273.66</ele><time>2014-09-03T14:16:26Z</time></trkpt><trkpt lat="45.8746487461" lon="7.1810634434"><ele>2273.66</ele><time>2014-09-03T14:16:27Z</time></trkpt><trkpt lat="45.8746388555" lon="7.1810545586"><ele>2274.62</ele><time>2014-09-03T14:16:28Z</time></trkpt><trkpt lat="45.8746268693" lon="7.1810426563"><ele>2274.14</ele><time>2014-09-03T14:16:29Z</time></trkpt><trkpt lat="45.8746184036" lon="7.1810377110"><ele>2274.62</ele><time>2014-09-03T14:16:30Z</time></trkpt><trkpt lat="45.8746101055" lon="7.1810281556"><ele>2274.62</ele><time>2014-09-03T14:16:31Z</time></trkpt><trkpt lat="45.8745971974" lon="7.1810163371"><ele>2275.10</ele><time>2014-09-03T14:16:32Z</time></trkpt><trkpt lat="45.8745836187" lon="7.1810064465"><ele>2275.10</ele><time>2014-09-03T14:16:33Z</time></trkpt><trkpt lat="45.8745236043" lon="7.1809673868"><ele>2276.54</ele><time>2014-09-03T14:16:38Z</time></trkpt><trkpt lat="45.8745127916" lon="7.1809565742"><ele>2276.54</ele><time>2014-09-03T14:16:39Z</time></trkpt><trkpt lat="45.8745021466" lon="7.1809469350"><ele>2276.54</ele><time>2014-09-03T14:16:40Z</time></trkpt><trkpt lat="45.8744918369" lon="7.1809403971"><ele>2277.02</ele><time>2014-09-03T14:16:41Z</time></trkpt><trkpt lat="45.8744820300" lon="7.1809341945"><ele>2277.02</ele><time>2014-09-03T14:16:42Z</time></trkpt><trkpt lat="45.8744709659" lon="7.1809307579"><ele>2277.02</ele><time>2014-09-03T14:16:43Z</time></trkpt><trkpt lat="45.8744555432" lon="7.1809234656"><ele>2277.50</ele><time>2014-09-03T14:16:44Z</time></trkpt><trkpt lat="45.8744417131" lon="7.1809225436"><ele>2277.50</ele><time>2014-09-03T14:16:45Z</time></trkpt><trkpt lat="45.8744316548" lon="7.1809219569"><ele>2277.02</ele><time>2014-09-03T14:16:46Z</time></trkpt><trkpt lat="45.8744193334" lon="7.1809115633"><ele>2277.02</ele><time>2014-09-03T14:16:47Z</time></trkpt><trkpt lat="45.8744086884" lon="7.1809039358"><ele>2277.02</ele><time>2014-09-03T14:16:48Z</time></trkpt><trkpt lat="45.8743984625" lon="7.1808978170"><ele>2276.54</ele><time>2014-09-03T14:16:49Z</time></trkpt><trkpt lat="45.8743873145" lon="7.1808990743"><ele>2276.54</ele><time>2014-09-03T14:16:50Z</time></trkpt><trkpt lat="45.8743739035" lon="7.1808971465"><ele>2277.02</ele><time>2014-09-03T14:16:51Z</time></trkpt><trkpt lat="45.8741441555" lon="7.1808823943"><ele>2276.06</ele><time>2014-09-03T14:17:09Z</time></trkpt><trkpt lat="45.8741096221" lon="7.1808790416"><ele>2276.54</ele><time>2014-09-03T14:17:12Z</time></trkpt><trkpt lat="45.8740985580" lon="7.1808764432"><ele>2276.54</ele><time>2014-09-03T14:17:13Z</time></trkpt><trkpt lat="45.8739684708" lon="7.1808692347"><ele>2277.98</ele><time>2014-09-03T14:17:23Z</time></trkpt><trkpt lat="45.8739362005" lon="7.1808679774"><ele>2279.42</ele><time>2014-09-03T14:17:26Z</time></trkpt><trkpt lat="45.8739139047" lon="7.1808747668"><ele>2279.90</ele><time>2014-09-03T14:17:28Z</time></trkpt><trkpt lat="45.8739046007" lon="7.1808725037"><ele>2279.42</ele><time>2014-09-03T14:17:29Z</time></trkpt><trkpt lat="45.8738804609" lon="7.1808736771"><ele>2281.35</ele><time>2014-09-03T14:17:41Z</time></trkpt><trkpt lat="45.8738886751" lon="7.1808623616"><ele>2284.23</ele><time>2014-09-03T14:18:00Z</time></trkpt><trkpt lat="45.8738814667" lon="7.1809050255"><ele>2291.92</ele><time>2014-09-03T14:18:35Z</time></trkpt><trkpt lat="45.8738611825" lon="7.1808539797"><ele>2293.84</ele><time>2014-09-03T14:19:05Z</time></trkpt><trkpt lat="45.8738112263" lon="7.1808187757"><ele>2295.77</ele><time>2014-09-03T14:19:27Z</time></trkpt><trkpt lat="45.8738713246" lon="7.1808422450"><ele>2296.25</ele><time>2014-09-03T14:19:59Z</time></trkpt><trkpt lat="45.8738526329" lon="7.1808652952"><ele>2299.13</ele><time>2014-09-03T14:20:32Z</time></trkpt><trkpt lat="45.8738821372" lon="7.1807962283"><ele>2298.17</ele><time>2014-09-03T14:21:01Z</time></trkpt><trkpt lat="45.8738538064" lon="7.1807837393"><ele>2289.04</ele><time>2014-09-03T14:21:27Z</time></trkpt><trkpt lat="45.8738396410" lon="7.1808016766"><ele>2292.40</ele><time>2014-09-03T14:21:58Z</time></trkpt><trkpt lat="45.8738581650" lon="7.1808038559"><ele>2294.80</ele><time>2014-09-03T14:22:25Z</time></trkpt><trkpt lat="45.8738655411" lon="7.1808390599"><ele>2296.73</ele><time>2014-09-03T14:22:56Z</time></trkpt><trkpt lat="45.8738288283" lon="7.1808080468"><ele>2292.40</ele><time>2014-09-03T14:23:31Z</time></trkpt><trkpt lat="45.8738571592" lon="7.1807796322"><ele>2292.40</ele><time>2014-09-03T14:23:54Z</time></trkpt><trkpt lat="45.8738496155" lon="7.1808650438"><ele>2291.44</ele><time>2014-09-03T14:24:28Z</time></trkpt><trkpt lat="45.8738784492" lon="7.1808395628"><ele>2289.52</ele><time>2014-09-03T14:24:44Z</time></trkpt><trkpt lat="45.8738855738" lon="7.1808398981"><ele>2289.52</ele><time>2014-09-03T14:24:50Z</time></trkpt><trkpt lat="45.8738902677" lon="7.1808224637"><ele>2289.04</ele><time>2014-09-03T14:24:51Z</time></trkpt><trkpt lat="45.8740224503" lon="7.1805780474"><ele>2288.56</ele><time>2014-09-03T14:25:01Z</time></trkpt><trkpt lat="45.8740369510" lon="7.1805674024"><ele>2288.56</ele><time>2014-09-03T14:25:02Z</time></trkpt><trkpt lat="45.8740527928" lon="7.1805560030"><ele>2288.56</ele><time>2014-09-03T14:25:03Z</time></trkpt><trkpt lat="45.8740668744" lon="7.1805447713"><ele>2288.56</ele><time>2014-09-03T14:25:04Z</time></trkpt><trkpt lat="45.8740808722" lon="7.1805284265"><ele>2288.08</ele><time>2014-09-03T14:25:05Z</time></trkpt><trkpt lat="45.8740933612" lon="7.1805130038"><ele>2288.56</ele><time>2014-09-03T14:25:06Z</time></trkpt><trkpt lat="45.8743236121" lon="7.1802812442"><ele>2289.52</ele><time>2014-09-03T14:25:22Z</time></trkpt><trkpt lat="45.8743369393" lon="7.1802679170"><ele>2289.52</ele><time>2014-09-03T14:25:23Z</time></trkpt><trkpt lat="45.8743493445" lon="7.1802533325"><ele>2289.52</ele><time>2014-09-03T14:25:24Z</time></trkpt><trkpt lat="45.8744846284" lon="7.1801495645"><ele>2289.04</ele><time>2014-09-03T14:25:33Z</time></trkpt><trkpt lat="45.8744977880" lon="7.1801357344"><ele>2289.04</ele><time>2014-09-03T14:25:34Z</time></trkpt><trkpt lat="45.8745132945" lon="7.1801295318"><ele>2289.04</ele><time>2014-09-03T14:25:35Z</time></trkpt><trkpt lat="45.8747098502" lon="7.1800783183"><ele>2291.92</ele><time>2014-09-03T14:25:50Z</time></trkpt><trkpt lat="45.8747078385" lon="7.1801027935"><ele>2291.92</ele><time>2014-09-03T14:26:07Z</time></trkpt><trkpt lat="45.8747251891" lon="7.1800876223"><ele>2294.32</ele><time>2014-09-03T14:26:22Z</time></trkpt><trkpt lat="45.8747303858" lon="7.1800898015"><ele>2291.92</ele><time>2014-09-03T14:26:52Z</time></trkpt><trkpt lat="45.8747727145" lon="7.1800994407"><ele>2295.28</ele><time>2014-09-03T14:27:11Z</time></trkpt><trkpt lat="45.8747800067" lon="7.1800970938"><ele>2294.80</ele><time>2014-09-03T14:27:12Z</time></trkpt><trkpt lat="45.8747887239" lon="7.1800959203"><ele>2295.28</ele><time>2014-09-03T14:27:13Z</time></trkpt><trkpt lat="45.8748015482" lon="7.1800970938"><ele>2295.77</ele><time>2014-09-03T14:27:14Z</time></trkpt><trkpt lat="45.8748148754" lon="7.1800960042"><ele>2295.77</ele><time>2014-09-03T14:27:15Z</time></trkpt><trkpt lat="45.8749960084" lon="7.1801164560"><ele>2298.17</ele><time>2014-09-03T14:27:28Z</time></trkpt><trkpt lat="45.8750701044" lon="7.1801346447"><ele>2299.13</ele><time>2014-09-03T14:27:33Z</time></trkpt><trkpt lat="45.8750845212" lon="7.1801327169"><ele>2299.61</ele><time>2014-09-03T14:27:34Z</time></trkpt><trkpt lat="45.8751023747" lon="7.1801321302"><ele>2300.09</ele><time>2014-09-03T14:27:35Z</time></trkpt><trkpt lat="45.8751175459" lon="7.1801325493"><ele>2300.57</ele><time>2014-09-03T14:27:36Z</time></trkpt><trkpt lat="45.8751320466" lon="7.1801349800"><ele>2300.57</ele><time>2014-09-03T14:27:37Z</time></trkpt><trkpt lat="45.8751464635" lon="7.1801321302"><ele>2300.57</ele><time>2014-09-03T14:27:38Z</time></trkpt><trkpt lat="45.8751621377" lon="7.1801330522"><ele>2300.09</ele><time>2014-09-03T14:27:39Z</time></trkpt><trkpt lat="45.8752986789" lon="7.1800744627"><ele>2299.61</ele><time>2014-09-03T14:27:48Z</time></trkpt><trkpt lat="45.8755065501" lon="7.1799281146"><ele>2300.57</ele><time>2014-09-03T14:28:02Z</time></trkpt><trkpt lat="45.8756457735" lon="7.1799095906"><ele>2302.98</ele><time>2014-09-03T14:28:10Z</time></trkpt><trkpt lat="45.8756652195" lon="7.1799107641"><ele>2302.98</ele><time>2014-09-03T14:28:11Z</time></trkpt><trkpt lat="45.8756793849" lon="7.1799136978"><ele>2302.98</ele><time>2014-09-03T14:28:12Z</time></trkpt><trkpt lat="45.8756957296" lon="7.1799183916"><ele>2303.46</ele><time>2014-09-03T14:28:13Z</time></trkpt><trkpt lat="45.8757114876" lon="7.1799250133"><ele>2303.46</ele><time>2014-09-03T14:28:14Z</time></trkpt><trkpt lat="45.8757234737" lon="7.1799339820"><ele>2303.46</ele><time>2014-09-03T14:28:15Z</time></trkpt><trkpt lat="45.8757377230" lon="7.1799411066"><ele>2303.46</ele><time>2014-09-03T14:28:16Z</time></trkpt><trkpt lat="45.8757646289" lon="7.1799610555"><ele>2306.82</ele><time>2014-09-03T14:28:30Z</time></trkpt><trkpt lat="45.8757832367" lon="7.1799564455"><ele>2300.57</ele><time>2014-09-03T14:28:49Z</time></trkpt><trkpt lat="45.8757762797" lon="7.1799850278"><ele>2295.28</ele><time>2014-09-03T14:29:22Z</time></trkpt><trkpt lat="45.8757818956" lon="7.1799842734"><ele>2296.25</ele><time>2014-09-03T14:29:52Z</time></trkpt><trkpt lat="45.8757533133" lon="7.1799954213"><ele>2302.49</ele><time>2014-09-03T14:30:18Z</time></trkpt><trkpt lat="45.8757647127" lon="7.1799855307"><ele>2302.98</ele><time>2014-09-03T14:30:43Z</time></trkpt><trkpt lat="45.8757902775" lon="7.1799706109"><ele>2302.01</ele><time>2014-09-03T14:30:55Z</time></trkpt><trkpt lat="45.8758231346" lon="7.1799823456"><ele>2302.49</ele><time>2014-09-03T14:30:57Z</time></trkpt><trkpt lat="45.8758350369" lon="7.1799927391"><ele>2302.49</ele><time>2014-09-03T14:30:58Z</time></trkpt><trkpt lat="45.8758461848" lon="7.1800029650"><ele>2302.49</ele><time>2014-09-03T14:30:59Z</time></trkpt><trkpt lat="45.8758612722" lon="7.1800152026"><ele>2302.98</ele><time>2014-09-03T14:31:00Z</time></trkpt><trkpt lat="45.8758756891" lon="7.1800302062"><ele>2303.46</ele><time>2014-09-03T14:31:01Z</time></trkpt><trkpt lat="45.8758907765" lon="7.1800406836"><ele>2303.94</ele><time>2014-09-03T14:31:02Z</time></trkpt><trkpt lat="45.8759055287" lon="7.1800488979"><ele>2303.94</ele><time>2014-09-03T14:31:03Z</time></trkpt><trkpt lat="45.8759196941" lon="7.1800560225"><ele>2304.42</ele><time>2014-09-03T14:31:04Z</time></trkpt><trkpt lat="45.8759345300" lon="7.1800597105"><ele>2304.42</ele><time>2014-09-03T14:31:05Z</time></trkpt><trkpt lat="45.8759488631" lon="7.1800660808"><ele>2305.38</ele><time>2014-09-03T14:31:06Z</time></trkpt><trkpt lat="45.8759584185" lon="7.1800707746"><ele>2305.38</ele><time>2014-09-03T14:31:07Z</time></trkpt><trkpt lat="45.8759671357" lon="7.1800790727"><ele>2305.86</ele><time>2014-09-03T14:31:08Z</time></trkpt><trkpt lat="45.8759798761" lon="7.1800887119"><ele>2306.34</ele><time>2014-09-03T14:31:09Z</time></trkpt><trkpt lat="45.8759940416" lon="7.1800986864"><ele>2306.34</ele><time>2014-09-03T14:31:10Z</time></trkpt><trkpt lat="45.8760082070" lon="7.1801047213"><ele>2306.34</ele><time>2014-09-03T14:31:11Z</time></trkpt><trkpt lat="45.8762721531" lon="7.1802290250"><ele>2314.03</ele><time>2014-09-03T14:31:29Z</time></trkpt><trkpt lat="45.8763933554" lon="7.1802689228"><ele>2315.47</ele><time>2014-09-03T14:31:37Z</time></trkpt><trkpt lat="45.8764069341" lon="7.1802697610"><ele>2315.95</ele><time>2014-09-03T14:31:38Z</time></trkpt><trkpt lat="45.8764188364" lon="7.1802747063"><ele>2316.43</ele><time>2014-09-03T14:31:39Z</time></trkpt><trkpt lat="45.8764327504" lon="7.1802742034"><ele>2316.91</ele><time>2014-09-03T14:31:40Z</time></trkpt><trkpt lat="45.8764495980" lon="7.1802731976"><ele>2316.43</ele><time>2014-09-03T14:31:41Z</time></trkpt><trkpt lat="45.8767096885" lon="7.1802936494"><ele>2314.03</ele><time>2014-09-03T14:31:58Z</time></trkpt><trkpt lat="45.8767210040" lon="7.1802895423"><ele>2313.55</ele><time>2014-09-03T14:31:59Z</time></trkpt><trkpt lat="45.8767344989" lon="7.1802856028"><ele>2313.55</ele><time>2014-09-03T14:32:00Z</time></trkpt><trkpt lat="45.8767473232" lon="7.1802788973"><ele>2313.55</ele><time>2014-09-03T14:32:01Z</time></trkpt><trkpt lat="45.8767598122" lon="7.1802722756"><ele>2313.55</ele><time>2014-09-03T14:32:02Z</time></trkpt><trkpt lat="45.8767702058" lon="7.1802653186"><ele>2314.03</ele><time>2014-09-03T14:32:03Z</time></trkpt><trkpt lat="45.8767802641" lon="7.1802550089"><ele>2314.03</ele><time>2014-09-03T14:32:04Z</time></trkpt><trkpt lat="45.8767877240" lon="7.1802412625"><ele>2314.51</ele><time>2014-09-03T14:32:05Z</time></trkpt><trkpt lat="45.8767970279" lon="7.1802286059"><ele>2314.03</ele><time>2014-09-03T14:32:06Z</time></trkpt><trkpt lat="45.8768083435" lon="7.1802181285"><ele>2314.03</ele><time>2014-09-03T14:32:07Z</time></trkpt><trkpt lat="45.8768178150" lon="7.1802056395"><ele>2314.51</ele><time>2014-09-03T14:32:08Z</time></trkpt><trkpt lat="45.8768241014" lon="7.1801908873"><ele>2314.99</ele><time>2014-09-03T14:32:09Z</time></trkpt><trkpt lat="45.8768277057" lon="7.1801753808"><ele>2314.99</ele><time>2014-09-03T14:32:10Z</time></trkpt><trkpt lat="45.8768302202" lon="7.1801555995"><ele>2314.99</ele><time>2014-09-03T14:32:11Z</time></trkpt><trkpt lat="45.8768315613" lon="7.1801336389"><ele>2315.47</ele><time>2014-09-03T14:32:12Z</time></trkpt><trkpt lat="45.8768329024" lon="7.1801118460"><ele>2315.47</ele><time>2014-09-03T14:32:13Z</time></trkpt><trkpt lat="45.8768352494" lon="7.1800898854"><ele>2315.47</ele><time>2014-09-03T14:32:14Z</time></trkpt><trkpt lat="45.8768313937" lon="7.1800714452"><ele>2315.47</ele><time>2014-09-03T14:32:15Z</time></trkpt><trkpt lat="45.8768235147" lon="7.1800568607"><ele>2314.99</ele><time>2014-09-03T14:32:16Z</time></trkpt><trkpt lat="45.8768140431" lon="7.1800421923"><ele>2314.99</ele><time>2014-09-03T14:32:17Z</time></trkpt><trkpt lat="45.8768056612" lon="7.1800346486"><ele>2314.99</ele><time>2014-09-03T14:32:18Z</time></trkpt><trkpt lat="45.8766028192" lon="7.1800421923"><ele>2314.51</ele><time>2014-09-03T14:32:31Z</time></trkpt><trkpt lat="45.8763401303" lon="7.1800292842"><ele>2317.40</ele><time>2014-09-03T14:32:49Z</time></trkpt><trkpt lat="45.8761354443" lon="7.1798966825"><ele>2320.28</ele><time>2014-09-03T14:33:06Z</time></trkpt><trkpt lat="45.8760342747" lon="7.1797683556"><ele>2322.20</ele><time>2014-09-03T14:33:20Z</time></trkpt><trkpt lat="45.8760237135" lon="7.1797485743"><ele>2323.16</ele><time>2014-09-03T14:33:33Z</time></trkpt><trkpt lat="45.8760220371" lon="7.1797383483"><ele>2318.84</ele><time>2014-09-03T14:34:09Z</time></trkpt><trkpt lat="45.8760362025" lon="7.1796894819"><ele>2314.99</ele><time>2014-09-03T14:34:40Z</time></trkpt><trkpt lat="45.8760237135" lon="7.1796987858"><ele>2317.40</ele><time>2014-09-03T14:35:06Z</time></trkpt><trkpt lat="45.8760211151" lon="7.1797051560"><ele>2319.32</ele><time>2014-09-03T14:35:33Z</time></trkpt><trkpt lat="45.8760263957" lon="7.1797119454"><ele>2321.72</ele><time>2014-09-03T14:36:05Z</time></trkpt><trkpt lat="45.8760186844" lon="7.1797226742"><ele>2323.16</ele><time>2014-09-03T14:36:34Z</time></trkpt><trkpt lat="45.8760203607" lon="7.1797169745"><ele>2324.61</ele><time>2014-09-03T14:37:03Z</time></trkpt><trkpt lat="45.8760035969" lon="7.1797008812"><ele>2322.20</ele><time>2014-09-03T14:37:23Z</time></trkpt><trkpt lat="45.8759851567" lon="7.1796867158"><ele>2322.20</ele><time>2014-09-03T14:37:26Z</time></trkpt><trkpt lat="45.8759740926" lon="7.1796793398"><ele>2322.68</ele><time>2014-09-03T14:37:27Z</time></trkpt><trkpt lat="45.8758594282" lon="7.1795254480"><ele>2323.16</ele><time>2014-09-03T14:37:38Z</time></trkpt><trkpt lat="45.8758460172" lon="7.1795123722"><ele>2323.16</ele><time>2014-09-03T14:37:39Z</time></trkpt><trkpt lat="45.8758339472" lon="7.1794959437"><ele>2323.64</ele><time>2014-09-03T14:37:40Z</time></trkpt><trkpt lat="45.8758227993" lon="7.1794805210"><ele>2323.64</ele><time>2014-09-03T14:37:41Z</time></trkpt><trkpt lat="45.8758115675" lon="7.1794665232"><ele>2324.12</ele><time>2014-09-03T14:37:42Z</time></trkpt><trkpt lat="45.8758021798" lon="7.1794535313"><ele>2324.12</ele><time>2014-09-03T14:37:43Z</time></trkpt><trkpt lat="45.8757741842" lon="7.1794171538"><ele>2324.61</ele><time>2014-09-03T14:37:46Z</time></trkpt><trkpt lat="45.8757583424" lon="7.1794050839"><ele>2324.61</ele><time>2014-09-03T14:37:47Z</time></trkpt><trkpt lat="45.8757463563" lon="7.1793920919"><ele>2324.61</ele><time>2014-09-03T14:37:48Z</time></trkpt><trkpt lat="45.8757347893" lon="7.1793816984"><ele>2324.61</ele><time>2014-09-03T14:37:49Z</time></trkpt><trkpt lat="45.8757248987" lon="7.1793761663"><ele>2325.09</ele><time>2014-09-03T14:37:50Z</time></trkpt><trkpt lat="45.8757156786" lon="7.1793596540"><ele>2325.09</ele><time>2014-09-03T14:37:51Z</time></trkpt><trkpt lat="45.8757052850" lon="7.1793434769"><ele>2325.09</ele><time>2014-09-03T14:37:52Z</time></trkpt><trkpt lat="45.8756922930" lon="7.1793303173"><ele>2325.09</ele><time>2014-09-03T14:37:53Z</time></trkpt><trkpt lat="45.8756747749" lon="7.1793179121"><ele>2325.09</ele><time>2014-09-03T14:37:54Z</time></trkpt><trkpt lat="45.8756593522" lon="7.1793086082"><ele>2325.57</ele><time>2014-09-03T14:37:55Z</time></trkpt><trkpt lat="45.8756454382" lon="7.1792964544"><ele>2325.57</ele><time>2014-09-03T14:37:56Z</time></trkpt><trkpt lat="45.8756329492" lon="7.1792879049"><ele>2326.05</ele><time>2014-09-03T14:37:57Z</time></trkpt><trkpt lat="45.8755670674" lon="7.1792685427"><ele>2326.53</ele><time>2014-09-03T14:38:02Z</time></trkpt><trkpt lat="45.8755530696" lon="7.1792653576"><ele>2327.01</ele><time>2014-09-03T14:38:03Z</time></trkpt><trkpt lat="45.8755379822" lon="7.1792633459"><ele>2327.01</ele><time>2014-09-03T14:38:04Z</time></trkpt><trkpt lat="45.8755249064" lon="7.1792622562"><ele>2326.53</ele><time>2014-09-03T14:38:05Z</time></trkpt><trkpt lat="45.8755099028" lon="7.1792588197"><ele>2326.53</ele><time>2014-09-03T14:38:06Z</time></trkpt><trkpt lat="45.8754709270" lon="7.1792316623"><ele>2327.01</ele><time>2014-09-03T14:38:09Z</time></trkpt><trkpt lat="45.8754602820" lon="7.1792283095"><ele>2327.01</ele><time>2014-09-03T14:38:10Z</time></trkpt><trkpt lat="45.8754482958" lon="7.1792262141"><ele>2327.49</ele><time>2014-09-03T14:38:11Z</time></trkpt><trkpt lat="45.8754348848" lon="7.1792212687"><ele>2327.49</ele><time>2014-09-03T14:38:12Z</time></trkpt><trkpt lat="45.8754243236" lon="7.1792207658"><ele>2327.49</ele><time>2014-09-03T14:38:13Z</time></trkpt><trkpt lat="45.8754147682" lon="7.1792188380"><ele>2327.49</ele><time>2014-09-03T14:38:14Z</time></trkpt><trkpt lat="45.8754021954" lon="7.1792211849"><ele>2327.49</ele><time>2014-09-03T14:38:15Z</time></trkpt><trkpt lat="45.8753871080" lon="7.1792248730"><ele>2327.49</ele><time>2014-09-03T14:38:16Z</time></trkpt><trkpt lat="45.8753772173" lon="7.1792377811"><ele>2327.97</ele><time>2014-09-03T14:38:17Z</time></trkpt><trkpt lat="45.8753640577" lon="7.1792459954"><ele>2327.97</ele><time>2014-09-03T14:38:18Z</time></trkpt><trkpt lat="45.8753165323" lon="7.1792329196"><ele>2328.93</ele><time>2014-09-03T14:38:27Z</time></trkpt><trkpt lat="45.8753118385" lon="7.1792267170"><ele>2330.37</ele><time>2014-09-03T14:38:45Z</time></trkpt><trkpt lat="45.8752944879" lon="7.1791944467"><ele>2333.26</ele><time>2014-09-03T14:39:29Z</time></trkpt><trkpt lat="45.8752825856" lon="7.1792453248"><ele>2332.78</ele><time>2014-09-03T14:39:45Z</time></trkpt><trkpt lat="45.8752614632" lon="7.1792632621"><ele>2332.78</ele><time>2014-09-03T14:39:48Z</time></trkpt><trkpt lat="45.8752550930" lon="7.1792692132"><ele>2332.30</ele><time>2014-09-03T14:39:49Z</time></trkpt><trkpt lat="45.8751814999" lon="7.1792853903"><ele>2332.30</ele><time>2014-09-03T14:39:54Z</time></trkpt><trkpt lat="45.8751709387" lon="7.1792885754"><ele>2332.30</ele><time>2014-09-03T14:39:55Z</time></trkpt><trkpt lat="45.8751591202" lon="7.1792918444"><ele>2332.30</ele><time>2014-09-03T14:39:56Z</time></trkpt><trkpt lat="45.8751455415" lon="7.1792966221"><ele>2332.78</ele><time>2014-09-03T14:39:57Z</time></trkpt><trkpt lat="45.8751300350" lon="7.1793023217"><ele>2332.78</ele><time>2014-09-03T14:39:58Z</time></trkpt><trkpt lat="45.8751133550" lon="7.1793029085"><ele>2332.78</ele><time>2014-09-03T14:39:59Z</time></trkpt><trkpt lat="45.8750966750" lon="7.1793045010"><ele>2332.78</ele><time>2014-09-03T14:40:00Z</time></trkpt><trkpt lat="45.8750817552" lon="7.1793026570"><ele>2333.26</ele><time>2014-09-03T14:40:01Z</time></trkpt><trkpt lat="45.8750701882" lon="7.1792984661"><ele>2333.26</ele><time>2014-09-03T14:40:02Z</time></trkpt><trkpt lat="45.8750587050" lon="7.1792967897"><ele>2333.74</ele><time>2014-09-03T14:40:03Z</time></trkpt><trkpt lat="45.8750456292" lon="7.1792971250"><ele>2333.74</ele><time>2014-09-03T14:40:04Z</time></trkpt><trkpt lat="45.8750323020" lon="7.1792894136"><ele>2333.74</ele><time>2014-09-03T14:40:05Z</time></trkpt><trkpt lat="45.8750198968" lon="7.1792823728"><ele>2333.74</ele><time>2014-09-03T14:40:06Z</time></trkpt><trkpt lat="45.8750064857" lon="7.1792705543"><ele>2333.74</ele><time>2014-09-03T14:40:07Z</time></trkpt><trkpt lat="45.8749703597" lon="7.1792477556"><ele>2333.74</ele><time>2014-09-03T14:40:10Z</time></trkpt><trkpt lat="45.8747826889" lon="7.1791112144"><ele>2336.14</ele><time>2014-09-03T14:40:25Z</time></trkpt><trkpt lat="45.8746650070" lon="7.1790714841"><ele>2338.06</ele><time>2014-09-03T14:40:35Z</time></trkpt><trkpt lat="45.8746552840" lon="7.1790746693"><ele>2338.06</ele><time>2014-09-03T14:40:36Z</time></trkpt><trkpt lat="45.8746453095" lon="7.1790784411"><ele>2338.06</ele><time>2014-09-03T14:40:37Z</time></trkpt><trkpt lat="45.8746344969" lon="7.1790866554"><ele>2338.06</ele><time>2014-09-03T14:40:38Z</time></trkpt><trkpt lat="45.8746241871" lon="7.1790977195"><ele>2338.54</ele><time>2014-09-03T14:40:39Z</time></trkpt><trkpt lat="45.8746117819" lon="7.1791075263"><ele>2338.54</ele><time>2014-09-03T14:40:40Z</time></trkpt><trkpt lat="45.8745993767" lon="7.1791148186"><ele>2338.54</ele><time>2014-09-03T14:40:41Z</time></trkpt><trkpt lat="45.8745867200" lon="7.1791232005"><ele>2338.54</ele><time>2014-09-03T14:40:42Z</time></trkpt><trkpt lat="45.8745711297" lon="7.1791348513"><ele>2338.54</ele><time>2014-09-03T14:40:43Z</time></trkpt><trkpt lat="45.8745567128" lon="7.1791428979"><ele>2338.54</ele><time>2014-09-03T14:40:44Z</time></trkpt><trkpt lat="45.8745441400" lon="7.1791501064"><ele>2338.54</ele><time>2014-09-03T14:40:45Z</time></trkpt><trkpt lat="45.8745334949" lon="7.1791588236"><ele>2339.02</ele><time>2014-09-03T14:40:46Z</time></trkpt><trkpt lat="45.8745020628" lon="7.1791940276"><ele>2340.95</ele><time>2014-09-03T14:40:59Z</time></trkpt><trkpt lat="45.8743972052" lon="7.1792910900"><ele>2342.87</ele><time>2014-09-03T14:41:13Z</time></trkpt><trkpt lat="45.8741758391" lon="7.1792859770"><ele>2343.83</ele><time>2014-09-03T14:41:28Z</time></trkpt><trkpt lat="45.8740817104" lon="7.1792231966"><ele>2344.31</ele><time>2014-09-03T14:41:36Z</time></trkpt><trkpt lat="45.8740647789" lon="7.1792076062"><ele>2344.31</ele><time>2014-09-03T14:41:37Z</time></trkpt><trkpt lat="45.8740508649" lon="7.1792016551"><ele>2344.31</ele><time>2014-09-03T14:41:38Z</time></trkpt><trkpt lat="45.8740372863" lon="7.1791954525"><ele>2344.31</ele><time>2014-09-03T14:41:39Z</time></trkpt><trkpt lat="45.8740265574" lon="7.1791904233"><ele>2344.31</ele><time>2014-09-03T14:41:40Z</time></trkpt><trkpt lat="45.8740158286" lon="7.1791870706"><ele>2344.79</ele><time>2014-09-03T14:41:41Z</time></trkpt><trkpt lat="45.8740019985" lon="7.1791786887"><ele>2344.79</ele><time>2014-09-03T14:41:42Z</time></trkpt><trkpt lat="45.8739927784" lon="7.1791745815"><ele>2344.79</ele><time>2014-09-03T14:41:43Z</time></trkpt><trkpt lat="45.8739801217" lon="7.1791768447"><ele>2345.27</ele><time>2014-09-03T14:41:44Z</time></trkpt><trkpt lat="45.8739689738" lon="7.1791700553"><ele>2344.79</ele><time>2014-09-03T14:41:45Z</time></trkpt><trkpt lat="45.8739630226" lon="7.1791614220"><ele>2344.79</ele><time>2014-09-03T14:41:46Z</time></trkpt><trkpt lat="45.8739487734" lon="7.1791452449"><ele>2345.27</ele><time>2014-09-03T14:41:47Z</time></trkpt><trkpt lat="45.8739345241" lon="7.1791412216"><ele>2345.75</ele><time>2014-09-03T14:41:48Z</time></trkpt><trkpt lat="45.8739233762" lon="7.1791414730"><ele>2345.75</ele><time>2014-09-03T14:41:49Z</time></trkpt><trkpt lat="45.8739137370" lon="7.1791397966"><ele>2345.75</ele><time>2014-09-03T14:41:50Z</time></trkpt><trkpt lat="45.8739022538" lon="7.1791338455"><ele>2346.23</ele><time>2014-09-03T14:41:51Z</time></trkpt><trkpt lat="45.8738740068" lon="7.1791255474"><ele>2346.72</ele><time>2014-09-03T14:41:53Z</time></trkpt><trkpt lat="45.8738170937" lon="7.1790947020"><ele>2347.68</ele><time>2014-09-03T14:41:58Z</time></trkpt><trkpt lat="45.8738085441" lon="7.1790890861"><ele>2347.68</ele><time>2014-09-03T14:41:59Z</time></trkpt><trkpt lat="45.8737578336" lon="7.1790563129"><ele>2348.16</ele><time>2014-09-03T14:42:10Z</time></trkpt><trkpt lat="45.8737906907" lon="7.1790446620"><ele>2347.68</ele><time>2014-09-03T14:42:37Z</time></trkpt><trkpt lat="45.8737827279" lon="7.1790391300"><ele>2348.16</ele><time>2014-09-03T14:43:08Z</time></trkpt><trkpt lat="45.8737789560" lon="7.1790460031"><ele>2349.12</ele><time>2014-09-03T14:43:38Z</time></trkpt><trkpt lat="45.8738098014" lon="7.1790807042"><ele>2352.48</ele><time>2014-09-03T14:44:02Z</time></trkpt><trkpt lat="45.8738026768" lon="7.1790701430"><ele>2351.52</ele><time>2014-09-03T14:44:25Z</time></trkpt><trkpt lat="45.8737353701" lon="7.1790993121"><ele>2349.12</ele><time>2014-09-03T14:44:37Z</time></trkpt><trkpt lat="45.8737212885" lon="7.1791015752"><ele>2348.64</ele><time>2014-09-03T14:44:38Z</time></trkpt><trkpt lat="45.8737056982" lon="7.1791018266"><ele>2348.16</ele><time>2014-09-03T14:44:39Z</time></trkpt><trkpt lat="45.8736422472" lon="7.1790843084"><ele>2348.16</ele><time>2014-09-03T14:44:43Z</time></trkpt><trkpt lat="45.8736284170" lon="7.1790887509"><ele>2348.16</ele><time>2014-09-03T14:44:44Z</time></trkpt><trkpt lat="45.8736110665" lon="7.1790871583"><ele>2348.16</ele><time>2014-09-03T14:44:45Z</time></trkpt><trkpt lat="45.8735912014" lon="7.1790809557"><ele>2348.64</ele><time>2014-09-03T14:44:46Z</time></trkpt><trkpt lat="45.8735796344" lon="7.1790766809"><ele>2348.64</ele><time>2014-09-03T14:44:47Z</time></trkpt><trkpt lat="45.8735665586" lon="7.1790829673"><ele>2348.16</ele><time>2014-09-03T14:44:48Z</time></trkpt><trkpt lat="45.8735510521" lon="7.1790869068"><ele>2348.16</ele><time>2014-09-03T14:44:49Z</time></trkpt><trkpt lat="45.8735337015" lon="7.1790890023"><ele>2348.16</ele><time>2014-09-03T14:44:50Z</time></trkpt><trkpt lat="45.8735207934" lon="7.1790932771"><ele>2347.68</ele><time>2014-09-03T14:44:51Z</time></trkpt><trkpt lat="45.8734954800" lon="7.1791048441"><ele>2347.68</ele><time>2014-09-03T14:44:53Z</time></trkpt><trkpt lat="45.8734846674" lon="7.1791081131"><ele>2347.20</ele><time>2014-09-03T14:44:54Z</time></trkpt><trkpt lat="45.8734258264" lon="7.1791293193"><ele>2347.68</ele><time>2014-09-03T14:44:58Z</time></trkpt><trkpt lat="45.8734077215" lon="7.1791298222"><ele>2347.68</ele><time>2014-09-03T14:44:59Z</time></trkpt><trkpt lat="45.8733951487" lon="7.1791358571"><ele>2347.68</ele><time>2014-09-03T14:45:00Z</time></trkpt><trkpt lat="45.8733833302" lon="7.1791439876"><ele>2348.16</ele><time>2014-09-03T14:45:01Z</time></trkpt><trkpt lat="45.8733663149" lon="7.1791443229"><ele>2348.16</ele><time>2014-09-03T14:45:02Z</time></trkpt><trkpt lat="45.8733520657" lon="7.1791467536"><ele>2348.16</ele><time>2014-09-03T14:45:03Z</time></trkpt><trkpt lat="45.8733399957" lon="7.1791514475"><ele>2348.16</ele><time>2014-09-03T14:45:04Z</time></trkpt><trkpt lat="45.8733235672" lon="7.1791506931"><ele>2348.16</ele><time>2014-09-03T14:45:05Z</time></trkpt><trkpt lat="45.8733099047" lon="7.1791542135"><ele>2348.16</ele><time>2014-09-03T14:45:06Z</time></trkpt><trkpt lat="45.8732949849" lon="7.1791568957"><ele>2348.64</ele><time>2014-09-03T14:45:07Z</time></trkpt><trkpt lat="45.8732787240" lon="7.1791573148"><ele>2348.64</ele><time>2014-09-03T14:45:08Z</time></trkpt><trkpt lat="45.8731853496" lon="7.1791475080"><ele>2349.60</ele><time>2014-09-03T14:45:16Z</time></trkpt><trkpt lat="45.8731705975" lon="7.1791453287"><ele>2349.60</ele><time>2014-09-03T14:45:17Z</time></trkpt><trkpt lat="45.8731578570" lon="7.1791449096"><ele>2349.12</ele><time>2014-09-03T14:45:18Z</time></trkpt><trkpt lat="45.8731485531" lon="7.1791452449"><ele>2349.12</ele><time>2014-09-03T14:45:19Z</time></trkpt><trkpt lat="45.8731381595" lon="7.1791459993"><ele>2349.12</ele><time>2014-09-03T14:45:20Z</time></trkpt><trkpt lat="45.8730838448" lon="7.1791440714"><ele>2349.60</ele><time>2014-09-03T14:45:31Z</time></trkpt><trkpt lat="45.8730730321" lon="7.1791278105"><ele>2351.52</ele><time>2014-09-03T14:45:48Z</time></trkpt><trkpt lat="45.8730737865" lon="7.1791195124"><ele>2351.52</ele><time>2014-09-03T14:46:18Z</time></trkpt><trkpt lat="45.8730839286" lon="7.1791247092"><ele>2350.56</ele><time>2014-09-03T14:46:49Z</time></trkpt><trkpt lat="45.8730423544" lon="7.1791481785"><ele>2350.56</ele><time>2014-09-03T14:47:06Z</time></trkpt><trkpt lat="45.8730340563" lon="7.1791541297"><ele>2350.56</ele><time>2014-09-03T14:47:07Z</time></trkpt><trkpt lat="45.8730239142" lon="7.1791531239"><ele>2351.04</ele><time>2014-09-03T14:47:08Z</time></trkpt><trkpt lat="45.8730130177" lon="7.1791455802"><ele>2351.04</ele><time>2014-09-03T14:47:09Z</time></trkpt><trkpt lat="45.8730001934" lon="7.1791403834"><ele>2351.52</ele><time>2014-09-03T14:47:10Z</time></trkpt><trkpt lat="45.8729850221" lon="7.1791380364"><ele>2352.00</ele><time>2014-09-03T14:47:11Z</time></trkpt><trkpt lat="45.8729743771" lon="7.1791360248"><ele>2352.00</ele><time>2014-09-03T14:47:12Z</time></trkpt><trkpt lat="45.8729606308" lon="7.1791314147"><ele>2352.00</ele><time>2014-09-03T14:47:13Z</time></trkpt><trkpt lat="45.8729454596" lon="7.1791273914"><ele>2352.00</ele><time>2014-09-03T14:47:14Z</time></trkpt><trkpt lat="45.8729326352" lon="7.1791200992"><ele>2352.00</ele><time>2014-09-03T14:47:15Z</time></trkpt><trkpt lat="45.8729223255" lon="7.1791183390"><ele>2352.48</ele><time>2014-09-03T14:47:16Z</time></trkpt><trkpt lat="45.8729129378" lon="7.1791149024"><ele>2352.48</ele><time>2014-09-03T14:47:17Z</time></trkpt><trkpt lat="45.8728542645" lon="7.1790727414"><ele>2353.93</ele><time>2014-09-03T14:47:22Z</time></trkpt><trkpt lat="45.8728439547" lon="7.1790631860"><ele>2353.93</ele><time>2014-09-03T14:47:23Z</time></trkpt><trkpt lat="45.8727212436" lon="7.1790056024"><ele>2355.37</ele><time>2014-09-03T14:47:32Z</time></trkpt><trkpt lat="45.8727091737" lon="7.1790010761"><ele>2355.37</ele><time>2014-09-03T14:47:33Z</time></trkpt><trkpt lat="45.8726978581" lon="7.1790061891"><ele>2355.37</ele><time>2014-09-03T14:47:34Z</time></trkpt><trkpt lat="45.8726877999" lon="7.1790117212"><ele>2355.85</ele><time>2014-09-03T14:47:35Z</time></trkpt><trkpt lat="45.8726772387" lon="7.1790181752"><ele>2355.85</ele><time>2014-09-03T14:47:36Z</time></trkpt><trkpt lat="45.8726676833" lon="7.1790265571"><ele>2356.33</ele><time>2014-09-03T14:47:37Z</time></trkpt><trkpt lat="45.8726576250" lon="7.1790294070"><ele>2356.33</ele><time>2014-09-03T14:47:38Z</time></trkpt><trkpt lat="45.8726447169" lon="7.1790337656"><ele>2356.33</ele><time>2014-09-03T14:47:39Z</time></trkpt><trkpt lat="45.8726308029" lon="7.1790351905"><ele>2356.33</ele><time>2014-09-03T14:47:40Z</time></trkpt><trkpt lat="45.8726147097" lon="7.1790360287"><ele>2356.33</ele><time>2014-09-03T14:47:41Z</time></trkpt><trkpt lat="45.8726049867" lon="7.1790410578"><ele>2356.33</ele><time>2014-09-03T14:47:42Z</time></trkpt><trkpt lat="45.8725923300" lon="7.1790472604"><ele>2356.33</ele><time>2014-09-03T14:47:43Z</time></trkpt><trkpt lat="45.8725813497" lon="7.1790545527"><ele>2356.33</ele><time>2014-09-03T14:47:44Z</time></trkpt><trkpt lat="45.8725372609" lon="7.1790860686"><ele>2357.29</ele><time>2014-09-03T14:47:48Z</time></trkpt><trkpt lat="45.8724298049" lon="7.1791882440"><ele>2357.77</ele><time>2014-09-03T14:48:00Z</time></trkpt><trkpt lat="45.8724194113" lon="7.1792019904"><ele>2358.25</ele><time>2014-09-03T14:48:01Z</time></trkpt><trkpt lat="45.8724085987" lon="7.1792123839"><ele>2358.25</ele><time>2014-09-03T14:48:02Z</time></trkpt><trkpt lat="45.8723824471" lon="7.1792533714"><ele>2359.21</ele><time>2014-09-03T14:48:06Z</time></trkpt><trkpt lat="45.8723742329" lon="7.1792619210"><ele>2359.69</ele><time>2014-09-03T14:48:07Z</time></trkpt><trkpt lat="45.8723652642" lon="7.1792690456"><ele>2359.69</ele><time>2014-09-03T14:48:08Z</time></trkpt><trkpt lat="45.8723301440" lon="7.1792925987"><ele>2359.69</ele><time>2014-09-03T14:48:12Z</time></trkpt><trkpt lat="45.8723180741" lon="7.1793013997"><ele>2359.69</ele><time>2014-09-03T14:48:13Z</time></trkpt><trkpt lat="45.8723096922" lon="7.1793108713"><ele>2359.69</ele><time>2014-09-03T14:48:14Z</time></trkpt><trkpt lat="45.8722980414" lon="7.1793159004"><ele>2359.69</ele><time>2014-09-03T14:48:15Z</time></trkpt><trkpt lat="45.8722860552" lon="7.1793220192"><ele>2359.69</ele><time>2014-09-03T14:48:16Z</time></trkpt><trkpt lat="45.8722760808" lon="7.1793321613"><ele>2359.69</ele><time>2014-09-03T14:48:17Z</time></trkpt><trkpt lat="45.8722220175" lon="7.1793570556"><ele>2361.14</ele><time>2014-09-03T14:48:28Z</time></trkpt><trkpt lat="45.8722421341" lon="7.1793813631"><ele>2363.54</ele><time>2014-09-03T14:48:48Z</time></trkpt><trkpt lat="45.8722342551" lon="7.1793748252"><ele>2362.10</ele><time>2014-09-03T14:49:17Z</time></trkpt><trkpt lat="45.8722267114" lon="7.1794025693"><ele>2362.58</ele><time>2014-09-03T14:49:26Z</time></trkpt><trkpt lat="45.8722187486" lon="7.1794147231"><ele>2363.06</ele><time>2014-09-03T14:49:27Z</time></trkpt><trkpt lat="45.8722087741" lon="7.1794293914"><ele>2363.06</ele><time>2014-09-03T14:49:28Z</time></trkpt><trkpt lat="45.8721968718" lon="7.1794414613"><ele>2363.06</ele><time>2014-09-03T14:49:29Z</time></trkpt><trkpt lat="45.8721796051" lon="7.1794507653"><ele>2363.54</ele><time>2014-09-03T14:49:30Z</time></trkpt><trkpt lat="45.8721686248" lon="7.1794610750"><ele>2363.54</ele><time>2014-09-03T14:49:31Z</time></trkpt><trkpt lat="45.8721576445" lon="7.1794738993"><ele>2363.54</ele><time>2014-09-03T14:49:32Z</time></trkpt><trkpt lat="45.8721416350" lon="7.1794838738"><ele>2364.02</ele><time>2014-09-03T14:49:33Z</time></trkpt><trkpt lat="45.8720478415" lon="7.1795411222"><ele>2364.50</ele><time>2014-09-03T14:49:39Z</time></trkpt><trkpt lat="45.8720283955" lon="7.1795419604"><ele>2364.98</ele><time>2014-09-03T14:49:40Z</time></trkpt><trkpt lat="45.8720092010" lon="7.1795329917"><ele>2364.50</ele><time>2014-09-03T14:49:41Z</time></trkpt><trkpt lat="45.8719943650" lon="7.1795285493"><ele>2364.98</ele><time>2014-09-03T14:49:42Z</time></trkpt><trkpt lat="45.8719834685" lon="7.1795319021"><ele>2365.46</ele><time>2014-09-03T14:49:43Z</time></trkpt><trkpt lat="45.8719706442" lon="7.1795285493"><ele>2365.94</ele><time>2014-09-03T14:49:44Z</time></trkpt><trkpt lat="45.8717803750" lon="7.1793444827"><ele>2366.42</ele><time>2014-09-03T14:50:00Z</time></trkpt><trkpt lat="45.8717059437" lon="7.1792252921"><ele>2366.42</ele><time>2014-09-03T14:50:13Z</time></trkpt><trkpt lat="45.8717136551" lon="7.1792465821"><ele>2369.79</ele><time>2014-09-03T14:50:48Z</time></trkpt><trkpt lat="45.8716888446" lon="7.1792123839"><ele>2373.63</ele><time>2014-09-03T14:51:25Z</time></trkpt><trkpt lat="45.8716730867" lon="7.1792659443"><ele>2372.67</ele><time>2014-09-03T14:51:58Z</time></trkpt><trkpt lat="45.8716803789" lon="7.1792967059"><ele>2370.75</ele><time>2014-09-03T14:52:36Z</time></trkpt><trkpt lat="45.8716859948" lon="7.1792381164"><ele>2367.86</ele><time>2014-09-03T14:53:17Z</time></trkpt><trkpt lat="45.8716846537" lon="7.1792014036"><ele>2369.31</ele><time>2014-09-03T14:53:52Z</time></trkpt><trkpt lat="45.8716705721" lon="7.1792388707"><ele>2373.63</ele><time>2014-09-03T14:54:29Z</time></trkpt><trkpt lat="45.8716756850" lon="7.1792149823"><ele>2373.15</ele><time>2014-09-03T14:54:57Z</time></trkpt><trkpt lat="45.8716676384" lon="7.1792109590"><ele>2373.15</ele><time>2014-09-03T14:54:58Z</time></trkpt><trkpt lat="45.8716623578" lon="7.1792074386"><ele>2372.67</ele><time>2014-09-03T14:54:59Z</time></trkpt><trkpt lat="45.8716527186" lon="7.1791954525"><ele>2373.15</ele><time>2014-09-03T14:55:00Z</time></trkpt><trkpt lat="45.8716422413" lon="7.1791798621"><ele>2372.67</ele><time>2014-09-03T14:55:01Z</time></trkpt><trkpt lat="45.8716331888" lon="7.1791623440"><ele>2372.67</ele><time>2014-09-03T14:55:02Z</time></trkpt><trkpt lat="45.8716253936" lon="7.1791428141"><ele>2372.67</ele><time>2014-09-03T14:55:03Z</time></trkpt><trkpt lat="45.8716151677" lon="7.1791308280"><ele>2372.67</ele><time>2014-09-03T14:55:04Z</time></trkpt><trkpt lat="45.8716041874" lon="7.1791216079"><ele>2373.15</ele><time>2014-09-03T14:55:05Z</time></trkpt><trkpt lat="45.8715923689" lon="7.1791084483"><ele>2373.15</ele><time>2014-09-03T14:55:06Z</time></trkpt><trkpt lat="45.8715812210" lon="7.1790929418"><ele>2373.15</ele><time>2014-09-03T14:55:07Z</time></trkpt><trkpt lat="45.8715708274" lon="7.1790804528"><ele>2373.15</ele><time>2014-09-03T14:55:08Z</time></trkpt><trkpt lat="45.8715614397" lon="7.1790691372"><ele>2373.15</ele><time>2014-09-03T14:55:09Z</time></trkpt><trkpt lat="45.8715474419" lon="7.1790588275"><ele>2373.15</ele><time>2014-09-03T14:55:10Z</time></trkpt><trkpt lat="45.8715361264" lon="7.1790501103"><ele>2373.63</ele><time>2014-09-03T14:55:11Z</time></trkpt><trkpt lat="45.8715251461" lon="7.1790368669"><ele>2374.11</ele><time>2014-09-03T14:55:12Z</time></trkpt><trkpt lat="45.8715151716" lon="7.1790258028"><ele>2374.11</ele><time>2014-09-03T14:55:13Z</time></trkpt><trkpt lat="45.8715028502" lon="7.1790146548"><ele>2374.59</ele><time>2014-09-03T14:55:14Z</time></trkpt><trkpt lat="45.8714903612" lon="7.1790025849"><ele>2375.07</ele><time>2014-09-03T14:55:15Z</time></trkpt><trkpt lat="45.8713607769" lon="7.1788470168"><ele>2377.96</ele><time>2014-09-03T14:55:28Z</time></trkpt><trkpt lat="45.8713511378" lon="7.1788341086"><ele>2377.96</ele><time>2014-09-03T14:55:29Z</time></trkpt><trkpt lat="45.8713430911" lon="7.1788214520"><ele>2377.96</ele><time>2014-09-03T14:55:30Z</time></trkpt><trkpt lat="45.8713346254" lon="7.1787988208"><ele>2377.96</ele><time>2014-09-03T14:55:31Z</time></trkpt><trkpt lat="45.8713280037" lon="7.1787741780"><ele>2377.96</ele><time>2014-09-03T14:55:32Z</time></trkpt><trkpt lat="45.8713231422" lon="7.1787491161"><ele>2377.96</ele><time>2014-09-03T14:55:33Z</time></trkpt><trkpt lat="45.8713150956" lon="7.1787345316"><ele>2377.96</ele><time>2014-09-03T14:55:34Z</time></trkpt><trkpt lat="45.8713066299" lon="7.1787167620"><ele>2377.48</ele><time>2014-09-03T14:55:35Z</time></trkpt><trkpt lat="45.8712994214" lon="7.1786963101"><ele>2377.48</ele><time>2014-09-03T14:55:36Z</time></trkpt><trkpt lat="45.8712932188" lon="7.1786834858"><ele>2377.96</ele><time>2014-09-03T14:55:37Z</time></trkpt><trkpt lat="45.8712836634" lon="7.1786702424"><ele>2377.48</ele><time>2014-09-03T14:55:38Z</time></trkpt><trkpt lat="45.8712732699" lon="7.1786590945"><ele>2377.96</ele><time>2014-09-03T14:55:39Z</time></trkpt><trkpt lat="45.8712430950" lon="7.1786107309"><ele>2377.96</ele><time>2014-09-03T14:55:43Z</time></trkpt><trkpt lat="45.8712315280" lon="7.1786060371"><ele>2378.44</ele><time>2014-09-03T14:55:44Z</time></trkpt><trkpt lat="45.8712228946" lon="7.1785953920"><ele>2378.44</ele><time>2014-09-03T14:55:45Z</time></trkpt><trkpt lat="45.8712166082" lon="7.1785815619"><ele>2378.44</ele><time>2014-09-03T14:55:46Z</time></trkpt><trkpt lat="45.8712091483" lon="7.1785671450"><ele>2378.44</ele><time>2014-09-03T14:55:47Z</time></trkpt><trkpt lat="45.8712016046" lon="7.1785540693"><ele>2378.44</ele><time>2014-09-03T14:55:48Z</time></trkpt><trkpt lat="45.8711951505" lon="7.1785360482"><ele>2378.92</ele><time>2014-09-03T14:55:49Z</time></trkpt><trkpt lat="45.8711853437" lon="7.1785211284"><ele>2378.92</ele><time>2014-09-03T14:55:50Z</time></trkpt><trkpt lat="45.8711519837" lon="7.1784122474"><ele>2378.92</ele><time>2014-09-03T14:56:03Z</time></trkpt><trkpt lat="45.8711653948" lon="7.1784078050"><ele>2385.17</ele><time>2014-09-03T14:56:23Z</time></trkpt><trkpt lat="45.8711716812" lon="7.1784192882"><ele>2381.32</ele><time>2014-09-03T14:57:02Z</time></trkpt><trkpt lat="45.8711679094" lon="7.1784217190"><ele>2379.40</ele><time>2014-09-03T14:57:44Z</time></trkpt><trkpt lat="45.8711496368" lon="7.1784411650"><ele>2379.40</ele><time>2014-09-03T14:58:21Z</time></trkpt><trkpt lat="45.8711581025" lon="7.1784360521"><ele>2377.96</ele><time>2014-09-03T14:58:53Z</time></trkpt><trkpt lat="45.8711505588" lon="7.1784424223"><ele>2378.92</ele><time>2014-09-03T14:59:30Z</time></trkpt><trkpt lat="45.8711538278" lon="7.1784576774"><ele>2381.32</ele><time>2014-09-03T15:00:02Z</time></trkpt><trkpt lat="45.8711225633" lon="7.1784187853"><ele>2380.84</ele><time>2014-09-03T15:00:18Z</time></trkpt><trkpt lat="45.8710935619" lon="7.1784020215"><ele>2380.84</ele><time>2014-09-03T15:00:21Z</time></trkpt><trkpt lat="45.8710485511" lon="7.1783719305"><ele>2380.36</ele><time>2014-09-03T15:00:24Z</time></trkpt><trkpt lat="45.8709149435" lon="7.1781928092"><ele>2377.96</ele><time>2014-09-03T15:00:37Z</time></trkpt><trkpt lat="45.8709025383" lon="7.1781585272"><ele>2377.96</ele><time>2014-09-03T15:00:39Z</time></trkpt><trkpt lat="45.8708825056" lon="7.1781291068"><ele>2377.00</ele><time>2014-09-03T15:00:41Z</time></trkpt><trkpt lat="45.8708756324" lon="7.1781179588"><ele>2377.00</ele><time>2014-09-03T15:00:42Z</time></trkpt><trkpt lat="45.8708645683" lon="7.1781065594"><ele>2377.48</ele><time>2014-09-03T15:00:43Z</time></trkpt><trkpt lat="45.8708588686" lon="7.1780966688"><ele>2377.48</ele><time>2014-09-03T15:00:44Z</time></trkpt><trkpt lat="45.8708510734" lon="7.1780821681"><ele>2377.48</ele><time>2014-09-03T15:00:45Z</time></trkpt><trkpt lat="45.8708053920" lon="7.1779907215"><ele>2376.52</ele><time>2014-09-03T15:00:51Z</time></trkpt><trkpt lat="45.8707943279" lon="7.1779806633"><ele>2377.00</ele><time>2014-09-03T15:00:52Z</time></trkpt><trkpt lat="45.8707813360" lon="7.1779714432"><ele>2377.00</ele><time>2014-09-03T15:00:53Z</time></trkpt><trkpt lat="45.8707729541" lon="7.1779613011"><ele>2377.00</ele><time>2014-09-03T15:00:54Z</time></trkpt><trkpt lat="45.8707610518" lon="7.1779394243"><ele>2376.52</ele><time>2014-09-03T15:00:55Z</time></trkpt><trkpt lat="45.8707528375" lon="7.1779271867"><ele>2377.00</ele><time>2014-09-03T15:00:56Z</time></trkpt><trkpt lat="45.8707394265" lon="7.1779079922"><ele>2376.52</ele><time>2014-09-03T15:00:57Z</time></trkpt><trkpt lat="45.8707285300" lon="7.1778946649"><ele>2376.52</ele><time>2014-09-03T15:00:58Z</time></trkpt><trkpt lat="45.8707158733" lon="7.1778849419"><ele>2377.00</ele><time>2014-09-03T15:00:59Z</time></trkpt><trkpt lat="45.8706213254" lon="7.1777381748"><ele>2377.96</ele><time>2014-09-03T15:01:09Z</time></trkpt><trkpt lat="45.8706113510" lon="7.1777253505"><ele>2377.96</ele><time>2014-09-03T15:01:10Z</time></trkpt><trkpt lat="45.8705080021" lon="7.1775539406"><ele>2377.96</ele><time>2014-09-03T15:01:23Z</time></trkpt><trkpt lat="45.8704892267" lon="7.1775031462"><ele>2380.36</ele><time>2014-09-03T15:01:36Z</time></trkpt><trkpt lat="45.8704942558" lon="7.1775046550"><ele>2381.80</ele><time>2014-09-03T15:02:01Z</time></trkpt><trkpt lat="45.8705092594" lon="7.1774929203"><ele>2378.92</ele><time>2014-09-03T15:02:24Z</time></trkpt><trkpt lat="45.8704690263" lon="7.1774829458"><ele>2380.84</ele><time>2014-09-03T15:02:52Z</time></trkpt><trkpt lat="45.8705058228" lon="7.1775000449"><ele>2381.32</ele><time>2014-09-03T15:03:21Z</time></trkpt><trkpt lat="45.8704430424" lon="7.1774510946"><ele>2380.36</ele><time>2014-09-03T15:03:36Z</time></trkpt><trkpt lat="45.8703588881" lon="7.1772728115"><ele>2382.76</ele><time>2014-09-03T15:03:48Z</time></trkpt><trkpt lat="45.8703042381" lon="7.1771857236"><ele>2384.21</ele><time>2014-09-03T15:03:54Z</time></trkpt><trkpt lat="45.8702982869" lon="7.1771644335"><ele>2384.69</ele><time>2014-09-03T15:03:55Z</time></trkpt><trkpt lat="45.8702910785" lon="7.1771418862"><ele>2384.21</ele><time>2014-09-03T15:03:56Z</time></trkpt><trkpt lat="45.8702833671" lon="7.1771204285"><ele>2383.73</ele><time>2014-09-03T15:03:57Z</time></trkpt><trkpt lat="45.8702805173" lon="7.1771026589"><ele>2384.21</ele><time>2014-09-03T15:03:58Z</time></trkpt><trkpt lat="45.8702833671" lon="7.1770807821"><ele>2384.21</ele><time>2014-09-03T15:03:59Z</time></trkpt><trkpt lat="45.8702944312" lon="7.1770621743"><ele>2384.21</ele><time>2014-09-03T15:04:00Z</time></trkpt><trkpt lat="45.8703067526" lon="7.1770480089"><ele>2384.21</ele><time>2014-09-03T15:04:01Z</time></trkpt><trkpt lat="45.8703219239" lon="7.1770422254"><ele>2384.69</ele><time>2014-09-03T15:04:02Z</time></trkpt><trkpt lat="45.8703378495" lon="7.1770439018"><ele>2384.69</ele><time>2014-09-03T15:04:03Z</time></trkpt><trkpt lat="45.8703523502" lon="7.1770504396"><ele>2384.69</ele><time>2014-09-03T15:04:04Z</time></trkpt><trkpt lat="45.8703664318" lon="7.1770588215"><ele>2385.17</ele><time>2014-09-03T15:04:05Z</time></trkpt><trkpt lat="45.8703755680" lon="7.1770765074"><ele>2385.65</ele><time>2014-09-03T15:04:06Z</time></trkpt><trkpt lat="45.8703842014" lon="7.1770967916"><ele>2386.13</ele><time>2014-09-03T15:04:07Z</time></trkpt><trkpt lat="45.8703979477" lon="7.1771119628"><ele>2386.13</ele><time>2014-09-03T15:04:08Z</time></trkpt><trkpt lat="45.8704082575" lon="7.1771270502"><ele>2386.61</ele><time>2014-09-03T15:04:09Z</time></trkpt><trkpt lat="45.8704169746" lon="7.1771466639"><ele>2386.61</ele><time>2014-09-03T15:04:10Z</time></trkpt><trkpt lat="45.8704245184" lon="7.1771656908"><ele>2387.09</ele><time>2014-09-03T15:04:11Z</time></trkpt><trkpt lat="45.8704307210" lon="7.1771856397"><ele>2387.09</ele><time>2014-09-03T15:04:12Z</time></trkpt><trkpt lat="45.8705177251" lon="7.1773563791"><ele>2389.97</ele><time>2014-09-03T15:04:22Z</time></trkpt><trkpt lat="45.8705291245" lon="7.1773759089"><ele>2390.46</ele><time>2014-09-03T15:04:23Z</time></trkpt><trkpt lat="45.8707005344" lon="7.1775521804"><ele>2393.34</ele><time>2014-09-03T15:04:37Z</time></trkpt><trkpt lat="45.8708892949" lon="7.1777171362"><ele>2395.26</ele><time>2014-09-03T15:04:52Z</time></trkpt><trkpt lat="45.8710766304" lon="7.1778883785"><ele>2397.18</ele><time>2014-09-03T15:05:08Z</time></trkpt><trkpt lat="45.8712466992" lon="7.1780255903"><ele>2398.63</ele><time>2014-09-03T15:05:22Z</time></trkpt><trkpt lat="45.8713402413" lon="7.1781570185"><ele>2401.03</ele><time>2014-09-03T15:05:30Z</time></trkpt><trkpt lat="45.8713544067" lon="7.1781700943"><ele>2401.03</ele><time>2014-09-03T15:05:31Z</time></trkpt><trkpt lat="45.8713665605" lon="7.1781854331"><ele>2401.03</ele><time>2014-09-03T15:05:32Z</time></trkpt><trkpt lat="45.8713763673" lon="7.1782026161"><ele>2401.03</ele><time>2014-09-03T15:05:33Z</time></trkpt><trkpt lat="45.8713889401" lon="7.1782154404"><ele>2401.03</ele><time>2014-09-03T15:05:34Z</time></trkpt><trkpt lat="45.8714019321" lon="7.1782296896"><ele>2401.03</ele><time>2014-09-03T15:05:35Z</time></trkpt><trkpt lat="45.8714129124" lon="7.1782441065"><ele>2401.03</ele><time>2014-09-03T15:05:36Z</time></trkpt><trkpt lat="45.8714269940" lon="7.1782567631"><ele>2401.51</ele><time>2014-09-03T15:05:37Z</time></trkpt><trkpt lat="45.8714397345" lon="7.1782675758"><ele>2401.51</ele><time>2014-09-03T15:05:38Z</time></trkpt><trkpt lat="45.8716609329" lon="7.1784653887"><ele>2401.99</ele><time>2014-09-03T15:05:55Z</time></trkpt><trkpt lat="45.8716766909" lon="7.1784667298"><ele>2401.99</ele><time>2014-09-03T15:05:56Z</time></trkpt><trkpt lat="45.8716923650" lon="7.1784658916"><ele>2402.47</ele><time>2014-09-03T15:05:57Z</time></trkpt><trkpt lat="45.8717035968" lon="7.1784665622"><ele>2402.47</ele><time>2014-09-03T15:05:58Z</time></trkpt><trkpt lat="45.8717464283" lon="7.1784704179"><ele>2400.55</ele><time>2014-09-03T15:06:11Z</time></trkpt><trkpt lat="45.8717253059" lon="7.1784705017"><ele>2400.07</ele><time>2014-09-03T15:06:42Z</time></trkpt><trkpt lat="45.8718020841" lon="7.1782818250"><ele>2401.99</ele><time>2014-09-03T15:06:55Z</time></trkpt><trkpt lat="45.8717926964" lon="7.1781577729"><ele>2402.95</ele><time>2014-09-03T15:07:00Z</time></trkpt><trkpt lat="45.8717811294" lon="7.1781339683"><ele>2402.95</ele><time>2014-09-03T15:07:01Z</time></trkpt><trkpt lat="45.8715751860" lon="7.1779222414"><ele>2404.88</ele><time>2014-09-03T15:07:16Z</time></trkpt><trkpt lat="45.8713782951" lon="7.1777610574"><ele>2406.32</ele><time>2014-09-03T15:07:33Z</time></trkpt><trkpt lat="45.8712611999" lon="7.1776491590"><ele>2406.32</ele><time>2014-09-03T15:07:46Z</time></trkpt><trkpt lat="45.8712540753" lon="7.1775969397"><ele>2409.20</ele><time>2014-09-03T15:08:01Z</time></trkpt><trkpt lat="45.8712500520" lon="7.1775880549"><ele>2411.60</ele><time>2014-09-03T15:08:32Z</time></trkpt><trkpt lat="45.8712560870" lon="7.1775961015"><ele>2411.12</ele><time>2014-09-03T15:08:56Z</time></trkpt><trkpt lat="45.8712633792" lon="7.1776183136"><ele>2413.05</ele><time>2014-09-03T15:09:25Z</time></trkpt><trkpt lat="45.8712653071" lon="7.1776270308"><ele>2412.09</ele><time>2014-09-03T15:09:48Z</time></trkpt><trkpt lat="45.8712585177" lon="7.1776154637"><ele>2413.05</ele><time>2014-09-03T15:10:10Z</time></trkpt><trkpt lat="45.8712383173" lon="7.1776302159"><ele>2412.09</ele><time>2014-09-03T15:10:26Z</time></trkpt><trkpt lat="45.8711827453" lon="7.1776000410"><ele>2413.05</ele><time>2014-09-03T15:10:33Z</time></trkpt><trkpt lat="45.8711690828" lon="7.1775936708"><ele>2413.53</ele><time>2014-09-03T15:10:34Z</time></trkpt><trkpt lat="45.8711552527" lon="7.1775816008"><ele>2413.53</ele><time>2014-09-03T15:10:35Z</time></trkpt><trkpt lat="45.8711394947" lon="7.1775702015"><ele>2414.01</ele><time>2014-09-03T15:10:36Z</time></trkpt><trkpt lat="45.8711257484" lon="7.1775603946"><ele>2413.53</ele><time>2014-09-03T15:10:37Z</time></trkpt><trkpt lat="45.8711117506" lon="7.1775439661"><ele>2414.01</ele><time>2014-09-03T15:10:38Z</time></trkpt><trkpt lat="45.8710994292" lon="7.1775257774"><ele>2413.53</ele><time>2014-09-03T15:10:39Z</time></trkpt><trkpt lat="45.8709393349" lon="7.1772985440"><ele>2414.97</ele><time>2014-09-03T15:10:54Z</time></trkpt><trkpt lat="45.8708493970" lon="7.1771765035"><ele>2416.41</ele><time>2014-09-03T15:11:02Z</time></trkpt><trkpt lat="45.8708061464" lon="7.1770842187"><ele>2417.85</ele><time>2014-09-03T15:11:08Z</time></trkpt><trkpt lat="45.8707998600" lon="7.1770681255"><ele>2418.33</ele><time>2014-09-03T15:11:09Z</time></trkpt><trkpt lat="45.8707929868" lon="7.1770552173"><ele>2418.81</ele><time>2014-09-03T15:11:10Z</time></trkpt><trkpt lat="45.8707836829" lon="7.1769676264"><ele>2419.78</ele><time>2014-09-03T15:11:21Z</time></trkpt><trkpt lat="45.8707939927" lon="7.1769599151"><ele>2426.99</ele><time>2014-09-03T15:12:10Z</time></trkpt><trkpt lat="45.8707825094" lon="7.1769382898"><ele>2427.95</ele><time>2014-09-03T15:12:36Z</time></trkpt><trkpt lat="45.8707386721" lon="7.1767750941"><ele>2427.95</ele><time>2014-09-03T15:12:45Z</time></trkpt><trkpt lat="45.8707093354" lon="7.1765704080"><ele>2429.39</ele><time>2014-09-03T15:12:54Z</time></trkpt><trkpt lat="45.8707035519" lon="7.1765504591"><ele>2429.39</ele><time>2014-09-03T15:12:55Z</time></trkpt><trkpt lat="45.8706976846" lon="7.1765283309"><ele>2429.39</ele><time>2014-09-03T15:12:56Z</time></trkpt><trkpt lat="45.8706932422" lon="7.1765092202"><ele>2429.39</ele><time>2014-09-03T15:12:57Z</time></trkpt><trkpt lat="45.8706877939" lon="7.1764923725"><ele>2429.39</ele><time>2014-09-03T15:12:58Z</time></trkpt><trkpt lat="45.8706836868" lon="7.1764735132"><ele>2428.91</ele><time>2014-09-03T15:12:59Z</time></trkpt><trkpt lat="45.8706784062" lon="7.1764561627"><ele>2428.91</ele><time>2014-09-03T15:13:00Z</time></trkpt><trkpt lat="45.8706739638" lon="7.1764368843"><ele>2428.43</ele><time>2014-09-03T15:13:01Z</time></trkpt><trkpt lat="45.8706668392" lon="7.1764207073"><ele>2428.43</ele><time>2014-09-03T15:13:02Z</time></trkpt><trkpt lat="45.8706597146" lon="7.1764061227"><ele>2428.43</ele><time>2014-09-03T15:13:03Z</time></trkpt><trkpt lat="45.8706515003" lon="7.1763913706"><ele>2428.91</ele><time>2014-09-03T15:13:04Z</time></trkpt><trkpt lat="45.8706355747" lon="7.1763573401"><ele>2428.91</ele><time>2014-09-03T15:13:06Z</time></trkpt><trkpt lat="45.8706307970" lon="7.1763425879"><ele>2428.91</ele><time>2014-09-03T15:13:07Z</time></trkpt><trkpt lat="45.8706209902" lon="7.1763287578"><ele>2428.91</ele><time>2014-09-03T15:13:08Z</time></trkpt><trkpt lat="45.8706134465" lon="7.1763163526"><ele>2429.39</ele><time>2014-09-03T15:13:09Z</time></trkpt><trkpt lat="45.8706048131" lon="7.1763056237"><ele>2429.39</ele><time>2014-09-03T15:13:10Z</time></trkpt><trkpt lat="45.8705965988" lon="7.1762968227"><ele>2428.91</ele><time>2014-09-03T15:13:11Z</time></trkpt><trkpt lat="45.8705890551" lon="7.1762828249"><ele>2429.39</ele><time>2014-09-03T15:13:12Z</time></trkpt><trkpt lat="45.8705857024" lon="7.1762686595"><ele>2429.39</ele><time>2014-09-03T15:13:13Z</time></trkpt><trkpt lat="45.8705806732" lon="7.1762544103"><ele>2429.87</ele><time>2014-09-03T15:13:14Z</time></trkpt><trkpt lat="45.8705738839" lon="7.1762415860"><ele>2429.87</ele><time>2014-09-03T15:13:15Z</time></trkpt><trkpt lat="45.8705652505" lon="7.1762334555"><ele>2429.87</ele><time>2014-09-03T15:13:16Z</time></trkpt><trkpt lat="45.8705600537" lon="7.1762193739"><ele>2429.87</ele><time>2014-09-03T15:13:17Z</time></trkpt><trkpt lat="45.8705553599" lon="7.1762066334"><ele>2429.87</ele><time>2014-09-03T15:13:18Z</time></trkpt><trkpt lat="45.8705437928" lon="7.1761945635"><ele>2429.87</ele><time>2014-09-03T15:13:19Z</time></trkpt><trkpt lat="45.8705349918" lon="7.1761829965"><ele>2429.87</ele><time>2014-09-03T15:13:20Z</time></trkpt><trkpt lat="45.8705237601" lon="7.1761687472"><ele>2430.35</ele><time>2014-09-03T15:13:21Z</time></trkpt><trkpt lat="45.8705148753" lon="7.1761558391"><ele>2430.35</ele><time>2014-09-03T15:13:22Z</time></trkpt><trkpt lat="45.8705055714" lon="7.1761427633"><ele>2430.83</ele><time>2014-09-03T15:13:23Z</time></trkpt><trkpt lat="45.8704986982" lon="7.1761282627"><ele>2430.83</ele><time>2014-09-03T15:13:24Z</time></trkpt><trkpt lat="45.8704918250" lon="7.1761170309"><ele>2430.83</ele><time>2014-09-03T15:13:25Z</time></trkpt><trkpt lat="45.8704825211" lon="7.1761039551"><ele>2431.31</ele><time>2014-09-03T15:13:26Z</time></trkpt><trkpt lat="45.8704230934" lon="7.1760037914"><ele>2432.75</ele><time>2014-09-03T15:13:38Z</time></trkpt><trkpt lat="45.8704240993" lon="7.1760027856"><ele>2433.23</ele><time>2014-09-03T15:14:11Z</time></trkpt><trkpt lat="45.8704253566" lon="7.1759946551"><ele>2432.75</ele><time>2014-09-03T15:14:49Z</time></trkpt><trkpt lat="45.8704270329" lon="7.1759887878"><ele>2433.23</ele><time>2014-09-03T15:15:40Z</time></trkpt><trkpt lat="45.8703746460" lon="7.1759557631"><ele>2434.20</ele><time>2014-09-03T15:16:06Z</time></trkpt><trkpt lat="45.8702237718" lon="7.1757403482"><ele>2436.60</ele><time>2014-09-03T15:16:20Z</time></trkpt><trkpt lat="45.8701324090" lon="7.1754356660"><ele>2439.48</ele><time>2014-09-03T15:16:35Z</time></trkpt><trkpt lat="45.8701295592" lon="7.1752586402"><ele>2440.44</ele><time>2014-09-03T15:16:44Z</time></trkpt><trkpt lat="45.8701280504" lon="7.1752417926"><ele>2440.92</ele><time>2014-09-03T15:16:45Z</time></trkpt><trkpt lat="45.8701185789" lon="7.1751936805"><ele>2441.89</ele><time>2014-09-03T15:16:48Z</time></trkpt><trkpt lat="45.8701214287" lon="7.1751772519"><ele>2441.89</ele><time>2014-09-03T15:16:49Z</time></trkpt><trkpt lat="45.8701233566" lon="7.1751579735"><ele>2441.89</ele><time>2014-09-03T15:16:50Z</time></trkpt><trkpt lat="45.8701239433" lon="7.1751367673"><ele>2441.89</ele><time>2014-09-03T15:16:51Z</time></trkpt><trkpt lat="45.8701214287" lon="7.1751189139"><ele>2441.41</ele><time>2014-09-03T15:16:52Z</time></trkpt><trkpt lat="45.8701180760" lon="7.1751072630"><ele>2442.37</ele><time>2014-09-03T15:16:53Z</time></trkpt><trkpt lat="45.8701109514" lon="7.1750964504"><ele>2442.37</ele><time>2014-09-03T15:16:54Z</time></trkpt><trkpt lat="45.8701073471" lon="7.1750852186"><ele>2442.37</ele><time>2014-09-03T15:16:55Z</time></trkpt><trkpt lat="45.8700963669" lon="7.1750230249"><ele>2442.85</ele><time>2014-09-03T15:16:59Z</time></trkpt><trkpt lat="45.8700713888" lon="7.1748935245"><ele>2444.77</ele><time>2014-09-03T15:17:13Z</time></trkpt><trkpt lat="45.8700722270" lon="7.1749032475"><ele>2444.77</ele><time>2014-09-03T15:17:40Z</time></trkpt><trkpt lat="45.8700766694" lon="7.1748899203"><ele>2443.33</ele><time>2014-09-03T15:18:14Z</time></trkpt><trkpt lat="45.8700728137" lon="7.1748413891"><ele>2444.29</ele><time>2014-09-03T15:18:29Z</time></trkpt><trkpt lat="45.8700564690" lon="7.1748374496"><ele>2444.77</ele><time>2014-09-03T15:18:34Z</time></trkpt><trkpt lat="45.8700487576" lon="7.1748300735"><ele>2444.77</ele><time>2014-09-03T15:18:35Z</time></trkpt><trkpt lat="45.8700460754" lon="7.1748171654"><ele>2444.77</ele><time>2014-09-03T15:18:36Z</time></trkpt><trkpt lat="45.8700423036" lon="7.1747978870"><ele>2444.77</ele><time>2014-09-03T15:18:37Z</time></trkpt><trkpt lat="45.8700379450" lon="7.1747751720"><ele>2444.77</ele><time>2014-09-03T15:18:38Z</time></trkpt><trkpt lat="45.8700318262" lon="7.1747543011"><ele>2445.25</ele><time>2014-09-03T15:18:39Z</time></trkpt><trkpt lat="45.8700232767" lon="7.1747318376"><ele>2445.73</ele><time>2014-09-03T15:18:40Z</time></trkpt><trkpt lat="45.8700169902" lon="7.1747128107"><ele>2445.73</ele><time>2014-09-03T15:18:41Z</time></trkpt><trkpt lat="45.8699279744" lon="7.1742746048"><ele>2448.13</ele><time>2014-09-03T15:19:00Z</time></trkpt><trkpt lat="45.8698311634" lon="7.1739618760"><ele>2451.98</ele><time>2014-09-03T15:19:17Z</time></trkpt><trkpt lat="45.8698263019" lon="7.1739407536"><ele>2451.98</ele><time>2014-09-03T15:19:18Z</time></trkpt><trkpt lat="45.8698176686" lon="7.1739265881"><ele>2451.98</ele><time>2014-09-03T15:19:19Z</time></trkpt><trkpt lat="45.8697294910" lon="7.1737592015"><ele>2452.46</ele><time>2014-09-03T15:19:31Z</time></trkpt><trkpt lat="45.8697218634" lon="7.1737447847"><ele>2452.46</ele><time>2014-09-03T15:19:32Z</time></trkpt><trkpt lat="45.8697123080" lon="7.1737313736"><ele>2452.46</ele><time>2014-09-03T15:19:33Z</time></trkpt><trkpt lat="45.8697025012" lon="7.1737151127"><ele>2452.94</ele><time>2014-09-03T15:19:34Z</time></trkpt><trkpt lat="45.8696939517" lon="7.1737035457"><ele>2453.42</ele><time>2014-09-03T15:19:35Z</time></trkpt><trkpt lat="45.8696700633" lon="7.1736431122"><ele>2452.46</ele><time>2014-09-03T15:19:47Z</time></trkpt><trkpt lat="45.8696497791" lon="7.1736597084"><ele>2451.50</ele><time>2014-09-03T15:20:11Z</time></trkpt><trkpt lat="45.8696471807" lon="7.1736356523"><ele>2447.65</ele><time>2014-09-03T15:20:39Z</time></trkpt><trkpt lat="45.8696009126" lon="7.1735668369"><ele>2449.10</ele><time>2014-09-03T15:20:54Z</time></trkpt><trkpt lat="45.8695800416" lon="7.1735209879"><ele>2449.10</ele><time>2014-09-03T15:20:57Z</time></trkpt><trkpt lat="45.8695750963" lon="7.1734957583"><ele>2449.10</ele><time>2014-09-03T15:20:58Z</time></trkpt><trkpt lat="45.8695695642" lon="7.1734737139"><ele>2449.10</ele><time>2014-09-03T15:20:59Z</time></trkpt><trkpt lat="45.8695641998" lon="7.1734509151"><ele>2449.10</ele><time>2014-09-03T15:21:00Z</time></trkpt><trkpt lat="45.8695535548" lon="7.1734267753"><ele>2448.62</ele><time>2014-09-03T15:21:01Z</time></trkpt><trkpt lat="45.8695377968" lon="7.1734046470"><ele>2449.58</ele><time>2014-09-03T15:21:02Z</time></trkpt><trkpt lat="45.8695285767" lon="7.1733842790"><ele>2449.58</ele><time>2014-09-03T15:21:03Z</time></trkpt><trkpt lat="45.8695209492" lon="7.1733712032"><ele>2450.06</ele><time>2014-09-03T15:21:04Z</time></trkpt><trkpt lat="45.8695125673" lon="7.1733546071"><ele>2450.06</ele><time>2014-09-03T15:21:05Z</time></trkpt><trkpt lat="45.8695035148" lon="7.1733400226"><ele>2450.54</ele><time>2014-09-03T15:21:06Z</time></trkpt><trkpt lat="45.8693931252" lon="7.1730828658"><ele>2451.50</ele><time>2014-09-03T15:21:19Z</time></trkpt><trkpt lat="45.8693881799" lon="7.1729995497"><ele>2451.98</ele><time>2014-09-03T15:21:23Z</time></trkpt><trkpt lat="45.8693899401" lon="7.1729800198"><ele>2452.46</ele><time>2014-09-03T15:21:24Z</time></trkpt><trkpt lat="45.8693894371" lon="7.1729575563"><ele>2452.94</ele><time>2014-09-03T15:21:25Z</time></trkpt><trkpt lat="45.8693910297" lon="7.1729412954"><ele>2453.42</ele><time>2014-09-03T15:21:26Z</time></trkpt><trkpt lat="45.8693911135" lon="7.1729223523"><ele>2453.90</ele><time>2014-09-03T15:21:27Z</time></trkpt><trkpt lat="45.8693896048" lon="7.1729027387"><ele>2454.38</ele><time>2014-09-03T15:21:28Z</time></trkpt><trkpt lat="45.8693814743" lon="7.1728684567"><ele>2455.34</ele><time>2014-09-03T15:21:30Z</time></trkpt><trkpt lat="45.8693831507" lon="7.1728464961"><ele>2455.34</ele><time>2014-09-03T15:21:31Z</time></trkpt><trkpt lat="45.8693834022" lon="7.1728246193"><ele>2455.82</ele><time>2014-09-03T15:21:32Z</time></trkpt><trkpt lat="45.8693853300" lon="7.1728041675"><ele>2455.82</ele><time>2014-09-03T15:21:33Z</time></trkpt><trkpt lat="45.8693844080" lon="7.1727852244"><ele>2456.31</ele><time>2014-09-03T15:21:34Z</time></trkpt><trkpt lat="45.8693840727" lon="7.1727667004"><ele>2456.79</ele><time>2014-09-03T15:21:35Z</time></trkpt><trkpt lat="45.8693840727" lon="7.1727493498"><ele>2456.79</ele><time>2014-09-03T15:21:36Z</time></trkpt><trkpt lat="45.8693896048" lon="7.1726978011"><ele>2459.19</ele><time>2014-09-03T15:21:48Z</time></trkpt><trkpt lat="45.8693941310" lon="7.1726744995"><ele>2459.67</ele><time>2014-09-03T15:22:13Z</time></trkpt><trkpt lat="45.8693915326" lon="7.1726547182"><ele>2459.67</ele><time>2014-09-03T15:22:14Z</time></trkpt><trkpt lat="45.8693940472" lon="7.1726345178"><ele>2459.67</ele><time>2014-09-03T15:22:15Z</time></trkpt><trkpt lat="45.8694068715" lon="7.1725677140"><ele>2460.15</ele><time>2014-09-03T15:22:18Z</time></trkpt><trkpt lat="45.8693481982" lon="7.1721664723"><ele>2462.07</ele><time>2014-09-03T15:22:35Z</time></trkpt><trkpt lat="45.8692425024" lon="7.1719977446"><ele>2463.04</ele><time>2014-09-03T15:22:49Z</time></trkpt><trkpt lat="45.8692759462" lon="7.1719968226"><ele>2462.55</ele><time>2014-09-03T15:23:02Z</time></trkpt><trkpt lat="45.8692844957" lon="7.1719421726"><ele>2463.52</ele><time>2014-09-03T15:23:32Z</time></trkpt><trkpt lat="45.8692611940" lon="7.1719788015"><ele>2462.55</ele><time>2014-09-03T15:24:06Z</time></trkpt><trkpt lat="45.8692742698" lon="7.1719203796"><ele>2464.48</ele><time>2014-09-03T15:24:18Z</time></trkpt><trkpt lat="45.8691487927" lon="7.1717661526"><ele>2468.80</ele><time>2014-09-03T15:24:29Z</time></trkpt><trkpt lat="45.8691430930" lon="7.1717472095"><ele>2468.80</ele><time>2014-09-03T15:24:30Z</time></trkpt><trkpt lat="45.8691432606" lon="7.1717249975"><ele>2468.80</ele><time>2014-09-03T15:24:31Z</time></trkpt><trkpt lat="45.8691461105" lon="7.1716803219"><ele>2467.84</ele><time>2014-09-03T15:24:33Z</time></trkpt><trkpt lat="45.8691428415" lon="7.1716570202"><ele>2468.32</ele><time>2014-09-03T15:24:34Z</time></trkpt><trkpt lat="45.8691408299" lon="7.1716355626"><ele>2469.28</ele><time>2014-09-03T15:24:35Z</time></trkpt><trkpt lat="45.8691382315" lon="7.1716125123"><ele>2469.28</ele><time>2014-09-03T15:24:36Z</time></trkpt><trkpt lat="45.8691319451" lon="7.1715936530"><ele>2470.73</ele><time>2014-09-03T15:24:37Z</time></trkpt><trkpt lat="45.8691398241" lon="7.1715503186"><ele>2470.24</ele><time>2014-09-03T15:24:48Z</time></trkpt><trkpt lat="45.8691142593" lon="7.1716506500"><ele>2471.21</ele><time>2014-09-03T15:25:19Z</time></trkpt><trkpt lat="45.8690908737" lon="7.1715428587"><ele>2475.05</ele><time>2014-09-03T15:25:42Z</time></trkpt><trkpt lat="45.8690767083" lon="7.1715410985"><ele>2475.53</ele><time>2014-09-03T15:25:43Z</time></trkpt><trkpt lat="45.8688709326" lon="7.1715801582"><ele>2474.57</ele><time>2014-09-03T15:25:56Z</time></trkpt><trkpt lat="45.8688429371" lon="7.1715807449"><ele>2474.57</ele><time>2014-09-03T15:25:58Z</time></trkpt><trkpt lat="45.8688240778" lon="7.1716362331"><ele>2473.13</ele><time>2014-09-03T15:26:10Z</time></trkpt><trkpt lat="45.8688654006" lon="7.1716337185"><ele>2472.17</ele><time>2014-09-03T15:26:40Z</time></trkpt><trkpt lat="45.8688640594" lon="7.1716301143"><ele>2472.65</ele><time>2014-09-03T15:27:16Z</time></trkpt><trkpt lat="45.8688809909" lon="7.1716384124"><ele>2473.61</ele><time>2014-09-03T15:27:57Z</time></trkpt><trkpt lat="45.8689828310" lon="7.1715488099"><ele>2472.17</ele><time>2014-09-03T15:28:09Z</time></trkpt><trkpt lat="45.8689938113" lon="7.1715281904"><ele>2472.17</ele><time>2014-09-03T15:28:10Z</time></trkpt><trkpt lat="45.8690261655" lon="7.1714064013"><ele>2471.69</ele><time>2014-09-03T15:28:16Z</time></trkpt><trkpt lat="45.8690156043" lon="7.1713109314"><ele>2471.69</ele><time>2014-09-03T15:28:21Z</time></trkpt><trkpt lat="45.8689677436" lon="7.1710819378"><ele>2473.61</ele><time>2014-09-03T15:28:30Z</time></trkpt><trkpt lat="45.8689669892" lon="7.1710573789"><ele>2473.61</ele><time>2014-09-03T15:28:31Z</time></trkpt><trkpt lat="45.8689633012" lon="7.1710340772"><ele>2474.09</ele><time>2014-09-03T15:28:32Z</time></trkpt><trkpt lat="45.8689589426" lon="7.1710144635"><ele>2474.09</ele><time>2014-09-03T15:28:33Z</time></trkpt><trkpt lat="45.8689574338" lon="7.1709946822"><ele>2474.09</ele><time>2014-09-03T15:28:34Z</time></trkpt><trkpt lat="45.8689558413" lon="7.1709753200"><ele>2474.09</ele><time>2014-09-03T15:28:35Z</time></trkpt><trkpt lat="45.8689389098" lon="7.1709080134"><ele>2474.57</ele><time>2014-09-03T15:28:39Z</time></trkpt><trkpt lat="45.8689346351" lon="7.1708856337"><ele>2474.57</ele><time>2014-09-03T15:28:40Z</time></trkpt><trkpt lat="45.8689318690" lon="7.1708706301"><ele>2474.57</ele><time>2014-09-03T15:28:41Z</time></trkpt><trkpt lat="45.8689321205" lon="7.1708483342"><ele>2474.57</ele><time>2014-09-03T15:28:42Z</time></trkpt><trkpt lat="45.8689340483" lon="7.1708345879"><ele>2474.57</ele><time>2014-09-03T15:28:43Z</time></trkpt><trkpt lat="45.8689398319" lon="7.1708157286"><ele>2475.05</ele><time>2014-09-03T15:28:44Z</time></trkpt><trkpt lat="45.8689448610" lon="7.1708004735"><ele>2475.05</ele><time>2014-09-03T15:28:45Z</time></trkpt><trkpt lat="45.8689463697" lon="7.1707829554"><ele>2475.53</ele><time>2014-09-03T15:28:46Z</time></trkpt><trkpt lat="45.8689477947" lon="7.1707638446"><ele>2475.53</ele><time>2014-09-03T15:28:47Z</time></trkpt><trkpt lat="45.8689733595" lon="7.1707143076"><ele>2476.49</ele><time>2014-09-03T15:28:51Z</time></trkpt><trkpt lat="45.8689778857" lon="7.1706978790"><ele>2476.49</ele><time>2014-09-03T15:28:52Z</time></trkpt><trkpt lat="45.8690345474" lon="7.1705349348"><ele>2476.97</ele><time>2014-09-03T15:29:04Z</time></trkpt><trkpt lat="45.8690055460" lon="7.1705014072"><ele>2478.90</ele><time>2014-09-03T15:29:16Z</time></trkpt><trkpt lat="45.8688885346" lon="7.1704827156"><ele>2473.61</ele><time>2014-09-03T15:29:54Z</time></trkpt><trkpt lat="45.8689093217" lon="7.1705260500"><ele>2462.55</ele><time>2014-09-03T15:30:45Z</time></trkpt><trkpt lat="45.8690164424" lon="7.1705463342"><ele>2464.00</ele><time>2014-09-03T15:31:25Z</time></trkpt><trkpt lat="45.8689645585" lon="7.1705236193"><ele>2465.44</ele><time>2014-09-03T15:32:00Z</time></trkpt><trkpt lat="45.8689510636" lon="7.1705116332"><ele>2464.48</ele><time>2014-09-03T15:32:35Z</time></trkpt><trkpt lat="45.8689591102" lon="7.1705181710"><ele>2458.71</ele><time>2014-09-03T15:33:10Z</time></trkpt><trkpt lat="45.8689739462" lon="7.1705010720"><ele>2458.23</ele><time>2014-09-03T15:33:21Z</time></trkpt><trkpt lat="45.8690716792" lon="7.1704849787"><ele>2464.00</ele><time>2014-09-03T15:33:33Z</time></trkpt><trkpt lat="45.8691424225" lon="7.1705329232"><ele>2464.00</ele><time>2014-09-03T15:34:02Z</time></trkpt><trkpt lat="45.8691578452" lon="7.1705591585"><ele>2460.15</ele><time>2014-09-03T15:34:19Z</time></trkpt><trkpt lat="45.8692225534" lon="7.1705853939"><ele>2462.07</ele><time>2014-09-03T15:34:44Z</time></trkpt><trkpt lat="45.8692082204" lon="7.1705992240"><ele>2459.19</ele><time>2014-09-03T15:35:00Z</time></trkpt><trkpt lat="45.8692013472" lon="7.1705988050"><ele>2460.15</ele><time>2014-09-03T15:35:26Z</time></trkpt><trkpt lat="45.8691994194" lon="7.1705221944"><ele>2463.04</ele><time>2014-09-03T15:35:42Z</time></trkpt><trkpt lat="45.8691968210" lon="7.1705435682"><ele>2463.52</ele><time>2014-09-03T15:35:58Z</time></trkpt><trkpt lat="45.8691709209" lon="7.1704905946"><ele>2468.80</ele><time>2014-09-03T15:36:11Z</time></trkpt><trkpt lat="45.8691538218" lon="7.1705183387"><ele>2470.73</ele><time>2014-09-03T15:36:29Z</time></trkpt><trkpt lat="45.8691054583" lon="7.1704546362"><ele>2476.01</ele><time>2014-09-03T15:36:44Z</time></trkpt><trkpt lat="45.8691902831" lon="7.1702403948"><ele>2476.49</ele><time>2014-09-03T15:36:51Z</time></trkpt><trkpt lat="45.8692198712" lon="7.1701964736"><ele>2476.49</ele><time>2014-09-03T15:36:52Z</time></trkpt><trkpt lat="45.8692526445" lon="7.1701522171"><ele>2476.01</ele><time>2014-09-03T15:36:53Z</time></trkpt><trkpt lat="45.8692859206" lon="7.1700968966"><ele>2475.53</ele><time>2014-09-03T15:36:54Z</time></trkpt><trkpt lat="45.8693101443" lon="7.1700444259"><ele>2475.05</ele><time>2014-09-03T15:36:55Z</time></trkpt><trkpt lat="45.8693344519" lon="7.1699834056"><ele>2474.09</ele><time>2014-09-03T15:36:56Z</time></trkpt><trkpt lat="45.8695471846" lon="7.1690082550"><ele>2467.84</ele><time>2014-09-03T15:37:08Z</time></trkpt><trkpt lat="45.8696169220" lon="7.1684820391"><ele>2463.52</ele><time>2014-09-03T15:37:14Z</time></trkpt><trkpt lat="45.8696122281" lon="7.1683922689"><ele>2463.04</ele><time>2014-09-03T15:37:15Z</time></trkpt><trkpt lat="45.8695997391" lon="7.1683009062"><ele>2462.55</ele><time>2014-09-03T15:37:16Z</time></trkpt><trkpt lat="45.8695794549" lon="7.1682137344"><ele>2462.55</ele><time>2014-09-03T15:37:17Z</time></trkpt><trkpt lat="45.8695572428" lon="7.1681276523"><ele>2462.07</ele><time>2014-09-03T15:37:18Z</time></trkpt><trkpt lat="45.8693170175" lon="7.1672633942"><ele>2458.23</ele><time>2014-09-03T15:37:30Z</time></trkpt><trkpt lat="45.8693081327" lon="7.1671973448"><ele>2458.23</ele><time>2014-09-03T15:37:31Z</time></trkpt><trkpt lat="45.8692875132" lon="7.1669174731"><ele>2456.31</ele><time>2014-09-03T15:37:35Z</time></trkpt><trkpt lat="45.8692886028" lon="7.1666598972"><ele>2455.34</ele><time>2014-09-03T15:37:43Z</time></trkpt><trkpt lat="45.8693171851" lon="7.1666076779"><ele>2454.86</ele><time>2014-09-03T15:37:54Z</time></trkpt><trkpt lat="45.8693064563" lon="7.1666047443"><ele>2455.34</ele><time>2014-09-03T15:38:26Z</time></trkpt><trkpt lat="45.8693046123" lon="7.1665938478"><ele>2455.34</ele><time>2014-09-03T15:38:27Z</time></trkpt><trkpt lat="45.8693008404" lon="7.1665718872"><ele>2454.86</ele><time>2014-09-03T15:38:28Z</time></trkpt><trkpt lat="45.8693009242" lon="7.1665465739"><ele>2454.86</ele><time>2014-09-03T15:38:29Z</time></trkpt><trkpt lat="45.8693018463" lon="7.1665200870"><ele>2454.86</ele><time>2014-09-03T15:38:30Z</time></trkpt><trkpt lat="45.8692997508" lon="7.1664927620"><ele>2454.86</ele><time>2014-09-03T15:38:31Z</time></trkpt><trkpt lat="45.8691919595" lon="7.1659862436"><ele>2455.34</ele><time>2014-09-03T15:38:47Z</time></trkpt><trkpt lat="45.8689955715" lon="7.1655946411"><ele>2454.38</ele><time>2014-09-03T15:39:01Z</time></trkpt><trkpt lat="45.8689838368" lon="7.1655819006"><ele>2453.90</ele><time>2014-09-03T15:39:02Z</time></trkpt><trkpt lat="45.8689737786" lon="7.1655635443"><ele>2453.42</ele><time>2014-09-03T15:39:03Z</time></trkpt><trkpt lat="45.8687757142" lon="7.1653109137"><ele>2452.94</ele><time>2014-09-03T15:39:15Z</time></trkpt><trkpt lat="45.8685457986" lon="7.1651627216"><ele>2452.94</ele><time>2014-09-03T15:39:28Z</time></trkpt><trkpt lat="45.8685389254" lon="7.1651372407"><ele>2453.42</ele><time>2014-09-03T15:39:29Z</time></trkpt><trkpt lat="45.8685450442" lon="7.1651136037"><ele>2453.42</ele><time>2014-09-03T15:39:30Z</time></trkpt><trkpt lat="45.8685546834" lon="7.1650903858"><ele>2453.42</ele><time>2014-09-03T15:39:31Z</time></trkpt><trkpt lat="45.8685715310" lon="7.1650651563"><ele>2453.42</ele><time>2014-09-03T15:39:32Z</time></trkpt><trkpt lat="45.8685893007" lon="7.1650405135"><ele>2453.42</ele><time>2014-09-03T15:39:33Z</time></trkpt><trkpt lat="45.8686032146" lon="7.1650200617"><ele>2453.90</ele><time>2014-09-03T15:39:34Z</time></trkpt><trkpt lat="45.8686181344" lon="7.1649996098"><ele>2453.90</ele><time>2014-09-03T15:39:35Z</time></trkpt><trkpt lat="45.8686310425" lon="7.1649727877"><ele>2453.90</ele><time>2014-09-03T15:39:36Z</time></trkpt><trkpt lat="45.8686416876" lon="7.1649393439"><ele>2453.90</ele><time>2014-09-03T15:39:37Z</time></trkpt><trkpt lat="45.8686443698" lon="7.1649015415"><ele>2454.38</ele><time>2014-09-03T15:39:38Z</time></trkpt><trkpt lat="45.8686398435" lon="7.1648625657"><ele>2454.38</ele><time>2014-09-03T15:39:39Z</time></trkpt><trkpt lat="45.8686300367" lon="7.1648249310"><ele>2454.86</ele><time>2014-09-03T15:39:40Z</time></trkpt><trkpt lat="45.8686209004" lon="7.1647884697"><ele>2454.86</ele><time>2014-09-03T15:39:41Z</time></trkpt><trkpt lat="45.8685039729" lon="7.1643744875"><ele>2457.75</ele><time>2014-09-03T15:39:55Z</time></trkpt><trkpt lat="45.8684870414" lon="7.1643308178"><ele>2458.23</ele><time>2014-09-03T15:40:04Z</time></trkpt><trkpt lat="45.8684558608" lon="7.1643069293"><ele>2465.44</ele><time>2014-09-03T15:40:48Z</time></trkpt><trkpt lat="45.8684950881" lon="7.1643214300"><ele>2464.96</ele><time>2014-09-03T15:41:28Z</time></trkpt><trkpt lat="45.8684828505" lon="7.1643366013"><ele>2463.52</ele><time>2014-09-03T15:42:00Z</time></trkpt><trkpt lat="45.8684739657" lon="7.1643519402"><ele>2466.40</ele><time>2014-09-03T15:42:28Z</time></trkpt><trkpt lat="45.8685142826" lon="7.1643443126"><ele>2463.04</ele><time>2014-09-03T15:43:02Z</time></trkpt><trkpt lat="45.8685084153" lon="7.1643490065"><ele>2464.00</ele><time>2014-09-03T15:43:30Z</time></trkpt><trkpt lat="45.8685027994" lon="7.1643362660"><ele>2463.04</ele><time>2014-09-03T15:44:04Z</time></trkpt><trkpt lat="45.8684846945" lon="7.1643576398"><ele>2463.04</ele><time>2014-09-03T15:44:34Z</time></trkpt><trkpt lat="45.8684975188" lon="7.1643566340"><ele>2463.52</ele><time>2014-09-03T15:45:07Z</time></trkpt><trkpt lat="45.8684878796" lon="7.1643518563"><ele>2463.52</ele><time>2014-09-03T15:45:24Z</time></trkpt><trkpt lat="45.8684975188" lon="7.1644008905"><ele>2464.48</ele><time>2014-09-03T15:45:32Z</time></trkpt><trkpt lat="45.8686199784" lon="7.1647995338"><ele>2462.07</ele><time>2014-09-03T15:45:45Z</time></trkpt><trkpt lat="45.8685797453" lon="7.1651200578"><ele>2461.11</ele><time>2014-09-03T15:45:53Z</time></trkpt><trkpt lat="45.8685571142" lon="7.1651460417"><ele>2461.59</ele><time>2014-09-03T15:45:54Z</time></trkpt><trkpt lat="45.8685288671" lon="7.1651695948"><ele>2461.59</ele><time>2014-09-03T15:45:55Z</time></trkpt><trkpt lat="45.8682672679" lon="7.1653572656"><ele>2459.67</ele><time>2014-09-03T15:46:04Z</time></trkpt><trkpt lat="45.8682548627" lon="7.1653718501"><ele>2459.67</ele><time>2014-09-03T15:46:05Z</time></trkpt><trkpt lat="45.8682544436" lon="7.1653934754"><ele>2456.31</ele><time>2014-09-03T15:46:14Z</time></trkpt><trkpt lat="45.8682582993" lon="7.1654019412"><ele>2452.94</ele><time>2014-09-03T15:46:48Z</time></trkpt><trkpt lat="45.8682627417" lon="7.1654127538"><ele>2452.94</ele><time>2014-09-03T15:47:23Z</time></trkpt><trkpt lat="45.8682525158" lon="7.1654071379"><ele>2453.42</ele><time>2014-09-03T15:48:10Z</time></trkpt><trkpt lat="45.8682639990" lon="7.1654353850"><ele>2452.46</ele><time>2014-09-03T15:48:52Z</time></trkpt><trkpt lat="45.8682782482" lon="7.1654211357"><ele>2451.98</ele><time>2014-09-03T15:49:37Z</time></trkpt><trkpt lat="45.8682666812" lon="7.1654119156"><ele>2452.94</ele><time>2014-09-03T15:49:54Z</time></trkpt><trkpt lat="45.8682477381" lon="7.1653845906"><ele>2455.34</ele><time>2014-09-03T15:50:07Z</time></trkpt><trkpt lat="45.8682417031" lon="7.1653807350"><ele>2462.07</ele><time>2014-09-03T15:50:39Z</time></trkpt><trkpt lat="45.8682386018" lon="7.1653756220"><ele>2462.07</ele><time>2014-09-03T15:50:40Z</time></trkpt><trkpt lat="45.8684968483" lon="7.1652710997"><ele>2459.67</ele><time>2014-09-03T15:50:51Z</time></trkpt><trkpt lat="45.8689289354" lon="7.1655558329"><ele>2460.63</ele><time>2014-09-03T15:51:05Z</time></trkpt><trkpt lat="45.8690488804" lon="7.1657073777"><ele>2460.15</ele><time>2014-09-03T15:51:13Z</time></trkpt><trkpt lat="45.8690498862" lon="7.1657279972"><ele>2460.63</ele><time>2014-09-03T15:51:14Z</time></trkpt><trkpt lat="45.8690339606" lon="7.1657400671"><ele>2459.19</ele><time>2014-09-03T15:51:27Z</time></trkpt><trkpt lat="45.8690333739" lon="7.1657385584"><ele>2457.27</ele><time>2014-09-03T15:52:01Z</time></trkpt><trkpt lat="45.8690394927" lon="7.1657733433"><ele>2460.15</ele><time>2014-09-03T15:52:28Z</time></trkpt><trkpt lat="45.8690386545" lon="7.1657647938"><ele>2458.71</ele><time>2014-09-03T15:52:38Z</time></trkpt><trkpt lat="45.8690321166" lon="7.1657580044"><ele>2459.19</ele><time>2014-09-03T15:53:03Z</time></trkpt><trkpt lat="45.8690345474" lon="7.1657430008"><ele>2458.71</ele><time>2014-09-03T15:53:29Z</time></trkpt><trkpt lat="45.8690615371" lon="7.1657559928"><ele>2456.31</ele><time>2014-09-03T15:54:04Z</time></trkpt><trkpt lat="45.8690555021" lon="7.1657266561"><ele>2455.82</ele><time>2014-09-03T15:54:18Z</time></trkpt><trkpt lat="45.8688564319" lon="7.1654649731"><ele>2455.82</ele><time>2014-09-03T15:54:27Z</time></trkpt><trkpt lat="45.8684507478" lon="7.1652510669"><ele>2457.75</ele><time>2014-09-03T15:54:40Z</time></trkpt><trkpt lat="45.8684081677" lon="7.1652757097"><ele>2457.75</ele><time>2014-09-03T15:54:41Z</time></trkpt><trkpt lat="45.8683661744" lon="7.1652969997"><ele>2457.75</ele><time>2014-09-03T15:54:42Z</time></trkpt><trkpt lat="45.8683183137" lon="7.1653041244"><ele>2457.75</ele><time>2014-09-03T15:54:43Z</time></trkpt><trkpt lat="45.8682738058" lon="7.1653089020"><ele>2457.75</ele><time>2014-09-03T15:54:44Z</time></trkpt><trkpt lat="45.8682268672" lon="7.1653197985"><ele>2457.75</ele><time>2014-09-03T15:54:45Z</time></trkpt><trkpt lat="45.8681862988" lon="7.1653189603"><ele>2457.75</ele><time>2014-09-03T15:54:46Z</time></trkpt><trkpt lat="45.8681444731" lon="7.1653182060"><ele>2457.75</ele><time>2014-09-03T15:54:47Z</time></trkpt><trkpt lat="45.8681046590" lon="7.1653186250"><ele>2457.75</ele><time>2014-09-03T15:54:48Z</time></trkpt><trkpt lat="45.8678718098" lon="7.1652334649"><ele>2458.23</ele><time>2014-09-03T15:54:56Z</time></trkpt><trkpt lat="45.8678600751" lon="7.1652319562"><ele>2458.71</ele><time>2014-09-03T15:54:57Z</time></trkpt><trkpt lat="45.8678487595" lon="7.1652284358"><ele>2458.71</ele><time>2014-09-03T15:54:58Z</time></trkpt><trkpt lat="45.8678383660" lon="7.1652359795"><ele>2458.71</ele><time>2014-09-03T15:54:59Z</time></trkpt><trkpt lat="45.8678341750" lon="7.1652520727"><ele>2458.23</ele><time>2014-09-03T15:55:00Z</time></trkpt><trkpt lat="45.8678497653" lon="7.1652686689"><ele>2458.23</ele><time>2014-09-03T15:55:01Z</time></trkpt><trkpt lat="45.8678723127" lon="7.1652793977"><ele>2458.23</ele><time>2014-09-03T15:55:02Z</time></trkpt><trkpt lat="45.8681680262" lon="7.1653228160"><ele>2458.23</ele><time>2014-09-03T15:55:15Z</time></trkpt><trkpt lat="45.8681780845" lon="7.1652482171"><ele>2458.23</ele><time>2014-09-03T15:55:17Z</time></trkpt><trkpt lat="45.8681594767" lon="7.1652038768"><ele>2458.23</ele><time>2014-09-03T15:55:18Z</time></trkpt><trkpt lat="45.8681489155" lon="7.1651869453"><ele>2458.23</ele><time>2014-09-03T15:55:19Z</time></trkpt><trkpt lat="45.8681342471" lon="7.1651717741"><ele>2458.71</ele><time>2014-09-03T15:55:20Z</time></trkpt><trkpt lat="45.8681172319" lon="7.1651461255"><ele>2458.71</ele><time>2014-09-03T15:55:23Z</time></trkpt><trkpt lat="45.8680888172" lon="7.1650768071"><ele>2459.67</ele><time>2014-09-03T15:55:27Z</time></trkpt><trkpt lat="45.8680832013" lon="7.1650391724"><ele>2460.15</ele><time>2014-09-03T15:55:29Z</time></trkpt><trkpt lat="45.8680754062" lon="7.1650246717"><ele>2461.11</ele><time>2014-09-03T15:55:40Z</time></trkpt><trkpt lat="45.8680590615" lon="7.1650426928"><ele>2458.23</ele><time>2014-09-03T15:55:55Z</time></trkpt><trkpt lat="45.8680693712" lon="7.1650398429"><ele>2459.19</ele><time>2014-09-03T15:56:35Z</time></trkpt><trkpt lat="45.8680810221" lon="7.1650454588"><ele>2454.86</ele><time>2014-09-03T15:57:26Z</time></trkpt><trkpt lat="45.8680495899" lon="7.1650123503"><ele>2461.11</ele><time>2014-09-03T15:58:26Z</time></trkpt><trkpt lat="45.8680379391" lon="7.1650696825"><ele>2460.63</ele><time>2014-09-03T15:59:24Z</time></trkpt><trkpt lat="45.8680629171" lon="7.1650689282"><ele>2462.07</ele><time>2014-09-03T16:00:18Z</time></trkpt><trkpt lat="45.8680955227" lon="7.1650140267"><ele>2458.23</ele><time>2014-09-03T16:00:56Z</time></trkpt><trkpt lat="45.8680812735" lon="7.1650089975"><ele>2456.31</ele><time>2014-09-03T16:01:44Z</time></trkpt><trkpt lat="45.8680771664" lon="7.1650089137"><ele>2455.34</ele><time>2014-09-03T16:02:34Z</time></trkpt><trkpt lat="45.8680807706" lon="7.1650563553"><ele>2457.75</ele><time>2014-09-03T16:03:15Z</time></trkpt><trkpt lat="45.8680695388" lon="7.1650561038"><ele>2452.46</ele><time>2014-09-03T16:03:59Z</time></trkpt><trkpt lat="45.8680728916" lon="7.1650376637"><ele>2451.02</ele><time>2014-09-03T16:04:45Z</time></trkpt><trkpt lat="45.8680712152" lon="7.1650723647"><ele>2455.34</ele><time>2014-09-03T16:05:21Z</time></trkpt><trkpt lat="45.8680773340" lon="7.1650795732"><ele>2452.94</ele><time>2014-09-03T16:05:49Z</time></trkpt><trkpt lat="45.8680989593" lon="7.1650146972"><ele>2449.10</ele><time>2014-09-03T16:06:21Z</time></trkpt><trkpt lat="45.8680837043" lon="7.1650469676"><ele>2451.50</ele><time>2014-09-03T16:07:02Z</time></trkpt><trkpt lat="45.8680737298" lon="7.1650317963"><ele>2447.65</ele><time>2014-09-03T16:07:35Z</time></trkpt><trkpt lat="45.8680652641" lon="7.1650118474"><ele>2446.69</ele><time>2014-09-03T16:08:24Z</time></trkpt><trkpt lat="45.8680644259" lon="7.1649760567"><ele>2452.94</ele><time>2014-09-03T16:08:59Z</time></trkpt><trkpt lat="45.8680629171" lon="7.1650219057"><ele>2453.90</ele><time>2014-09-03T16:09:32Z</time></trkpt><trkpt lat="45.8680591453" lon="7.1649782360"><ele>2452.46</ele><time>2014-09-03T16:10:03Z</time></trkpt><trkpt lat="45.8680189960" lon="7.1649648249"><ele>2450.54</ele><time>2014-09-03T16:10:42Z</time></trkpt><trkpt lat="45.8680837043" lon="7.1649878751"><ele>2454.38</ele><time>2014-09-03T16:11:08Z</time></trkpt><trkpt lat="45.8680943493" lon="7.1650129370"><ele>2454.38</ele><time>2014-09-03T16:11:41Z</time></trkpt><trkpt lat="45.8680393640" lon="7.1649763081"><ele>2448.62</ele><time>2014-09-03T16:12:22Z</time></trkpt><trkpt lat="45.8680385258" lon="7.1650369931"><ele>2455.34</ele><time>2014-09-03T16:12:58Z</time></trkpt><trkpt lat="45.8680428844" lon="7.1650553495"><ele>2458.23</ele><time>2014-09-03T16:13:46Z</time></trkpt><trkpt lat="45.8680599835" lon="7.1650302038"><ele>2461.59</ele><time>2014-09-03T16:14:20Z</time></trkpt><trkpt lat="45.8680623304" lon="7.1650074050"><ele>2463.04</ele><time>2014-09-03T16:14:48Z</time></trkpt><trkpt lat="45.8680574689" lon="7.1649798285"><ele>2456.79</ele><time>2014-09-03T16:15:25Z</time></trkpt><trkpt lat="45.8679867256" lon="7.1649409365"><ele>2449.10</ele><time>2014-09-03T16:16:02Z</time></trkpt><trkpt lat="45.8679853845" lon="7.1649545990"><ele>2450.06</ele><time>2014-09-03T16:16:34Z</time></trkpt><trkpt lat="45.8680274617" lon="7.1649640705"><ele>2448.62</ele><time>2014-09-03T16:17:02Z</time></trkpt><trkpt lat="45.8680260368" lon="7.1649939101"><ele>2447.65</ele><time>2014-09-03T16:17:37Z</time></trkpt><trkpt lat="45.8680272102" lon="7.1650016215"><ele>2448.13</ele><time>2014-09-03T16:18:16Z</time></trkpt><trkpt lat="45.8680704609" lon="7.1650142781"><ele>2450.06</ele><time>2014-09-03T16:18:55Z</time></trkpt><trkpt lat="45.8680707961" lon="7.1650274377"><ele>2456.79</ele><time>2014-09-03T16:19:23Z</time></trkpt><trkpt lat="45.8680738136" lon="7.1650115959"><ele>2456.79</ele><time>2014-09-03T16:19:57Z</time></trkpt><trkpt lat="45.8680769149" lon="7.1649972629"><ele>2459.67</ele><time>2014-09-03T16:20:32Z</time></trkpt><trkpt lat="45.8680706285" lon="7.1650192235"><ele>2456.79</ele><time>2014-09-03T16:21:10Z</time></trkpt><trkpt lat="45.8680609893" lon="7.1650132723"><ele>2454.86</ele><time>2014-09-03T16:21:40Z</time></trkpt><trkpt lat="45.8680697065" lon="7.1649995260"><ele>2455.34</ele><time>2014-09-03T16:22:10Z</time></trkpt><trkpt lat="45.8680758253" lon="7.1650226600"><ele>2456.31</ele><time>2014-09-03T16:22:41Z</time></trkpt><trkpt lat="45.8680956066" lon="7.1649896353"><ele>2458.71</ele><time>2014-09-03T16:23:17Z</time></trkpt><trkpt lat="45.8680808544" lon="7.1650053095"><ele>2461.11</ele><time>2014-09-03T16:23:45Z</time></trkpt><trkpt lat="45.8680691198" lon="7.1650063153"><ele>2461.59</ele><time>2014-09-03T16:24:13Z</time></trkpt><trkpt lat="45.8680749033" lon="7.1650206484"><ele>2462.07</ele><time>2014-09-03T16:24:29Z</time></trkpt><trkpt lat="45.8681105264" lon="7.1650359035"><ele>2460.63</ele><time>2014-09-03T16:24:34Z</time></trkpt><trkpt lat="45.8680783398" lon="7.1649603825"><ele>2457.27</ele><time>2014-09-03T16:24:48Z</time></trkpt><trkpt lat="45.8680796809" lon="7.1649461333"><ele>2454.86</ele><time>2014-09-03T16:25:33Z</time></trkpt><trkpt lat="45.8680783398" lon="7.1650087461"><ele>2454.38</ele><time>2014-09-03T16:26:15Z</time></trkpt><trkpt lat="45.8680666052" lon="7.1650004480"><ele>2454.38</ele><time>2014-09-03T16:26:59Z</time></trkpt><trkpt lat="45.8680773340" lon="7.1649610531"><ele>2458.23</ele><time>2014-09-03T16:27:38Z</time></trkpt><trkpt lat="45.8680788428" lon="7.1649545152"><ele>2456.79</ele><time>2014-09-03T16:28:19Z</time></trkpt><trkpt lat="45.8681174833" lon="7.1649490669"><ele>2462.07</ele><time>2014-09-03T16:29:02Z</time></trkpt><trkpt lat="45.8681142144" lon="7.1649715304"><ele>2461.59</ele><time>2014-09-03T16:29:37Z</time></trkpt><trkpt lat="45.8681201655" lon="7.1649604663"><ele>2459.67</ele><time>2014-09-03T16:29:53Z</time></trkpt><trkpt lat="45.8680965286" lon="7.1649622265"><ele>2459.67</ele><time>2014-09-03T16:30:17Z</time></trkpt><trkpt lat="45.8680819441" lon="7.1649753023"><ele>2459.19</ele><time>2014-09-03T16:30:49Z</time></trkpt><trkpt lat="45.8680854645" lon="7.1649779845"><ele>2456.31</ele><time>2014-09-03T16:31:31Z</time></trkpt><trkpt lat="45.8681063354" lon="7.1650207322"><ele>2459.19</ele><time>2014-09-03T16:32:16Z</time></trkpt><trkpt lat="45.8680701256" lon="7.1649751347"><ele>2460.15</ele><time>2014-09-03T16:33:00Z</time></trkpt><trkpt lat="45.8680870570" lon="7.1649644058"><ele>2458.23</ele><time>2014-09-03T16:33:35Z</time></trkpt><trkpt lat="45.8680642582" lon="7.1649511624"><ele>2456.79</ele><time>2014-09-03T16:34:21Z</time></trkpt><trkpt lat="45.8681116160" lon="7.1649739612"><ele>2456.79</ele><time>2014-09-03T16:34:46Z</time></trkpt><trkpt lat="45.8680839557" lon="7.1649488993"><ele>2456.31</ele><time>2014-09-03T16:35:23Z</time></trkpt><trkpt lat="45.8680903260" lon="7.1649387572"><ele>2457.27</ele><time>2014-09-03T16:35:26Z</time></trkpt><trkpt lat="45.8680909965" lon="7.1650824230"><ele>2457.27</ele><time>2014-09-03T16:35:37Z</time></trkpt><trkpt lat="45.8681329060" lon="7.1652125940"><ele>2456.79</ele><time>2014-09-03T16:35:47Z</time></trkpt><trkpt lat="45.8681001328" lon="7.1652720217"><ele>2456.79</ele><time>2014-09-03T16:35:51Z</time></trkpt><trkpt lat="45.8680728916" lon="7.1652745362"><ele>2456.79</ele><time>2014-09-03T16:35:52Z</time></trkpt><trkpt lat="45.8680601511" lon="7.1652714349"><ele>2457.27</ele><time>2014-09-03T16:35:53Z</time></trkpt><trkpt lat="45.8680414595" lon="7.1652674116"><ele>2457.27</ele><time>2014-09-03T16:35:54Z</time></trkpt><trkpt lat="45.8676865697" lon="7.1650960017"><ele>2457.27</ele><time>2014-09-03T16:36:09Z</time></trkpt><trkpt lat="45.8673592564" lon="7.1648385935"><ele>2453.90</ele><time>2014-09-03T16:36:19Z</time></trkpt><trkpt lat="45.8673229627" lon="7.1647952590"><ele>2453.42</ele><time>2014-09-03T16:36:20Z</time></trkpt><trkpt lat="45.8672633674" lon="7.1646955144"><ele>2452.94</ele><time>2014-09-03T16:36:22Z</time></trkpt><trkpt lat="45.8672396466" lon="7.1646386012"><ele>2452.46</ele><time>2014-09-03T16:36:23Z</time></trkpt><trkpt lat="45.8672180213" lon="7.1645790059"><ele>2451.98</ele><time>2014-09-03T16:36:24Z</time></trkpt><trkpt lat="45.8672010899" lon="7.1645207517"><ele>2451.02</ele><time>2014-09-03T16:36:25Z</time></trkpt><trkpt lat="45.8671844937" lon="7.1644630842"><ele>2450.54</ele><time>2014-09-03T16:36:26Z</time></trkpt><trkpt lat="45.8671093080" lon="7.1641380340"><ele>2448.13</ele><time>2014-09-03T16:36:31Z</time></trkpt><trkpt lat="45.8671031892" lon="7.1640579030"><ele>2447.17</ele><time>2014-09-03T16:36:32Z</time></trkpt><trkpt lat="45.8671041951" lon="7.1639835555"><ele>2447.17</ele><time>2014-09-03T16:36:33Z</time></trkpt><trkpt lat="45.8671124093" lon="7.1639109682"><ele>2446.69</ele><time>2014-09-03T16:36:34Z</time></trkpt><trkpt lat="45.8671283349" lon="7.1638370398"><ele>2446.21</ele><time>2014-09-03T16:36:35Z</time></trkpt><trkpt lat="45.8671543188" lon="7.1637651231"><ele>2445.73</ele><time>2014-09-03T16:36:36Z</time></trkpt><trkpt lat="45.8671903610" lon="7.1636944637"><ele>2445.25</ele><time>2014-09-03T16:36:37Z</time></trkpt><trkpt lat="45.8672305103" lon="7.1636239719"><ele>2444.77</ele><time>2014-09-03T16:36:38Z</time></trkpt><trkpt lat="45.8673906885" lon="7.1633162722"><ele>2442.37</ele><time>2014-09-03T16:36:42Z</time></trkpt><trkpt lat="45.8674211148" lon="7.1632296871"><ele>2441.89</ele><time>2014-09-03T16:36:43Z</time></trkpt><trkpt lat="45.8674382139" lon="7.1631418448"><ele>2441.41</ele><time>2014-09-03T16:36:44Z</time></trkpt><trkpt lat="45.8674414828" lon="7.1630479675"><ele>2440.92</ele><time>2014-09-03T16:36:45Z</time></trkpt><trkpt lat="45.8674409799" lon="7.1629645675"><ele>2440.44</ele><time>2014-09-03T16:36:46Z</time></trkpt><trkpt lat="45.8674434107" lon="7.1628765576"><ele>2439.96</ele><time>2014-09-03T16:36:47Z</time></trkpt><trkpt lat="45.8674547262" lon="7.1627882123"><ele>2439.48</ele><time>2014-09-03T16:36:48Z</time></trkpt><trkpt lat="45.8674739208" lon="7.1627029683"><ele>2439.00</ele><time>2014-09-03T16:36:49Z</time></trkpt><trkpt lat="45.8679414634" lon="7.1616984811"><ele>2431.31</ele><time>2014-09-03T16:37:02Z</time></trkpt><trkpt lat="45.8679842111" lon="7.1616464294"><ele>2430.35</ele><time>2014-09-03T16:37:03Z</time></trkpt><trkpt lat="45.8680309821" lon="7.1616123989"><ele>2429.87</ele><time>2014-09-03T16:37:04Z</time></trkpt><trkpt lat="45.8680886496" lon="7.1615927014"><ele>2429.87</ele><time>2014-09-03T16:37:05Z</time></trkpt><trkpt lat="45.8681495860" lon="7.1615847386"><ele>2429.39</ele><time>2014-09-03T16:37:06Z</time></trkpt><trkpt lat="45.8682255261" lon="7.1615826432"><ele>2428.91</ele><time>2014-09-03T16:37:07Z</time></trkpt><trkpt lat="45.8688052185" lon="7.1615304239"><ele>2424.58</ele><time>2014-09-03T16:37:15Z</time></trkpt><trkpt lat="45.8688571863" lon="7.1615032665"><ele>2424.10</ele><time>2014-09-03T16:37:16Z</time></trkpt><trkpt lat="45.8689009398" lon="7.1614549868"><ele>2423.62</ele><time>2014-09-03T16:37:17Z</time></trkpt><trkpt lat="45.8689384069" lon="7.1613972355"><ele>2423.14</ele><time>2014-09-03T16:37:18Z</time></trkpt><trkpt lat="45.8689683303" lon="7.1613312699"><ele>2422.18</ele><time>2014-09-03T16:37:19Z</time></trkpt><trkpt lat="45.8689952362" lon="7.1612585150"><ele>2421.70</ele><time>2014-09-03T16:37:20Z</time></trkpt><trkpt lat="45.8694838174" lon="7.1598250419"><ele>2411.60</ele><time>2014-09-03T16:37:37Z</time></trkpt><trkpt lat="45.8705872111" lon="7.1581367590"><ele>2404.39</ele><time>2014-09-03T16:37:52Z</time></trkpt><trkpt lat="45.8706156258" lon="7.1580419596"><ele>2399.11</ele><time>2014-09-03T16:37:53Z</time></trkpt><trkpt lat="45.8706231695" lon="7.1579297259"><ele>2399.11</ele><time>2014-09-03T16:37:54Z</time></trkpt><trkpt lat="45.8706210740" lon="7.1578225214"><ele>2398.63</ele><time>2014-09-03T16:37:55Z</time></trkpt><trkpt lat="45.8706033044" lon="7.1577217709"><ele>2398.15</ele><time>2014-09-03T16:37:56Z</time></trkpt><trkpt lat="45.8705785777" lon="7.1576111298"><ele>2397.67</ele><time>2014-09-03T16:37:57Z</time></trkpt><trkpt lat="45.8705516718" lon="7.1575320885"><ele>2397.67</ele><time>2014-09-03T16:37:58Z</time></trkpt><trkpt lat="45.8703293838" lon="7.1569168568"><ele>2393.82</ele><time>2014-09-03T16:38:05Z</time></trkpt><trkpt lat="45.8702864684" lon="7.1568601113"><ele>2393.34</ele><time>2014-09-03T16:38:06Z</time></trkpt><trkpt lat="45.8702347521" lon="7.1568279248"><ele>2392.86</ele><time>2014-09-03T16:38:07Z</time></trkpt><trkpt lat="45.8701807726" lon="7.1568235662"><ele>2391.90</ele><time>2014-09-03T16:38:08Z</time></trkpt><trkpt lat="45.8701238595" lon="7.1568362229"><ele>2391.42</ele><time>2014-09-03T16:38:09Z</time></trkpt><trkpt lat="45.8700649347" lon="7.1568508074"><ele>2390.46</ele><time>2014-09-03T16:38:10Z</time></trkpt><trkpt lat="45.8693908621" lon="7.1569623705"><ele>2384.21</ele><time>2014-09-03T16:38:20Z</time></trkpt><trkpt lat="45.8693238068" lon="7.1569411643"><ele>2383.73</ele><time>2014-09-03T16:38:21Z</time></trkpt><trkpt lat="45.8692615293" lon="7.1569005121"><ele>2383.25</ele><time>2014-09-03T16:38:22Z</time></trkpt><trkpt lat="45.8692027722" lon="7.1568375640"><ele>2382.76</ele><time>2014-09-03T16:38:23Z</time></trkpt><trkpt lat="45.8691543248" lon="7.1567593608"><ele>2381.80</ele><time>2014-09-03T16:38:24Z</time></trkpt><trkpt lat="45.8691157680" lon="7.1566642262"><ele>2381.32</ele><time>2014-09-03T16:38:25Z</time></trkpt><trkpt lat="45.8690912090" lon="7.1565600391"><ele>2380.84</ele><time>2014-09-03T16:38:26Z</time></trkpt><trkpt lat="45.8690823242" lon="7.1564507391"><ele>2379.88</ele><time>2014-09-03T16:38:27Z</time></trkpt><trkpt lat="45.8690886106" lon="7.1563383378"><ele>2379.40</ele><time>2014-09-03T16:38:28Z</time></trkpt><trkpt lat="45.8691040333" lon="7.1562276129"><ele>2378.92</ele><time>2014-09-03T16:38:29Z</time></trkpt><trkpt lat="45.8691255748" lon="7.1561194025"><ele>2378.44</ele><time>2014-09-03T16:38:30Z</time></trkpt><trkpt lat="45.8691556659" lon="7.1560147963"><ele>2378.44</ele><time>2014-09-03T16:38:31Z</time></trkpt><trkpt lat="45.8691901155" lon="7.1559111960"><ele>2377.48</ele><time>2014-09-03T16:38:32Z</time></trkpt><trkpt lat="45.8692403231" lon="7.1557107009"><ele>2376.52</ele><time>2014-09-03T16:38:34Z</time></trkpt><trkpt lat="45.8692486212" lon="7.1556150634"><ele>2376.04</ele><time>2014-09-03T16:38:35Z</time></trkpt><trkpt lat="45.8692438435" lon="7.1555196773"><ele>2375.55</ele><time>2014-09-03T16:38:36Z</time></trkpt><trkpt lat="45.8692282531" lon="7.1554244589"><ele>2375.07</ele><time>2014-09-03T16:38:37Z</time></trkpt><trkpt lat="45.8692079689" lon="7.1553361975"><ele>2374.11</ele><time>2014-09-03T16:38:38Z</time></trkpt><trkpt lat="45.8691897802" lon="7.1552486904"><ele>2373.63</ele><time>2014-09-03T16:38:39Z</time></trkpt><trkpt lat="45.8691849187" lon="7.1551620215"><ele>2373.15</ele><time>2014-09-03T16:38:40Z</time></trkpt><trkpt lat="45.8691896964" lon="7.1550756041"><ele>2372.67</ele><time>2014-09-03T16:38:41Z</time></trkpt><trkpt lat="45.8693037741" lon="7.1539810114"><ele>2367.38</ele><time>2014-09-03T16:38:55Z</time></trkpt><trkpt lat="45.8693332784" lon="7.1538749803"><ele>2366.90</ele><time>2014-09-03T16:39:03Z</time></trkpt><trkpt lat="45.8693367150" lon="7.1538179833"><ele>2367.38</ele><time>2014-09-03T16:39:07Z</time></trkpt><trkpt lat="45.8693241421" lon="7.1538069192"><ele>2366.42</ele><time>2014-09-03T16:39:21Z</time></trkpt><trkpt lat="45.8693181910" lon="7.1538197435"><ele>2367.38</ele><time>2014-09-03T16:39:58Z</time></trkpt><trkpt lat="45.8693190292" lon="7.1538022254"><ele>2365.94</ele><time>2014-09-03T16:40:41Z</time></trkpt><trkpt lat="45.8693166822" lon="7.1538028121"><ele>2364.50</ele><time>2014-09-03T16:41:22Z</time></trkpt><trkpt lat="45.8693175204" lon="7.1538076736"><ele>2365.46</ele><time>2014-09-03T16:41:55Z</time></trkpt><trkpt lat="45.8693217114" lon="7.1538092662"><ele>2366.42</ele><time>2014-09-03T16:42:12Z</time></trkpt><trkpt lat="45.8693171851" lon="7.1537989564"><ele>2366.90</ele><time>2014-09-03T16:42:22Z</time></trkpt><trkpt lat="45.8693150897" lon="7.1537925024"><ele>2367.38</ele><time>2014-09-03T16:42:38Z</time></trkpt><trkpt lat="45.8693181071" lon="7.1538013872"><ele>2367.86</ele><time>2014-09-03T16:42:52Z</time></trkpt><trkpt lat="45.8693310991" lon="7.1537979506"><ele>2368.83</ele><time>2014-09-03T16:43:29Z</time></trkpt><trkpt lat="45.8693303447" lon="7.1538316458"><ele>2370.75</ele><time>2014-09-03T16:43:58Z</time></trkpt><trkpt lat="45.8693330269" lon="7.1538170613"><ele>2370.27</ele><time>2014-09-03T16:44:45Z</time></trkpt><trkpt lat="45.8693390619" lon="7.1538130380"><ele>2368.35</ele><time>2014-09-03T16:45:19Z</time></trkpt><trkpt lat="45.8693267405" lon="7.1538261138"><ele>2367.86</ele><time>2014-09-03T16:45:49Z</time></trkpt><trkpt lat="45.8693071268" lon="7.1538313944"><ele>2365.94</ele><time>2014-09-03T16:46:29Z</time></trkpt><trkpt lat="45.8693236392" lon="7.1538142115"><ele>2364.50</ele><time>2014-09-03T16:47:06Z</time></trkpt><trkpt lat="45.8693046961" lon="7.1538117807"><ele>2364.50</ele><time>2014-09-03T16:47:38Z</time></trkpt><trkpt lat="45.8693227172" lon="7.1538094338"><ele>2365.46</ele><time>2014-09-03T16:48:17Z</time></trkpt><trkpt lat="45.8693271596" lon="7.1538267005"><ele>2366.90</ele><time>2014-09-03T16:48:51Z</time></trkpt><trkpt lat="45.8693233877" lon="7.1538082603"><ele>2366.90</ele><time>2014-09-03T16:49:18Z</time></trkpt><trkpt lat="45.8693305962" lon="7.1538101044"><ele>2365.46</ele><time>2014-09-03T16:50:00Z</time></trkpt><trkpt lat="45.8693467733" lon="7.1538309753"><ele>2364.98</ele><time>2014-09-03T16:50:06Z</time></trkpt><trkpt lat="45.8693536464" lon="7.1538598090"><ele>2365.46</ele><time>2014-09-03T16:50:08Z</time></trkpt><trkpt lat="45.8693533950" lon="7.1538803447"><ele>2365.46</ele><time>2014-09-03T16:50:09Z</time></trkpt><trkpt lat="45.8693065401" lon="7.1539192367"><ele>2364.98</ele><time>2014-09-03T16:50:19Z</time></trkpt><trkpt lat="45.8693042770" lon="7.1539148781"><ele>2364.98</ele><time>2014-09-03T16:50:20Z</time></trkpt><trkpt lat="45.8692701627" lon="7.1538542770"><ele>2364.98</ele><time>2014-09-03T16:50:23Z</time></trkpt><trkpt lat="45.8691790514" lon="7.1537399478"><ele>2364.02</ele><time>2014-09-03T16:50:27Z</time></trkpt><trkpt lat="45.8691362198" lon="7.1537334938"><ele>2363.54</ele><time>2014-09-03T16:50:28Z</time></trkpt><trkpt lat="45.8690849226" lon="7.1537473239"><ele>2363.06</ele><time>2014-09-03T16:50:29Z</time></trkpt><trkpt lat="45.8690301888" lon="7.1537717991"><ele>2362.58</ele><time>2014-09-03T16:50:30Z</time></trkpt><trkpt lat="45.8689705096" lon="7.1538013034"><ele>2362.10</ele><time>2014-09-03T16:50:31Z</time></trkpt><trkpt lat="45.8689032029" lon="7.1538318973"><ele>2361.14</ele><time>2014-09-03T16:50:32Z</time></trkpt><trkpt lat="45.8682966884" lon="7.1540898923"><ele>2355.85</ele><time>2014-09-03T16:50:40Z</time></trkpt><trkpt lat="45.8682304714" lon="7.1540986933"><ele>2355.37</ele><time>2014-09-03T16:50:41Z</time></trkpt><trkpt lat="45.8681624103" lon="7.1540897246"><ele>2354.41</ele><time>2014-09-03T16:50:42Z</time></trkpt><trkpt lat="45.8680974506" lon="7.1540638246"><ele>2353.93</ele><time>2014-09-03T16:50:43Z</time></trkpt><trkpt lat="45.8680292219" lon="7.1540223341"><ele>2353.93</ele><time>2014-09-03T16:50:44Z</time></trkpt><trkpt lat="45.8679622505" lon="7.1539583802"><ele>2352.96</ele><time>2014-09-03T16:50:45Z</time></trkpt><trkpt lat="45.8679063432" lon="7.1538827755"><ele>2352.48</ele><time>2014-09-03T16:50:46Z</time></trkpt><trkpt lat="45.8678609133" lon="7.1537847072"><ele>2352.00</ele><time>2014-09-03T16:50:47Z</time></trkpt><trkpt lat="45.8678252064" lon="7.1536536142"><ele>2351.04</ele><time>2014-09-03T16:50:48Z</time></trkpt><trkpt lat="45.8677975461" lon="7.1535121277"><ele>2350.56</ele><time>2014-09-03T16:50:49Z</time></trkpt><trkpt lat="45.8677793574" lon="7.1534184180"><ele>2349.60</ele><time>2014-09-03T16:50:50Z</time></trkpt><trkpt lat="45.8677207679" lon="7.1530557331"><ele>2347.68</ele><time>2014-09-03T16:50:53Z</time></trkpt><trkpt lat="45.8677191753" lon="7.1529417392"><ele>2347.20</ele><time>2014-09-03T16:50:54Z</time></trkpt><trkpt lat="45.8677301556" lon="7.1528228000"><ele>2346.23</ele><time>2014-09-03T16:50:55Z</time></trkpt><trkpt lat="45.8677504398" lon="7.1527067944"><ele>2345.75</ele><time>2014-09-03T16:50:56Z</time></trkpt><trkpt lat="45.8677820396" lon="7.1525843348"><ele>2344.79</ele><time>2014-09-03T16:50:57Z</time></trkpt><trkpt lat="45.8678576443" lon="7.1522459574"><ele>2343.35</ele><time>2014-09-03T16:51:00Z</time></trkpt><trkpt lat="45.8678613324" lon="7.1521522477"><ele>2342.87</ele><time>2014-09-03T16:51:01Z</time></trkpt><trkpt lat="45.8678493463" lon="7.1520654950"><ele>2342.39</ele><time>2014-09-03T16:51:02Z</time></trkpt><trkpt lat="45.8678190038" lon="7.1519817598"><ele>2341.91</ele><time>2014-09-03T16:51:03Z</time></trkpt><trkpt lat="45.8677717298" lon="7.1519077476"><ele>2341.43</ele><time>2014-09-03T16:51:04Z</time></trkpt><trkpt lat="45.8677092846" lon="7.1518435422"><ele>2340.95</ele><time>2014-09-03T16:51:05Z</time></trkpt><trkpt lat="45.8676447440" lon="7.1517874673"><ele>2340.47</ele><time>2014-09-03T16:51:06Z</time></trkpt><trkpt lat="45.8673587535" lon="7.1515280474"><ele>2337.10</ele><time>2014-09-03T16:51:10Z</time></trkpt><trkpt lat="45.8672935423" lon="7.1514923405"><ele>2336.62</ele><time>2014-09-03T16:51:11Z</time></trkpt><trkpt lat="45.8672378026" lon="7.1514884010"><ele>2336.14</ele><time>2014-09-03T16:51:12Z</time></trkpt><trkpt lat="45.8671858348" lon="7.1515015606"><ele>2335.66</ele><time>2014-09-03T16:51:13Z</time></trkpt><trkpt lat="45.8671303466" lon="7.1515254490"><ele>2335.18</ele><time>2014-09-03T16:51:14Z</time></trkpt><trkpt lat="45.8670718409" lon="7.1515598986"><ele>2334.22</ele><time>2014-09-03T16:51:15Z</time></trkpt><trkpt lat="45.8670135867" lon="7.1516034007"><ele>2333.26</ele><time>2014-09-03T16:51:16Z</time></trkpt><trkpt lat="45.8669114951" lon="7.1516634151"><ele>2331.81</ele><time>2014-09-03T16:51:18Z</time></trkpt><trkpt lat="45.8668642212" lon="7.1516508423"><ele>2331.33</ele><time>2014-09-03T16:51:19Z</time></trkpt><trkpt lat="45.8668205515" lon="7.1516059153"><ele>2331.33</ele><time>2014-09-03T16:51:20Z</time></trkpt><trkpt lat="45.8667770494" lon="7.1515423805"><ele>2330.85</ele><time>2014-09-03T16:51:21Z</time></trkpt><trkpt lat="45.8667336311" lon="7.1514826175"><ele>2330.37</ele><time>2014-09-03T16:51:22Z</time></trkpt><trkpt lat="45.8666843455" lon="7.1514325775"><ele>2329.89</ele><time>2014-09-03T16:51:23Z</time></trkpt><trkpt lat="45.8666297793" lon="7.1514060907"><ele>2329.89</ele><time>2014-09-03T16:51:24Z</time></trkpt><trkpt lat="45.8665745426" lon="7.1514080185"><ele>2328.93</ele><time>2014-09-03T16:51:25Z</time></trkpt><trkpt lat="45.8665254246" lon="7.1514397860"><ele>2328.45</ele><time>2014-09-03T16:51:26Z</time></trkpt><trkpt lat="45.8664834313" lon="7.1514969505"><ele>2327.97</ele><time>2014-09-03T16:51:27Z</time></trkpt><trkpt lat="45.8664461318" lon="7.1515691187"><ele>2327.49</ele><time>2014-09-03T16:51:28Z</time></trkpt><trkpt lat="45.8664090838" lon="7.1516496688"><ele>2326.53</ele><time>2014-09-03T16:51:29Z</time></trkpt><trkpt lat="45.8663719520" lon="7.1517361701"><ele>2325.57</ele><time>2014-09-03T16:51:30Z</time></trkpt><trkpt lat="45.8657739032" lon="7.1529201977"><ele>2317.40</ele><time>2014-09-03T16:51:41Z</time></trkpt><trkpt lat="45.8653853182" lon="7.1536339168"><ele>2312.11</ele><time>2014-09-03T16:51:48Z</time></trkpt><trkpt lat="45.8653288241" lon="7.1537071746"><ele>2311.15</ele><time>2014-09-03T16:51:49Z</time></trkpt><trkpt lat="45.8652640320" lon="7.1537710447"><ele>2310.67</ele><time>2014-09-03T16:51:50Z</time></trkpt><trkpt lat="45.8647397440" lon="7.1541595459"><ele>2305.38</ele><time>2014-09-03T16:51:57Z</time></trkpt><trkpt lat="45.8646622952" lon="7.1541915648"><ele>2304.42</ele><time>2014-09-03T16:51:58Z</time></trkpt><trkpt lat="45.8643639833" lon="7.1542611346"><ele>2302.49</ele><time>2014-09-03T16:52:02Z</time></trkpt><trkpt lat="45.8643082436" lon="7.1542942431"><ele>2302.01</ele><time>2014-09-03T16:52:03Z</time></trkpt><trkpt lat="45.8642677590" lon="7.1543493960"><ele>2301.53</ele><time>2014-09-03T16:52:04Z</time></trkpt><trkpt lat="45.8642447088" lon="7.1544263419"><ele>2301.53</ele><time>2014-09-03T16:52:05Z</time></trkpt><trkpt lat="45.8642398473" lon="7.1545120887"><ele>2301.05</ele><time>2014-09-03T16:52:06Z</time></trkpt><trkpt lat="45.8642506599" lon="7.1545923874"><ele>2300.57</ele><time>2014-09-03T16:52:07Z</time></trkpt><trkpt lat="45.8642683458" lon="7.1546684951"><ele>2300.09</ele><time>2014-09-03T16:52:08Z</time></trkpt><trkpt lat="45.8643996902" lon="7.1551711578"><ele>2296.25</ele><time>2014-09-03T16:52:14Z</time></trkpt><trkpt lat="45.8643982653" lon="7.1552615985"><ele>2295.77</ele><time>2014-09-03T16:52:15Z</time></trkpt><trkpt lat="45.8643838484" lon="7.1553569008"><ele>2294.80</ele><time>2014-09-03T16:52:16Z</time></trkpt><trkpt lat="45.8643613011" lon="7.1554493532"><ele>2294.32</ele><time>2014-09-03T16:52:17Z</time></trkpt><trkpt lat="45.8643352333" lon="7.1555381175"><ele>2293.84</ele><time>2014-09-03T16:52:18Z</time></trkpt><trkpt lat="45.8642810024" lon="7.1556808613"><ele>2292.88</ele><time>2014-09-03T16:52:20Z</time></trkpt><trkpt lat="45.8642456308" lon="7.1557211783"><ele>2292.40</ele><time>2014-09-03T16:52:21Z</time></trkpt><trkpt lat="45.8642029669" lon="7.1557337511"><ele>2291.92</ele><time>2014-09-03T16:52:22Z</time></trkpt><trkpt lat="45.8641582076" lon="7.1557149757"><ele>2291.44</ele><time>2014-09-03T16:52:23Z</time></trkpt><trkpt lat="45.8641151246" lon="7.1556703839"><ele>2290.96</ele><time>2014-09-03T16:52:24Z</time></trkpt><trkpt lat="45.8640754782" lon="7.1556130517"><ele>2290.48</ele><time>2014-09-03T16:52:25Z</time></trkpt><trkpt lat="45.8640312217" lon="7.1555591561"><ele>2290.48</ele><time>2014-09-03T16:52:26Z</time></trkpt><trkpt lat="45.8639789186" lon="7.1555203479"><ele>2290.00</ele><time>2014-09-03T16:52:27Z</time></trkpt><trkpt lat="45.8639210835" lon="7.1554973815"><ele>2289.52</ele><time>2014-09-03T16:52:28Z</time></trkpt><trkpt lat="45.8635890763" lon="7.1554252133"><ele>2286.63</ele><time>2014-09-03T16:52:33Z</time></trkpt><trkpt lat="45.8635311574" lon="7.1554269735"><ele>2286.15</ele><time>2014-09-03T16:52:34Z</time></trkpt><trkpt lat="45.8634819556" lon="7.1554399654"><ele>2286.15</ele><time>2014-09-03T16:52:35Z</time></trkpt><trkpt lat="45.8634397108" lon="7.1554705594"><ele>2285.67</ele><time>2014-09-03T16:52:36Z</time></trkpt><trkpt lat="45.8634141460" lon="7.1555143967"><ele>2285.67</ele><time>2014-09-03T16:52:37Z</time></trkpt><trkpt lat="45.8633973822" lon="7.1555732377"><ele>2285.19</ele><time>2014-09-03T16:52:38Z</time></trkpt><trkpt lat="45.8633910120" lon="7.1556417178"><ele>2285.19</ele><time>2014-09-03T16:52:39Z</time></trkpt><trkpt lat="45.8633971307" lon="7.1557138860"><ele>2284.71</ele><time>2014-09-03T16:52:40Z</time></trkpt><trkpt lat="45.8634193428" lon="7.1557819471"><ele>2284.71</ele><time>2014-09-03T16:52:41Z</time></trkpt><trkpt lat="45.8634575643" lon="7.1558328252"><ele>2284.23</ele><time>2014-09-03T16:52:42Z</time></trkpt><trkpt lat="45.8635081910" lon="7.1558596473"><ele>2283.75</ele><time>2014-09-03T16:52:43Z</time></trkpt><trkpt lat="45.8635656070" lon="7.1558709629"><ele>2283.27</ele><time>2014-09-03T16:52:44Z</time></trkpt><trkpt lat="45.8636208437" lon="7.1558813564"><ele>2282.79</ele><time>2014-09-03T16:52:45Z</time></trkpt><trkpt lat="45.8636790980" lon="7.1558982041"><ele>2282.31</ele><time>2014-09-03T16:52:46Z</time></trkpt><trkpt lat="45.8637364302" lon="7.1559271216"><ele>2281.83</ele><time>2014-09-03T16:52:47Z</time></trkpt><trkpt lat="45.8637895714" lon="7.1559694503"><ele>2281.83</ele><time>2014-09-03T16:52:48Z</time></trkpt><trkpt lat="45.8638373483" lon="7.1560261957"><ele>2281.35</ele><time>2014-09-03T16:52:49Z</time></trkpt><trkpt lat="45.8638811018" lon="7.1560919937"><ele>2280.87</ele><time>2014-09-03T16:52:50Z</time></trkpt><trkpt lat="45.8639239334" lon="7.1561647486"><ele>2280.87</ele><time>2014-09-03T16:52:51Z</time></trkpt><trkpt lat="45.8639656752" lon="7.1562437061"><ele>2280.38</ele><time>2014-09-03T16:52:52Z</time></trkpt><trkpt lat="45.8640917391" lon="7.1564996056"><ele>2278.94</ele><time>2014-09-03T16:52:55Z</time></trkpt><trkpt lat="45.8641195670" lon="7.1565931477"><ele>2278.46</ele><time>2014-09-03T16:52:56Z</time></trkpt><trkpt lat="45.8641385939" lon="7.1566879470"><ele>2277.98</ele><time>2014-09-03T16:52:57Z</time></trkpt><trkpt lat="45.8641547710" lon="7.1567786392"><ele>2277.98</ele><time>2014-09-03T16:52:58Z</time></trkpt><trkpt lat="45.8641749714" lon="7.1568702534"><ele>2277.50</ele><time>2014-09-03T16:52:59Z</time></trkpt><trkpt lat="45.8641977701" lon="7.1569594368"><ele>2276.54</ele><time>2014-09-03T16:53:00Z</time></trkpt><trkpt lat="45.8642599639" lon="7.1572132409"><ele>2274.62</ele><time>2014-09-03T16:53:03Z</time></trkpt><trkpt lat="45.8642920665" lon="7.1572934557"><ele>2274.14</ele><time>2014-09-03T16:53:04Z</time></trkpt><trkpt lat="45.8643350657" lon="7.1573615167"><ele>2273.66</ele><time>2014-09-03T16:53:05Z</time></trkpt><trkpt lat="45.8643867821" lon="7.1574204415"><ele>2273.17</ele><time>2014-09-03T16:53:06Z</time></trkpt><trkpt lat="45.8644427732" lon="7.1574723255"><ele>2272.21</ele><time>2014-09-03T16:53:07Z</time></trkpt><trkpt lat="45.8644965850" lon="7.1575160790"><ele>2271.73</ele><time>2014-09-03T16:53:08Z</time></trkpt><trkpt lat="45.8645471279" lon="7.1575592458"><ele>2271.25</ele><time>2014-09-03T16:53:09Z</time></trkpt><trkpt lat="45.8647794742" lon="7.1577640995"><ele>2268.85</ele><time>2014-09-03T16:53:14Z</time></trkpt><trkpt lat="45.8654599171" lon="7.1582292113"><ele>2263.08</ele><time>2014-09-03T16:53:25Z</time></trkpt><trkpt lat="45.8654944506" lon="7.1582919918"><ele>2262.60</ele><time>2014-09-03T16:53:26Z</time></trkpt><trkpt lat="45.8655135613" lon="7.1583720390"><ele>2262.12</ele><time>2014-09-03T16:53:27Z</time></trkpt><trkpt lat="45.8655125555" lon="7.1584632341"><ele>2261.64</ele><time>2014-09-03T16:53:28Z</time></trkpt><trkpt lat="45.8654935285" lon="7.1585578658"><ele>2261.16</ele><time>2014-09-03T16:53:29Z</time></trkpt><trkpt lat="45.8654692210" lon="7.1586561017"><ele>2260.68</ele><time>2014-09-03T16:53:30Z</time></trkpt><trkpt lat="45.8653767686" lon="7.1590705030"><ele>2258.27</ele><time>2014-09-03T16:53:34Z</time></trkpt><trkpt lat="45.8653360326" lon="7.1591481194"><ele>2257.79</ele><time>2014-09-03T16:53:35Z</time></trkpt><trkpt lat="45.8652787004" lon="7.1591941360"><ele>2257.31</ele><time>2014-09-03T16:53:36Z</time></trkpt><trkpt lat="45.8652109746" lon="7.1592110675"><ele>2256.83</ele><time>2014-09-03T16:53:37Z</time></trkpt><trkpt lat="45.8651386388" lon="7.1592163481"><ele>2256.35</ele><time>2014-09-03T16:53:38Z</time></trkpt><trkpt lat="45.8650609385" lon="7.1592134144"><ele>2255.87</ele><time>2014-09-03T16:53:39Z</time></trkpt><trkpt lat="45.8649834059" lon="7.1592088882"><ele>2255.39</ele><time>2014-09-03T16:53:40Z</time></trkpt><trkpt lat="45.8642462175" lon="7.1591169387"><ele>2249.62</ele><time>2014-09-03T16:53:49Z</time></trkpt><trkpt lat="45.8641784918" lon="7.1591347083"><ele>2249.14</ele><time>2014-09-03T16:53:50Z</time></trkpt><trkpt lat="45.8641191479" lon="7.1591779590"><ele>2248.18</ele><time>2014-09-03T16:53:51Z</time></trkpt><trkpt lat="45.8640047349" lon="7.1592900250"><ele>2247.22</ele><time>2014-09-03T16:53:53Z</time></trkpt><trkpt lat="45.8639355004" lon="7.1593299229"><ele>2246.74</ele><time>2014-09-03T16:53:54Z</time></trkpt><trkpt lat="45.8638646733" lon="7.1593515482"><ele>2246.26</ele><time>2014-09-03T16:53:55Z</time></trkpt><trkpt lat="45.8637918346" lon="7.1593611874"><ele>2245.78</ele><time>2014-09-03T16:53:56Z</time></trkpt><trkpt lat="45.8637164813" lon="7.1593689825"><ele>2245.30</ele><time>2014-09-03T16:53:57Z</time></trkpt><trkpt lat="45.8632111363" lon="7.1594404802"><ele>2241.45</ele><time>2014-09-03T16:54:04Z</time></trkpt><trkpt lat="45.8631579112" lon="7.1594735887"><ele>2240.97</ele><time>2014-09-03T16:54:05Z</time></trkpt><trkpt lat="45.8631245513" lon="7.1595274843"><ele>2240.01</ele><time>2014-09-03T16:54:06Z</time></trkpt><trkpt lat="45.8631100506" lon="7.1596014965"><ele>2239.53</ele><time>2014-09-03T16:54:07Z</time></trkpt><trkpt lat="45.8631046861" lon="7.1596920211"><ele>2239.05</ele><time>2014-09-03T16:54:08Z</time></trkpt><trkpt lat="45.8631017525" lon="7.1597900055"><ele>2238.57</ele><time>2014-09-03T16:54:09Z</time></trkpt><trkpt lat="45.8630870841" lon="7.1601869725"><ele>2236.16</ele><time>2014-09-03T16:54:13Z</time></trkpt><trkpt lat="45.8630607650" lon="7.1602660976"><ele>2235.68</ele><time>2014-09-03T16:54:14Z</time></trkpt><trkpt lat="45.8630117308" lon="7.1603339911"><ele>2235.20</ele><time>2014-09-03T16:54:15Z</time></trkpt><trkpt lat="45.8629518840" lon="7.1603873838"><ele>2234.72</ele><time>2014-09-03T16:54:16Z</time></trkpt><trkpt lat="45.8628890198" lon="7.1604443807"><ele>2234.24</ele><time>2014-09-03T16:54:17Z</time></trkpt><trkpt lat="45.8628271613" lon="7.1605116036"><ele>2233.28</ele><time>2014-09-03T16:54:18Z</time></trkpt><trkpt lat="45.8627685718" lon="7.1605891362"><ele>2232.80</ele><time>2014-09-03T16:54:19Z</time></trkpt><trkpt lat="45.8627106529" lon="7.1606660821"><ele>2231.84</ele><time>2014-09-03T16:54:20Z</time></trkpt><trkpt lat="45.8626485430" lon="7.1607363224"><ele>2231.36</ele><time>2014-09-03T16:54:21Z</time></trkpt><trkpt lat="45.8625802305" lon="7.1607956663"><ele>2230.88</ele><time>2014-09-03T16:54:22Z</time></trkpt><trkpt lat="45.8625074755" lon="7.1608368214"><ele>2229.92</ele><time>2014-09-03T16:54:23Z</time></trkpt><trkpt lat="45.8624321222" lon="7.1608606260"><ele>2229.43</ele><time>2014-09-03T16:54:24Z</time></trkpt><trkpt lat="45.8623557631" lon="7.1608680859"><ele>2228.95</ele><time>2014-09-03T16:54:25Z</time></trkpt><trkpt lat="45.8622779790" lon="7.1608679183"><ele>2227.99</ele><time>2014-09-03T16:54:26Z</time></trkpt><trkpt lat="45.8619802538" lon="7.1608584467"><ele>2225.11</ele><time>2014-09-03T16:54:30Z</time></trkpt><trkpt lat="45.8619169705" lon="7.1608230751"><ele>2224.63</ele><time>2014-09-03T16:54:31Z</time></trkpt><trkpt lat="45.8618557826" lon="7.1607709397"><ele>2224.15</ele><time>2014-09-03T16:54:32Z</time></trkpt><trkpt lat="45.8617925830" lon="7.1607182175"><ele>2223.67</ele><time>2014-09-03T16:54:33Z</time></trkpt><trkpt lat="45.8617292996" lon="7.1606714465"><ele>2222.71</ele><time>2014-09-03T16:54:34Z</time></trkpt><trkpt lat="45.8614972886" lon="7.1605043951"><ele>2220.78</ele><time>2014-09-03T16:54:38Z</time></trkpt><trkpt lat="45.8613376133" lon="7.1604330651"><ele>2219.82</ele><time>2014-09-03T16:54:41Z</time></trkpt><trkpt lat="45.8613028284" lon="7.1604032256"><ele>2219.34</ele><time>2014-09-03T16:54:42Z</time></trkpt><trkpt lat="45.8612706419" lon="7.1603658423"><ele>2218.86</ele><time>2014-09-03T16:54:43Z</time></trkpt><trkpt lat="45.8612495195" lon="7.1603279561"><ele>2218.86</ele><time>2014-09-03T16:54:44Z</time></trkpt><trkpt lat="45.8612342644" lon="7.1602873039"><ele>2218.38</ele><time>2014-09-03T16:54:45Z</time></trkpt><trkpt lat="45.8612249605" lon="7.1602496691"><ele>2217.90</ele><time>2014-09-03T16:54:46Z</time></trkpt><trkpt lat="45.8612189256" lon="7.1602137946"><ele>2217.90</ele><time>2014-09-03T16:54:47Z</time></trkpt><trkpt lat="45.8612165786" lon="7.1601788420"><ele>2217.90</ele><time>2014-09-03T16:54:48Z</time></trkpt><trkpt lat="45.8612193447" lon="7.1601557918"><ele>2217.90</ele><time>2014-09-03T16:54:49Z</time></trkpt><trkpt lat="45.8612275589" lon="7.1601426322"><ele>2215.50</ele><time>2014-09-03T16:55:00Z</time></trkpt><trkpt lat="45.8612295706" lon="7.1601105295"><ele>2216.46</ele><time>2014-09-03T16:55:29Z</time></trkpt><trkpt lat="45.8612281457" lon="7.1600854676"><ele>2216.46</ele><time>2014-09-03T16:55:30Z</time></trkpt><trkpt lat="45.8612324204" lon="7.1600549575"><ele>2216.46</ele><time>2014-09-03T16:55:31Z</time></trkpt><trkpt lat="45.8612439036" lon="7.1600211784"><ele>2216.46</ele><time>2014-09-03T16:55:32Z</time></trkpt><trkpt lat="45.8612616733" lon="7.1599830408"><ele>2216.46</ele><time>2014-09-03T16:55:33Z</time></trkpt><trkpt lat="45.8612848911" lon="7.1599445678"><ele>2215.98</ele><time>2014-09-03T16:55:34Z</time></trkpt><trkpt lat="45.8613153175" lon="7.1599044185"><ele>2215.98</ele><time>2014-09-03T16:55:35Z</time></trkpt><trkpt lat="45.8613706380" lon="7.1598326694"><ele>2215.98</ele><time>2014-09-03T16:55:37Z</time></trkpt><trkpt lat="45.8613999747" lon="7.1597966272"><ele>2215.98</ele><time>2014-09-03T16:55:38Z</time></trkpt><trkpt lat="45.8617535233" lon="7.1592733450"><ele>2215.01</ele><time>2014-09-03T16:55:52Z</time></trkpt><trkpt lat="45.8617461473" lon="7.1592165157"><ele>2214.53</ele><time>2014-09-03T16:55:53Z</time></trkpt><trkpt lat="45.8617129549" lon="7.1590555832"><ele>2214.53</ele><time>2014-09-03T16:55:56Z</time></trkpt><trkpt lat="45.8616972808" lon="7.1590063814"><ele>2214.53</ele><time>2014-09-03T16:55:57Z</time></trkpt><trkpt lat="45.8616756555" lon="7.1589548327"><ele>2214.05</ele><time>2014-09-03T16:55:58Z</time></trkpt><trkpt lat="45.8616440557" lon="7.1589142643"><ele>2214.05</ele><time>2014-09-03T16:55:59Z</time></trkpt><trkpt lat="45.8616067562" lon="7.1588900406"><ele>2214.05</ele><time>2014-09-03T16:56:00Z</time></trkpt><trkpt lat="45.8615642600" lon="7.1588799823"><ele>2213.57</ele><time>2014-09-03T16:56:01Z</time></trkpt><trkpt lat="45.8615141362" lon="7.1588778030"><ele>2213.09</ele><time>2014-09-03T16:56:02Z</time></trkpt><trkpt lat="45.8613592386" lon="7.1588620450"><ele>2211.17</ele><time>2014-09-03T16:56:05Z</time></trkpt><trkpt lat="45.8613057621" lon="7.1588346362"><ele>2210.69</ele><time>2014-09-03T16:56:06Z</time></trkpt><trkpt lat="45.8612531237" lon="7.1587968338"><ele>2210.21</ele><time>2014-09-03T16:56:07Z</time></trkpt><trkpt lat="45.8611998986" lon="7.1587605402"><ele>2210.21</ele><time>2014-09-03T16:56:08Z</time></trkpt><trkpt lat="45.8611434884" lon="7.1587355621"><ele>2209.73</ele><time>2014-09-03T16:56:09Z</time></trkpt><trkpt lat="45.8610864915" lon="7.1587255038"><ele>2209.25</ele><time>2014-09-03T16:56:10Z</time></trkpt><trkpt lat="45.8610264771" lon="7.1587274317"><ele>2208.77</ele><time>2014-09-03T16:56:11Z</time></trkpt><trkpt lat="45.8609716594" lon="7.1587321255"><ele>2207.81</ele><time>2014-09-03T16:56:12Z</time></trkpt><trkpt lat="45.8608618565" lon="7.1587252524"><ele>2206.84</ele><time>2014-09-03T16:56:14Z</time></trkpt><trkpt lat="45.8608102240" lon="7.1587036271"><ele>2205.88</ele><time>2014-09-03T16:56:15Z</time></trkpt><trkpt lat="45.8607598487" lon="7.1586694289"><ele>2205.40</ele><time>2014-09-03T16:56:16Z</time></trkpt><trkpt lat="45.8607129101" lon="7.1586240828"><ele>2205.40</ele><time>2014-09-03T16:56:17Z</time></trkpt><trkpt lat="45.8606720064" lon="7.1585668344"><ele>2204.44</ele><time>2014-09-03T16:56:18Z</time></trkpt><trkpt lat="45.8606352936" lon="7.1585076582"><ele>2203.96</ele><time>2014-09-03T16:56:19Z</time></trkpt><trkpt lat="45.8604898676" lon="7.1582749765"><ele>2202.04</ele><time>2014-09-03T16:56:23Z</time></trkpt><trkpt lat="45.8604674879" lon="7.1582118608"><ele>2201.56</ele><time>2014-09-03T16:56:24Z</time></trkpt><trkpt lat="45.8604563400" lon="7.1581407823"><ele>2201.08</ele><time>2014-09-03T16:56:25Z</time></trkpt><trkpt lat="45.8604613692" lon="7.1580653451"><ele>2200.59</ele><time>2014-09-03T16:56:26Z</time></trkpt><trkpt lat="45.8604842518" lon="7.1579889860"><ele>2200.11</ele><time>2014-09-03T16:56:27Z</time></trkpt><trkpt lat="45.8605176117" lon="7.1579316538"><ele>2199.63</ele><time>2014-09-03T16:56:28Z</time></trkpt><trkpt lat="45.8605659753" lon="7.1578723099"><ele>2198.67</ele><time>2014-09-03T16:56:29Z</time></trkpt><trkpt lat="45.8606192004" lon="7.1578164026"><ele>2198.19</ele><time>2014-09-03T16:56:30Z</time></trkpt><trkpt lat="45.8611652814" lon="7.1573282406"><ele>2192.90</ele><time>2014-09-03T16:56:39Z</time></trkpt><trkpt lat="45.8612045925" lon="7.1572604310"><ele>2192.42</ele><time>2014-09-03T16:56:40Z</time></trkpt><trkpt lat="45.8612323366" lon="7.1571760252"><ele>2191.46</ele><time>2014-09-03T16:56:41Z</time></trkpt><trkpt lat="45.8612545487" lon="7.1570834052"><ele>2190.98</ele><time>2014-09-03T16:56:42Z</time></trkpt><trkpt lat="45.8612757549" lon="7.1569886897"><ele>2190.50</ele><time>2014-09-03T16:56:43Z</time></trkpt><trkpt lat="45.8614357654" lon="7.1562639065"><ele>2186.66</ele><time>2014-09-03T16:56:51Z</time></trkpt><trkpt lat="45.8614342567" lon="7.1561797522"><ele>2186.66</ele><time>2014-09-03T16:56:52Z</time></trkpt><trkpt lat="45.8614221029" lon="7.1560928319"><ele>2186.18</ele><time>2014-09-03T16:56:53Z</time></trkpt><trkpt lat="45.8614003938" lon="7.1560126171"><ele>2185.69</ele><time>2014-09-03T16:56:54Z</time></trkpt><trkpt lat="45.8613730688" lon="7.1559380181"><ele>2185.21</ele><time>2014-09-03T16:56:55Z</time></trkpt><trkpt lat="45.8613409661" lon="7.1558653470"><ele>2184.25</ele><time>2014-09-03T16:56:56Z</time></trkpt><trkpt lat="45.8612976316" lon="7.1557998005"><ele>2183.77</ele><time>2014-09-03T16:56:57Z</time></trkpt><trkpt lat="45.8612437360" lon="7.1557473298"><ele>2182.81</ele><time>2014-09-03T16:56:58Z</time></trkpt><trkpt lat="45.8611813746" lon="7.1557067614"><ele>2182.33</ele><time>2014-09-03T16:56:59Z</time></trkpt><trkpt lat="45.8611215279" lon="7.1556650195"><ele>2181.85</ele><time>2014-09-03T16:57:00Z</time></trkpt><trkpt lat="45.8610726614" lon="7.1556092799"><ele>2181.37</ele><time>2014-09-03T16:57:01Z</time></trkpt><trkpt lat="45.8610302489" lon="7.1555412188"><ele>2180.41</ele><time>2014-09-03T16:57:02Z</time></trkpt><trkpt lat="45.8609842323" lon="7.1554684639"><ele>2179.93</ele><time>2014-09-03T16:57:03Z</time></trkpt><trkpt lat="45.8609392215" lon="7.1554181725"><ele>2179.45</ele><time>2014-09-03T16:57:04Z</time></trkpt><trkpt lat="45.8608889300" lon="7.1553765982"><ele>2178.97</ele><time>2014-09-03T16:57:05Z</time></trkpt><trkpt lat="45.8608228806" lon="7.1553312521"><ele>2178.00</ele><time>2014-09-03T16:57:06Z</time></trkpt><trkpt lat="45.8601130173" lon="7.1549678966"><ele>2171.76</ele><time>2014-09-03T16:57:18Z</time></trkpt><trkpt lat="45.8599920664" lon="7.1548947226"><ele>2170.79</ele><time>2014-09-03T16:57:20Z</time></trkpt><trkpt lat="45.8599368297" lon="7.1548475325"><ele>2170.79</ele><time>2014-09-03T16:57:21Z</time></trkpt><trkpt lat="45.8598865382" lon="7.1547927149"><ele>2170.31</ele><time>2014-09-03T16:57:22Z</time></trkpt><trkpt lat="45.8598421980" lon="7.1547311079"><ele>2169.83</ele><time>2014-09-03T16:57:23Z</time></trkpt><trkpt lat="45.8598018810" lon="7.1546647232"><ele>2169.35</ele><time>2014-09-03T16:57:24Z</time></trkpt><trkpt lat="45.8597595524" lon="7.1546013560"><ele>2168.87</ele><time>2014-09-03T16:57:25Z</time></trkpt><trkpt lat="45.8597099315" lon="7.1545477957"><ele>2168.39</ele><time>2014-09-03T16:57:26Z</time></trkpt><trkpt lat="45.8596537728" lon="7.1545032039"><ele>2167.43</ele><time>2014-09-03T16:57:27Z</time></trkpt><trkpt lat="45.8595901541" lon="7.1544661559"><ele>2166.95</ele><time>2014-09-03T16:57:28Z</time></trkpt><trkpt lat="45.8591894992" lon="7.1542435326"><ele>2163.58</ele><time>2014-09-03T16:57:34Z</time></trkpt><trkpt lat="45.8591346815" lon="7.1541915648"><ele>2162.62</ele><time>2014-09-03T16:57:35Z</time></trkpt><trkpt lat="45.8590858150" lon="7.1541278623"><ele>2162.14</ele><time>2014-09-03T16:57:36Z</time></trkpt><trkpt lat="45.8590408042" lon="7.1540552750"><ele>2161.18</ele><time>2014-09-03T16:57:37Z</time></trkpt><trkpt lat="45.8589997329" lon="7.1539747249"><ele>2160.70</ele><time>2014-09-03T16:57:38Z</time></trkpt><trkpt lat="45.8589626849" lon="7.1538844518"><ele>2159.74</ele><time>2014-09-03T16:57:39Z</time></trkpt><trkpt lat="45.8589283191" lon="7.1537901554"><ele>2159.26</ele><time>2014-09-03T16:57:40Z</time></trkpt><trkpt lat="45.8588969707" lon="7.1536949370"><ele>2158.78</ele><time>2014-09-03T16:57:41Z</time></trkpt><trkpt lat="45.8588654548" lon="7.1536083519"><ele>2157.82</ele><time>2014-09-03T16:57:42Z</time></trkpt><trkpt lat="45.8588277362" lon="7.1535310708"><ele>2157.34</ele><time>2014-09-03T16:57:43Z</time></trkpt><trkpt lat="45.8587849047" lon="7.1534638479"><ele>2156.86</ele><time>2014-09-03T16:57:44Z</time></trkpt><trkpt lat="45.8587385528" lon="7.1534078568"><ele>2155.89</ele><time>2014-09-03T16:57:45Z</time></trkpt><trkpt lat="45.8586916141" lon="7.1533577330"><ele>2155.41</ele><time>2014-09-03T16:57:46Z</time></trkpt><trkpt lat="45.8586011734" lon="7.1532518696"><ele>2154.45</ele><time>2014-09-03T16:57:48Z</time></trkpt><trkpt lat="45.8585634548" lon="7.1531900112"><ele>2153.97</ele><time>2014-09-03T16:57:49Z</time></trkpt><trkpt lat="45.8585320227" lon="7.1531165019"><ele>2153.01</ele><time>2014-09-03T16:57:50Z</time></trkpt><trkpt lat="45.8585063741" lon="7.1530331019"><ele>2152.53</ele><time>2014-09-03T16:57:51Z</time></trkpt><trkpt lat="45.8584876824" lon="7.1529383864"><ele>2152.05</ele><time>2014-09-03T16:57:52Z</time></trkpt><trkpt lat="45.8584783785" lon="7.1528348699"><ele>2151.57</ele><time>2014-09-03T16:57:53Z</time></trkpt><trkpt lat="45.8584817313" lon="7.1527230553"><ele>2150.61</ele><time>2014-09-03T16:57:54Z</time></trkpt><trkpt lat="45.8584927116" lon="7.1526038647"><ele>2150.13</ele><time>2014-09-03T16:57:55Z</time></trkpt><trkpt lat="45.8585330285" lon="7.1519485675"><ele>2145.32</ele><time>2014-09-03T16:58:01Z</time></trkpt><trkpt lat="45.8585146721" lon="7.1518522594"><ele>2144.36</ele><time>2014-09-03T16:58:02Z</time></trkpt><trkpt lat="45.8584843297" lon="7.1517591365"><ele>2143.88</ele><time>2014-09-03T16:58:03Z</time></trkpt><trkpt lat="45.8583829086" lon="7.1514431387"><ele>2140.99</ele><time>2014-09-03T16:58:06Z</time></trkpt><trkpt lat="45.8583618701" lon="7.1513185836"><ele>2140.03</ele><time>2014-09-03T16:58:07Z</time></trkpt><trkpt lat="45.8581827488" lon="7.1498675086"><ele>2129.94</ele><time>2014-09-03T16:58:17Z</time></trkpt><trkpt lat="45.8581194654" lon="7.1489957906"><ele>2125.61</ele><time>2014-09-03T16:58:25Z</time></trkpt><trkpt lat="45.8581049647" lon="7.1488896757"><ele>2125.13</ele><time>2014-09-03T16:58:26Z</time></trkpt><trkpt lat="45.8578602131" lon="7.1474961005"><ele>2116.00</ele><time>2014-09-03T16:58:38Z</time></trkpt><trkpt lat="45.8577028010" lon="7.1466824692"><ele>2112.15</ele><time>2014-09-03T16:58:46Z</time></trkpt><trkpt lat="45.8576693572" lon="7.1465937886"><ele>2111.67</ele><time>2014-09-03T16:58:47Z</time></trkpt><trkpt lat="45.8576261904" lon="7.1465102211"><ele>2111.19</ele><time>2014-09-03T16:58:48Z</time></trkpt><trkpt lat="45.8575757314" lon="7.1464295033"><ele>2110.71</ele><time>2014-09-03T16:58:49Z</time></trkpt><trkpt lat="45.8575142920" lon="7.1463410743"><ele>2109.75</ele><time>2014-09-03T16:58:50Z</time></trkpt><trkpt lat="45.8572057541" lon="7.1458909661"><ele>2105.42</ele><time>2014-09-03T16:58:56Z</time></trkpt><trkpt lat="45.8571619168" lon="7.1458045486"><ele>2104.94</ele><time>2014-09-03T16:58:57Z</time></trkpt><trkpt lat="45.8571245335" lon="7.1457131021"><ele>2104.46</ele><time>2014-09-03T16:58:58Z</time></trkpt><trkpt lat="45.8570924308" lon="7.1456166264"><ele>2103.98</ele><time>2014-09-03T16:58:59Z</time></trkpt><trkpt lat="45.8570611663" lon="7.1455235872"><ele>2103.50</ele><time>2014-09-03T16:59:00Z</time></trkpt><trkpt lat="45.8569993917" lon="7.1453593019"><ele>2102.54</ele><time>2014-09-03T16:59:02Z</time></trkpt><trkpt lat="45.8569603320" lon="7.1452940907"><ele>2101.58</ele><time>2014-09-03T16:59:03Z</time></trkpt><trkpt lat="45.8569099568" lon="7.1452401113"><ele>2101.10</ele><time>2014-09-03T16:59:04Z</time></trkpt><trkpt lat="45.8568492718" lon="7.1452007163"><ele>2100.62</ele><time>2014-09-03T16:59:05Z</time></trkpt><trkpt lat="45.8567830548" lon="7.1451735590"><ele>2100.14</ele><time>2014-09-03T16:59:06Z</time></trkpt><trkpt lat="45.8567116410" lon="7.1451492514"><ele>2099.66</ele><time>2014-09-03T16:59:07Z</time></trkpt><trkpt lat="45.8558217343" lon="7.1447067708"><ele>2092.93</ele><time>2014-09-03T16:59:19Z</time></trkpt><trkpt lat="45.8557590377" lon="7.1446788590"><ele>2092.45</ele><time>2014-09-03T16:59:20Z</time></trkpt><trkpt lat="45.8555880468" lon="7.1445918549"><ele>2091.00</ele><time>2014-09-03T16:59:23Z</time></trkpt><trkpt lat="45.8555384260" lon="7.1445432398"><ele>2090.52</ele><time>2014-09-03T16:59:24Z</time></trkpt><trkpt lat="45.8554955106" lon="7.1444839798"><ele>2090.04</ele><time>2014-09-03T16:59:25Z</time></trkpt><trkpt lat="45.8554539364" lon="7.1444280725"><ele>2089.56</ele><time>2014-09-03T16:59:26Z</time></trkpt><trkpt lat="45.8554084226" lon="7.1443924494"><ele>2089.08</ele><time>2014-09-03T16:59:27Z</time></trkpt><trkpt lat="45.8553605620" lon="7.1443835646"><ele>2088.60</ele><time>2014-09-03T16:59:28Z</time></trkpt><trkpt lat="45.8553178143" lon="7.1444079559"><ele>2088.12</ele><time>2014-09-03T16:59:29Z</time></trkpt><trkpt lat="45.8552847058" lon="7.1444621030"><ele>2087.16</ele><time>2014-09-03T16:59:30Z</time></trkpt><trkpt lat="45.8552655112" lon="7.1445320081"><ele>2086.68</ele><time>2014-09-03T16:59:31Z</time></trkpt><trkpt lat="45.8552685287" lon="7.1446075290"><ele>2086.20</ele><time>2014-09-03T16:59:32Z</time></trkpt><trkpt lat="45.8552943449" lon="7.1446683817"><ele>2085.72</ele><time>2014-09-03T16:59:33Z</time></trkpt><trkpt lat="45.8553381823" lon="7.1447103750"><ele>2084.76</ele><time>2014-09-03T16:59:34Z</time></trkpt><trkpt lat="45.8553911559" lon="7.1447344311"><ele>2084.28</ele><time>2014-09-03T16:59:35Z</time></trkpt><trkpt lat="45.8554473147" lon="7.1447535418"><ele>2083.31</ele><time>2014-09-03T16:59:36Z</time></trkpt><trkpt lat="45.8555136155" lon="7.1447812859"><ele>2082.83</ele><time>2014-09-03T16:59:37Z</time></trkpt><trkpt lat="45.8556731232" lon="7.1448731516"><ele>2081.39</ele><time>2014-09-03T16:59:40Z</time></trkpt><trkpt lat="45.8557240851" lon="7.1449224371"><ele>2080.91</ele><time>2014-09-03T16:59:41Z</time></trkpt><trkpt lat="45.8560031187" lon="7.1452386025"><ele>2078.51</ele><time>2014-09-03T16:59:46Z</time></trkpt><trkpt lat="45.8564192802" lon="7.1455570310"><ele>2074.66</ele><time>2014-09-03T16:59:53Z</time></trkpt><trkpt lat="45.8564737625" lon="7.1456280258"><ele>2074.18</ele><time>2014-09-03T16:59:54Z</time></trkpt><trkpt lat="45.8565274905" lon="7.1457131859"><ele>2073.70</ele><time>2014-09-03T16:59:55Z</time></trkpt><trkpt lat="45.8565688133" lon="7.1457998548"><ele>2073.22</ele><time>2014-09-03T16:59:56Z</time></trkpt><trkpt lat="45.8566066157" lon="7.1459008567"><ele>2072.26</ele><time>2014-09-03T16:59:57Z</time></trkpt><trkpt lat="45.8566400595" lon="7.1460171137"><ele>2071.78</ele><time>2014-09-03T16:59:58Z</time></trkpt><trkpt lat="45.8566615172" lon="7.1461189538"><ele>2071.30</ele><time>2014-09-03T16:59:59Z</time></trkpt><trkpt lat="45.8566768561" lon="7.1462358814"><ele>2070.34</ele><time>2014-09-03T17:00:00Z</time></trkpt><trkpt lat="45.8566866629" lon="7.1463423315"><ele>2069.86</ele><time>2014-09-03T17:00:01Z</time></trkpt><trkpt lat="45.8569951169" lon="7.1478659101"><ele>2059.28</ele><time>2014-09-03T17:00:15Z</time></trkpt><trkpt lat="45.8570050914" lon="7.1479674987"><ele>2058.32</ele><time>2014-09-03T17:00:16Z</time></trkpt><trkpt lat="45.8570053428" lon="7.1480742842"><ele>2057.84</ele><time>2014-09-03T17:00:17Z</time></trkpt><trkpt lat="45.8569570631" lon="7.1487657912"><ele>2053.03</ele><time>2014-09-03T17:00:23Z</time></trkpt><trkpt lat="45.8569622599" lon="7.1488742530"><ele>2052.07</ele><time>2014-09-03T17:00:24Z</time></trkpt><trkpt lat="45.8571057580" lon="7.1501255874"><ele>2042.46</ele><time>2014-09-03T17:00:35Z</time></trkpt><trkpt lat="45.8570978791" lon="7.1502353065"><ele>2041.50</ele><time>2014-09-03T17:00:36Z</time></trkpt><trkpt lat="45.8570349310" lon="7.1507957205"><ele>2040.05</ele><time>2014-09-03T17:00:41Z</time></trkpt><trkpt lat="45.8570361882" lon="7.1509009972"><ele>2039.09</ele><time>2014-09-03T17:00:42Z</time></trkpt><trkpt lat="45.8570612501" lon="7.1513215173"><ele>2036.21</ele><time>2014-09-03T17:00:46Z</time></trkpt><trkpt lat="45.8570542093" lon="7.1514332481"><ele>2035.73</ele><time>2014-09-03T17:00:47Z</time></trkpt><trkpt lat="45.8568428177" lon="7.1528055333"><ele>2026.60</ele><time>2014-09-03T17:01:00Z</time></trkpt><trkpt lat="45.8568351902" lon="7.1528923698"><ele>2026.12</ele><time>2014-09-03T17:01:01Z</time></trkpt><trkpt lat="45.8568412252" lon="7.1529791225"><ele>2025.64</ele><time>2014-09-03T17:01:02Z</time></trkpt><trkpt lat="45.8568608388" lon="7.1530641988"><ele>2025.15</ele><time>2014-09-03T17:01:03Z</time></trkpt><trkpt lat="45.8568889182" lon="7.1531436592"><ele>2024.19</ele><time>2014-09-03T17:01:04Z</time></trkpt><trkpt lat="45.8569218591" lon="7.1532246284"><ele>2023.71</ele><time>2014-09-03T17:01:05Z</time></trkpt><trkpt lat="45.8569590747" lon="7.1533076931"><ele>2022.75</ele><time>2014-09-03T17:01:06Z</time></trkpt><trkpt lat="45.8571474161" lon="7.1537584718"><ele>2019.39</ele><time>2014-09-03T17:01:11Z</time></trkpt><trkpt lat="45.8571650181" lon="7.1538614854"><ele>2018.91</ele><time>2014-09-03T17:01:12Z</time></trkpt><trkpt lat="45.8571798541" lon="7.1547251567"><ele>2013.14</ele><time>2014-09-03T17:01:22Z</time></trkpt><trkpt lat="45.8571728971" lon="7.1547665633"><ele>2013.14</ele><time>2014-09-03T17:01:23Z</time></trkpt><trkpt lat="45.8571539540" lon="7.1547990013"><ele>2013.14</ele><time>2014-09-03T17:01:24Z</time></trkpt><trkpt lat="45.8571256232" lon="7.1548176929"><ele>2012.66</ele><time>2014-09-03T17:01:25Z</time></trkpt><trkpt lat="45.8570921794" lon="7.1548048686"><ele>2012.18</ele><time>2014-09-03T17:01:26Z</time></trkpt><trkpt lat="45.8570670336" lon="7.1547572594"><ele>2012.18</ele><time>2014-09-03T17:01:27Z</time></trkpt><trkpt lat="45.8570628427" lon="7.1546847560"><ele>2011.70</ele><time>2014-09-03T17:01:28Z</time></trkpt><trkpt lat="45.8570722304" lon="7.1546033677"><ele>2011.70</ele><time>2014-09-03T17:01:29Z</time></trkpt><trkpt lat="45.8570865635" lon="7.1545194648"><ele>2011.22</ele><time>2014-09-03T17:01:30Z</time></trkpt><trkpt lat="45.8570961189" lon="7.1544311196"><ele>2011.22</ele><time>2014-09-03T17:01:31Z</time></trkpt><trkpt lat="45.8570978791" lon="7.1543385834"><ele>2010.73</ele><time>2014-09-03T17:01:32Z</time></trkpt><trkpt lat="45.8570892457" lon="7.1542469691"><ele>2010.25</ele><time>2014-09-03T17:01:33Z</time></trkpt><trkpt lat="45.8570733201" lon="7.1541483980"><ele>2009.29</ele><time>2014-09-03T17:01:34Z</time></trkpt><trkpt lat="45.8570469171" lon="7.1540528443"><ele>2008.81</ele><time>2014-09-03T17:01:35Z</time></trkpt><trkpt lat="45.8570125513" lon="7.1539581288"><ele>2008.33</ele><time>2014-09-03T17:01:36Z</time></trkpt><trkpt lat="45.8569739945" lon="7.1538670175"><ele>2007.37</ele><time>2014-09-03T17:01:37Z</time></trkpt><trkpt lat="45.8568610903" lon="7.1535909176"><ele>2005.45</ele><time>2014-09-03T17:01:40Z</time></trkpt><trkpt lat="45.8568168338" lon="7.1535082720"><ele>2004.97</ele><time>2014-09-03T17:01:41Z</time></trkpt><trkpt lat="45.8567725774" lon="7.1534426417"><ele>2004.49</ele><time>2014-09-03T17:01:42Z</time></trkpt><trkpt lat="45.8566769399" lon="7.1533100400"><ele>2003.52</ele><time>2014-09-03T17:01:44Z</time></trkpt><trkpt lat="45.8566327672" lon="7.1532292385"><ele>2003.04</ele><time>2014-09-03T17:01:45Z</time></trkpt><trkpt lat="45.8566016704" lon="7.1531538852"><ele>2002.56</ele><time>2014-09-03T17:01:46Z</time></trkpt><trkpt lat="45.8565712441" lon="7.1530510392"><ele>2001.60</ele><time>2014-09-03T17:01:47Z</time></trkpt><trkpt lat="45.8565548994" lon="7.1529673040"><ele>2001.60</ele><time>2014-09-03T17:01:48Z</time></trkpt><trkpt lat="45.8565439191" lon="7.1528704092"><ele>2000.64</ele><time>2014-09-03T17:01:49Z</time></trkpt><trkpt lat="45.8565420751" lon="7.1527663898"><ele>2000.16</ele><time>2014-09-03T17:01:50Z</time></trkpt><trkpt lat="45.8565442543" lon="7.1526688244"><ele>1999.68</ele><time>2014-09-03T17:01:51Z</time></trkpt><trkpt lat="45.8565585036" lon="7.1514218487"><ele>1992.95</ele><time>2014-09-03T17:02:03Z</time></trkpt><trkpt lat="45.8565455116" lon="7.1513337549"><ele>1992.95</ele><time>2014-09-03T17:02:04Z</time></trkpt><trkpt lat="45.8565018419" lon="7.1511516161"><ele>1991.51</ele><time>2014-09-03T17:02:06Z</time></trkpt><trkpt lat="45.8562697470" lon="7.1504675690"><ele>1987.18</ele><time>2014-09-03T17:02:15Z</time></trkpt><trkpt lat="45.8562357165" lon="7.1504522301"><ele>1986.70</ele><time>2014-09-03T17:02:16Z</time></trkpt><trkpt lat="45.8561950643" lon="7.1504554991"><ele>1986.70</ele><time>2014-09-03T17:02:17Z</time></trkpt><trkpt lat="45.8561427612" lon="7.1504835784"><ele>1986.22</ele><time>2014-09-03T17:02:18Z</time></trkpt><trkpt lat="45.8560999297" lon="7.1505300980"><ele>1985.74</ele><time>2014-09-03T17:02:19Z</time></trkpt><trkpt lat="45.8560581040" lon="7.1506183594"><ele>1985.74</ele><time>2014-09-03T17:02:21Z</time></trkpt><trkpt lat="45.8560208045" lon="7.1507298388"><ele>1984.78</ele><time>2014-09-03T17:02:22Z</time></trkpt><trkpt lat="45.8558595367" lon="7.1511742473"><ele>1980.93</ele><time>2014-09-03T17:02:28Z</time></trkpt><trkpt lat="45.8558285236" lon="7.1512229461"><ele>1980.45</ele><time>2014-09-03T17:02:29Z</time></trkpt><trkpt lat="45.8557914756" lon="7.1512618382"><ele>1979.97</ele><time>2014-09-03T17:02:30Z</time></trkpt><trkpt lat="45.8557410166" lon="7.1512833796"><ele>1979.49</ele><time>2014-09-03T17:02:31Z</time></trkpt><trkpt lat="45.8556823432" lon="7.1512812842"><ele>1979.01</ele><time>2014-09-03T17:02:32Z</time></trkpt><trkpt lat="45.8556007873" lon="7.1512333397"><ele>1978.53</ele><time>2014-09-03T17:02:33Z</time></trkpt><trkpt lat="45.8555654995" lon="7.1511993092"><ele>1978.05</ele><time>2014-09-03T17:02:34Z</time></trkpt><trkpt lat="45.8555089217" lon="7.1511402167"><ele>1978.05</ele><time>2014-09-03T17:02:35Z</time></trkpt><trkpt lat="45.8550026547" lon="7.1506815590"><ele>1974.20</ele><time>2014-09-03T17:02:45Z</time></trkpt><trkpt lat="45.8549553808" lon="7.1506585926"><ele>1973.72</ele><time>2014-09-03T17:02:46Z</time></trkpt><trkpt lat="45.8549107891" lon="7.1506391466"><ele>1973.24</ele><time>2014-09-03T17:02:47Z</time></trkpt><trkpt lat="45.8548301551" lon="7.1505917888"><ele>1972.76</ele><time>2014-09-03T17:02:49Z</time></trkpt><trkpt lat="45.8545025066" lon="7.1504247375"><ele>1970.36</ele><time>2014-09-03T17:02:59Z</time></trkpt><trkpt lat="45.8544290811" lon="7.1504577622"><ele>1969.88</ele><time>2014-09-03T17:03:01Z</time></trkpt><trkpt lat="45.8543924522" lon="7.1504905354"><ele>1969.40</ele><time>2014-09-03T17:03:02Z</time></trkpt><trkpt lat="45.8543611038" lon="7.1505400725"><ele>1969.40</ele><time>2014-09-03T17:03:03Z</time></trkpt><trkpt lat="45.8543252293" lon="7.1506335307"><ele>1968.44</ele><time>2014-09-03T17:03:04Z</time></trkpt><trkpt lat="45.8543027658" lon="7.1507173497"><ele>1967.96</ele><time>2014-09-03T17:03:06Z</time></trkpt><trkpt lat="45.8542731777" lon="7.1508060303"><ele>1967.48</ele><time>2014-09-03T17:03:07Z</time></trkpt><trkpt lat="45.8542450983" lon="7.1508649550"><ele>1966.99</ele><time>2014-09-03T17:03:08Z</time></trkpt><trkpt lat="45.8542147558" lon="7.1509123128"><ele>1966.51</ele><time>2014-09-03T17:03:09Z</time></trkpt><trkpt lat="45.8541559987" lon="7.1509950422"><ele>1965.07</ele><time>2014-09-03T17:03:15Z</time></trkpt><trkpt lat="45.8541363012" lon="7.1510189306"><ele>1966.51</ele><time>2014-09-03T17:03:31Z</time></trkpt><trkpt lat="45.8541334514" lon="7.1510304138"><ele>1966.99</ele><time>2014-09-03T17:03:57Z</time></trkpt><trkpt lat="45.8541218843" lon="7.1510461718"><ele>1966.03</ele><time>2014-09-03T17:04:31Z</time></trkpt><trkpt lat="45.8541198727" lon="7.1510620136"><ele>1966.03</ele><time>2014-09-03T17:04:32Z</time></trkpt><trkpt lat="45.8539673220" lon="7.1514802705"><ele>1963.63</ele><time>2014-09-03T17:04:41Z</time></trkpt><trkpt lat="45.8539311122" lon="7.1515516005"><ele>1962.67</ele><time>2014-09-03T17:04:42Z</time></trkpt><trkpt lat="45.8538861014" lon="7.1516201645"><ele>1961.71</ele><time>2014-09-03T17:04:43Z</time></trkpt><trkpt lat="45.8535369951" lon="7.1521314606"><ele>1956.90</ele><time>2014-09-03T17:04:50Z</time></trkpt><trkpt lat="45.8534832671" lon="7.1521932352"><ele>1956.42</ele><time>2014-09-03T17:04:51Z</time></trkpt><trkpt lat="45.8534292877" lon="7.1522442810"><ele>1955.94</ele><time>2014-09-03T17:04:52Z</time></trkpt><trkpt lat="45.8533715364" lon="7.1522871964"><ele>1955.94</ele><time>2014-09-03T17:04:53Z</time></trkpt><trkpt lat="45.8533100132" lon="7.1523240767"><ele>1955.46</ele><time>2014-09-03T17:04:54Z</time></trkpt><trkpt lat="45.8532419521" lon="7.1523493063"><ele>1954.98</ele><time>2014-09-03T17:04:55Z</time></trkpt><trkpt lat="45.8531745616" lon="7.1523645613"><ele>1954.50</ele><time>2014-09-03T17:04:56Z</time></trkpt><trkpt lat="45.8531036507" lon="7.1523682494"><ele>1954.02</ele><time>2014-09-03T17:04:57Z</time></trkpt><trkpt lat="45.8530324046" lon="7.1523602866"><ele>1954.02</ele><time>2014-09-03T17:04:58Z</time></trkpt><trkpt lat="45.8529603202" lon="7.1523478813"><ele>1953.54</ele><time>2014-09-03T17:04:59Z</time></trkpt><trkpt lat="45.8527599089" lon="7.1523282677"><ele>1952.09</ele><time>2014-09-03T17:05:02Z</time></trkpt><trkpt lat="45.8526976313" lon="7.1523442771"><ele>1952.09</ele><time>2014-09-03T17:05:03Z</time></trkpt><trkpt lat="45.8526364435" lon="7.1523775533"><ele>1951.61</ele><time>2014-09-03T17:05:04Z</time></trkpt><trkpt lat="45.8525624312" lon="7.1524360590"><ele>1951.13</ele><time>2014-09-03T17:05:05Z</time></trkpt><trkpt lat="45.8524893411" lon="7.1525172796"><ele>1950.65</ele><time>2014-09-03T17:05:07Z</time></trkpt><trkpt lat="45.8524472639" lon="7.1526127495"><ele>1950.17</ele><time>2014-09-03T17:05:08Z</time></trkpt><trkpt lat="45.8524321765" lon="7.1526861750"><ele>1950.17</ele><time>2014-09-03T17:05:09Z</time></trkpt><trkpt lat="45.8524315059" lon="7.1527627856"><ele>1949.69</ele><time>2014-09-03T17:05:10Z</time></trkpt><trkpt lat="45.8524432406" lon="7.1528418269"><ele>1948.73</ele><time>2014-09-03T17:05:11Z</time></trkpt><trkpt lat="45.8524602558" lon="7.1529242210"><ele>1948.73</ele><time>2014-09-03T17:05:12Z</time></trkpt><trkpt lat="45.8524817135" lon="7.1530025918"><ele>1947.77</ele><time>2014-09-03T17:05:13Z</time></trkpt><trkpt lat="45.8525217790" lon="7.1531564835"><ele>1946.81</ele><time>2014-09-03T17:05:15Z</time></trkpt><trkpt lat="45.8525275625" lon="7.1532325074"><ele>1946.33</ele><time>2014-09-03T17:05:16Z</time></trkpt><trkpt lat="45.8525231201" lon="7.1533107106"><ele>1945.85</ele><time>2014-09-03T17:05:17Z</time></trkpt><trkpt lat="45.8525074460" lon="7.1533891652"><ele>1945.36</ele><time>2014-09-03T17:05:18Z</time></trkpt><trkpt lat="45.8524812106" lon="7.1534610819"><ele>1944.88</ele><time>2014-09-03T17:05:19Z</time></trkpt><trkpt lat="45.8524432406" lon="7.1535255387"><ele>1943.92</ele><time>2014-09-03T17:05:20Z</time></trkpt><trkpt lat="45.8523983136" lon="7.1535801049"><ele>1943.44</ele><time>2014-09-03T17:05:21Z</time></trkpt><trkpt lat="45.8523453400" lon="7.1536253672"><ele>1943.44</ele><time>2014-09-03T17:05:22Z</time></trkpt><trkpt lat="45.8522885107" lon="7.1536650136"><ele>1942.96</ele><time>2014-09-03T17:05:23Z</time></trkpt><trkpt lat="45.8522290830" lon="7.1537105273"><ele>1942.48</ele><time>2014-09-03T17:05:24Z</time></trkpt><trkpt lat="45.8521818928" lon="7.1537581366"><ele>1942.00</ele><time>2014-09-03T17:05:25Z</time></trkpt><trkpt lat="45.8521373011" lon="7.1538188215"><ele>1941.52</ele><time>2014-09-03T17:05:26Z</time></trkpt><trkpt lat="45.8521005046" lon="7.1538903192"><ele>1940.56</ele><time>2014-09-03T17:05:27Z</time></trkpt><trkpt lat="45.8520715870" lon="7.1539646666"><ele>1940.08</ele><time>2014-09-03T17:05:28Z</time></trkpt><trkpt lat="45.8520461898" lon="7.1540535986"><ele>1939.60</ele><time>2014-09-03T17:05:29Z</time></trkpt><trkpt lat="45.8520243969" lon="7.1541475598"><ele>1939.60</ele><time>2014-09-03T17:05:30Z</time></trkpt><trkpt lat="45.8520023525" lon="7.1542437002"><ele>1939.12</ele><time>2014-09-03T17:05:31Z</time></trkpt><trkpt lat="45.8519748598" lon="7.1543375775"><ele>1938.64</ele><time>2014-09-03T17:05:32Z</time></trkpt><trkpt lat="45.8519312739" lon="7.1544493921"><ele>1937.67</ele><time>2014-09-03T17:05:33Z</time></trkpt><trkpt lat="45.8518805634" lon="7.1545676608"><ele>1936.71</ele><time>2014-09-03T17:05:35Z</time></trkpt><trkpt lat="45.8515759651" lon="7.1552730817"><ele>1931.43</ele><time>2014-09-03T17:05:43Z</time></trkpt><trkpt lat="45.8509850409" lon="7.1563530900"><ele>1924.70</ele><time>2014-09-03T17:05:57Z</time></trkpt><trkpt lat="45.8509272058" lon="7.1564256772"><ele>1924.22</ele><time>2014-09-03T17:05:58Z</time></trkpt><trkpt lat="45.8507556282" lon="7.1566549223"><ele>1922.77</ele><time>2014-09-03T17:06:01Z</time></trkpt><trkpt lat="45.8507083543" lon="7.1567498054"><ele>1922.29</ele><time>2014-09-03T17:06:02Z</time></trkpt><trkpt lat="45.8506682888" lon="7.1568539087"><ele>1921.81</ele><time>2014-09-03T17:06:03Z</time></trkpt><trkpt lat="45.8504722361" lon="7.1574807074"><ele>1918.93</ele><time>2014-09-03T17:06:09Z</time></trkpt><trkpt lat="45.8504553884" lon="7.1575787757"><ele>1917.97</ele><time>2014-09-03T17:06:10Z</time></trkpt><trkpt lat="45.8503096271" lon="7.1584847756"><ele>1913.16</ele><time>2014-09-03T17:06:19Z</time></trkpt><trkpt lat="45.8503015805" lon="7.1585719474"><ele>1912.68</ele><time>2014-09-03T17:06:20Z</time></trkpt><trkpt lat="45.8502900973" lon="7.1587408427"><ele>1912.20</ele><time>2014-09-03T17:06:22Z</time></trkpt><trkpt lat="45.8502773568" lon="7.1588260029"><ele>1911.72</ele><time>2014-09-03T17:06:23Z</time></trkpt><trkpt lat="45.8502580784" lon="7.1589137614"><ele>1911.24</ele><time>2014-09-03T17:06:24Z</time></trkpt><trkpt lat="45.8502317593" lon="7.1590001788"><ele>1910.76</ele><time>2014-09-03T17:06:25Z</time></trkpt><trkpt lat="45.8502004109" lon="7.1590833273"><ele>1910.28</ele><time>2014-09-03T17:06:26Z</time></trkpt><trkpt lat="45.8501665480" lon="7.1591627877"><ele>1909.80</ele><time>2014-09-03T17:06:27Z</time></trkpt><trkpt lat="45.8498968184" lon="7.1599473339"><ele>1904.99</ele><time>2014-09-03T17:06:39Z</time></trkpt><trkpt lat="45.8498813957" lon="7.1600179933"><ele>1904.51</ele><time>2014-09-03T17:06:40Z</time></trkpt><trkpt lat="45.8497373946" lon="7.1605457179"><ele>1902.11</ele><time>2014-09-03T17:06:48Z</time></trkpt><trkpt lat="45.8497016877" lon="7.1606091689"><ele>1902.11</ele><time>2014-09-03T17:06:49Z</time></trkpt><trkpt lat="45.8496606164" lon="7.1606688481"><ele>1901.63</ele><time>2014-09-03T17:06:50Z</time></trkpt><trkpt lat="45.8495957404" lon="7.1607368253"><ele>1901.63</ele><time>2014-09-03T17:06:51Z</time></trkpt><trkpt lat="45.8495348878" lon="7.1607923135"><ele>1901.14</ele><time>2014-09-03T17:06:52Z</time></trkpt><trkpt lat="45.8493686747" lon="7.1609385777"><ele>1900.18</ele><time>2014-09-03T17:06:55Z</time></trkpt><trkpt lat="45.8493097499" lon="7.1610076446"><ele>1899.70</ele><time>2014-09-03T17:06:56Z</time></trkpt><trkpt lat="45.8492565248" lon="7.1610779688"><ele>1899.70</ele><time>2014-09-03T17:06:57Z</time></trkpt><trkpt lat="45.8490222506" lon="7.1613961458"><ele>1897.78</ele><time>2014-09-03T17:07:01Z</time></trkpt><trkpt lat="45.8489844482" lon="7.1614779532"><ele>1897.30</ele><time>2014-09-03T17:07:02Z</time></trkpt><trkpt lat="45.8489551116" lon="7.1615709923"><ele>1896.82</ele><time>2014-09-03T17:07:03Z</time></trkpt><trkpt lat="45.8485460747" lon="7.1627891343"><ele>1890.57</ele><time>2014-09-03T17:07:15Z</time></trkpt><trkpt lat="45.8485058416" lon="7.1628601290"><ele>1890.09</ele><time>2014-09-03T17:07:16Z</time></trkpt><trkpt lat="45.8483756706" lon="7.1630791482"><ele>1888.65</ele><time>2014-09-03T17:07:19Z</time></trkpt><trkpt lat="45.8483452443" lon="7.1631581057"><ele>1888.17</ele><time>2014-09-03T17:07:20Z</time></trkpt><trkpt lat="45.8483197633" lon="7.1632402483"><ele>1887.69</ele><time>2014-09-03T17:07:21Z</time></trkpt><trkpt lat="45.8479875047" lon="7.1642169077"><ele>1880.48</ele><time>2014-09-03T17:07:33Z</time></trkpt><trkpt lat="45.8479206171" lon="7.1643851325"><ele>1880.00</ele><time>2014-09-03T17:07:35Z</time></trkpt><trkpt lat="45.8478341158" lon="7.1646328177"><ele>1878.55</ele><time>2014-09-03T17:07:38Z</time></trkpt><trkpt lat="45.8476596884" lon="7.1649323869"><ele>1876.63</ele><time>2014-09-03T17:07:42Z</time></trkpt><trkpt lat="45.8476110734" lon="7.1649964247"><ele>1875.67</ele><time>2014-09-03T17:07:43Z</time></trkpt><trkpt lat="45.8473961614" lon="7.1653319523"><ele>1872.79</ele><time>2014-09-03T17:07:48Z</time></trkpt><trkpt lat="45.8473777212" lon="7.1654006001"><ele>1872.30</ele><time>2014-09-03T17:07:49Z</time></trkpt><trkpt lat="45.8473714348" lon="7.1654782165"><ele>1871.82</ele><time>2014-09-03T17:07:50Z</time></trkpt><trkpt lat="45.8473751228" lon="7.1655581798"><ele>1871.34</ele><time>2014-09-03T17:07:51Z</time></trkpt><trkpt lat="45.8473883662" lon="7.1656396519"><ele>1870.38</ele><time>2014-09-03T17:07:52Z</time></trkpt><trkpt lat="45.8474053815" lon="7.1657227166"><ele>1869.90</ele><time>2014-09-03T17:07:53Z</time></trkpt><trkpt lat="45.8474151045" lon="7.1658127382"><ele>1868.94</ele><time>2014-09-03T17:07:54Z</time></trkpt><trkpt lat="45.8474096563" lon="7.1659094654"><ele>1868.46</ele><time>2014-09-03T17:07:55Z</time></trkpt><trkpt lat="45.8472786471" lon="7.1672017872"><ele>1863.65</ele><time>2014-09-03T17:08:08Z</time></trkpt><trkpt lat="45.8472535014" lon="7.1673038788"><ele>1863.17</ele><time>2014-09-03T17:08:09Z</time></trkpt><trkpt lat="45.8471328858" lon="7.1676099859"><ele>1861.73</ele><time>2014-09-03T17:08:12Z</time></trkpt><trkpt lat="45.8470774814" lon="7.1676989179"><ele>1861.25</ele><time>2014-09-03T17:08:13Z</time></trkpt><trkpt lat="45.8468415309" lon="7.1680421568"><ele>1859.33</ele><time>2014-09-03T17:08:17Z</time></trkpt><trkpt lat="45.8467972744" lon="7.1681476850"><ele>1858.37</ele><time>2014-09-03T17:08:18Z</time></trkpt><trkpt lat="45.8466660138" lon="7.1684635989"><ele>1856.44</ele><time>2014-09-03T17:08:21Z</time></trkpt><trkpt lat="45.8465256169" lon="7.1687572170"><ele>1854.52</ele><time>2014-09-03T17:08:24Z</time></trkpt><trkpt lat="45.8462102897" lon="7.1697028633"><ele>1847.79</ele><time>2014-09-03T17:08:33Z</time></trkpt><trkpt lat="45.8461902570" lon="7.1697992552"><ele>1847.31</ele><time>2014-09-03T17:08:34Z</time></trkpt><trkpt lat="45.8461761754" lon="7.1698946413"><ele>1846.35</ele><time>2014-09-03T17:08:35Z</time></trkpt><trkpt lat="45.8461330086" lon="7.1702823043"><ele>1843.95</ele><time>2014-09-03T17:08:39Z</time></trkpt><trkpt lat="45.8461056836" lon="7.1703740023"><ele>1843.47</ele><time>2014-09-03T17:08:40Z</time></trkpt><trkpt lat="45.8460655343" lon="7.1704582404"><ele>1842.98</ele><time>2014-09-03T17:08:41Z</time></trkpt><trkpt lat="45.8460143209" lon="7.1705330908"><ele>1842.50</ele><time>2014-09-03T17:08:42Z</time></trkpt><trkpt lat="45.8459570725" lon="7.1706003975"><ele>1842.02</ele><time>2014-09-03T17:08:43Z</time></trkpt><trkpt lat="45.8458535559" lon="7.1707434766"><ele>1841.06</ele><time>2014-09-03T17:08:45Z</time></trkpt><trkpt lat="45.8458176814" lon="7.1708257869"><ele>1840.58</ele><time>2014-09-03T17:08:46Z</time></trkpt><trkpt lat="45.8453901205" lon="7.1718166955"><ele>1834.33</ele><time>2014-09-03T17:08:58Z</time></trkpt><trkpt lat="45.8453397453" lon="7.1718804818"><ele>1833.37</ele><time>2014-09-03T17:08:59Z</time></trkpt><trkpt lat="45.8452882804" lon="7.1719434299"><ele>1832.89</ele><time>2014-09-03T17:09:00Z</time></trkpt><trkpt lat="45.8450935688" lon="7.1722209547"><ele>1830.49</ele><time>2014-09-03T17:09:04Z</time></trkpt><trkpt lat="45.8450525813" lon="7.1723072045"><ele>1830.01</ele><time>2014-09-03T17:09:05Z</time></trkpt><trkpt lat="45.8450158685" lon="7.1724006627"><ele>1829.53</ele><time>2014-09-03T17:09:06Z</time></trkpt><trkpt lat="45.8446117770" lon="7.1732468158"><ele>1824.24</ele><time>2014-09-03T17:09:15Z</time></trkpt><trkpt lat="45.8442510199" lon="7.1742099803"><ele>1817.99</ele><time>2014-09-03T17:09:25Z</time></trkpt><trkpt lat="45.8441988006" lon="7.1742937993"><ele>1817.51</ele><time>2014-09-03T17:09:26Z</time></trkpt><trkpt lat="45.8441371098" lon="7.1743719187"><ele>1816.55</ele><time>2014-09-03T17:09:27Z</time></trkpt><trkpt lat="45.8438791148" lon="7.1746907663"><ele>1815.11</ele><time>2014-09-03T17:09:31Z</time></trkpt><trkpt lat="45.8438310027" lon="7.1747822128"><ele>1814.63</ele><time>2014-09-03T17:09:32Z</time></trkpt><trkpt lat="45.8437930327" lon="7.1748814546"><ele>1814.15</ele><time>2014-09-03T17:09:33Z</time></trkpt><trkpt lat="45.8437208645" lon="7.1750648506"><ele>1812.70</ele><time>2014-09-03T17:09:35Z</time></trkpt><trkpt lat="45.8436751831" lon="7.1751433890"><ele>1812.22</ele><time>2014-09-03T17:09:36Z</time></trkpt><trkpt lat="45.8436223771" lon="7.1752168145"><ele>1811.74</ele><time>2014-09-03T17:09:37Z</time></trkpt><trkpt lat="45.8435650449" lon="7.1752868872"><ele>1811.26</ele><time>2014-09-03T17:09:38Z</time></trkpt><trkpt lat="45.8435068745" lon="7.1753562056"><ele>1810.78</ele><time>2014-09-03T17:09:39Z</time></trkpt><trkpt lat="45.8434544876" lon="7.1754281223"><ele>1810.30</ele><time>2014-09-03T17:09:40Z</time></trkpt><trkpt lat="45.8434028551" lon="7.1755096782"><ele>1809.34</ele><time>2014-09-03T17:09:41Z</time></trkpt><trkpt lat="45.8433634602" lon="7.1755821817"><ele>1808.86</ele><time>2014-09-03T17:09:42Z</time></trkpt><trkpt lat="45.8428762201" lon="7.1762581822"><ele>1802.61</ele><time>2014-09-03T17:09:53Z</time></trkpt><trkpt lat="45.8419658616" lon="7.1771408804"><ele>1794.44</ele><time>2014-09-03T17:10:06Z</time></trkpt><trkpt lat="45.8416840620" lon="7.1774072573"><ele>1791.55</ele><time>2014-09-03T17:10:10Z</time></trkpt><trkpt lat="45.8414937928" lon="7.1776308864"><ele>1790.11</ele><time>2014-09-03T17:10:13Z</time></trkpt><trkpt lat="45.8414218761" lon="7.1776857879"><ele>1789.15</ele><time>2014-09-03T17:10:14Z</time></trkpt><trkpt lat="45.8411382325" lon="7.1778390929"><ele>1786.75</ele><time>2014-09-03T17:10:18Z</time></trkpt><trkpt lat="45.8410736080" lon="7.1778418589"><ele>1786.27</ele><time>2014-09-03T17:10:19Z</time></trkpt><trkpt lat="45.8410176169" lon="7.1778260171"><ele>1785.79</ele><time>2014-09-03T17:10:20Z</time></trkpt><trkpt lat="45.8409674093" lon="7.1778113488"><ele>1785.31</ele><time>2014-09-03T17:10:21Z</time></trkpt><trkpt lat="45.8409227338" lon="7.1778105944"><ele>1785.31</ele><time>2014-09-03T17:10:22Z</time></trkpt><trkpt lat="45.8408848476" lon="7.1778281126"><ele>1785.31</ele><time>2014-09-03T17:10:23Z</time></trkpt><trkpt lat="45.8408534154" lon="7.1778688487"><ele>1784.82</ele><time>2014-09-03T17:10:24Z</time></trkpt><trkpt lat="45.8408364002" lon="7.1779240854"><ele>1784.82</ele><time>2014-09-03T17:10:25Z</time></trkpt><trkpt lat="45.8408378251" lon="7.1779891290"><ele>1784.34</ele><time>2014-09-03T17:10:26Z</time></trkpt><trkpt lat="45.8408594504" lon="7.1780464612"><ele>1783.86</ele><time>2014-09-03T17:10:27Z</time></trkpt><trkpt lat="45.8409046289" lon="7.1780871134"><ele>1783.86</ele><time>2014-09-03T17:10:28Z</time></trkpt><trkpt lat="45.8409597818" lon="7.1780977584"><ele>1783.38</ele><time>2014-09-03T17:10:29Z</time></trkpt><trkpt lat="45.8410293516" lon="7.1780853532"><ele>1782.90</ele><time>2014-09-03T17:10:30Z</time></trkpt><trkpt lat="45.8410856780" lon="7.1780703496"><ele>1782.42</ele><time>2014-09-03T17:10:31Z</time></trkpt><trkpt lat="45.8418712299" lon="7.1776621509"><ele>1776.17</ele><time>2014-09-03T17:10:45Z</time></trkpt><trkpt lat="45.8419786859" lon="7.1776167210"><ele>1775.21</ele><time>2014-09-03T17:10:47Z</time></trkpt><trkpt lat="45.8422329929" lon="7.1775548626"><ele>1772.81</ele><time>2014-09-03T17:10:51Z</time></trkpt><trkpt lat="45.8422966953" lon="7.1775237657"><ele>1772.33</ele><time>2014-09-03T17:10:52Z</time></trkpt><trkpt lat="45.8431288507" lon="7.1770067699"><ele>1765.12</ele><time>2014-09-03T17:11:04Z</time></trkpt><trkpt lat="45.8431993425" lon="7.1769902576"><ele>1764.16</ele><time>2014-09-03T17:11:05Z</time></trkpt><trkpt lat="45.8436561562" lon="7.1768929437"><ele>1758.87</ele><time>2014-09-03T17:11:12Z</time></trkpt><trkpt lat="45.8437183499" lon="7.1768569015"><ele>1757.91</ele><time>2014-09-03T17:11:13Z</time></trkpt><trkpt lat="45.8437768556" lon="7.1768067777"><ele>1757.43</ele><time>2014-09-03T17:11:14Z</time></trkpt><trkpt lat="45.8438326791" lon="7.1767465957"><ele>1756.95</ele><time>2014-09-03T17:11:15Z</time></trkpt><trkpt lat="45.8438890893" lon="7.1766798757"><ele>1756.47</ele><time>2014-09-03T17:11:16Z</time></trkpt><trkpt lat="45.8439460024" lon="7.1766211186"><ele>1755.50</ele><time>2014-09-03T17:11:17Z</time></trkpt><trkpt lat="45.8442946058" lon="7.1762855072"><ele>1750.22</ele><time>2014-09-03T17:11:23Z</time></trkpt><trkpt lat="45.8443379402" lon="7.1762218047"><ele>1749.26</ele><time>2014-09-03T17:11:24Z</time></trkpt><trkpt lat="45.8443750720" lon="7.1761549171"><ele>1748.78</ele><time>2014-09-03T17:11:25Z</time></trkpt><trkpt lat="45.8444090188" lon="7.1760822460"><ele>1747.81</ele><time>2014-09-03T17:11:26Z</time></trkpt><trkpt lat="45.8444446418" lon="7.1760103293"><ele>1747.33</ele><time>2014-09-03T17:11:27Z</time></trkpt><trkpt lat="45.8444861323" lon="7.1759473812"><ele>1746.85</ele><time>2014-09-03T17:11:28Z</time></trkpt><trkpt lat="45.8445336577" lon="7.1758940723"><ele>1746.37</ele><time>2014-09-03T17:11:29Z</time></trkpt><trkpt lat="45.8445853740" lon="7.1758456249"><ele>1745.89</ele><time>2014-09-03T17:11:30Z</time></trkpt><trkpt lat="45.8452135138" lon="7.1752828639"><ele>1739.16</ele><time>2014-09-03T17:11:43Z</time></trkpt><trkpt lat="45.8452527411" lon="7.1752744820"><ele>1739.16</ele><time>2014-09-03T17:11:44Z</time></trkpt><trkpt lat="45.8452908788" lon="7.1752813552"><ele>1738.68</ele><time>2014-09-03T17:11:45Z</time></trkpt><trkpt lat="45.8453313634" lon="7.1752982866"><ele>1738.68</ele><time>2014-09-03T17:11:46Z</time></trkpt><trkpt lat="45.8453652263" lon="7.1753225941"><ele>1738.20</ele><time>2014-09-03T17:11:47Z</time></trkpt><trkpt lat="45.8454014361" lon="7.1753566246"><ele>1737.72</ele><time>2014-09-03T17:11:48Z</time></trkpt><trkpt lat="45.8454427589" lon="7.1754051559"><ele>1737.24</ele><time>2014-09-03T17:11:49Z</time></trkpt><trkpt lat="45.8456499595" lon="7.1757232491"><ele>1734.36</ele><time>2014-09-03T17:11:57Z</time></trkpt><trkpt lat="45.8456503786" lon="7.1757934056"><ele>1733.88</ele><time>2014-09-03T17:11:58Z</time></trkpt><trkpt lat="45.8456367999" lon="7.1758521628"><ele>1733.88</ele><time>2014-09-03T17:11:59Z</time></trkpt><trkpt lat="45.8456024341" lon="7.1759149432"><ele>1733.88</ele><time>2014-09-03T17:12:00Z</time></trkpt><trkpt lat="45.8455705829" lon="7.1759519912"><ele>1733.39</ele><time>2014-09-03T17:12:01Z</time></trkpt><trkpt lat="45.8455284219" lon="7.1759910509"><ele>1733.39</ele><time>2014-09-03T17:12:02Z</time></trkpt><trkpt lat="45.8454835787" lon="7.1760255843"><ele>1732.91</ele><time>2014-09-03T17:12:03Z</time></trkpt><trkpt lat="45.8453412540" lon="7.1761188749"><ele>1731.95</ele><time>2014-09-03T17:12:06Z</time></trkpt><trkpt lat="45.8452938963" lon="7.1761567611"><ele>1731.47</ele><time>2014-09-03T17:12:07Z</time></trkpt><trkpt lat="45.8452459518" lon="7.1761963237"><ele>1730.99</ele><time>2014-09-03T17:12:08Z</time></trkpt><trkpt lat="45.8445204981" lon="7.1768531296"><ele>1727.15</ele><time>2014-09-03T17:12:21Z</time></trkpt><trkpt lat="45.8437192719" lon="7.1777287032"><ele>1722.82</ele><time>2014-09-03T17:12:35Z</time></trkpt><trkpt lat="45.8436844032" lon="7.1777976863"><ele>1722.82</ele><time>2014-09-03T17:12:36Z</time></trkpt><trkpt lat="45.8435319364" lon="7.1781465411"><ele>1721.38</ele><time>2014-09-03T17:12:41Z</time></trkpt><trkpt lat="45.8434979059" lon="7.1782094892"><ele>1720.90</ele><time>2014-09-03T17:12:42Z</time></trkpt><trkpt lat="45.8433731832" lon="7.1783853415"><ele>1719.94</ele><time>2014-09-03T17:12:45Z</time></trkpt><trkpt lat="45.8431257494" lon="7.1786954720"><ele>1718.49</ele><time>2014-09-03T17:12:50Z</time></trkpt><trkpt lat="45.8430851810" lon="7.1787737589"><ele>1718.49</ele><time>2014-09-03T17:12:51Z</time></trkpt><trkpt lat="45.8430513181" lon="7.1788609307"><ele>1718.01</ele><time>2014-09-03T17:12:52Z</time></trkpt><trkpt lat="45.8429074008" lon="7.1794437245"><ele>1716.57</ele><time>2014-09-03T17:12:58Z</time></trkpt><trkpt lat="45.8428760525" lon="7.1795407869"><ele>1716.09</ele><time>2014-09-03T17:12:59Z</time></trkpt><trkpt lat="45.8428362384" lon="7.1796295512"><ele>1715.61</ele><time>2014-09-03T17:13:00Z</time></trkpt><trkpt lat="45.8427881263" lon="7.1797071677"><ele>1715.13</ele><time>2014-09-03T17:13:01Z</time></trkpt><trkpt lat="45.8427331410" lon="7.1797722951"><ele>1714.65</ele><time>2014-09-03T17:13:02Z</time></trkpt><trkpt lat="45.8426741324" lon="7.1798248496"><ele>1714.17</ele><time>2014-09-03T17:13:03Z</time></trkpt><trkpt lat="45.8426105976" lon="7.1798706986"><ele>1713.69</ele><time>2014-09-03T17:13:04Z</time></trkpt><trkpt lat="45.8425433747" lon="7.1799092554"><ele>1713.21</ele><time>2014-09-03T17:13:05Z</time></trkpt><trkpt lat="45.8424776606" lon="7.1799369995"><ele>1713.21</ele><time>2014-09-03T17:13:06Z</time></trkpt><trkpt lat="45.8424067497" lon="7.1799550205"><ele>1712.73</ele><time>2014-09-03T17:13:07Z</time></trkpt><trkpt lat="45.8423494175" lon="7.1799662523"><ele>1712.73</ele><time>2014-09-03T17:13:08Z</time></trkpt><trkpt lat="45.8422520198" lon="7.1799835190"><ele>1712.25</ele><time>2014-09-03T17:13:10Z</time></trkpt><trkpt lat="45.8416687232" lon="7.1800973453"><ele>1709.36</ele><time>2014-09-03T17:13:22Z</time></trkpt><trkpt lat="45.8411488775" lon="7.1802871116"><ele>1705.04</ele><time>2014-09-03T17:13:33Z</time></trkpt><trkpt lat="45.8408433571" lon="7.1804398298"><ele>1702.15</ele><time>2014-09-03T17:13:39Z</time></trkpt><trkpt lat="45.8408007771" lon="7.1804722678"><ele>1701.67</ele><time>2014-09-03T17:13:40Z</time></trkpt><trkpt lat="45.8407098334" lon="7.1805549972"><ele>1700.71</ele><time>2014-09-03T17:13:42Z</time></trkpt><trkpt lat="45.8404758107" lon="7.1807898581"><ele>1698.31</ele><time>2014-09-03T17:13:47Z</time></trkpt><trkpt lat="45.8399928454" lon="7.1811249666"><ele>1693.98</ele><time>2014-09-03T17:13:56Z</time></trkpt><trkpt lat="45.8392934594" lon="7.1818303876"><ele>1686.29</ele><time>2014-09-03T17:14:09Z</time></trkpt><trkpt lat="45.8389177825" lon="7.1823583636"><ele>1681.48</ele><time>2014-09-03T17:14:17Z</time></trkpt><trkpt lat="45.8388647251" lon="7.1824088227"><ele>1681.00</ele><time>2014-09-03T17:14:18Z</time></trkpt><trkpt lat="45.8388050459" lon="7.1824481338"><ele>1680.52</ele><time>2014-09-03T17:14:19Z</time></trkpt><trkpt lat="45.8387408406" lon="7.1824796498"><ele>1680.04</ele><time>2014-09-03T17:14:20Z</time></trkpt><trkpt lat="45.8386737015" lon="7.1825057175"><ele>1679.56</ele><time>2014-09-03T17:14:21Z</time></trkpt><trkpt lat="45.8384224959" lon="7.1826369781"><ele>1677.16</ele><time>2014-09-03T17:14:25Z</time></trkpt><trkpt lat="45.8377468307" lon="7.1831982303"><ele>1671.39</ele><time>2014-09-03T17:14:36Z</time></trkpt><trkpt lat="45.8376997244" lon="7.1832585800"><ele>1670.43</ele><time>2014-09-03T17:14:37Z</time></trkpt><trkpt lat="45.8375342656" lon="7.1834712289"><ele>1668.02</ele><time>2014-09-03T17:14:41Z</time></trkpt><trkpt lat="45.8374506142" lon="7.1835498512"><ele>1667.06</ele><time>2014-09-03T17:14:43Z</time></trkpt><trkpt lat="45.8367769606" lon="7.1840845328"><ele>1661.78</ele><time>2014-09-03T17:14:56Z</time></trkpt><trkpt lat="45.8360245172" lon="7.1844994370"><ele>1656.97</ele><time>2014-09-03T17:15:10Z</time></trkpt><trkpt lat="45.8353430685" lon="7.1850148402"><ele>1651.68</ele><time>2014-09-03T17:15:23Z</time></trkpt><trkpt lat="45.8349280804" lon="7.1853388008"><ele>1650.24</ele><time>2014-09-03T17:15:34Z</time></trkpt><trkpt lat="45.8348958101" lon="7.1853344422"><ele>1651.20</ele><time>2014-09-03T17:15:35Z</time></trkpt><trkpt lat="45.8348825667" lon="7.1853336878"><ele>1651.68</ele><time>2014-09-03T17:15:36Z</time></trkpt><trkpt lat="45.8348492067" lon="7.1853060275"><ele>1652.16</ele><time>2014-09-03T17:15:45Z</time></trkpt><trkpt lat="45.8348450996" lon="7.1852733381"><ele>1653.60</ele><time>2014-09-03T17:16:09Z</time></trkpt><trkpt lat="45.8348410763" lon="7.1852838993"><ele>1651.20</ele><time>2014-09-03T17:16:40Z</time></trkpt><trkpt lat="45.8348402381" lon="7.1852836479"><ele>1646.88</ele><time>2014-09-03T17:17:12Z</time></trkpt><trkpt lat="45.8348524757" lon="7.1852875035"><ele>1648.32</ele><time>2014-09-03T17:17:46Z</time></trkpt><trkpt lat="45.8348530624" lon="7.1852693148"><ele>1652.16</ele><time>2014-09-03T17:18:21Z</time></trkpt><trkpt lat="45.8348344546" lon="7.1852581669"><ele>1653.60</ele><time>2014-09-03T17:18:53Z</time></trkpt><trkpt lat="45.8348409925" lon="7.1852838155"><ele>1653.12</ele><time>2014-09-03T17:19:22Z</time></trkpt><trkpt lat="45.8348235581" lon="7.1852975618"><ele>1653.12</ele><time>2014-09-03T17:19:23Z</time></trkpt><trkpt lat="45.8347964846" lon="7.1853145771"><ele>1652.64</ele><time>2014-09-03T17:19:24Z</time></trkpt><trkpt lat="45.8342693467" lon="7.1856764238"><ele>1646.40</ele><time>2014-09-03T17:19:34Z</time></trkpt><trkpt lat="45.8336939290" lon="7.1861132886"><ele>1641.11</ele><time>2014-09-03T17:19:44Z</time></trkpt><trkpt lat="45.8336451463" lon="7.1861699503"><ele>1640.63</ele><time>2014-09-03T17:19:45Z</time></trkpt><trkpt lat="45.8335988782" lon="7.1862362511"><ele>1640.15</ele><time>2014-09-03T17:19:46Z</time></trkpt><trkpt lat="45.8335527778" lon="7.1863105986"><ele>1639.67</ele><time>2014-09-03T17:19:47Z</time></trkpt><trkpt lat="45.8335093595" lon="7.1863932442"><ele>1639.19</ele><time>2014-09-03T17:19:48Z</time></trkpt><trkpt lat="45.8334650192" lon="7.1864835173"><ele>1638.22</ele><time>2014-09-03T17:19:49Z</time></trkpt><trkpt lat="45.8333390392" lon="7.1867456194"><ele>1636.78</ele><time>2014-09-03T17:19:52Z</time></trkpt><trkpt lat="45.8333111275" lon="7.1868441068"><ele>1636.30</ele><time>2014-09-03T17:19:53Z</time></trkpt><trkpt lat="45.8332200162" lon="7.1873545647"><ele>1633.90</ele><time>2014-09-03T17:19:59Z</time></trkpt><trkpt lat="45.8332024142" lon="7.1874017548"><ele>1633.42</ele><time>2014-09-03T17:20:00Z</time></trkpt><trkpt lat="45.8331786096" lon="7.1874341089"><ele>1632.94</ele><time>2014-09-03T17:20:01Z</time></trkpt><trkpt lat="45.8331455849" lon="7.1874436643"><ele>1632.94</ele><time>2014-09-03T17:20:02Z</time></trkpt><trkpt lat="45.8331092913" lon="7.1874162555"><ele>1632.46</ele><time>2014-09-03T17:20:03Z</time></trkpt><trkpt lat="45.8330874983" lon="7.1873468533"><ele>1631.49</ele><time>2014-09-03T17:20:04Z</time></trkpt><trkpt lat="45.8330962993" lon="7.1873126552"><ele>1631.49</ele><time>2014-09-03T17:20:05Z</time></trkpt><trkpt lat="45.8331248816" lon="7.1872485336"><ele>1631.01</ele><time>2014-09-03T17:20:06Z</time></trkpt><trkpt lat="45.8331676293" lon="7.1871851664"><ele>1631.01</ele><time>2014-09-03T17:20:07Z</time></trkpt><trkpt lat="45.8332035877" lon="7.1871220507"><ele>1630.53</ele><time>2014-09-03T17:20:08Z</time></trkpt><trkpt lat="45.8332295716" lon="7.1870443504"><ele>1630.53</ele><time>2014-09-03T17:20:09Z</time></trkpt><trkpt lat="45.8332485985" lon="7.1869516466"><ele>1630.05</ele><time>2014-09-03T17:20:10Z</time></trkpt><trkpt lat="45.8333173301" lon="7.1866093297"><ele>1628.13</ele><time>2014-09-03T17:20:14Z</time></trkpt><trkpt lat="45.8333372790" lon="7.1865379997"><ele>1628.13</ele><time>2014-09-03T17:20:15Z</time></trkpt><trkpt lat="45.8335371874" lon="7.1859772503"><ele>1626.21</ele><time>2014-09-03T17:20:22Z</time></trkpt><trkpt lat="45.8335775882" lon="7.1858995501"><ele>1625.73</ele><time>2014-09-03T17:20:23Z</time></trkpt><trkpt lat="45.8336264547" lon="7.1858298965"><ele>1625.73</ele><time>2014-09-03T17:20:24Z</time></trkpt><trkpt lat="45.8336803503" lon="7.1857675351"><ele>1625.25</ele><time>2014-09-03T17:20:25Z</time></trkpt><trkpt lat="45.8337369282" lon="7.1857077722"><ele>1624.77</ele><time>2014-09-03T17:20:26Z</time></trkpt><trkpt lat="45.8343941532" lon="7.1851437539"><ele>1621.88</ele><time>2014-09-03T17:20:40Z</time></trkpt><trkpt lat="45.8345650602" lon="7.1849534847"><ele>1621.40</ele><time>2014-09-03T17:20:50Z</time></trkpt><trkpt lat="45.8345863502" lon="7.1848150995"><ele>1621.40</ele><time>2014-09-03T17:20:56Z</time></trkpt><trkpt lat="45.8345960733" lon="7.1847951505"><ele>1621.88</ele><time>2014-09-03T17:20:58Z</time></trkpt><trkpt lat="45.8346269187" lon="7.1847560909"><ele>1621.88</ele><time>2014-09-03T17:21:00Z</time></trkpt><trkpt lat="45.8346676547" lon="7.1846428514"><ele>1620.92</ele><time>2014-09-03T17:21:12Z</time></trkpt><trkpt lat="45.8346513100" lon="7.1846253332"><ele>1623.32</ele><time>2014-09-03T17:21:38Z</time></trkpt><trkpt lat="45.8346683253" lon="7.1846653149"><ele>1625.25</ele><time>2014-09-03T17:21:49Z</time></trkpt><trkpt lat="45.8346684929" lon="7.1846923884"><ele>1625.25</ele><time>2014-09-03T17:21:51Z</time></trkpt><trkpt lat="45.8346585184" lon="7.1847087331"><ele>1625.25</ele><time>2014-09-03T17:21:52Z</time></trkpt><trkpt lat="45.8346447721" lon="7.1847254131"><ele>1625.25</ele><time>2014-09-03T17:21:54Z</time></trkpt><trkpt lat="45.8346123341" lon="7.1847355552"><ele>1626.21</ele><time>2014-09-03T17:21:56Z</time></trkpt><trkpt lat="45.8345872723" lon="7.1847779676"><ele>1626.21</ele><time>2014-09-03T17:21:57Z</time></trkpt><trkpt lat="45.8345863502" lon="7.1847925521"><ele>1626.21</ele><time>2014-09-03T17:21:58Z</time></trkpt><trkpt lat="45.8345864341" lon="7.1848146804"><ele>1626.21</ele><time>2014-09-03T17:21:59Z</time></trkpt><trkpt lat="45.8345928881" lon="7.1848327015"><ele>1625.73</ele><time>2014-09-03T17:22:00Z</time></trkpt><trkpt lat="45.8345967438" lon="7.1848638821"><ele>1625.25</ele><time>2014-09-03T17:22:02Z</time></trkpt><trkpt lat="45.8345911279" lon="7.1848814003"><ele>1625.25</ele><time>2014-09-03T17:22:03Z</time></trkpt><trkpt lat="45.8345678262" lon="7.1848862618"><ele>1625.25</ele><time>2014-09-03T17:22:05Z</time></trkpt><trkpt lat="45.8345543314" lon="7.1848587692"><ele>1625.25</ele><time>2014-09-03T17:22:06Z</time></trkpt><trkpt lat="45.8345467877" lon="7.1848330367"><ele>1625.25</ele><time>2014-09-03T17:22:07Z</time></trkpt><trkpt lat="45.8345382381" lon="7.1847876906"><ele>1624.77</ele><time>2014-09-03T17:22:09Z</time></trkpt><trkpt lat="45.8345560916" lon="7.1847726870"><ele>1624.28</ele><time>2014-09-03T17:22:11Z</time></trkpt><trkpt lat="45.8347821515" lon="7.1844929829"><ele>1624.77</ele><time>2014-09-03T17:22:22Z</time></trkpt><trkpt lat="45.8348579239" lon="7.1842915658"><ele>1624.77</ele><time>2014-09-03T17:22:34Z</time></trkpt><trkpt lat="45.8348388132" lon="7.1842612233"><ele>1625.25</ele><time>2014-09-03T17:22:35Z</time></trkpt><trkpt lat="45.8348241448" lon="7.1842400171"><ele>1624.77</ele><time>2014-09-03T17:22:36Z</time></trkpt><trkpt lat="45.8346254099" lon="7.1839503385"><ele>1625.25</ele><time>2014-09-03T17:22:48Z</time></trkpt><trkpt lat="45.8346129209" lon="7.1839312278"><ele>1625.73</ele><time>2014-09-03T17:22:49Z</time></trkpt><trkpt lat="45.8346031141" lon="7.1839133743"><ele>1625.73</ele><time>2014-09-03T17:22:50Z</time></trkpt><trkpt lat="45.8345888648" lon="7.1839033160"><ele>1626.69</ele><time>2014-09-03T17:22:59Z</time></trkpt><trkpt lat="45.8345807344" lon="7.1839449741"><ele>1628.13</ele><time>2014-09-03T17:23:27Z</time></trkpt><trkpt lat="45.8345886134" lon="7.1839554515"><ele>1625.25</ele><time>2014-09-03T17:23:45Z</time></trkpt><trkpt lat="45.8346057963" lon="7.1839771606"><ele>1625.25</ele><time>2014-09-03T17:23:47Z</time></trkpt><trkpt lat="45.8346176147" lon="7.1839852910"><ele>1625.73</ele><time>2014-09-03T17:23:48Z</time></trkpt><trkpt lat="45.8346332051" lon="7.1839978639"><ele>1625.73</ele><time>2014-09-03T17:23:49Z</time></trkpt><trkpt lat="45.8346460294" lon="7.1840122808"><ele>1626.21</ele><time>2014-09-03T17:23:50Z</time></trkpt><trkpt lat="45.8346654754" lon="7.1840338223"><ele>1626.21</ele><time>2014-09-03T17:23:51Z</time></trkpt><trkpt lat="45.8346873522" lon="7.1840586327"><ele>1626.21</ele><time>2014-09-03T17:23:52Z</time></trkpt><trkpt lat="45.8347089775" lon="7.1840872150"><ele>1626.21</ele><time>2014-09-03T17:23:53Z</time></trkpt><trkpt lat="45.8348711673" lon="7.1843729541"><ele>1627.65</ele><time>2014-09-03T17:24:05Z</time></trkpt><trkpt lat="45.8348069619" lon="7.1844720282"><ele>1628.61</ele><time>2014-09-03T17:24:15Z</time></trkpt><trkpt lat="45.8348075487" lon="7.1844718605"><ele>1627.17</ele><time>2014-09-03T17:24:28Z</time></trkpt><trkpt lat="45.8347879350" lon="7.1844560187"><ele>1622.84</ele><time>2014-09-03T17:24:56Z</time></trkpt><trkpt lat="45.8348232228" lon="7.1844736207"><ele>1619.00</ele><time>2014-09-03T17:25:24Z</time></trkpt><trkpt lat="45.8348430041" lon="7.1844466310"><ele>1619.96</ele><time>2014-09-03T17:25:53Z</time></trkpt><trkpt lat="45.8348551579" lon="7.1844495647"><ele>1623.32</ele><time>2014-09-03T17:26:18Z</time></trkpt><trkpt lat="45.8348476142" lon="7.1844262630"><ele>1625.25</ele><time>2014-09-03T17:26:46Z</time></trkpt><trkpt lat="45.8347346261" lon="7.1845670789"><ele>1625.73</ele><time>2014-09-03T17:27:01Z</time></trkpt><trkpt lat="45.8345719334" lon="7.1847669035"><ele>1625.25</ele><time>2014-09-03T17:27:10Z</time></trkpt><trkpt lat="45.8345559239" lon="7.1847638860"><ele>1625.25</ele><time>2014-09-03T17:27:11Z</time></trkpt><trkpt lat="45.8345502242" lon="7.1847604495"><ele>1625.25</ele><time>2014-09-03T17:27:12Z</time></trkpt><trkpt lat="45.8345394116" lon="7.1847492177"><ele>1625.25</ele><time>2014-09-03T17:27:13Z</time></trkpt><trkpt lat="45.8345144335" lon="7.1847216412"><ele>1621.40</ele><time>2014-09-03T17:27:28Z</time></trkpt><trkpt lat="45.8345593605" lon="7.1847539116"><ele>1620.44</ele><time>2014-09-03T17:27:50Z</time></trkpt><trkpt lat="45.8345254138" lon="7.1847612038"><ele>1621.88</ele><time>2014-09-03T17:27:59Z</time></trkpt><trkpt lat="45.8345105778" lon="7.1847677417"><ele>1621.88</ele><time>2014-09-03T17:28:00Z</time></trkpt><trkpt lat="45.8344933111" lon="7.1847814880"><ele>1621.88</ele><time>2014-09-03T17:28:01Z</time></trkpt><trkpt lat="45.8344673272" lon="7.1848007664"><ele>1621.88</ele><time>2014-09-03T17:28:02Z</time></trkpt><trkpt lat="45.8344357274" lon="7.1848240681"><ele>1621.88</ele><time>2014-09-03T17:28:03Z</time></trkpt><trkpt lat="45.8338327333" lon="7.1853699815"><ele>1617.07</ele><time>2014-09-03T17:28:16Z</time></trkpt><trkpt lat="45.8337468188" lon="7.1854353603"><ele>1616.11</ele><time>2014-09-03T17:28:23Z</time></trkpt><trkpt lat="45.8336070925" lon="7.1855751704"><ele>1616.11</ele><time>2014-09-03T17:28:34Z</time></trkpt><trkpt lat="45.8331658691" lon="7.1862267796"><ele>1611.79</ele><time>2014-09-03T17:28:45Z</time></trkpt><trkpt lat="45.8330470137" lon="7.1864513308"><ele>1611.31</ele><time>2014-09-03T17:28:48Z</time></trkpt><trkpt lat="45.8329996560" lon="7.1865202300"><ele>1610.83</ele><time>2014-09-03T17:28:49Z</time></trkpt><trkpt lat="45.8328931220" lon="7.1866526641"><ele>1610.35</ele><time>2014-09-03T17:28:51Z</time></trkpt><trkpt lat="45.8328330237" lon="7.1867102478"><ele>1609.38</ele><time>2014-09-03T17:28:52Z</time></trkpt><trkpt lat="45.8321498986" lon="7.1875522099"><ele>1603.14</ele><time>2014-09-03T17:29:04Z</time></trkpt><trkpt lat="45.8320972603" lon="7.1876218636"><ele>1602.17</ele><time>2014-09-03T17:29:05Z</time></trkpt><trkpt lat="45.8320377488" lon="7.1876816265"><ele>1601.21</ele><time>2014-09-03T17:29:06Z</time></trkpt><trkpt lat="45.8319722861" lon="7.1877329238"><ele>1600.73</ele><time>2014-09-03T17:29:07Z</time></trkpt><trkpt lat="45.8318953402" lon="7.1877691336"><ele>1599.77</ele><time>2014-09-03T17:29:08Z</time></trkpt><trkpt lat="45.8318167180" lon="7.1877907589"><ele>1599.29</ele><time>2014-09-03T17:29:09Z</time></trkpt><trkpt lat="45.8317355812" lon="7.1878016554"><ele>1598.33</ele><time>2014-09-03T17:29:10Z</time></trkpt><trkpt lat="45.8316516783" lon="7.1878091991"><ele>1597.85</ele><time>2014-09-03T17:29:11Z</time></trkpt><trkpt lat="45.8305291738" lon="7.1878674533"><ele>1588.72</ele><time>2014-09-03T17:29:24Z</time></trkpt><trkpt lat="45.8292428032" lon="7.1879936848"><ele>1579.58</ele><time>2014-09-03T17:29:40Z</time></trkpt><trkpt lat="45.8282221388" lon="7.1881616581"><ele>1571.41</ele><time>2014-09-03T17:29:54Z</time></trkpt><trkpt lat="45.8281560894" lon="7.1881774999"><ele>1570.93</ele><time>2014-09-03T17:29:55Z</time></trkpt><trkpt lat="45.8280817419" lon="7.1882037353"><ele>1570.45</ele><time>2014-09-03T17:29:56Z</time></trkpt><trkpt lat="45.8278888743" lon="7.1882929187"><ele>1569.01</ele><time>2014-09-03T17:29:59Z</time></trkpt><trkpt lat="45.8278245851" lon="7.1883064974"><ele>1568.53</ele><time>2014-09-03T17:30:00Z</time></trkpt><trkpt lat="45.8275386784" lon="7.1882945951"><ele>1566.61</ele><time>2014-09-03T17:30:04Z</time></trkpt><trkpt lat="45.8266605064" lon="7.1882049926"><ele>1559.88</ele><time>2014-09-03T17:30:17Z</time></trkpt><trkpt lat="45.8258088212" lon="7.1881505940"><ele>1552.67</ele><time>2014-09-03T17:30:33Z</time></trkpt><trkpt lat="45.8252947591" lon="7.1881536115"><ele>1548.82</ele><time>2014-09-03T17:30:42Z</time></trkpt><trkpt lat="45.8250148036" lon="7.1880483348"><ele>1546.90</ele><time>2014-09-03T17:30:47Z</time></trkpt><trkpt lat="45.8249611594" lon="7.1880470775"><ele>1546.90</ele><time>2014-09-03T17:30:48Z</time></trkpt><trkpt lat="45.8249124605" lon="7.1880608238"><ele>1546.42</ele><time>2014-09-03T17:30:49Z</time></trkpt><trkpt lat="45.8248609956" lon="7.1880891547"><ele>1545.94</ele><time>2014-09-03T17:30:50Z</time></trkpt><trkpt lat="45.8248222712" lon="7.1881177370"><ele>1545.94</ele><time>2014-09-03T17:30:51Z</time></trkpt><trkpt lat="45.8247796074" lon="7.1881533600"><ele>1545.46</ele><time>2014-09-03T17:30:52Z</time></trkpt><trkpt lat="45.8247401286" lon="7.1881935932"><ele>1545.46</ele><time>2014-09-03T17:30:53Z</time></trkpt><trkpt lat="45.8247075230" lon="7.1882344130"><ele>1545.46</ele><time>2014-09-03T17:30:54Z</time></trkpt><trkpt lat="45.8246101253" lon="7.1883023903"><ele>1545.46</ele><time>2014-09-03T17:30:57Z</time></trkpt><trkpt lat="45.8245739155" lon="7.1882836148"><ele>1545.46</ele><time>2014-09-03T17:30:58Z</time></trkpt><trkpt lat="45.8245554753" lon="7.1882410347"><ele>1545.46</ele><time>2014-09-03T17:30:59Z</time></trkpt><trkpt lat="45.8245635219" lon="7.1881885640"><ele>1545.46</ele><time>2014-09-03T17:31:00Z</time></trkpt><trkpt lat="45.8245875780" lon="7.1881473251"><ele>1545.46</ele><time>2014-09-03T17:31:01Z</time></trkpt><trkpt lat="45.8246190101" lon="7.1881220117"><ele>1545.46</ele><time>2014-09-03T17:31:02Z</time></trkpt><trkpt lat="45.8246573992" lon="7.1881069243"><ele>1545.46</ele><time>2014-09-03T17:31:03Z</time></trkpt><trkpt lat="45.8247393742" lon="7.1880717203"><ele>1544.98</ele><time>2014-09-03T17:31:05Z</time></trkpt><trkpt lat="45.8249843773" lon="7.1879852191"><ele>1543.05</ele><time>2014-09-03T17:31:10Z</time></trkpt><trkpt lat="45.8250417933" lon="7.1879835427"><ele>1542.57</ele><time>2014-09-03T17:31:11Z</time></trkpt><trkpt lat="45.8254013769" lon="7.1880038269"><ele>1539.69</ele><time>2014-09-03T17:31:17Z</time></trkpt><trkpt lat="45.8254628163" lon="7.1879890747"><ele>1539.21</ele><time>2014-09-03T17:31:18Z</time></trkpt><trkpt lat="45.8262120746" lon="7.1877401322"><ele>1533.92</ele><time>2014-09-03T17:31:31Z</time></trkpt><trkpt lat="45.8269333374" lon="7.1878121328"><ele>1532.96</ele><time>2014-09-03T17:31:45Z</time></trkpt><trkpt lat="45.8270143904" lon="7.1878137253"><ele>1532.00</ele><time>2014-09-03T17:31:47Z</time></trkpt><trkpt lat="45.8270526957" lon="7.1877930220"><ele>1531.52</ele><time>2014-09-03T17:31:48Z</time></trkpt><trkpt lat="45.8270814456" lon="7.1877580695"><ele>1531.04</ele><time>2014-09-03T17:31:49Z</time></trkpt><trkpt lat="45.8270976227" lon="7.1877061017"><ele>1531.04</ele><time>2014-09-03T17:31:50Z</time></trkpt><trkpt lat="45.8270994667" lon="7.1876391303"><ele>1531.04</ele><time>2014-09-03T17:31:51Z</time></trkpt><trkpt lat="45.8270899951" lon="7.1875843965"><ele>1531.52</ele><time>2014-09-03T17:31:52Z</time></trkpt><trkpt lat="45.8270656876" lon="7.1875429060"><ele>1531.52</ele><time>2014-09-03T17:31:53Z</time></trkpt><trkpt lat="45.8270304836" lon="7.1875222027"><ele>1531.52</ele><time>2014-09-03T17:31:54Z</time></trkpt><trkpt lat="45.8269879036" lon="7.1875178441"><ele>1531.04</ele><time>2014-09-03T17:31:55Z</time></trkpt><trkpt lat="45.8269429766" lon="7.1875185147"><ele>1531.04</ele><time>2014-09-03T17:31:56Z</time></trkpt><trkpt lat="45.8268905059" lon="7.1875237953"><ele>1531.04</ele><time>2014-09-03T17:31:57Z</time></trkpt><trkpt lat="45.8268420584" lon="7.1875273995"><ele>1530.56</ele><time>2014-09-03T17:31:58Z</time></trkpt><trkpt lat="45.8267266396" lon="7.1875278186"><ele>1530.08</ele><time>2014-09-03T17:32:00Z</time></trkpt><trkpt lat="45.8258627169" lon="7.1875655372"><ele>1526.23</ele><time>2014-09-03T17:32:14Z</time></trkpt><trkpt lat="45.8254784904" lon="7.1876170859"><ele>1524.31</ele><time>2014-09-03T17:32:20Z</time></trkpt><trkpt lat="45.8254112676" lon="7.1876123082"><ele>1523.83</ele><time>2014-09-03T17:32:21Z</time></trkpt><trkpt lat="45.8253460564" lon="7.1875949576"><ele>1523.35</ele><time>2014-09-03T17:32:22Z</time></trkpt><trkpt lat="45.8251647558" lon="7.1875162516"><ele>1521.90</ele><time>2014-09-03T17:32:25Z</time></trkpt><trkpt lat="45.8251056634" lon="7.1875101328"><ele>1521.90</ele><time>2014-09-03T17:32:26Z</time></trkpt><trkpt lat="45.8250446431" lon="7.1875103004"><ele>1521.42</ele><time>2014-09-03T17:32:27Z</time></trkpt><trkpt lat="45.8245735802" lon="7.1875546407"><ele>1518.06</ele><time>2014-09-03T17:32:35Z</time></trkpt><trkpt lat="45.8245267253" lon="7.1875758469"><ele>1517.58</ele><time>2014-09-03T17:32:36Z</time></trkpt><trkpt lat="45.8244816307" lon="7.1875990648"><ele>1517.58</ele><time>2014-09-03T17:32:37Z</time></trkpt><trkpt lat="45.8244388830" lon="7.1876272280"><ele>1517.10</ele><time>2014-09-03T17:32:38Z</time></trkpt><trkpt lat="45.8243974764" lon="7.1876580734"><ele>1516.14</ele><time>2014-09-03T17:32:39Z</time></trkpt><trkpt lat="45.8241265733" lon="7.1878241189"><ele>1515.18</ele><time>2014-09-03T17:32:50Z</time></trkpt><trkpt lat="45.8240378089" lon="7.1878205985"><ele>1514.21</ele><time>2014-09-03T17:33:00Z</time></trkpt><trkpt lat="45.8240049519" lon="7.1878522821"><ele>1514.21</ele><time>2014-09-03T17:33:01Z</time></trkpt><trkpt lat="45.8239739388" lon="7.1878935210"><ele>1513.73</ele><time>2014-09-03T17:33:02Z</time></trkpt><trkpt lat="45.8235710207" lon="7.1886558551"><ele>1507.00</ele><time>2014-09-03T17:33:12Z</time></trkpt><trkpt lat="45.8229137957" lon="7.1899730712"><ele>1498.35</ele><time>2014-09-03T17:33:26Z</time></trkpt><trkpt lat="45.8226156514" lon="7.1911766287"><ele>1492.58</ele><time>2014-09-03T17:33:37Z</time></trkpt><trkpt lat="45.8223893400" lon="7.1931172907"><ele>1481.05</ele><time>2014-09-03T17:33:52Z</time></trkpt><trkpt lat="45.8223683853" lon="7.1932167839"><ele>1480.57</ele><time>2014-09-03T17:33:53Z</time></trkpt><trkpt lat="45.8223407250" lon="7.1933104936"><ele>1479.61</ele><time>2014-09-03T17:33:54Z</time></trkpt><trkpt lat="45.8223079517" lon="7.1933991741"><ele>1479.13</ele><time>2014-09-03T17:33:55Z</time></trkpt><trkpt lat="45.8222706523" lon="7.1934990864"><ele>1478.16</ele><time>2014-09-03T17:33:56Z</time></trkpt><trkpt lat="45.8222450037" lon="7.1935998369"><ele>1477.68</ele><time>2014-09-03T17:33:57Z</time></trkpt><trkpt lat="45.8222292457" lon="7.1936752740"><ele>1477.20</ele><time>2014-09-03T17:33:58Z</time></trkpt><trkpt lat="45.8222156670" lon="7.1937827300"><ele>1476.24</ele><time>2014-09-03T17:33:59Z</time></trkpt><trkpt lat="45.8222083747" lon="7.1938978136"><ele>1475.76</ele><time>2014-09-03T17:34:00Z</time></trkpt><trkpt lat="45.8222077042" lon="7.1940181777"><ele>1474.80</ele><time>2014-09-03T17:34:01Z</time></trkpt><trkpt lat="45.8222123981" lon="7.1941452473"><ele>1473.84</ele><time>2014-09-03T17:34:02Z</time></trkpt><trkpt lat="45.8221538924" lon="7.1958783735"><ele>1462.78</ele><time>2014-09-03T17:34:15Z</time></trkpt><trkpt lat="45.8224169165" lon="7.1993468050"><ele>1449.81</ele><time>2014-09-03T17:34:42Z</time></trkpt><trkpt lat="45.8224588260" lon="7.1994390897"><ele>1447.88</ele><time>2014-09-03T17:34:43Z</time></trkpt><trkpt lat="45.8226133045" lon="7.1998317819"><ele>1446.44</ele><time>2014-09-03T17:34:47Z</time></trkpt><trkpt lat="45.8226353489" lon="7.1999494638"><ele>1445.96</ele><time>2014-09-03T17:34:48Z</time></trkpt><trkpt lat="45.8227335848" lon="7.2017027065"><ele>1434.91</ele><time>2014-09-03T17:35:02Z</time></trkpt><trkpt lat="45.8227457386" lon="7.2021963168"><ele>1431.06</ele><time>2014-09-03T17:35:06Z</time></trkpt><trkpt lat="45.8227645978" lon="7.2023228835"><ele>1429.62</ele><time>2014-09-03T17:35:07Z</time></trkpt><trkpt lat="45.8230132889" lon="7.2034148779"><ele>1422.41</ele><time>2014-09-03T17:35:16Z</time></trkpt><trkpt lat="45.8230271190" lon="7.2035308834"><ele>1421.93</ele><time>2014-09-03T17:35:17Z</time></trkpt><trkpt lat="45.8230300527" lon="7.2036479786"><ele>1420.97</ele><time>2014-09-03T17:35:18Z</time></trkpt><trkpt lat="45.8230020572" lon="7.2044580895"><ele>1417.12</ele><time>2014-09-03T17:35:25Z</time></trkpt><trkpt lat="45.8230246045" lon="7.2046321817"><ele>1416.64</ele><time>2014-09-03T17:35:27Z</time></trkpt><trkpt lat="45.8230453916" lon="7.2047286574"><ele>1416.64</ele><time>2014-09-03T17:35:28Z</time></trkpt><trkpt lat="45.8230583835" lon="7.2047746740"><ele>1416.16</ele><time>2014-09-03T17:35:29Z</time></trkpt><trkpt lat="45.8234043885" lon="7.2056915704"><ele>1409.91</ele><time>2014-09-03T17:35:39Z</time></trkpt><trkpt lat="45.8236984257" lon="7.2071301565"><ele>1403.18</ele><time>2014-09-03T17:35:51Z</time></trkpt><trkpt lat="45.8239535708" lon="7.2082509845"><ele>1397.89</ele><time>2014-09-03T17:36:04Z</time></trkpt><trkpt lat="45.8239556663" lon="7.2083400842"><ele>1397.41</ele><time>2014-09-03T17:36:05Z</time></trkpt><trkpt lat="45.8239497989" lon="7.2084309440"><ele>1396.93</ele><time>2014-09-03T17:36:06Z</time></trkpt><trkpt lat="45.8239363879" lon="7.2085312754"><ele>1396.45</ele><time>2014-09-03T17:36:07Z</time></trkpt><trkpt lat="45.8239166066" lon="7.2086276673"><ele>1395.97</ele><time>2014-09-03T17:36:08Z</time></trkpt><trkpt lat="45.8239014354" lon="7.2087024339"><ele>1395.49</ele><time>2014-09-03T17:36:09Z</time></trkpt><trkpt lat="45.8238537423" lon="7.2089867480"><ele>1394.05</ele><time>2014-09-03T17:36:13Z</time></trkpt><trkpt lat="45.8238518145" lon="7.2090548929"><ele>1393.57</ele><time>2014-09-03T17:36:14Z</time></trkpt><trkpt lat="45.8238569275" lon="7.2091194335"><ele>1393.57</ele><time>2014-09-03T17:36:15Z</time></trkpt><trkpt lat="45.8238659799" lon="7.2091836389"><ele>1393.09</ele><time>2014-09-03T17:36:16Z</time></trkpt><trkpt lat="45.8238779660" lon="7.2092477605"><ele>1393.09</ele><time>2014-09-03T17:36:17Z</time></trkpt><trkpt lat="45.8238916285" lon="7.2093109600"><ele>1392.61</ele><time>2014-09-03T17:36:18Z</time></trkpt><trkpt lat="45.8240578417" lon="7.2099833563"><ele>1389.72</ele><time>2014-09-03T17:36:28Z</time></trkpt><trkpt lat="45.8242782857" lon="7.2113002371"><ele>1385.40</ele><time>2014-09-03T17:36:42Z</time></trkpt><trkpt lat="45.8244166709" lon="7.2124850191"><ele>1384.44</ele><time>2014-09-03T17:36:55Z</time></trkpt><trkpt lat="45.8245135657" lon="7.2132819705"><ele>1382.51</ele><time>2014-09-03T17:37:08Z</time></trkpt><trkpt lat="45.8247666154" lon="7.2139868885"><ele>1378.19</ele><time>2014-09-03T17:37:24Z</time></trkpt><trkpt lat="45.8249651827" lon="7.2145701014"><ele>1374.82</ele><time>2014-09-03T17:37:37Z</time></trkpt><trkpt lat="45.8249850478" lon="7.2146723606"><ele>1374.34</ele><time>2014-09-03T17:37:39Z</time></trkpt><trkpt lat="45.8249991294" lon="7.2148735262"><ele>1373.86</ele><time>2014-09-03T17:37:42Z</time></trkpt><trkpt lat="45.8249881491" lon="7.2150250711"><ele>1373.38</ele><time>2014-09-03T17:37:44Z</time></trkpt><trkpt lat="45.8249780070" lon="7.2150737699"><ele>1372.90</ele><time>2014-09-03T17:37:45Z</time></trkpt><trkpt lat="45.8249558788" lon="7.2151417471"><ele>1372.90</ele><time>2014-09-03T17:37:46Z</time></trkpt><trkpt lat="45.8246394619" lon="7.2162334900"><ele>1367.61</ele><time>2014-09-03T17:37:59Z</time></trkpt><trkpt lat="45.8246306609" lon="7.2163308877"><ele>1367.13</ele><time>2014-09-03T17:38:00Z</time></trkpt><trkpt lat="45.8246275596" lon="7.2164295428"><ele>1367.13</ele><time>2014-09-03T17:38:01Z</time></trkpt><trkpt lat="45.8246295713" lon="7.2165285330"><ele>1366.65</ele><time>2014-09-03T17:38:02Z</time></trkpt><trkpt lat="45.8246372826" lon="7.2166326363"><ele>1366.17</ele><time>2014-09-03T17:38:03Z</time></trkpt><trkpt lat="45.8246476762" lon="7.2167390026"><ele>1365.69</ele><time>2014-09-03T17:38:04Z</time></trkpt><trkpt lat="45.8247988019" lon="7.2182111163"><ele>1357.04</ele><time>2014-09-03T17:38:16Z</time></trkpt><trkpt lat="45.8248202596" lon="7.2186622303"><ele>1354.63</ele><time>2014-09-03T17:38:20Z</time></trkpt><trkpt lat="45.8248061780" lon="7.2187795769"><ele>1354.15</ele><time>2014-09-03T17:38:21Z</time></trkpt><trkpt lat="45.8247858938" lon="7.2188892122"><ele>1353.19</ele><time>2014-09-03T17:38:22Z</time></trkpt><trkpt lat="45.8247562218" lon="7.2190047987"><ele>1352.71</ele><time>2014-09-03T17:38:23Z</time></trkpt><trkpt lat="45.8247226942" lon="7.2191138472"><ele>1352.23</ele><time>2014-09-03T17:38:24Z</time></trkpt><trkpt lat="45.8246745821" lon="7.2192368098"><ele>1351.27</ele><time>2014-09-03T17:38:25Z</time></trkpt><trkpt lat="45.8246320020" lon="7.2193226404"><ele>1350.79</ele><time>2014-09-03T17:38:26Z</time></trkpt><trkpt lat="45.8245848957" lon="7.2194006760"><ele>1350.79</ele><time>2014-09-03T17:38:27Z</time></trkpt><trkpt lat="45.8245232049" lon="7.2195012588"><ele>1349.83</ele><time>2014-09-03T17:38:28Z</time></trkpt><trkpt lat="45.8235276863" lon="7.2211647313"><ele>1338.77</ele><time>2014-09-03T17:38:46Z</time></trkpt><trkpt lat="45.8226275537" lon="7.2226928361"><ele>1330.12</ele><time>2014-09-03T17:39:02Z</time></trkpt><trkpt lat="45.8223924413" lon="7.2232684214"><ele>1327.24</ele><time>2014-09-03T17:39:08Z</time></trkpt><trkpt lat="45.8221488632" lon="7.2248629108"><ele>1317.14</ele><time>2014-09-03T17:39:22Z</time></trkpt><trkpt lat="45.8218743559" lon="7.2267537843"><ele>1304.65</ele><time>2014-09-03T17:39:36Z</time></trkpt><trkpt lat="45.8216974139" lon="7.2279179469"><ele>1295.99</ele><time>2014-09-03T17:39:46Z</time></trkpt><trkpt lat="45.8214940690" lon="7.2293147910"><ele>1286.86</ele><time>2014-09-03T17:40:01Z</time></trkpt><trkpt lat="45.8212037198" lon="7.2303384729"><ele>1281.09</ele><time>2014-09-03T17:40:16Z</time></trkpt><trkpt lat="45.8211326413" lon="7.2304248065"><ele>1281.09</ele><time>2014-09-03T17:40:20Z</time></trkpt><trkpt lat="45.8211165480" lon="7.2304118145"><ele>1281.09</ele><time>2014-09-03T17:40:30Z</time></trkpt><trkpt lat="45.8210239280" lon="7.2303782869"><ele>1279.65</ele><time>2014-09-03T17:40:34Z</time></trkpt><trkpt lat="45.8210078347" lon="7.2303442564"><ele>1279.65</ele><time>2014-09-03T17:40:35Z</time></trkpt><trkpt lat="45.8209977765" lon="7.2302972339"><ele>1279.17</ele><time>2014-09-03T17:40:36Z</time></trkpt><trkpt lat="45.8209947590" lon="7.2302373033"><ele>1279.17</ele><time>2014-09-03T17:40:37Z</time></trkpt><trkpt lat="45.8210026380" lon="7.2301799711"><ele>1278.69</ele><time>2014-09-03T17:40:38Z</time></trkpt><trkpt lat="45.8210202400" lon="7.2301247343"><ele>1278.69</ele><time>2014-09-03T17:40:39Z</time></trkpt><trkpt lat="45.8210467268" lon="7.2300636303"><ele>1278.69</ele><time>2014-09-03T17:40:40Z</time></trkpt><trkpt lat="45.8210706152" lon="7.2300129198"><ele>1278.69</ele><time>2014-09-03T17:40:41Z</time></trkpt><trkpt lat="45.8213457093" lon="7.2294665035"><ele>1276.77</ele><time>2014-09-03T17:40:50Z</time></trkpt><trkpt lat="45.8213653229" lon="7.2293977719"><ele>1276.77</ele><time>2014-09-03T17:40:51Z</time></trkpt><trkpt lat="45.8213715255" lon="7.2293217480"><ele>1276.29</ele><time>2014-09-03T17:40:52Z</time></trkpt><trkpt lat="45.8213625569" lon="7.2292519268"><ele>1276.29</ele><time>2014-09-03T17:40:53Z</time></trkpt><trkpt lat="45.8213374950" lon="7.2291883919"><ele>1276.29</ele><time>2014-09-03T17:40:54Z</time></trkpt><trkpt lat="45.8212996926" lon="7.2291401960"><ele>1276.29</ele><time>2014-09-03T17:40:55Z</time></trkpt><trkpt lat="45.8212514967" lon="7.2291122843"><ele>1276.29</ele><time>2014-09-03T17:40:56Z</time></trkpt><trkpt lat="45.8212031331" lon="7.2291080933"><ele>1275.81</ele><time>2014-09-03T17:40:57Z</time></trkpt><trkpt lat="45.8211569488" lon="7.2291264497"><ele>1275.81</ele><time>2014-09-03T17:40:58Z</time></trkpt><trkpt lat="45.8211044781" lon="7.2291677725"><ele>1275.33</ele><time>2014-09-03T17:40:59Z</time></trkpt><trkpt lat="45.8210701961" lon="7.2292116098"><ele>1274.85</ele><time>2014-09-03T17:41:00Z</time></trkpt><trkpt lat="45.8210323937" lon="7.2292711213"><ele>1274.36</ele><time>2014-09-03T17:41:01Z</time></trkpt><trkpt lat="45.8209827729" lon="7.2293585446"><ele>1273.88</ele><time>2014-09-03T17:41:03Z</time></trkpt><trkpt lat="45.8206239436" lon="7.2298086528"><ele>1270.52</ele><time>2014-09-03T17:41:11Z</time></trkpt><trkpt lat="45.8203964587" lon="7.2299126722"><ele>1269.56</ele><time>2014-09-03T17:41:16Z</time></trkpt><trkpt lat="45.8203006536" lon="7.2299257480"><ele>1269.08</ele><time>2014-09-03T17:41:18Z</time></trkpt><trkpt lat="45.8200266492" lon="7.2299430985"><ele>1268.60</ele><time>2014-09-03T17:41:24Z</time></trkpt><trkpt lat="45.8193942346" lon="7.2299579345"><ele>1269.56</ele><time>2014-09-03T17:41:39Z</time></trkpt><trkpt lat="45.8193446975" lon="7.2299793921"><ele>1269.56</ele><time>2014-09-03T17:41:40Z</time></trkpt><trkpt lat="45.8193058055" lon="7.2300073039"><ele>1269.56</ele><time>2014-09-03T17:41:41Z</time></trkpt><trkpt lat="45.8192739543" lon="7.2300409153"><ele>1269.56</ele><time>2014-09-03T17:41:42Z</time></trkpt><trkpt lat="45.8192388341" lon="7.2300937213"><ele>1269.56</ele><time>2014-09-03T17:41:43Z</time></trkpt><trkpt lat="45.8192184661" lon="7.2301361337"><ele>1269.56</ele><time>2014-09-03T17:41:44Z</time></trkpt><trkpt lat="45.8192015346" lon="7.2301927954"><ele>1269.56</ele><time>2014-09-03T17:41:45Z</time></trkpt><trkpt lat="45.8191913925" lon="7.2302594315"><ele>1269.08</ele><time>2014-09-03T17:41:46Z</time></trkpt><trkpt lat="45.8191883750" lon="7.2303174343"><ele>1269.08</ele><time>2014-09-03T17:41:47Z</time></trkpt><trkpt lat="45.8191855252" lon="7.2303880937"><ele>1269.08</ele><time>2014-09-03T17:41:48Z</time></trkpt><trkpt lat="45.8191853575" lon="7.2304451745"><ele>1269.08</ele><time>2014-09-03T17:41:49Z</time></trkpt><trkpt lat="45.8191899676" lon="7.2305097152"><ele>1269.08</ele><time>2014-09-03T17:41:50Z</time></trkpt><trkpt lat="45.8192036301" lon="7.2306921054"><ele>1269.08</ele><time>2014-09-03T17:41:53Z</time></trkpt><trkpt lat="45.8191724494" lon="7.2310947720"><ele>1269.08</ele><time>2014-09-03T17:42:00Z</time></trkpt><trkpt lat="45.8190868702" lon="7.2315830179"><ele>1268.60</ele><time>2014-09-03T17:42:07Z</time></trkpt><trkpt lat="45.8190637361" lon="7.2316505760"><ele>1268.12</ele><time>2014-09-03T17:42:08Z</time></trkpt><trkpt lat="45.8187018055" lon="7.2325792909"><ele>1267.64</ele><time>2014-09-03T17:42:22Z</time></trkpt><trkpt lat="45.8181439899" lon="7.2339012846"><ele>1266.19</ele><time>2014-09-03T17:42:39Z</time></trkpt><trkpt lat="45.8179017529" lon="7.2344775405"><ele>1266.19</ele><time>2014-09-03T17:42:46Z</time></trkpt><trkpt lat="45.8172762115" lon="7.2359514143"><ele>1264.75</ele><time>2014-09-03T17:43:04Z</time></trkpt><trkpt lat="45.8167252690" lon="7.2371486854"><ele>1263.79</ele><time>2014-09-03T17:43:19Z</time></trkpt><trkpt lat="45.8166781627" lon="7.2372182552"><ele>1263.79</ele><time>2014-09-03T17:43:20Z</time></trkpt><trkpt lat="45.8159224503" lon="7.2377928346"><ele>1262.83</ele><time>2014-09-03T17:43:33Z</time></trkpt><trkpt lat="45.8151648939" lon="7.2377781663"><ele>1261.39</ele><time>2014-09-03T17:43:45Z</time></trkpt><trkpt lat="45.8142383583" lon="7.2377313115"><ele>1259.46</ele><time>2014-09-03T17:44:01Z</time></trkpt><trkpt lat="45.8133750223" lon="7.2376940120"><ele>1257.06</ele><time>2014-09-03T17:44:15Z</time></trkpt><trkpt lat="45.8133112360" lon="7.2377019748"><ele>1257.06</ele><time>2014-09-03T17:44:16Z</time></trkpt><trkpt lat="45.8132468630" lon="7.2377025615"><ele>1256.58</ele><time>2014-09-03T17:44:17Z</time></trkpt><trkpt lat="45.8131817356" lon="7.2377020586"><ele>1256.58</ele><time>2014-09-03T17:44:18Z</time></trkpt><trkpt lat="45.8131165244" lon="7.2377094347"><ele>1256.10</ele><time>2014-09-03T17:44:19Z</time></trkpt><trkpt lat="45.8130505588" lon="7.2377221752"><ele>1256.10</ele><time>2014-09-03T17:44:20Z</time></trkpt><trkpt lat="45.8128463756" lon="7.2377961874"><ele>1255.14</ele><time>2014-09-03T17:44:23Z</time></trkpt><trkpt lat="45.8108966611" lon="7.2390046064"><ele>1249.37</ele><time>2014-09-03T17:44:53Z</time></trkpt><trkpt lat="45.8102100994" lon="7.2399899829"><ele>1245.04</ele><time>2014-09-03T17:45:06Z</time></trkpt><trkpt lat="45.8095039241" lon="7.2416633461"><ele>1238.80</ele><time>2014-09-03T17:45:24Z</time></trkpt><trkpt lat="45.8087377343" lon="7.2435571533"><ele>1233.51</ele><time>2014-09-03T17:45:43Z</time></trkpt><trkpt lat="45.8078940120" lon="7.2457407229"><ele>1226.78</ele><time>2014-09-03T17:46:03Z</time></trkpt><trkpt lat="45.8077942673" lon="7.2471799795"><ele>1220.53</ele><time>2014-09-03T17:46:15Z</time></trkpt><trkpt lat="45.8078028169" lon="7.2491395008"><ele>1216.69</ele><time>2014-09-03T17:46:32Z</time></trkpt><trkpt lat="45.8073486015" lon="7.2505390272"><ele>1213.32</ele><time>2014-09-03T17:46:46Z</time></trkpt><trkpt lat="45.8068027720" lon="7.2518697381"><ele>1212.36</ele><time>2014-09-03T17:47:00Z</time></trkpt><trkpt lat="45.8060377557" lon="7.2533907183"><ele>1209.48</ele><time>2014-09-03T17:47:17Z</time></trkpt><trkpt lat="45.8052113000" lon="7.2549529374"><ele>1207.07</ele><time>2014-09-03T17:47:35Z</time></trkpt><trkpt lat="45.8045207150" lon="7.2564745881"><ele>1206.59</ele><time>2014-09-03T17:47:53Z</time></trkpt><trkpt lat="45.8040084969" lon="7.2581417486"><ele>1202.27</ele><time>2014-09-03T17:48:12Z</time></trkpt><trkpt lat="45.8035840373" lon="7.2598032933"><ele>1201.30</ele><time>2014-09-03T17:48:30Z</time></trkpt><trkpt lat="45.8032982983" lon="7.2611480020"><ele>1199.86</ele><time>2014-09-03T17:48:45Z</time></trkpt><trkpt lat="45.8030938637" lon="7.2624471132"><ele>1199.38</ele><time>2014-09-03T17:48:59Z</time></trkpt><trkpt lat="45.8030683827" lon="7.2625830676"><ele>1198.90</ele><time>2014-09-03T17:49:02Z</time></trkpt><trkpt lat="45.8030486014" lon="7.2626048606"><ele>1198.42</ele><time>2014-09-03T17:49:10Z</time></trkpt><trkpt lat="45.8030382078" lon="7.2626029328"><ele>1199.86</ele><time>2014-09-03T17:49:41Z</time></trkpt><trkpt lat="45.8030469250" lon="7.2626160923"><ele>1200.34</ele><time>2014-09-03T17:50:07Z</time></trkpt><trkpt lat="45.8030410577" lon="7.2626436688"><ele>1200.82</ele><time>2014-09-03T17:50:14Z</time></trkpt><trkpt lat="45.8030378725" lon="7.2626671381"><ele>1200.82</ele><time>2014-09-03T17:50:15Z</time></trkpt><trkpt lat="45.8029358648" lon="7.2632532846"><ele>1200.82</ele><time>2014-09-03T17:50:27Z</time></trkpt><trkpt lat="45.8026705775" lon="7.2644974943"><ele>1195.54</ele><time>2014-09-03T17:50:40Z</time></trkpt><trkpt lat="45.8022574335" lon="7.2666749451"><ele>1187.85</ele><time>2014-09-03T17:50:58Z</time></trkpt><trkpt lat="45.8018338121" lon="7.2688192036"><ele>1182.08</ele><time>2014-09-03T17:51:17Z</time></trkpt><trkpt lat="45.8017637394" lon="7.2691052780"><ele>1182.08</ele><time>2014-09-03T17:51:20Z</time></trkpt><trkpt lat="45.8013046626" lon="7.2701500822"><ele>1180.64</ele><time>2014-09-03T17:51:33Z</time></trkpt><trkpt lat="45.8008347731" lon="7.2717240360"><ele>1179.19</ele><time>2014-09-03T17:51:51Z</time></trkpt><trkpt lat="45.8003531490" lon="7.2731256578"><ele>1177.75</ele><time>2014-09-03T17:52:06Z</time></trkpt><trkpt lat="45.7996323891" lon="7.2742711287"><ele>1175.35</ele><time>2014-09-03T17:52:21Z</time></trkpt><trkpt lat="45.7990274671" lon="7.2751512285"><ele>1173.91</ele><time>2014-09-03T17:52:33Z</time></trkpt><trkpt lat="45.7985916082" lon="7.2764681932"><ele>1167.66</ele><time>2014-09-03T17:52:45Z</time></trkpt><trkpt lat="45.7979429327" lon="7.2784806881"><ele>1158.05</ele><time>2014-09-03T17:53:00Z</time></trkpt><trkpt lat="45.7971487474" lon="7.2798797116"><ele>1150.84</ele><time>2014-09-03T17:53:11Z</time></trkpt><trkpt lat="45.7965118904" lon="7.2812084947"><ele>1143.63</ele><time>2014-09-03T17:53:22Z</time></trkpt><trkpt lat="45.7964320946" lon="7.2814858519"><ele>1142.18</ele><time>2014-09-03T17:53:24Z</time></trkpt><trkpt lat="45.7957821619" lon="7.2834917251"><ele>1132.57</ele><time>2014-09-03T17:53:39Z</time></trkpt><trkpt lat="45.7947749086" lon="7.2849473264"><ele>1122.48</ele><time>2014-09-03T17:53:52Z</time></trkpt><trkpt lat="45.7935512345" lon="7.2870339174"><ele>1109.98</ele><time>2014-09-03T17:54:09Z</time></trkpt><trkpt lat="45.7933234144" lon="7.2873763181"><ele>1108.06</ele><time>2014-09-03T17:54:13Z</time></trkpt><trkpt lat="45.7932622265" lon="7.2874366678"><ele>1107.58</ele><time>2014-09-03T17:54:14Z</time></trkpt><trkpt lat="45.7931935787" lon="7.2874805890"><ele>1107.10</ele><time>2014-09-03T17:54:15Z</time></trkpt><trkpt lat="45.7931193989" lon="7.2875084169"><ele>1106.13</ele><time>2014-09-03T17:54:16Z</time></trkpt><trkpt lat="45.7930409443" lon="7.2875142004"><ele>1105.65</ele><time>2014-09-03T17:54:17Z</time></trkpt><trkpt lat="45.7929640822" lon="7.2874954250"><ele>1105.17</ele><time>2014-09-03T17:54:18Z</time></trkpt><trkpt lat="45.7928883098" lon="7.2874530964"><ele>1105.17</ele><time>2014-09-03T17:54:19Z</time></trkpt><trkpt lat="45.7928223442" lon="7.2873928305"><ele>1104.69</ele><time>2014-09-03T17:54:20Z</time></trkpt><trkpt lat="45.7927642576" lon="7.2873160522"><ele>1104.21</ele><time>2014-09-03T17:54:21Z</time></trkpt><trkpt lat="45.7927155588" lon="7.2872267850"><ele>1103.73</ele><time>2014-09-03T17:54:22Z</time></trkpt><trkpt lat="45.7926811930" lon="7.2871236037"><ele>1103.25</ele><time>2014-09-03T17:54:23Z</time></trkpt><trkpt lat="45.7926595677" lon="7.2870115377"><ele>1102.77</ele><time>2014-09-03T17:54:24Z</time></trkpt><trkpt lat="45.7926373556" lon="7.2868985496"><ele>1102.77</ele><time>2014-09-03T17:54:25Z</time></trkpt><trkpt lat="45.7926093601" lon="7.2867811192"><ele>1101.81</ele><time>2014-09-03T17:54:26Z</time></trkpt><trkpt lat="45.7922781073" lon="7.2856405936"><ele>1097.00</ele><time>2014-09-03T17:54:36Z</time></trkpt><trkpt lat="45.7922231220" lon="7.2855417710"><ele>1097.00</ele><time>2014-09-03T17:54:37Z</time></trkpt><trkpt lat="45.7916122489" lon="7.2846616711"><ele>1092.68</ele><time>2014-09-03T17:54:47Z</time></trkpt><trkpt lat="45.7915503066" lon="7.2846135590"><ele>1092.20</ele><time>2014-09-03T17:54:48Z</time></trkpt><trkpt lat="45.7914850116" lon="7.2845881619"><ele>1092.20</ele><time>2014-09-03T17:54:49Z</time></trkpt><trkpt lat="45.7914210577" lon="7.2845852282"><ele>1091.71</ele><time>2014-09-03T17:54:50Z</time></trkpt><trkpt lat="45.7913566008" lon="7.2846004833"><ele>1091.71</ele><time>2014-09-03T17:54:51Z</time></trkpt><trkpt lat="45.7912947424" lon="7.2846320830"><ele>1091.71</ele><time>2014-09-03T17:54:52Z</time></trkpt><trkpt lat="45.7912308723" lon="7.2846962046"><ele>1091.71</ele><time>2014-09-03T17:54:53Z</time></trkpt><trkpt lat="45.7911940757" lon="7.2847538721"><ele>1091.23</ele><time>2014-09-03T17:54:54Z</time></trkpt><trkpt lat="45.7911543455" lon="7.2848503478"><ele>1091.23</ele><time>2014-09-03T17:54:55Z</time></trkpt><trkpt lat="45.7911349833" lon="7.2849454824"><ele>1090.75</ele><time>2014-09-03T17:54:56Z</time></trkpt><trkpt lat="45.7911310438" lon="7.2850339953"><ele>1090.75</ele><time>2014-09-03T17:54:57Z</time></trkpt><trkpt lat="45.7911380008" lon="7.2851354163"><ele>1090.27</ele><time>2014-09-03T17:54:58Z</time></trkpt><trkpt lat="45.7911559381" lon="7.2852397710"><ele>1089.79</ele><time>2014-09-03T17:54:59Z</time></trkpt><trkpt lat="45.7911868673" lon="7.2853409406"><ele>1089.31</ele><time>2014-09-03T17:55:00Z</time></trkpt><trkpt lat="45.7912229095" lon="7.2854452953"><ele>1088.83</ele><time>2014-09-03T17:55:01Z</time></trkpt><trkpt lat="45.7913090754" lon="7.2857602872"><ele>1087.39</ele><time>2014-09-03T17:55:04Z</time></trkpt><trkpt lat="45.7913218997" lon="7.2858674079"><ele>1086.91</ele><time>2014-09-03T17:55:05Z</time></trkpt><trkpt lat="45.7913301140" lon="7.2860798892"><ele>1085.95</ele><time>2014-09-03T17:55:07Z</time></trkpt><trkpt lat="45.7913265936" lon="7.2861880995"><ele>1085.47</ele><time>2014-09-03T17:55:08Z</time></trkpt><trkpt lat="45.7913153619" lon="7.2863038536"><ele>1084.50</ele><time>2014-09-03T17:55:09Z</time></trkpt><trkpt lat="45.7912948262" lon="7.2864178475"><ele>1084.02</ele><time>2014-09-03T17:55:10Z</time></trkpt><trkpt lat="45.7912638132" lon="7.2865337692"><ele>1083.06</ele><time>2014-09-03T17:55:11Z</time></trkpt><trkpt lat="45.7912268490" lon="7.2866519541"><ele>1082.10</ele><time>2014-09-03T17:55:12Z</time></trkpt><trkpt lat="45.7907779142" lon="7.2881359700"><ele>1072.97</ele><time>2014-09-03T17:55:24Z</time></trkpt><trkpt lat="45.7908321451" lon="7.2895084228"><ele>1064.80</ele><time>2014-09-03T17:55:33Z</time></trkpt><trkpt lat="45.7911519986" lon="7.2913766652"><ele>1054.70</ele><time>2014-09-03T17:55:46Z</time></trkpt><trkpt lat="45.7912193891" lon="7.2919002827"><ele>1052.30</ele><time>2014-09-03T17:55:51Z</time></trkpt><trkpt lat="45.7912203949" lon="7.2920089960"><ele>1051.82</ele><time>2014-09-03T17:55:52Z</time></trkpt><trkpt lat="45.7912137732" lon="7.2921195533"><ele>1050.86</ele><time>2014-09-03T17:55:53Z</time></trkpt><trkpt lat="45.7911989372" lon="7.2922292724"><ele>1050.38</ele><time>2014-09-03T17:55:54Z</time></trkpt><trkpt lat="45.7911768928" lon="7.2923359741"><ele>1049.42</ele><time>2014-09-03T17:55:55Z</time></trkpt><trkpt lat="45.7911462151" lon="7.2924396582"><ele>1048.94</ele><time>2014-09-03T17:55:56Z</time></trkpt><trkpt lat="45.7911076583" lon="7.2925440967"><ele>1047.97</ele><time>2014-09-03T17:55:57Z</time></trkpt><trkpt lat="45.7910618931" lon="7.2926462721"><ele>1047.49</ele><time>2014-09-03T17:55:58Z</time></trkpt><trkpt lat="45.7910101768" lon="7.2927429993"><ele>1046.53</ele><time>2014-09-03T17:55:59Z</time></trkpt><trkpt lat="45.7909543533" lon="7.2928320151"><ele>1045.57</ele><time>2014-09-03T17:56:00Z</time></trkpt><trkpt lat="45.7908918243" lon="7.2929077037"><ele>1045.09</ele><time>2014-09-03T17:56:01Z</time></trkpt><trkpt lat="45.7908244338" lon="7.2929750104"><ele>1044.61</ele><time>2014-09-03T17:56:02Z</time></trkpt><trkpt lat="45.7907505892" lon="7.2930356953"><ele>1044.13</ele><time>2014-09-03T17:56:03Z</time></trkpt><trkpt lat="45.7906753197" lon="7.2930864058"><ele>1043.65</ele><time>2014-09-03T17:56:04Z</time></trkpt><trkpt lat="45.7906041574" lon="7.2931221966"><ele>1043.17</ele><time>2014-09-03T17:56:05Z</time></trkpt><trkpt lat="45.7905423827" lon="7.2931420617"><ele>1042.69</ele><time>2014-09-03T17:56:06Z</time></trkpt><trkpt lat="45.7904896606" lon="7.2931527067"><ele>1042.21</ele><time>2014-09-03T17:56:07Z</time></trkpt><trkpt lat="45.7904143073" lon="7.2931771819"><ele>1041.73</ele><time>2014-09-03T17:56:14Z</time></trkpt><trkpt lat="45.7903910056" lon="7.2931869049"><ele>1042.69</ele><time>2014-09-03T17:56:30Z</time></trkpt><trkpt lat="45.7903762534" lon="7.2931949515"><ele>1042.69</ele><time>2014-09-03T17:56:31Z</time></trkpt><trkpt lat="45.7903601602" lon="7.2932142299"><ele>1042.69</ele><time>2014-09-03T17:56:32Z</time></trkpt><trkpt lat="45.7903374452" lon="7.2932391241"><ele>1042.69</ele><time>2014-09-03T17:56:33Z</time></trkpt><trkpt lat="45.7903098688" lon="7.2932626773"><ele>1042.69</ele><time>2014-09-03T17:56:34Z</time></trkpt><trkpt lat="45.7897334453" lon="7.2936603986"><ele>1038.84</ele><time>2014-09-03T17:56:44Z</time></trkpt><trkpt lat="45.7888472266" lon="7.2943446971"><ele>1032.11</ele><time>2014-09-03T17:56:55Z</time></trkpt><trkpt lat="45.7876701560" lon="7.2949315980"><ele>1024.90</ele><time>2014-09-03T17:57:08Z</time></trkpt><trkpt lat="45.7861288916" lon="7.2953883279"><ele>1014.33</ele><time>2014-09-03T17:57:23Z</time></trkpt><trkpt lat="45.7849619631" lon="7.2957684472"><ele>1006.64</ele><time>2014-09-03T17:57:35Z</time></trkpt><trkpt lat="45.7839967869" lon="7.2960634902"><ele>1000.87</ele><time>2014-09-03T17:57:46Z</time></trkpt><trkpt lat="45.7839187514" lon="7.2961049806"><ele>1000.39</ele><time>2014-09-03T17:57:47Z</time></trkpt><trkpt lat="45.7838356029" lon="7.2961611394"><ele>999.91</ele><time>2014-09-03T17:57:48Z</time></trkpt><trkpt lat="45.7837739959" lon="7.2962115146"><ele>999.43</ele><time>2014-09-03T17:57:49Z</time></trkpt><trkpt lat="45.7837054320" lon="7.2962763067"><ele>998.95</ele><time>2014-09-03T17:57:50Z</time></trkpt><trkpt lat="45.7836383767" lon="7.2963496484"><ele>998.47</ele><time>2014-09-03T17:57:51Z</time></trkpt><trkpt lat="45.7829258312" lon="7.2973595839"><ele>991.74</ele><time>2014-09-03T17:58:03Z</time></trkpt><trkpt lat="45.7828553393" lon="7.2974316683"><ele>991.26</ele><time>2014-09-03T17:58:04Z</time></trkpt><trkpt lat="45.7827774715" lon="7.2974924371"><ele>990.78</ele><time>2014-09-03T17:58:05Z</time></trkpt><trkpt lat="45.7819701266" lon="7.2978536971"><ele>985.01</ele><time>2014-09-03T17:58:16Z</time></trkpt><trkpt lat="45.7816843037" lon="7.2979657631"><ele>983.09</ele><time>2014-09-03T17:58:20Z</time></trkpt><trkpt lat="45.7816092856" lon="7.2979756538"><ele>982.60</ele><time>2014-09-03T17:58:21Z</time></trkpt><trkpt lat="45.7815326750" lon="7.2979677748"><ele>982.12</ele><time>2014-09-03T17:58:22Z</time></trkpt><trkpt lat="45.7814615127" lon="7.2979452275"><ele>982.12</ele><time>2014-09-03T17:58:23Z</time></trkpt><trkpt lat="45.7813914400" lon="7.2979028150"><ele>981.64</ele><time>2014-09-03T17:58:24Z</time></trkpt><trkpt lat="45.7813261449" lon="7.2978448961"><ele>981.16</ele><time>2014-09-03T17:58:25Z</time></trkpt><trkpt lat="45.7812673878" lon="7.2977753263"><ele>980.68</ele><time>2014-09-03T17:58:26Z</time></trkpt><trkpt lat="45.7812170126" lon="7.2976919264"><ele>980.20</ele><time>2014-09-03T17:58:27Z</time></trkpt><trkpt lat="45.7811744325" lon="7.2975997254"><ele>979.24</ele><time>2014-09-03T17:58:28Z</time></trkpt><trkpt lat="45.7811441738" lon="7.2974988911"><ele>978.76</ele><time>2014-09-03T17:58:29Z</time></trkpt><trkpt lat="45.7811242249" lon="7.2973908484"><ele>978.28</ele><time>2014-09-03T17:58:30Z</time></trkpt><trkpt lat="45.7811160106" lon="7.2972843982"><ele>977.80</ele><time>2014-09-03T17:58:31Z</time></trkpt><trkpt lat="45.7811169326" lon="7.2971790377"><ele>977.32</ele><time>2014-09-03T17:58:32Z</time></trkpt><trkpt lat="45.7811257336" lon="7.2970761918"><ele>976.84</ele><time>2014-09-03T17:58:33Z</time></trkpt><trkpt lat="45.7811430842" lon="7.2969776206"><ele>976.36</ele><time>2014-09-03T17:58:34Z</time></trkpt><trkpt lat="45.7811651286" lon="7.2968824022"><ele>975.88</ele><time>2014-09-03T17:58:35Z</time></trkpt><trkpt lat="45.7811901905" lon="7.2967892792"><ele>975.39</ele><time>2014-09-03T17:58:36Z</time></trkpt><trkpt lat="45.7813035138" lon="7.2963317111"><ele>972.99</ele><time>2014-09-03T17:58:41Z</time></trkpt><trkpt lat="45.7813097164" lon="7.2962380853"><ele>972.51</ele><time>2014-09-03T17:58:42Z</time></trkpt><trkpt lat="45.7813081238" lon="7.2961436212"><ele>972.03</ele><time>2014-09-03T17:58:43Z</time></trkpt><trkpt lat="45.7813020889" lon="7.2960459720"><ele>971.55</ele><time>2014-09-03T17:58:44Z</time></trkpt><trkpt lat="45.7812855765" lon="7.2959306370"><ele>971.07</ele><time>2014-09-03T17:58:45Z</time></trkpt><trkpt lat="45.7812683098" lon="7.2958489135"><ele>971.07</ele><time>2014-09-03T17:58:46Z</time></trkpt><trkpt lat="45.7812368777" lon="7.2957481630"><ele>970.11</ele><time>2014-09-03T17:58:47Z</time></trkpt><trkpt lat="45.7811968122" lon="7.2956622485"><ele>969.63</ele><time>2014-09-03T17:58:48Z</time></trkpt><trkpt lat="45.7811612729" lon="7.2956100293"><ele>969.15</ele><time>2014-09-03T17:58:49Z</time></trkpt><trkpt lat="45.7811210398" lon="7.2955625039"><ele>968.67</ele><time>2014-09-03T17:58:50Z</time></trkpt><trkpt lat="45.7810690720" lon="7.2955145594"><ele>968.67</ele><time>2014-09-03T17:58:51Z</time></trkpt><trkpt lat="45.7810117397" lon="7.2954732366"><ele>968.18</ele><time>2014-09-03T17:58:52Z</time></trkpt><trkpt lat="45.7809513900" lon="7.2954377811"><ele>968.18</ele><time>2014-09-03T17:58:53Z</time></trkpt><trkpt lat="45.7808907889" lon="7.2954049241"><ele>967.70</ele><time>2014-09-03T17:58:54Z</time></trkpt><trkpt lat="45.7798912469" lon="7.2949898522"><ele>959.53</ele><time>2014-09-03T17:59:10Z</time></trkpt><trkpt lat="45.7798398659" lon="7.2949995752"><ele>959.53</ele><time>2014-09-03T17:59:11Z</time></trkpt><trkpt lat="45.7797816116" lon="7.2950182669"><ele>959.05</ele><time>2014-09-03T17:59:12Z</time></trkpt><trkpt lat="45.7797239441" lon="7.2950435802"><ele>958.57</ele><time>2014-09-03T17:59:13Z</time></trkpt><trkpt lat="45.7796672825" lon="7.2950736713"><ele>958.57</ele><time>2014-09-03T17:59:14Z</time></trkpt><trkpt lat="45.7788380608" lon="7.2953794431"><ele>953.77</ele><time>2014-09-03T17:59:27Z</time></trkpt><trkpt lat="45.7777769957" lon="7.2955436446"><ele>951.36</ele><time>2014-09-03T17:59:42Z</time></trkpt><trkpt lat="45.7776542008" lon="7.2956448141"><ele>950.88</ele><time>2014-09-03T17:59:44Z</time></trkpt><trkpt lat="45.7775972877" lon="7.2957051639"><ele>950.88</ele><time>2014-09-03T17:59:45Z</time></trkpt><trkpt lat="45.7775410451" lon="7.2957759909"><ele>950.40</ele><time>2014-09-03T17:59:46Z</time></trkpt><trkpt lat="45.7766806427" lon="7.2967582662"><ele>947.04</ele><time>2014-09-03T18:00:01Z</time></trkpt><trkpt lat="45.7764040399" lon="7.2970159259"><ele>945.11</ele><time>2014-09-03T18:00:05Z</time></trkpt><trkpt lat="45.7747735083" lon="7.2986741178"><ele>936.94</ele><time>2014-09-03T18:00:28Z</time></trkpt><trkpt lat="45.7743405830" lon="7.2995092068"><ele>934.06</ele><time>2014-09-03T18:00:37Z</time></trkpt><trkpt lat="45.7734622434" lon="7.3005716968"><ele>929.25</ele><time>2014-09-03T18:00:50Z</time></trkpt><trkpt lat="45.7717953343" lon="7.3020360991"><ele>920.60</ele><time>2014-09-03T18:01:10Z</time></trkpt><trkpt lat="45.7703984063" lon="7.3034136649"><ele>911.47</ele><time>2014-09-03T18:01:26Z</time></trkpt><trkpt lat="45.7689146418" lon="7.3047175538"><ele>903.30</ele><time>2014-09-03T18:01:43Z</time></trkpt><trkpt lat="45.7676540874" lon="7.3052342981"><ele>898.01</ele><time>2014-09-03T18:01:57Z</time></trkpt><trkpt lat="45.7673848607" lon="7.3053592723"><ele>897.53</ele><time>2014-09-03T18:02:01Z</time></trkpt><trkpt lat="45.7673004549" lon="7.3054682370"><ele>896.57</ele><time>2014-09-03T18:02:02Z</time></trkpt><trkpt lat="45.7672487386" lon="7.3055574205"><ele>896.57</ele><time>2014-09-03T18:02:03Z</time></trkpt><trkpt lat="45.7672129478" lon="7.3056477774"><ele>896.09</ele><time>2014-09-03T18:02:04Z</time></trkpt><trkpt lat="45.7671842817" lon="7.3057592567"><ele>895.61</ele><time>2014-09-03T18:02:05Z</time></trkpt><trkpt lat="45.7671696134" lon="7.3058965523"><ele>895.12</ele><time>2014-09-03T18:02:06Z</time></trkpt><trkpt lat="45.7671706192" lon="7.3059871607"><ele>895.12</ele><time>2014-09-03T18:02:07Z</time></trkpt><trkpt lat="45.7671821862" lon="7.3060979694"><ele>894.64</ele><time>2014-09-03T18:02:08Z</time></trkpt><trkpt lat="45.7672079187" lon="7.3062098678"><ele>894.16</ele><time>2014-09-03T18:02:09Z</time></trkpt><trkpt lat="45.7672462240" lon="7.3063166533"><ele>893.20</ele><time>2014-09-03T18:02:10Z</time></trkpt><trkpt lat="45.7672962639" lon="7.3064198345"><ele>893.20</ele><time>2014-09-03T18:02:11Z</time></trkpt><trkpt lat="45.7673547696" lon="7.3065007199"><ele>892.72</ele><time>2014-09-03T18:02:12Z</time></trkpt><trkpt lat="45.7674271055" lon="7.3065647576"><ele>892.24</ele><time>2014-09-03T18:02:13Z</time></trkpt><trkpt lat="45.7675069850" lon="7.3066134565"><ele>892.24</ele><time>2014-09-03T18:02:14Z</time></trkpt><trkpt lat="45.7675909717" lon="7.3066469841"><ele>891.76</ele><time>2014-09-03T18:02:15Z</time></trkpt><trkpt lat="45.7676773891" lon="7.3066538572"><ele>891.28</ele><time>2014-09-03T18:02:16Z</time></trkpt><trkpt lat="45.7677610405" lon="7.3066337407"><ele>891.28</ele><time>2014-09-03T18:02:17Z</time></trkpt><trkpt lat="45.7678413391" lon="7.3065966927"><ele>890.80</ele><time>2014-09-03T18:02:18Z</time></trkpt><trkpt lat="45.7679160219" lon="7.3065496702"><ele>890.32</ele><time>2014-09-03T18:02:19Z</time></trkpt><trkpt lat="45.7679904532" lon="7.3065030668"><ele>889.84</ele><time>2014-09-03T18:02:20Z</time></trkpt><trkpt lat="45.7688771747" lon="7.3059486877"><ele>886.95</ele><time>2014-09-03T18:02:33Z</time></trkpt><trkpt lat="45.7689542044" lon="7.3059067782"><ele>886.95</ele><time>2014-09-03T18:02:34Z</time></trkpt><trkpt lat="45.7690323237" lon="7.3058669642"><ele>886.47</ele><time>2014-09-03T18:02:35Z</time></trkpt><trkpt lat="45.7704962231" lon="7.3049656581"><ele>881.67</ele><time>2014-09-03T18:02:53Z</time></trkpt><trkpt lat="45.7714212500" lon="7.3044076748"><ele>878.78</ele><time>2014-09-03T18:03:04Z</time></trkpt><trkpt lat="45.7715049852" lon="7.3043901566"><ele>878.30</ele><time>2014-09-03T18:03:05Z</time></trkpt><trkpt lat="45.7715868764" lon="7.3044001311"><ele>878.30</ele><time>2014-09-03T18:03:06Z</time></trkpt><trkpt lat="45.7716643251" lon="7.3044409510"><ele>877.82</ele><time>2014-09-03T18:03:07Z</time></trkpt><trkpt lat="45.7717342302" lon="7.3045033962"><ele>877.34</ele><time>2014-09-03T18:03:08Z</time></trkpt><trkpt lat="45.7717961725" lon="7.3045831081"><ele>876.86</ele><time>2014-09-03T18:03:09Z</time></trkpt><trkpt lat="45.7718456257" lon="7.3046796676"><ele>876.38</ele><time>2014-09-03T18:03:10Z</time></trkpt><trkpt lat="45.7718825899" lon="7.3047849443"><ele>875.90</ele><time>2014-09-03T18:03:11Z</time></trkpt><trkpt lat="45.7719039638" lon="7.3048984352"><ele>875.42</ele><time>2014-09-03T18:03:12Z</time></trkpt><trkpt lat="45.7719113398" lon="7.3050162848"><ele>875.42</ele><time>2014-09-03T18:03:13Z</time></trkpt><trkpt lat="45.7719127648" lon="7.3051368166"><ele>874.94</ele><time>2014-09-03T18:03:14Z</time></trkpt><trkpt lat="45.7718934864" lon="7.3061009869"><ele>872.53</ele><time>2014-09-03T18:03:22Z</time></trkpt><trkpt lat="45.7718742918" lon="7.3062192556"><ele>872.53</ele><time>2014-09-03T18:03:23Z</time></trkpt><trkpt lat="45.7718474697" lon="7.3063323274"><ele>872.05</ele><time>2014-09-03T18:03:24Z</time></trkpt><trkpt lat="45.7718096673" lon="7.3064378556"><ele>872.05</ele><time>2014-09-03T18:03:25Z</time></trkpt><trkpt lat="45.7717618067" lon="7.3065381031"><ele>871.57</ele><time>2014-09-03T18:03:26Z</time></trkpt><trkpt lat="45.7717058994" lon="7.3066309746"><ele>871.09</ele><time>2014-09-03T18:03:27Z</time></trkpt><trkpt lat="45.7716386765" lon="7.3067250196"><ele>871.09</ele><time>2014-09-03T18:03:28Z</time></trkpt><trkpt lat="45.7715679333" lon="7.3067995347"><ele>870.61</ele><time>2014-09-03T18:03:29Z</time></trkpt><trkpt lat="45.7714929152" lon="7.3068571184"><ele>870.13</ele><time>2014-09-03T18:03:30Z</time></trkpt><trkpt lat="45.7714080904" lon="7.3069036379"><ele>869.65</ele><time>2014-09-03T18:03:31Z</time></trkpt><trkpt lat="45.7713183202" lon="7.3069375008"><ele>869.17</ele><time>2014-09-03T18:03:32Z</time></trkpt><trkpt lat="45.7712256163" lon="7.3069591261"><ele>868.69</ele><time>2014-09-03T18:03:33Z</time></trkpt><trkpt lat="45.7711318228" lon="7.3069696035"><ele>868.21</ele><time>2014-09-03T18:03:34Z</time></trkpt><trkpt lat="45.7710390352" lon="7.3069635686"><ele>867.73</ele><time>2014-09-03T18:03:35Z</time></trkpt><trkpt lat="45.7709491812" lon="7.3069457989"><ele>867.25</ele><time>2014-09-03T18:03:36Z</time></trkpt><trkpt lat="45.7708597463" lon="7.3069224134"><ele>866.77</ele><time>2014-09-03T18:03:37Z</time></trkpt><trkpt lat="45.7704305928" lon="7.3068342358"><ele>865.80</ele><time>2014-09-03T18:03:42Z</time></trkpt><trkpt lat="45.7703475282" lon="7.3068566993"><ele>865.32</ele><time>2014-09-03T18:03:43Z</time></trkpt><trkpt lat="45.7702722587" lon="7.3069008719"><ele>865.32</ele><time>2014-09-03T18:03:44Z</time></trkpt><trkpt lat="45.7702100649" lon="7.3069639876"><ele>864.84</ele><time>2014-09-03T18:03:45Z</time></trkpt><trkpt lat="45.7701637968" lon="7.3070466332"><ele>864.36</ele><time>2014-09-03T18:03:46Z</time></trkpt><trkpt lat="45.7701372262" lon="7.3071415164"><ele>863.88</ele><time>2014-09-03T18:03:47Z</time></trkpt><trkpt lat="45.7701284252" lon="7.3072420154"><ele>863.40</ele><time>2014-09-03T18:03:48Z</time></trkpt><trkpt lat="45.7701348793" lon="7.3073434364"><ele>863.40</ele><time>2014-09-03T18:03:49Z</time></trkpt><trkpt lat="45.7701534871" lon="7.3074420914"><ele>862.92</ele><time>2014-09-03T18:03:50Z</time></trkpt><trkpt lat="45.7701861765" lon="7.3075303528"><ele>862.44</ele><time>2014-09-03T18:03:51Z</time></trkpt><trkpt lat="45.7702363003" lon="7.3076063767"><ele>861.96</ele><time>2014-09-03T18:03:52Z</time></trkpt><trkpt lat="45.7703178562" lon="7.3076710012"><ele>861.48</ele><time>2014-09-03T18:03:53Z</time></trkpt><trkpt lat="45.7703694049" lon="7.3076875135"><ele>861.48</ele><time>2014-09-03T18:03:54Z</time></trkpt><trkpt lat="45.7704269048" lon="7.3077010084"><ele>861.00</ele><time>2014-09-03T18:03:55Z</time></trkpt><trkpt lat="45.7705017552" lon="7.3077087197"><ele>860.52</ele><time>2014-09-03T18:03:56Z</time></trkpt><trkpt lat="45.7705790363" lon="7.3077056184"><ele>860.52</ele><time>2014-09-03T18:03:57Z</time></trkpt><trkpt lat="45.7706571557" lon="7.3076911177"><ele>860.04</ele><time>2014-09-03T18:03:58Z</time></trkpt><trkpt lat="45.7707374543" lon="7.3076734319"><ele>859.56</ele><time>2014-09-03T18:03:59Z</time></trkpt><trkpt lat="45.7719434425" lon="7.3073218111"><ele>853.79</ele><time>2014-09-03T18:04:12Z</time></trkpt><trkpt lat="45.7731663622" lon="7.3067646660"><ele>843.69</ele><time>2014-09-03T18:04:25Z</time></trkpt><trkpt lat="45.7732439786" lon="7.3067705333"><ele>843.21</ele><time>2014-09-03T18:04:26Z</time></trkpt><trkpt lat="45.7733200025" lon="7.3067974392"><ele>842.73</ele><time>2014-09-03T18:04:27Z</time></trkpt><trkpt lat="45.7733938470" lon="7.3068430368"><ele>841.77</ele><time>2014-09-03T18:04:28Z</time></trkpt><trkpt lat="45.7734584715" lon="7.3069084994"><ele>841.29</ele><time>2014-09-03T18:04:29Z</time></trkpt><trkpt lat="45.7735064998" lon="7.3069883790"><ele>840.81</ele><time>2014-09-03T18:04:30Z</time></trkpt><trkpt lat="45.7735355012" lon="7.3070912249"><ele>839.85</ele><time>2014-09-03T18:04:31Z</time></trkpt><trkpt lat="45.7735397760" lon="7.3071898799"><ele>839.37</ele><time>2014-09-03T18:04:32Z</time></trkpt><trkpt lat="45.7735246886" lon="7.3072817456"><ele>838.89</ele><time>2014-09-03T18:04:33Z</time></trkpt><trkpt lat="45.7734885626" lon="7.3073801491"><ele>837.93</ele><time>2014-09-03T18:04:34Z</time></trkpt><trkpt lat="45.7734386064" lon="7.3074682429"><ele>837.45</ele><time>2014-09-03T18:04:35Z</time></trkpt><trkpt lat="45.7733775023" lon="7.3075451888"><ele>836.96</ele><time>2014-09-03T18:04:36Z</time></trkpt><trkpt lat="45.7733083516" lon="7.3076066282"><ele>836.48</ele><time>2014-09-03T18:04:37Z</time></trkpt><trkpt lat="45.7732284721" lon="7.3076492082"><ele>836.00</ele><time>2014-09-03T18:04:38Z</time></trkpt><trkpt lat="45.7731429767" lon="7.3076712526"><ele>835.52</ele><time>2014-09-03T18:04:39Z</time></trkpt><trkpt lat="45.7730535418" lon="7.3076877650"><ele>835.04</ele><time>2014-09-03T18:04:40Z</time></trkpt><trkpt lat="45.7718074881" lon="7.3080885038"><ele>825.91</ele><time>2014-09-03T18:04:53Z</time></trkpt><trkpt lat="45.7706540544" lon="7.3086278792"><ele>820.14</ele><time>2014-09-03T18:05:06Z</time></trkpt><trkpt lat="45.7692111935" lon="7.3096031975"><ele>810.53</ele><time>2014-09-03T18:05:22Z</time></trkpt><trkpt lat="45.7679886092" lon="7.3104159907"><ele>803.32</ele><time>2014-09-03T18:05:37Z</time></trkpt><trkpt lat="45.7667262945" lon="7.3112536781"><ele>796.11</ele><time>2014-09-03T18:05:55Z</time></trkpt><trkpt lat="45.7659812272" lon="7.3116609547"><ele>792.26</ele><time>2014-09-03T18:06:07Z</time></trkpt><trkpt lat="45.7659095619" lon="7.3116819095"><ele>792.26</ele><time>2014-09-03T18:06:08Z</time></trkpt><trkpt lat="45.7647022326" lon="7.3119778745"><ele>786.50</ele><time>2014-09-03T18:06:26Z</time></trkpt><trkpt lat="45.7646537013" lon="7.3120060377"><ele>786.02</ele><time>2014-09-03T18:06:27Z</time></trkpt><trkpt lat="45.7645248715" lon="7.3120679799"><ele>785.53</ele><time>2014-09-03T18:06:30Z</time></trkpt><trkpt lat="45.7644775137" lon="7.3120774515"><ele>785.05</ele><time>2014-09-03T18:06:31Z</time></trkpt><trkpt lat="45.7644237019" lon="7.3121003341"><ele>785.05</ele><time>2014-09-03T18:06:32Z</time></trkpt><trkpt lat="45.7643686328" lon="7.3121359572"><ele>784.57</ele><time>2014-09-03T18:06:33Z</time></trkpt><trkpt lat="45.7643039245" lon="7.3121859133"><ele>784.57</ele><time>2014-09-03T18:06:34Z</time></trkpt><trkpt lat="45.7634249981" lon="7.3130231816"><ele>782.65</ele><time>2014-09-03T18:06:50Z</time></trkpt><trkpt lat="45.7628254406" lon="7.3134933226"><ele>781.69</ele><time>2014-09-03T18:07:00Z</time></trkpt><trkpt lat="45.7627698686" lon="7.3135538399"><ele>781.69</ele><time>2014-09-03T18:07:01Z</time></trkpt><trkpt lat="45.7624808606" lon="7.3140157666"><ele>779.77</ele><time>2014-09-03T18:07:07Z</time></trkpt><trkpt lat="45.7624252886" lon="7.3140918743"><ele>779.29</ele><time>2014-09-03T18:07:08Z</time></trkpt><trkpt lat="45.7623646036" lon="7.3141621146"><ele>778.81</ele><time>2014-09-03T18:07:09Z</time></trkpt><trkpt lat="45.7622978836" lon="7.3142267391"><ele>777.84</ele><time>2014-09-03T18:07:10Z</time></trkpt><trkpt lat="45.7622276433" lon="7.3142884299"><ele>776.88</ele><time>2014-09-03T18:07:11Z</time></trkpt><trkpt lat="45.7612681668" lon="7.3147869017"><ele>765.35</ele><time>2014-09-03T18:07:22Z</time></trkpt><trkpt lat="45.7601424772" lon="7.3150898237"><ele>754.29</ele><time>2014-09-03T18:07:35Z</time></trkpt><trkpt lat="45.7598481048" lon="7.3152231798"><ele>751.41</ele><time>2014-09-03T18:07:41Z</time></trkpt><trkpt lat="45.7597947121" lon="7.3152385186"><ele>750.93</ele><time>2014-09-03T18:07:42Z</time></trkpt><trkpt lat="45.7589770574" lon="7.3154636566"><ele>746.60</ele><time>2014-09-03T18:07:54Z</time></trkpt><trkpt lat="45.7577855699" lon="7.3160994239"><ele>740.83</ele><time>2014-09-03T18:08:09Z</time></trkpt><trkpt lat="45.7569971681" lon="7.3166310880"><ele>736.51</ele><time>2014-09-03T18:08:21Z</time></trkpt><trkpt lat="45.7560740691" lon="7.3170070164"><ele>730.74</ele><time>2014-09-03T18:08:34Z</time></trkpt><trkpt lat="45.7549853437" lon="7.3171873111"><ele>726.41</ele><time>2014-09-03T18:08:49Z</time></trkpt><trkpt lat="45.7542386837" lon="7.3173914105"><ele>724.49</ele><time>2014-09-03T18:09:02Z</time></trkpt><trkpt lat="45.7541711256" lon="7.3174629081"><ele>724.97</ele><time>2014-09-03T18:09:11Z</time></trkpt><trkpt lat="45.7539511006" lon="7.3176644091"><ele>725.93</ele><time>2014-09-03T18:09:19Z</time></trkpt><trkpt lat="45.7539030723" lon="7.3176805023"><ele>725.93</ele><time>2014-09-03T18:09:20Z</time></trkpt><trkpt lat="45.7538535353" lon="7.3176876269"><ele>725.93</ele><time>2014-09-03T18:09:21Z</time></trkpt><trkpt lat="45.7538040821" lon="7.3176889680"><ele>725.93</ele><time>2014-09-03T18:09:22Z</time></trkpt><trkpt lat="45.7537544612" lon="7.3176820111"><ele>725.93</ele><time>2014-09-03T18:09:23Z</time></trkpt><trkpt lat="45.7537065167" lon="7.3176595476"><ele>725.93</ele><time>2014-09-03T18:09:24Z</time></trkpt><trkpt lat="45.7536612544" lon="7.3176266067"><ele>725.45</ele><time>2014-09-03T18:09:25Z</time></trkpt><trkpt lat="45.7536156569" lon="7.3175934982"><ele>725.45</ele><time>2014-09-03T18:09:26Z</time></trkpt><trkpt lat="45.7535662875" lon="7.3175678495"><ele>725.45</ele><time>2014-09-03T18:09:27Z</time></trkpt><trkpt lat="45.7535159960" lon="7.3175489064"><ele>725.45</ele><time>2014-09-03T18:09:28Z</time></trkpt><trkpt lat="45.7534659561" lon="7.3175378423"><ele>724.97</ele><time>2014-09-03T18:09:29Z</time></trkpt><trkpt lat="45.7534142397" lon="7.3175310530"><ele>724.97</ele><time>2014-09-03T18:09:30Z</time></trkpt><trkpt lat="45.7533640321" lon="7.3175327294"><ele>724.97</ele><time>2014-09-03T18:09:31Z</time></trkpt><trkpt lat="45.7533130702" lon="7.3175447155"><ele>724.49</ele><time>2014-09-03T18:09:32Z</time></trkpt><trkpt lat="45.7532614376" lon="7.3175670113"><ele>724.49</ele><time>2014-09-03T18:09:33Z</time></trkpt><trkpt lat="45.7532073744" lon="7.3175960127"><ele>724.01</ele><time>2014-09-03T18:09:34Z</time></trkpt><trkpt lat="45.7528044563" lon="7.3177614715"><ele>719.68</ele><time>2014-09-03T18:09:40Z</time></trkpt><trkpt lat="45.7527243253" lon="7.3177675065"><ele>719.20</ele><time>2014-09-03T18:09:41Z</time></trkpt><trkpt lat="45.7526408415" lon="7.3177643213"><ele>718.72</ele><time>2014-09-03T18:09:42Z</time></trkpt><trkpt lat="45.7525561843" lon="7.3177556880"><ele>718.24</ele><time>2014-09-03T18:09:43Z</time></trkpt><trkpt lat="45.7524722815" lon="7.3177455459"><ele>717.76</ele><time>2014-09-03T18:09:44Z</time></trkpt><trkpt lat="45.7519685291" lon="7.3177125212"><ele>714.40</ele><time>2014-09-03T18:09:50Z</time></trkpt><trkpt lat="45.7518231869" lon="7.3177587893"><ele>713.44</ele><time>2014-09-03T18:09:52Z</time></trkpt><trkpt lat="45.7517547905" lon="7.3177974299"><ele>712.95</ele><time>2014-09-03T18:09:53Z</time></trkpt><trkpt lat="45.7516918425" lon="7.3178436980"><ele>712.47</ele><time>2014-09-03T18:09:54Z</time></trkpt><trkpt lat="45.7516351808" lon="7.3178947438"><ele>712.47</ele><time>2014-09-03T18:09:55Z</time></trkpt><trkpt lat="45.7515813690" lon="7.3179538362"><ele>711.51</ele><time>2014-09-03T18:09:56Z</time></trkpt><trkpt lat="45.7515282277" lon="7.3180172034"><ele>711.03</ele><time>2014-09-03T18:09:57Z</time></trkpt><trkpt lat="45.7512802072" lon="7.3182749469"><ele>708.15</ele><time>2014-09-03T18:10:01Z</time></trkpt><trkpt lat="45.7512305863" lon="7.3183055408"><ele>707.67</ele><time>2014-09-03T18:10:02Z</time></trkpt><trkpt lat="45.7511761039" lon="7.3183299322"><ele>707.19</ele><time>2014-09-03T18:10:03Z</time></trkpt><trkpt lat="45.7511063665" lon="7.3183490429"><ele>706.71</ele><time>2014-09-03T18:10:04Z</time></trkpt><trkpt lat="45.7510358747" lon="7.3183606099"><ele>706.23</ele><time>2014-09-03T18:10:05Z</time></trkpt><trkpt lat="45.7504156139" lon="7.3184072133"><ele>702.86</ele><time>2014-09-03T18:10:16Z</time></trkpt><trkpt lat="45.7503175456" lon="7.3184384778"><ele>702.86</ele><time>2014-09-03T18:10:18Z</time></trkpt><trkpt lat="45.7502666675" lon="7.3184668086"><ele>702.86</ele><time>2014-09-03T18:10:19Z</time></trkpt><trkpt lat="45.7502161246" lon="7.3185061198"><ele>702.38</ele><time>2014-09-03T18:10:20Z</time></trkpt><trkpt lat="45.7501670904" lon="7.3185589258"><ele>701.90</ele><time>2014-09-03T18:10:21Z</time></trkpt><trkpt lat="45.7501126081" lon="7.3186331056"><ele>701.42</ele><time>2014-09-03T18:10:22Z</time></trkpt><trkpt lat="45.7500701956" lon="7.3186982330"><ele>700.94</ele><time>2014-09-03T18:10:23Z</time></trkpt><trkpt lat="45.7499513403" lon="7.3188803717"><ele>699.98</ele><time>2014-09-03T18:10:26Z</time></trkpt><trkpt lat="45.7499040663" lon="7.3189293221"><ele>699.50</ele><time>2014-09-03T18:10:27Z</time></trkpt><trkpt lat="45.7498547807" lon="7.3189661186"><ele>699.02</ele><time>2014-09-03T18:10:28Z</time></trkpt><trkpt lat="45.7498001307" lon="7.3189955391"><ele>698.53</ele><time>2014-09-03T18:10:29Z</time></trkpt><trkpt lat="45.7497317344" lon="7.3190230317"><ele>698.05</ele><time>2014-09-03T18:10:30Z</time></trkpt><trkpt lat="45.7496817783" lon="7.3190395441"><ele>698.05</ele><time>2014-09-03T18:10:31Z</time></trkpt><trkpt lat="45.7490633614" lon="7.3193163984"><ele>695.65</ele><time>2014-09-03T18:10:42Z</time></trkpt><trkpt lat="45.7489938755" lon="7.3193374369"><ele>695.17</ele><time>2014-09-03T18:10:43Z</time></trkpt><trkpt lat="45.7488375530" lon="7.3193257023"><ele>693.73</ele><time>2014-09-03T18:10:46Z</time></trkpt><trkpt lat="45.7487571705" lon="7.3192966171"><ele>693.25</ele><time>2014-09-03T18:10:47Z</time></trkpt><trkpt lat="45.7486976590" lon="7.3192636762"><ele>692.77</ele><time>2014-09-03T18:10:48Z</time></trkpt><trkpt lat="45.7486380637" lon="7.3192195874"><ele>692.29</ele><time>2014-09-03T18:10:49Z</time></trkpt><trkpt lat="45.7485844195" lon="7.3191673681"><ele>691.81</ele><time>2014-09-03T18:10:50Z</time></trkpt><trkpt lat="45.7485322002" lon="7.3191072699"><ele>691.81</ele><time>2014-09-03T18:10:51Z</time></trkpt><trkpt lat="45.7484835014" lon="7.3190424778"><ele>691.33</ele><time>2014-09-03T18:10:52Z</time></trkpt><trkpt lat="45.7479173876" lon="7.3180104140"><ele>687.00</ele><time>2014-09-03T18:11:07Z</time></trkpt><trkpt lat="45.7473548781" lon="7.3169372790"><ele>681.23</ele><time>2014-09-03T18:11:21Z</time></trkpt><trkpt lat="45.7471582387" lon="7.3167663720"><ele>679.31</ele><time>2014-09-03T18:11:26Z</time></trkpt><trkpt lat="45.7470574044" lon="7.3167980555"><ele>678.35</ele><time>2014-09-03T18:11:28Z</time></trkpt><trkpt lat="45.7469831407" lon="7.3168915138"><ele>677.39</ele><time>2014-09-03T18:11:29Z</time></trkpt><trkpt lat="45.7469520438" lon="7.3170070164"><ele>676.91</ele><time>2014-09-03T18:11:31Z</time></trkpt><trkpt lat="45.7469484396" lon="7.3170854710"><ele>676.42</ele><time>2014-09-03T18:11:32Z</time></trkpt><trkpt lat="45.7469612639" lon="7.3171741515"><ele>675.94</ele><time>2014-09-03T18:11:33Z</time></trkpt><trkpt lat="45.7469797041" lon="7.3172401171"><ele>675.46</ele><time>2014-09-03T18:11:34Z</time></trkpt><trkpt lat="45.7470033411" lon="7.3173284624"><ele>675.46</ele><time>2014-09-03T18:11:35Z</time></trkpt><trkpt lat="45.7470233738" lon="7.3174028099"><ele>674.98</ele><time>2014-09-03T18:11:36Z</time></trkpt><trkpt lat="45.7471628487" lon="7.3178887926"><ele>673.06</ele><time>2014-09-03T18:11:44Z</time></trkpt><trkpt lat="45.7471719012" lon="7.3179475497"><ele>673.54</ele><time>2014-09-03T18:11:45Z</time></trkpt><trkpt lat="45.7471766789" lon="7.3180053011"><ele>673.54</ele><time>2014-09-03T18:11:46Z</time></trkpt><trkpt lat="45.7471762598" lon="7.3180611245"><ele>673.54</ele><time>2014-09-03T18:11:47Z</time></trkpt><trkpt lat="45.7471699733" lon="7.3181166966"><ele>673.06</ele><time>2014-09-03T18:11:48Z</time></trkpt><trkpt lat="45.7471588254" lon="7.3181737773"><ele>672.58</ele><time>2014-09-03T18:11:49Z</time></trkpt><trkpt lat="45.7471468393" lon="7.3182178661"><ele>672.58</ele><time>2014-09-03T18:11:50Z</time></trkpt><trkpt lat="45.7471316680" lon="7.3182692472"><ele>672.10</ele><time>2014-09-03T18:11:51Z</time></trkpt><trkpt lat="45.7469419856" lon="7.3189833853"><ele>667.77</ele><time>2014-09-03T18:12:07Z</time></trkpt><trkpt lat="45.7469368726" lon="7.3189713992"><ele>667.77</ele><time>2014-09-03T18:12:21Z</time></trkpt><trkpt lat="45.7470263075" lon="7.3192641791"><ele>665.85</ele><time>2014-09-03T18:12:30Z</time></trkpt><trkpt lat="45.7471699733" lon="7.3198076617"><ele>663.45</ele><time>2014-09-03T18:12:38Z</time></trkpt><trkpt lat="45.7471795287" lon="7.3199015390"><ele>662.97</ele><time>2014-09-03T18:12:39Z</time></trkpt><trkpt lat="45.7471811213" lon="7.3200011160"><ele>662.97</ele><time>2014-09-03T18:12:40Z</time></trkpt><trkpt lat="45.7471748348" lon="7.3201039620"><ele>662.49</ele><time>2014-09-03T18:12:41Z</time></trkpt><trkpt lat="45.7471664529" lon="7.3202089034"><ele>662.01</ele><time>2014-09-03T18:12:42Z</time></trkpt><trkpt lat="45.7470763475" lon="7.3211550526"><ele>657.20</ele><time>2014-09-03T18:12:52Z</time></trkpt><trkpt lat="45.7470512856" lon="7.3212267179"><ele>656.24</ele><time>2014-09-03T18:12:53Z</time></trkpt><trkpt lat="45.7470119745" lon="7.3212841339"><ele>656.24</ele><time>2014-09-03T18:12:54Z</time></trkpt><trkpt lat="45.7469636947" lon="7.3213267140"><ele>655.76</ele><time>2014-09-03T18:12:55Z</time></trkpt><trkpt lat="45.7469115593" lon="7.3213587329"><ele>655.76</ele><time>2014-09-03T18:12:56Z</time></trkpt><trkpt lat="45.7468540594" lon="7.3213831242"><ele>655.76</ele><time>2014-09-03T18:12:57Z</time></trkpt><trkpt lat="45.7462436892" lon="7.3216496687"><ele>655.28</ele><time>2014-09-03T18:13:07Z</time></trkpt><trkpt lat="45.7461953256" lon="7.3216986191"><ele>655.28</ele><time>2014-09-03T18:13:08Z</time></trkpt><trkpt lat="45.7459928188" lon="7.3219302110"><ele>654.80</ele><time>2014-09-03T18:13:12Z</time></trkpt><trkpt lat="45.7459242549" lon="7.3219786584"><ele>654.31</ele><time>2014-09-03T18:13:13Z</time></trkpt><trkpt lat="45.7453046646" lon="7.3222858552"><ele>649.99</ele><time>2014-09-03T18:13:21Z</time></trkpt><trkpt lat="45.7452215161" lon="7.3222893756"><ele>649.03</ele><time>2014-09-03T18:13:22Z</time></trkpt><trkpt lat="45.7451361883" lon="7.3222861905"><ele>648.55</ele><time>2014-09-03T18:13:23Z</time></trkpt><trkpt lat="45.7450533751" lon="7.3222712707"><ele>648.07</ele><time>2014-09-03T18:13:24Z</time></trkpt><trkpt lat="45.7449768484" lon="7.3222514056"><ele>647.59</ele><time>2014-09-03T18:13:25Z</time></trkpt><trkpt lat="45.7449125592" lon="7.3222192191"><ele>646.62</ele><time>2014-09-03T18:13:26Z</time></trkpt><trkpt lat="45.7448605914" lon="7.3221669160"><ele>646.14</ele><time>2014-09-03T18:13:27Z</time></trkpt><trkpt lat="45.7448201068" lon="7.3220929038"><ele>645.66</ele><time>2014-09-03T18:13:28Z</time></trkpt><trkpt lat="45.7447894290" lon="7.3219992779"><ele>644.70</ele><time>2014-09-03T18:13:29Z</time></trkpt><trkpt lat="45.7447740063" lon="7.3219100107"><ele>644.22</ele><time>2014-09-03T18:13:30Z</time></trkpt><trkpt lat="45.7447686419" lon="7.3218094278"><ele>643.74</ele><time>2014-09-03T18:13:31Z</time></trkpt><trkpt lat="45.7447684743" lon="7.3217048217"><ele>643.26</ele><time>2014-09-03T18:13:32Z</time></trkpt><trkpt lat="45.7447567396" lon="7.3202011082"><ele>635.57</ele><time>2014-09-03T18:13:44Z</time></trkpt><trkpt lat="45.7447325997" lon="7.3194764927"><ele>632.20</ele><time>2014-09-03T18:13:50Z</time></trkpt><trkpt lat="45.7446885947" lon="7.3192590661"><ele>630.76</ele><time>2014-09-03T18:13:52Z</time></trkpt><trkpt lat="45.7444397360" lon="7.3180886172"><ele>624.51</ele><time>2014-09-03T18:14:02Z</time></trkpt><trkpt lat="45.7443948928" lon="7.3178964201"><ele>624.03</ele><time>2014-09-03T18:14:04Z</time></trkpt><trkpt lat="45.7443569228" lon="7.3177927360"><ele>624.03</ele><time>2014-09-03T18:14:05Z</time></trkpt><trkpt lat="45.7443001773" lon="7.3176795803"><ele>623.55</ele><time>2014-09-03T18:14:06Z</time></trkpt><trkpt lat="45.7442478742" lon="7.3175950907"><ele>623.55</ele><time>2014-09-03T18:14:07Z</time></trkpt><trkpt lat="45.7441801485" lon="7.3174924124"><ele>623.07</ele><time>2014-09-03T18:14:08Z</time></trkpt><trkpt lat="45.7435146254" lon="7.3163452651"><ele>615.86</ele><time>2014-09-03T18:14:20Z</time></trkpt><trkpt lat="45.7434645016" lon="7.3162841611"><ele>615.86</ele><time>2014-09-03T18:14:21Z</time></trkpt><trkpt lat="45.7434081752" lon="7.3162441794"><ele>614.90</ele><time>2014-09-03T18:14:22Z</time></trkpt><trkpt lat="45.7433430478" lon="7.3162145913"><ele>614.42</ele><time>2014-09-03T18:14:23Z</time></trkpt><trkpt lat="45.7429114636" lon="7.3160394933"><ele>611.54</ele><time>2014-09-03T18:14:30Z</time></trkpt><trkpt lat="45.7428579871" lon="7.3159972485"><ele>611.54</ele><time>2014-09-03T18:14:31Z</time></trkpt><trkpt lat="45.7428109646" lon="7.3159430176"><ele>611.06</ele><time>2014-09-03T18:14:32Z</time></trkpt><trkpt lat="45.7427746709" lon="7.3158805724"><ele>610.57</ele><time>2014-09-03T18:14:33Z</time></trkpt><trkpt lat="45.7427403051" lon="7.3158024531"><ele>610.09</ele><time>2014-09-03T18:14:34Z</time></trkpt><trkpt lat="45.7426986471" lon="7.3156856094"><ele>609.61</ele><time>2014-09-03T18:14:35Z</time></trkpt><trkpt lat="45.7426799554" lon="7.3156328034"><ele>609.13</ele><time>2014-09-03T18:14:36Z</time></trkpt><trkpt lat="45.7425123174" lon="7.3151851259"><ele>607.21</ele><time>2014-09-03T18:14:41Z</time></trkpt><trkpt lat="45.7424731739" lon="7.3151176516"><ele>606.73</ele><time>2014-09-03T18:14:42Z</time></trkpt><trkpt lat="45.7418873627" lon="7.3144419026"><ele>602.40</ele><time>2014-09-03T18:14:54Z</time></trkpt><trkpt lat="45.7416971773" lon="7.3142648768"><ele>600.96</ele><time>2014-09-03T18:15:02Z</time></trkpt><trkpt lat="45.7416836824" lon="7.3142595962"><ele>600.96</ele><time>2014-09-03T18:15:03Z</time></trkpt><trkpt lat="45.7416681759" lon="7.3142513819"><ele>600.96</ele><time>2014-09-03T18:15:04Z</time></trkpt><trkpt lat="45.7414787449" lon="7.3142543994"><ele>599.52</ele><time>2014-09-03T18:15:14Z</time></trkpt><trkpt lat="45.7414603047" lon="7.3143509589"><ele>599.04</ele><time>2014-09-03T18:15:15Z</time></trkpt><trkpt lat="45.7414651662" lon="7.3144652881"><ele>599.04</ele><time>2014-09-03T18:15:17Z</time></trkpt><trkpt lat="45.7414801698" lon="7.3145669606"><ele>599.04</ele><time>2014-09-03T18:15:18Z</time></trkpt><trkpt lat="45.7414884679" lon="7.3146154080"><ele>599.04</ele><time>2014-09-03T18:15:19Z</time></trkpt><trkpt lat="45.7416111790" lon="7.3151220940"><ele>599.04</ele><time>2014-09-03T18:15:27Z</time></trkpt><trkpt lat="45.7419557590" lon="7.3157666624"><ele>599.04</ele><time>2014-09-03T18:15:38Z</time></trkpt><trkpt lat="45.7420342136" lon="7.3159322888"><ele>599.52</ele><time>2014-09-03T18:15:41Z</time></trkpt><trkpt lat="45.7422788814" lon="7.3168646917"><ele>604.33</ele><time>2014-09-03T18:15:55Z</time></trkpt><trkpt lat="45.7424310967" lon="7.3175622337"><ele>603.85</ele><time>2014-09-03T18:16:04Z</time></trkpt><trkpt lat="45.7424834836" lon="7.3177632317"><ele>604.33</ele><time>2014-09-03T18:16:07Z</time></trkpt><trkpt lat="45.7427433226" lon="7.3190687969"><ele>605.77</ele><time>2014-09-03T18:16:25Z</time></trkpt><trkpt lat="45.7428645249" lon="7.3203961551"><ele>605.77</ele><time>2014-09-03T18:16:44Z</time></trkpt><trkpt lat="45.7428764272" lon="7.3206696566"><ele>605.29</ele><time>2014-09-03T18:16:48Z</time></trkpt><trkpt lat="45.7428566460" lon="7.3216768261"><ele>603.36</ele><time>2014-09-03T18:17:03Z</time></trkpt><trkpt lat="45.7428406365" lon="7.3229830619"><ele>602.88</ele><time>2014-09-03T18:17:23Z</time></trkpt><trkpt lat="45.7428157423" lon="7.3244741186"><ele>600.96</ele><time>2014-09-03T18:17:45Z</time></trkpt><trkpt lat="45.7426603418" lon="7.3255990539"><ele>601.44</ele><time>2014-09-03T18:18:01Z</time></trkpt><trkpt lat="45.7424492855" lon="7.3261274491"><ele>600.96</ele><time>2014-09-03T18:18:10Z</time></trkpt><trkpt lat="45.7424156740" lon="7.3261717893"><ele>600.96</ele><time>2014-09-03T18:18:11Z</time></trkpt><trkpt lat="45.7423410751" lon="7.3262549378"><ele>600.48</ele><time>2014-09-03T18:18:13Z</time></trkpt><trkpt lat="45.7423068769" lon="7.3263504915"><ele>600.00</ele><time>2014-09-03T18:18:15Z</time></trkpt><trkpt lat="45.7423047815" lon="7.3264217377"><ele>600.00</ele><time>2014-09-03T18:18:16Z</time></trkpt><trkpt lat="45.7422889397" lon="7.3265450355"><ele>600.00</ele><time>2014-09-03T18:18:17Z</time></trkpt><trkpt lat="45.7422534004" lon="7.3266427685"><ele>600.00</ele><time>2014-09-03T18:18:19Z</time></trkpt><trkpt lat="45.7418325450" lon="7.3277523648"><ele>599.52</ele><time>2014-09-03T18:18:36Z</time></trkpt><trkpt lat="45.7414234243" lon="7.3288063053"><ele>599.52</ele><time>2014-09-03T18:18:55Z</time></trkpt><trkpt lat="45.7412345801" lon="7.3293634504"><ele>599.52</ele><time>2014-09-03T18:19:09Z</time></trkpt><trkpt lat="45.7412324846" lon="7.3293702397"><ele>600.48</ele><time>2014-09-03T18:19:21Z</time></trkpt><trkpt lat="45.7412494160" lon="7.3293818068"><ele>600.00</ele><time>2014-09-03T18:19:22Z</time></trkpt><trkpt lat="45.7412835304" lon="7.3293792084"><ele>600.00</ele><time>2014-09-03T18:19:24Z</time></trkpt><trkpt lat="45.7413220871" lon="7.3293233849"><ele>599.52</ele><time>2014-09-03T18:19:25Z</time></trkpt><trkpt lat="45.7413303014" lon="7.3292924557"><ele>599.52</ele><time>2014-09-03T18:19:26Z</time></trkpt><trkpt lat="45.7413421199" lon="7.3292399012"><ele>599.52</ele><time>2014-09-03T18:19:27Z</time></trkpt><trkpt lat="45.7416707743" lon="7.3283242621"><ele>600.00</ele><time>2014-09-03T18:19:42Z</time></trkpt><trkpt lat="45.7420620415" lon="7.3273326829"><ele>600.96</ele><time>2014-09-03T18:19:58Z</time></trkpt><trkpt lat="45.7423508819" lon="7.3266232386"><ele>601.44</ele><time>2014-09-03T18:20:10Z</time></trkpt><trkpt lat="45.7423752733" lon="7.3265885375"><ele>601.44</ele><time>2014-09-03T18:20:11Z</time></trkpt><trkpt lat="45.7424107287" lon="7.3265553452"><ele>601.44</ele><time>2014-09-03T18:20:12Z</time></trkpt><trkpt lat="45.7424789574" lon="7.3265313730"><ele>601.44</ele><time>2014-09-03T18:20:14Z</time></trkpt><trkpt lat="45.7425282430" lon="7.3265260085"><ele>601.44</ele><time>2014-09-03T18:20:15Z</time></trkpt><trkpt lat="45.7425765228" lon="7.3265261762"><ele>601.44</ele><time>2014-09-03T18:20:16Z</time></trkpt><trkpt lat="45.7426325139" lon="7.3265406769"><ele>601.92</ele><time>2014-09-03T18:20:17Z</time></trkpt><trkpt lat="45.7426738366" lon="7.3265470471"><ele>601.92</ele><time>2014-09-03T18:20:18Z</time></trkpt><trkpt lat="45.7427178416" lon="7.3265391681"><ele>601.92</ele><time>2014-09-03T18:20:19Z</time></trkpt><trkpt lat="45.7427534647" lon="7.3265103344"><ele>601.92</ele><time>2014-09-03T18:20:20Z</time></trkpt><trkpt lat="45.7427735813" lon="7.3264821712"><ele>601.92</ele><time>2014-09-03T18:20:21Z</time></trkpt><trkpt lat="45.7427952066" lon="7.3264388368"><ele>602.40</ele><time>2014-09-03T18:20:22Z</time></trkpt><trkpt lat="45.7428123057" lon="7.3263872880"><ele>602.40</ele><time>2014-09-03T18:20:23Z</time></trkpt><trkpt lat="45.7428209390" lon="7.3263297882"><ele>602.88</ele><time>2014-09-03T18:20:24Z</time></trkpt><trkpt lat="45.7428172510" lon="7.3262732942"><ele>603.36</ele><time>2014-09-03T18:20:25Z</time></trkpt><trkpt lat="45.7428044267" lon="7.3262150399"><ele>603.85</ele><time>2014-09-03T18:20:26Z</time></trkpt><trkpt lat="45.7427903451" lon="7.3261699453"><ele>604.33</ele><time>2014-09-03T18:20:27Z</time></trkpt><trkpt lat="45.7427729107" lon="7.3261208273"><ele>604.33</ele><time>2014-09-03T18:20:28Z</time></trkpt><trkpt lat="45.7427605055" lon="7.3260858748"><ele>604.81</ele><time>2014-09-03T18:20:29Z</time></trkpt><trkpt lat="45.7427497767" lon="7.3260476533"><ele>605.29</ele><time>2014-09-03T18:20:30Z</time></trkpt><trkpt lat="45.7427444961" lon="7.3260097671"><ele>604.81</ele><time>2014-09-03T18:20:31Z</time></trkpt><trkpt lat="45.7427446637" lon="7.3259695340"><ele>605.29</ele><time>2014-09-03T18:20:32Z</time></trkpt><trkpt lat="45.7427475136" lon="7.3259391915"><ele>605.29</ele><time>2014-09-03T18:20:33Z</time></trkpt><trkpt lat="45.7428314164" lon="7.3257081863"><ele>606.73</ele><time>2014-09-03T18:20:41Z</time></trkpt><trkpt lat="45.7428519521" lon="7.3256892432"><ele>607.21</ele><time>2014-09-03T18:20:42Z</time></trkpt><trkpt lat="45.7428679615" lon="7.3256749101"><ele>607.21</ele><time>2014-09-03T18:20:43Z</time></trkpt><trkpt lat="45.7428864017" lon="7.3256696295"><ele>607.69</ele><time>2014-09-03T18:20:44Z</time></trkpt><trkpt lat="45.7429057639" lon="7.3256706353"><ele>608.17</ele><time>2014-09-03T18:20:45Z</time></trkpt><trkpt lat="45.7429295685" lon="7.3256822862"><ele>608.65</ele><time>2014-09-03T18:20:47Z</time></trkpt><trkpt lat="45.7429394592" lon="7.3257007264"><ele>607.69</ele><time>2014-09-03T18:20:58Z</time></trkpt><trkpt lat="45.7429617550" lon="7.3256962840"><ele>607.69</ele><time>2014-09-03T18:21:24Z</time></trkpt><trkpt lat="45.7429527864" lon="7.3257095274"><ele>608.17</ele><time>2014-09-03T18:21:35Z</time></trkpt><trkpt lat="45.7429377828" lon="7.3257350083"><ele>607.69</ele><time>2014-09-03T18:22:20Z</time></trkpt><trkpt lat="45.7429586537" lon="7.3257406242"><ele>605.77</ele><time>2014-09-03T18:23:11Z</time></trkpt><trkpt lat="45.7429518644" lon="7.3257243633"><ele>604.33</ele><time>2014-09-03T18:23:52Z</time></trkpt><trkpt lat="45.7429380342" lon="7.3257180769"><ele>607.69</ele><time>2014-09-03T18:24:46Z</time></trkpt><trkpt lat="45.7429526187" lon="7.3257250339"><ele>608.65</ele><time>2014-09-03T18:25:33Z</time></trkpt><trkpt lat="45.7429526187" lon="7.3257205077"><ele>607.69</ele><time>2014-09-03T18:26:19Z</time></trkpt><trkpt lat="45.7429678738" lon="7.3257070966"><ele>610.57</ele><time>2014-09-03T18:26:47Z</time></trkpt><trkpt lat="45.7429808658" lon="7.3257272132"><ele>610.57</ele><time>2014-09-03T18:26:50Z</time></trkpt><trkpt lat="45.7429849729" lon="7.3257437255"><ele>611.06</ele><time>2014-09-03T18:26:51Z</time></trkpt><trkpt lat="45.7429896668" lon="7.3257559631"><ele>611.06</ele><time>2014-09-03T18:26:52Z</time></trkpt><trkpt lat="45.7429966237" lon="7.3257745709"><ele>611.06</ele><time>2014-09-03T18:26:53Z</time></trkpt><trkpt lat="45.7429951150" lon="7.3258014768"><ele>611.06</ele><time>2014-09-03T18:26:54Z</time></trkpt><trkpt lat="45.7429957017" lon="7.3258284666"><ele>611.54</ele><time>2014-09-03T18:26:55Z</time></trkpt><trkpt lat="45.7429918461" lon="7.3260149639"><ele>612.50</ele><time>2014-09-03T18:27:02Z</time></trkpt><trkpt lat="45.7429915108" lon="7.3260381818"><ele>612.50</ele><time>2014-09-03T18:27:03Z</time></trkpt><trkpt lat="45.7429890800" lon="7.3260595556"><ele>612.50</ele><time>2014-09-03T18:27:04Z</time></trkpt><trkpt lat="45.7429674547" lon="7.3261981923"><ele>612.02</ele><time>2014-09-03T18:27:11Z</time></trkpt><trkpt lat="45.7429683767" lon="7.3262130283"><ele>610.09</ele><time>2014-09-03T18:27:26Z</time></trkpt><trkpt lat="45.7429630123" lon="7.3262276128"><ele>609.13</ele><time>2014-09-03T18:27:36Z</time></trkpt><trkpt lat="45.7429570612" lon="7.3262486514"><ele>609.61</ele><time>2014-09-03T18:27:37Z</time></trkpt><trkpt lat="45.7429532893" lon="7.3262707796"><ele>609.61</ele><time>2014-09-03T18:27:38Z</time></trkpt><trkpt lat="45.7429500204" lon="7.3263788223"><ele>610.09</ele><time>2014-09-03T18:27:42Z</time></trkpt><trkpt lat="45.7429712266" lon="7.3264323827"><ele>610.09</ele><time>2014-09-03T18:27:43Z</time></trkpt><trkpt lat="45.7429922651" lon="7.3264552653"><ele>610.09</ele><time>2014-09-03T18:27:44Z</time></trkpt><trkpt lat="45.7430055924" lon="7.3264664132"><ele>610.57</ele><time>2014-09-03T18:27:45Z</time></trkpt><trkpt lat="45.7430436462" lon="7.3264762200"><ele>610.57</ele><time>2014-09-03T18:27:47Z</time></trkpt><trkpt lat="45.7430777606" lon="7.3264533374"><ele>610.57</ele><time>2014-09-03T18:27:48Z</time></trkpt><trkpt lat="45.7430945244" lon="7.3264414351"><ele>611.06</ele><time>2014-09-03T18:27:49Z</time></trkpt><trkpt lat="45.7431756612" lon="7.3263483122"><ele>612.02</ele><time>2014-09-03T18:27:54Z</time></trkpt><trkpt lat="45.7431935146" lon="7.3263303749"><ele>612.02</ele><time>2014-09-03T18:27:55Z</time></trkpt><trkpt lat="45.7432093564" lon="7.3263127729"><ele>612.50</ele><time>2014-09-03T18:27:56Z</time></trkpt><trkpt lat="45.7432303950" lon="7.3262884654"><ele>612.50</ele><time>2014-09-03T18:27:57Z</time></trkpt><trkpt lat="45.7432524394" lon="7.3262639903"><ele>612.98</ele><time>2014-09-03T18:27:59Z</time></trkpt><trkpt lat="45.7432749029" lon="7.3262294568"><ele>613.46</ele><time>2014-09-03T18:28:00Z</time></trkpt><trkpt lat="45.7432857156" lon="7.3262116034"><ele>613.94</ele><time>2014-09-03T18:28:01Z</time></trkpt><trkpt lat="45.7434227597" lon="7.3258827813"><ele>616.34</ele><time>2014-09-03T18:28:14Z</time></trkpt><trkpt lat="45.7435974386" lon="7.3255179171"><ele>618.26</ele><time>2014-09-03T18:28:28Z</time></trkpt><trkpt lat="45.7437600475" lon="7.3256154824"><ele>620.67</ele><time>2014-09-03T18:28:39Z</time></trkpt><trkpt lat="45.7436770666" lon="7.3260014690"><ele>623.07</ele><time>2014-09-03T18:28:53Z</time></trkpt><trkpt lat="45.7435893919" lon="7.3264923971"><ele>624.99</ele><time>2014-09-03T18:29:12Z</time></trkpt><trkpt lat="45.7434943411" lon="7.3268648051"><ele>626.44</ele><time>2014-09-03T18:29:27Z</time></trkpt><trkpt lat="45.7434101030" lon="7.3271994106"><ele>628.36</ele><time>2014-09-03T18:29:41Z</time></trkpt><trkpt lat="45.7433901541" lon="7.3275959585"><ele>630.28</ele><time>2014-09-03T18:29:55Z</time></trkpt><trkpt lat="45.7433194946" lon="7.3281256109"><ele>631.24</ele><time>2014-09-03T18:30:09Z</time></trkpt><trkpt lat="45.7432557922" lon="7.3289022781"><ele>632.20</ele><time>2014-09-03T18:30:28Z</time></trkpt><trkpt lat="45.7431812771" lon="7.3295142408"><ele>635.09</ele><time>2014-09-03T18:30:44Z</time></trkpt><trkpt lat="45.7431514375" lon="7.3298390396"><ele>636.05</ele><time>2014-09-03T18:30:57Z</time></trkpt><trkpt lat="45.7431535330" lon="7.3298527859"><ele>635.57</ele><time>2014-09-03T18:31:11Z</time></trkpt><trkpt lat="45.7431550417" lon="7.3298716452"><ele>635.57</ele><time>2014-09-03T18:31:12Z</time></trkpt><trkpt lat="45.7431545388" lon="7.3298948631"><ele>636.05</ele><time>2014-09-03T18:31:13Z</time></trkpt><trkpt lat="45.7431510184" lon="7.3299241997"><ele>636.05</ele><time>2014-09-03T18:31:14Z</time></trkpt><trkpt lat="45.7431478333" lon="7.3299528658"><ele>636.05</ele><time>2014-09-03T18:31:15Z</time></trkpt><trkpt lat="45.7431458216" lon="7.3299833760"><ele>636.05</ele><time>2014-09-03T18:31:16Z</time></trkpt><trkpt lat="45.7431428041" lon="7.3300169036"><ele>636.05</ele><time>2014-09-03T18:31:17Z</time></trkpt><trkpt lat="45.7429985516" lon="7.3304682691"><ele>640.38</ele><time>2014-09-03T18:31:34Z</time></trkpt><trkpt lat="45.7428585738" lon="7.3306593765"><ele>643.74</ele><time>2014-09-03T18:31:45Z</time></trkpt><trkpt lat="45.7428510301" lon="7.3306716979"><ele>643.74</ele><time>2014-09-03T18:31:46Z</time></trkpt><trkpt lat="45.7428060193" lon="7.3307043035"><ele>645.18</ele><time>2014-09-03T18:31:56Z</time></trkpt><trkpt lat="45.7428066060" lon="7.3307217378"><ele>646.62</ele><time>2014-09-03T18:32:33Z</time></trkpt><trkpt lat="45.7428076118" lon="7.3307143617"><ele>646.62</ele><time>2014-09-03T18:33:10Z</time></trkpt><trkpt lat="45.7428088691" lon="7.3307102546"><ele>645.18</ele><time>2014-09-03T18:33:45Z</time></trkpt><trkpt lat="45.7428105455" lon="7.3307087459"><ele>643.26</ele><time>2014-09-03T18:34:27Z</time></trkpt><trkpt lat="45.7428112999" lon="7.3307200614"><ele>643.74</ele><time>2014-09-03T18:35:08Z</time></trkpt><trkpt lat="45.7428046782" lon="7.3307165410"><ele>642.30</ele><time>2014-09-03T18:35:43Z</time></trkpt><trkpt lat="45.7428218611" lon="7.3307168763"><ele>643.26</ele><time>2014-09-03T18:36:14Z</time></trkpt><trkpt lat="45.7427997328" lon="7.3307343945"><ele>642.30</ele><time>2014-09-03T18:36:23Z</time></trkpt><trkpt lat="45.7428207714" lon="7.3308062274"><ele>642.30</ele><time>2014-09-03T18:36:27Z</time></trkpt><trkpt lat="45.7428399660" lon="7.3308227398"><ele>642.30</ele><time>2014-09-03T18:36:28Z</time></trkpt><trkpt lat="45.7428484317" lon="7.3308411799"><ele>642.30</ele><time>2014-09-03T18:36:29Z</time></trkpt><trkpt lat="45.7428494375" lon="7.3308637273"><ele>642.78</ele><time>2014-09-03T18:36:30Z</time></trkpt><trkpt lat="45.7428533770" lon="7.3308841791"><ele>642.78</ele><time>2014-09-03T18:36:31Z</time></trkpt><trkpt lat="45.7428703085" lon="7.3309036251"><ele>643.26</ele><time>2014-09-03T18:36:33Z</time></trkpt><trkpt lat="45.7428816240" lon="7.3309125099"><ele>643.26</ele><time>2014-09-03T18:36:34Z</time></trkpt><trkpt lat="45.7428949513" lon="7.3309211433"><ele>643.26</ele><time>2014-09-03T18:36:35Z</time></trkpt><trkpt lat="45.7429102901" lon="7.3309306987"><ele>643.74</ele><time>2014-09-03T18:36:36Z</time></trkpt><trkpt lat="45.7429258805" lon="7.3309438583"><ele>643.74</ele><time>2014-09-03T18:36:37Z</time></trkpt><trkpt lat="45.7429557201" lon="7.3309666570"><ele>643.74</ele><time>2014-09-03T18:36:39Z</time></trkpt><trkpt lat="45.7430119626" lon="7.3309729435"><ele>645.18</ele><time>2014-09-03T18:36:42Z</time></trkpt><trkpt lat="45.7430273853" lon="7.3309800681"><ele>645.18</ele><time>2014-09-03T18:36:43Z</time></trkpt><trkpt lat="45.7430465799" lon="7.3309824988"><ele>645.66</ele><time>2014-09-03T18:36:44Z</time></trkpt><trkpt lat="45.7431976218" lon="7.3309872765"><ele>647.59</ele><time>2014-09-03T18:36:52Z</time></trkpt><trkpt lat="45.7432466559" lon="7.3309919704"><ele>648.55</ele><time>2014-09-03T18:36:55Z</time></trkpt><trkpt lat="45.7432635874" lon="7.3309881147"><ele>648.55</ele><time>2014-09-03T18:36:56Z</time></trkpt><trkpt lat="45.7432820275" lon="7.3309864383"><ele>649.03</ele><time>2014-09-03T18:36:57Z</time></trkpt><trkpt lat="45.7432994619" lon="7.3309845943"><ele>649.03</ele><time>2014-09-03T18:36:58Z</time></trkpt><trkpt lat="45.7433170639" lon="7.3309824988"><ele>649.03</ele><time>2014-09-03T18:36:59Z</time></trkpt><trkpt lat="45.7433316484" lon="7.3309753742"><ele>649.51</ele><time>2014-09-03T18:37:00Z</time></trkpt><trkpt lat="45.7433454785" lon="7.3309674952"><ele>649.51</ele><time>2014-09-03T18:37:01Z</time></trkpt><trkpt lat="45.7433597278" lon="7.3309633043"><ele>649.99</ele><time>2014-09-03T18:37:02Z</time></trkpt><trkpt lat="45.7433717139" lon="7.3309540004"><ele>649.99</ele><time>2014-09-03T18:37:03Z</time></trkpt><trkpt lat="45.7434318960" lon="7.3309204727"><ele>650.95</ele><time>2014-09-03T18:37:07Z</time></trkpt><trkpt lat="45.7434418704" lon="7.3309022002"><ele>650.95</ele><time>2014-09-03T18:37:08Z</time></trkpt><trkpt lat="45.7434518449" lon="7.3308938183"><ele>651.43</ele><time>2014-09-03T18:37:09Z</time></trkpt><trkpt lat="45.7434635796" lon="7.3308900464"><ele>651.43</ele><time>2014-09-03T18:37:10Z</time></trkpt><trkpt lat="45.7434737217" lon="7.3308819998"><ele>651.91</ele><time>2014-09-03T18:37:11Z</time></trkpt><trkpt lat="45.7434869651" lon="7.3308714386"><ele>652.39</ele><time>2014-09-03T18:37:12Z</time></trkpt><trkpt lat="45.7435033098" lon="7.3308612965"><ele>652.87</ele><time>2014-09-03T18:37:13Z</time></trkpt><trkpt lat="45.7436187286" lon="7.3307889607"><ele>654.80</ele><time>2014-09-03T18:37:21Z</time></trkpt><trkpt lat="45.7436345704" lon="7.3307878710"><ele>654.80</ele><time>2014-09-03T18:37:22Z</time></trkpt><trkpt lat="45.7436470594" lon="7.3307813331"><ele>654.80</ele><time>2014-09-03T18:37:23Z</time></trkpt><trkpt lat="45.7436570339" lon="7.3307721969"><ele>654.80</ele><time>2014-09-03T18:37:24Z</time></trkpt><trkpt lat="45.7436523400" lon="7.3307505716"><ele>655.28</ele><time>2014-09-03T18:37:29Z</time></trkpt><trkpt lat="45.7436261047" lon="7.3307587858"><ele>655.28</ele><time>2014-09-03T18:37:31Z</time></trkpt><trkpt lat="45.7436030544" lon="7.3307817522"><ele>654.31</ele><time>2014-09-03T18:37:32Z</time></trkpt><trkpt lat="45.7435850333" lon="7.3308002762"><ele>653.83</ele><time>2014-09-03T18:37:33Z</time></trkpt><trkpt lat="45.7435654197" lon="7.3308211472"><ele>653.35</ele><time>2014-09-03T18:37:34Z</time></trkpt><trkpt lat="45.7435366698" lon="7.3308417667"><ele>652.87</ele><time>2014-09-03T18:37:35Z</time></trkpt><trkpt lat="45.7431763317" lon="7.3309820797"><ele>647.10</ele><time>2014-09-03T18:37:48Z</time></trkpt><trkpt lat="45.7428849768" lon="7.3308444489"><ele>643.26</ele><time>2014-09-03T18:38:00Z</time></trkpt><trkpt lat="45.7428707276" lon="7.3308196384"><ele>642.78</ele><time>2014-09-03T18:38:01Z</time></trkpt><trkpt lat="45.7428532932" lon="7.3308051378"><ele>642.78</ele><time>2014-09-03T18:38:02Z</time></trkpt><trkpt lat="45.7427315880" lon="7.3308200575"><ele>641.82</ele><time>2014-09-03T18:38:08Z</time></trkpt><trkpt lat="45.7427097112" lon="7.3308438621"><ele>641.82</ele><time>2014-09-03T18:38:09Z</time></trkpt><trkpt lat="45.7425397262" lon="7.3311005998"><ele>639.89</ele><time>2014-09-03T18:38:20Z</time></trkpt><trkpt lat="45.7425272372" lon="7.3311401624"><ele>639.89</ele><time>2014-09-03T18:38:21Z</time></trkpt><trkpt lat="45.7425093837" lon="7.3311849218"><ele>639.41</ele><time>2014-09-03T18:38:22Z</time></trkpt><trkpt lat="45.7424893510" lon="7.3312352132"><ele>639.41</ele><time>2014-09-03T18:38:23Z</time></trkpt><trkpt lat="45.7424695697" lon="7.3312894441"><ele>638.93</ele><time>2014-09-03T18:38:24Z</time></trkpt><trkpt lat="45.7424505427" lon="7.3313502129"><ele>638.93</ele><time>2014-09-03T18:38:25Z</time></trkpt><trkpt lat="45.7424188592" lon="7.3314619437"><ele>638.45</ele><time>2014-09-03T18:38:27Z</time></trkpt><trkpt lat="45.7423231378" lon="7.3317108024"><ele>637.01</ele><time>2014-09-03T18:38:33Z</time></trkpt><trkpt lat="45.7422963157" lon="7.3317462578"><ele>637.49</ele><time>2014-09-03T18:38:36Z</time></trkpt><trkpt lat="45.7422864251" lon="7.3317656200"><ele>637.49</ele><time>2014-09-03T18:38:37Z</time></trkpt><trkpt lat="45.7422724273" lon="7.3317829706"><ele>637.49</ele><time>2014-09-03T18:38:38Z</time></trkpt><trkpt lat="45.7419716846" lon="7.3319838848"><ele>634.61</ele><time>2014-09-03T18:38:50Z</time></trkpt><trkpt lat="45.7418834232" lon="7.3320956156"><ele>634.61</ele><time>2014-09-03T18:38:57Z</time></trkpt><trkpt lat="45.7418774720" lon="7.3321133014"><ele>634.61</ele><time>2014-09-03T18:38:58Z</time></trkpt><trkpt lat="45.7418684196" lon="7.3321273830"><ele>635.09</ele><time>2014-09-03T18:38:59Z</time></trkpt><trkpt lat="45.7418735325" lon="7.3321494274"><ele>635.09</ele><time>2014-09-03T18:39:01Z</time></trkpt><trkpt lat="45.7418817468" lon="7.3321508523"><ele>635.09</ele><time>2014-09-03T18:39:02Z</time></trkpt><trkpt lat="45.7418961637" lon="7.3321340885"><ele>635.57</ele><time>2014-09-03T18:39:04Z</time></trkpt><trkpt lat="45.7419074792" lon="7.3321159836"><ele>635.57</ele><time>2014-09-03T18:39:05Z</time></trkpt><trkpt lat="45.7419201359" lon="7.3320901673"><ele>636.05</ele><time>2014-09-03T18:39:06Z</time></trkpt><trkpt lat="45.7419319544" lon="7.3320695478"><ele>636.05</ele><time>2014-09-03T18:39:07Z</time></trkpt><trkpt lat="45.7419422641" lon="7.3320484255"><ele>636.05</ele><time>2014-09-03T18:39:08Z</time></trkpt><trkpt lat="45.7419580221" lon="7.3320324160"><ele>635.57</ele><time>2014-09-03T18:39:09Z</time></trkpt><trkpt lat="45.7422462758" lon="7.3318291549"><ele>638.45</ele><time>2014-09-03T18:39:26Z</time></trkpt><trkpt lat="45.7424151711" lon="7.3315023445"><ele>639.41</ele><time>2014-09-03T18:39:40Z</time></trkpt><trkpt lat="45.7425722480" lon="7.3310844228"><ele>641.82</ele><time>2014-09-03T18:39:57Z</time></trkpt><trkpt lat="45.7427703962" lon="7.3308465444"><ele>645.18</ele><time>2014-09-03T18:40:13Z</time></trkpt><trkpt lat="45.7428236213" lon="7.3308076523"><ele>645.66</ele><time>2014-09-03T18:40:18Z</time></trkpt><trkpt lat="45.7430164889" lon="7.3305313848"><ele>642.30</ele><time>2014-09-03T18:40:29Z</time></trkpt><trkpt lat="45.7431720570" lon="7.3299749102"><ele>637.97</ele><time>2014-09-03T18:40:41Z</time></trkpt><trkpt lat="45.7432000525" lon="7.3295690585"><ele>635.09</ele><time>2014-09-03T18:40:47Z</time></trkpt><trkpt lat="45.7432926726" lon="7.3290534876"><ele>631.72</ele><time>2014-09-03T18:40:57Z</time></trkpt><trkpt lat="45.7432996295" lon="7.3289803136"><ele>631.72</ele><time>2014-09-03T18:41:09Z</time></trkpt><trkpt lat="45.7433073409" lon="7.3289640527"><ele>632.20</ele><time>2014-09-03T18:41:10Z</time></trkpt><trkpt lat="45.7433164772" lon="7.3289518151"><ele>632.20</ele><time>2014-09-03T18:41:11Z</time></trkpt><trkpt lat="45.7433249429" lon="7.3289389070"><ele>632.20</ele><time>2014-09-03T18:41:12Z</time></trkpt><trkpt lat="45.7433454785" lon="7.3289179523"><ele>632.20</ele><time>2014-09-03T18:41:26Z</time></trkpt><trkpt lat="45.7433567103" lon="7.3289198801"><ele>632.20</ele><time>2014-09-03T18:41:27Z</time></trkpt><trkpt lat="45.7433904894" lon="7.3289291840"><ele>629.80</ele><time>2014-09-03T18:41:43Z</time></trkpt><trkpt lat="45.7434036490" lon="7.3289547488"><ele>628.36</ele><time>2014-09-03T18:42:01Z</time></trkpt><trkpt lat="45.7433945965" lon="7.3289156891"><ele>629.32</ele><time>2014-09-03T18:42:32Z</time></trkpt><trkpt lat="45.7434117794" lon="7.3289905395"><ele>628.36</ele><time>2014-09-03T18:43:04Z</time></trkpt><trkpt lat="45.7434033975" lon="7.3289881088"><ele>627.88</ele><time>2014-09-03T18:43:39Z</time></trkpt><trkpt lat="45.7434220053" lon="7.3289651424"><ele>626.92</ele><time>2014-09-03T18:44:10Z</time></trkpt><trkpt lat="45.7434094325" lon="7.3289167788"><ele>630.28</ele><time>2014-09-03T18:44:38Z</time></trkpt><trkpt lat="45.7433730550" lon="7.3289318662"><ele>635.57</ele><time>2014-09-03T18:44:48Z</time></trkpt><trkpt lat="45.7433290500" lon="7.3289399967"><ele>635.09</ele><time>2014-09-03T18:44:55Z</time></trkpt><trkpt lat="45.7433155552" lon="7.3287239950"><ele>631.72</ele><time>2014-09-03T18:45:08Z</time></trkpt><trkpt lat="45.7433151361" lon="7.3287207261"><ele>631.24</ele><time>2014-09-03T18:45:16Z</time></trkpt><trkpt lat="45.7432754897" lon="7.3287909664"><ele>631.72</ele><time>2014-09-03T18:45:22Z</time></trkpt><trkpt lat="45.7432639226" lon="7.3288356420"><ele>631.72</ele><time>2014-09-03T18:45:23Z</time></trkpt><trkpt lat="45.7432614081" lon="7.3288551718"><ele>631.72</ele><time>2014-09-03T18:45:24Z</time></trkpt><trkpt lat="45.7432246953" lon="7.3291955609"><ele>634.13</ele><time>2014-09-03T18:45:37Z</time></trkpt><trkpt lat="45.7432145532" lon="7.3292031046"><ele>634.13</ele><time>2014-09-03T18:45:38Z</time></trkpt><trkpt lat="45.7428881619" lon="7.3292690702"><ele>628.36</ele><time>2014-09-03T18:45:51Z</time></trkpt><trkpt lat="45.7425564900" lon="7.3292581737"><ele>622.11</ele><time>2014-09-03T18:46:02Z</time></trkpt><trkpt lat="45.7423375547" lon="7.3292901926"><ele>620.19</ele><time>2014-09-03T18:46:13Z</time></trkpt><trkpt lat="45.7420015242" lon="7.3292634543"><ele>616.82</ele><time>2014-09-03T18:46:23Z</time></trkpt><trkpt lat="45.7419493049" lon="7.3292359617"><ele>615.86</ele><time>2014-09-03T18:46:25Z</time></trkpt><trkpt lat="45.7419327088" lon="7.3292063735"><ele>615.38</ele><time>2014-09-03T18:46:26Z</time></trkpt><trkpt lat="45.7419227343" lon="7.3291761149"><ele>615.38</ele><time>2014-09-03T18:46:27Z</time></trkpt><trkpt lat="45.7419172861" lon="7.3291456886"><ele>614.90</ele><time>2014-09-03T18:46:28Z</time></trkpt><trkpt lat="45.7419125084" lon="7.3291142564"><ele>614.90</ele><time>2014-09-03T18:46:29Z</time></trkpt><trkpt lat="45.7419101615" lon="7.3290772084"><ele>614.42</ele><time>2014-09-03T18:46:30Z</time></trkpt><trkpt lat="45.7419092394" lon="7.3290306050"><ele>613.94</ele><time>2014-09-03T18:46:31Z</time></trkpt><trkpt lat="45.7419089042" lon="7.3284567799"><ele>610.09</ele><time>2014-09-03T18:46:42Z</time></trkpt><trkpt lat="45.7418984268" lon="7.3284318857"><ele>610.09</ele><time>2014-09-03T18:46:43Z</time></trkpt><trkpt lat="45.7418861892" lon="7.3284158763"><ele>610.09</ele><time>2014-09-03T18:46:44Z</time></trkpt><trkpt lat="45.7418774720" lon="7.3283986095"><ele>610.09</ele><time>2014-09-03T18:46:45Z</time></trkpt><trkpt lat="45.7418715209" lon="7.3283759784"><ele>610.09</ele><time>2014-09-03T18:46:46Z</time></trkpt><trkpt lat="45.7418699283" lon="7.3283577897"><ele>609.61</ele><time>2014-09-03T18:46:47Z</time></trkpt><trkpt lat="45.7418685872" lon="7.3283383437"><ele>609.61</ele><time>2014-09-03T18:46:48Z</time></trkpt><trkpt lat="45.7418674976" lon="7.3283129465"><ele>609.61</ele><time>2014-09-03T18:46:49Z</time></trkpt><trkpt lat="45.7419778034" lon="7.3278847989"><ele>603.85</ele><time>2014-09-03T18:47:01Z</time></trkpt><trkpt lat="45.7419359777" lon="7.3278663587"><ele>603.85</ele><time>2014-09-03T18:47:08Z</time></trkpt><trkpt lat="45.7418742869" lon="7.3279632535"><ele>604.33</ele><time>2014-09-03T18:47:11Z</time></trkpt><trkpt lat="45.7418620493" lon="7.3279933445"><ele>604.33</ele><time>2014-09-03T18:47:12Z</time></trkpt><trkpt lat="45.7415365800" lon="7.3288417608"><ele>602.40</ele><time>2014-09-03T18:47:24Z</time></trkpt><trkpt lat="45.7414639927" lon="7.3290804774"><ele>601.92</ele><time>2014-09-03T18:47:27Z</time></trkpt><trkpt lat="45.7414488215" lon="7.3291196208"><ele>601.92</ele><time>2014-09-03T18:47:33Z</time></trkpt><trkpt lat="45.7414490730" lon="7.3291232251"><ele>602.40</ele><time>2014-09-03T18:47:57Z</time></trkpt><trkpt lat="45.7414561976" lon="7.3291274160"><ele>602.40</ele><time>2014-09-03T18:48:17Z</time></trkpt><trkpt lat="45.7414591312" lon="7.3291352112"><ele>602.40</ele><time>2014-09-03T18:48:18Z</time></trkpt><trkpt lat="45.7414541021" lon="7.3291843291"><ele>602.88</ele><time>2014-09-03T18:48:20Z</time></trkpt><trkpt lat="45.7414432056" lon="7.3292388115"><ele>602.88</ele><time>2014-09-03T18:48:22Z</time></trkpt><trkpt lat="45.7413796708" lon="7.3294858262"><ele>602.88</ele><time>2014-09-03T18:48:27Z</time></trkpt><trkpt lat="45.7413199078" lon="7.3295899294"><ele>603.36</ele><time>2014-09-03T18:48:30Z</time></trkpt><trkpt lat="45.7411645912" lon="7.3295056075"><ele>604.33</ele><time>2014-09-03T18:48:35Z</time></trkpt><trkpt lat="45.7411461510" lon="7.3294818029"><ele>604.33</ele><time>2014-09-03T18:48:36Z</time></trkpt><trkpt lat="45.7411205862" lon="7.3294437490"><ele>604.33</ele><time>2014-09-03T18:48:37Z</time></trkpt><trkpt lat="45.7410982903" lon="7.3294045217"><ele>603.36</ele><time>2014-09-03T18:48:38Z</time></trkpt><trkpt lat="45.7407416403" lon="7.3287496436"><ele>598.56</ele><time>2014-09-03T18:48:58Z</time></trkpt><trkpt lat="45.7407302409" lon="7.3287686706"><ele>598.08</ele><time>2014-09-03T18:48:59Z</time></trkpt><trkpt lat="45.7407383714" lon="7.3288249131"><ele>598.08</ele><time>2014-09-03T18:49:01Z</time></trkpt><trkpt lat="45.7407841366" lon="7.3289324529"><ele>598.56</ele><time>2014-09-03T18:49:04Z</time></trkpt><trkpt lat="45.7408128027" lon="7.3289774638"><ele>599.04</ele><time>2014-09-03T18:49:05Z</time></trkpt><trkpt lat="45.7410852145" lon="7.3295489419"><ele>598.56</ele><time>2014-09-03T18:49:22Z</time></trkpt><trkpt lat="45.7411014754" lon="7.3296937812"><ele>597.12</ele><time>2014-09-03T18:49:29Z</time></trkpt><trkpt lat="45.7410834543" lon="7.3296832200"><ele>597.12</ele><time>2014-09-03T18:49:30Z</time></trkpt><trkpt lat="45.7410595659" lon="7.3296683840"><ele>597.12</ele><time>2014-09-03T18:49:31Z</time></trkpt><trkpt lat="45.7407732401" lon="7.3297013249"><ele>595.19</ele><time>2014-09-03T18:49:42Z</time></trkpt><trkpt lat="45.7403839007" lon="7.3299079388"><ele>592.31</ele><time>2014-09-03T18:49:56Z</time></trkpt><trkpt lat="45.7403569110" lon="7.3298747465"><ele>592.79</ele><time>2014-09-03T18:49:58Z</time></trkpt><trkpt lat="45.7403400633" lon="7.3298402969"><ele>592.79</ele><time>2014-09-03T18:49:59Z</time></trkpt><trkpt lat="45.7403087150" lon="7.3297650274"><ele>593.27</ele><time>2014-09-03T18:50:01Z</time></trkpt><trkpt lat="45.7402827311" lon="7.3297066055"><ele>593.75</ele><time>2014-09-03T18:50:02Z</time></trkpt><trkpt lat="45.7400353812" lon="7.3290589359"><ele>594.71</ele><time>2014-09-03T18:50:16Z</time></trkpt><trkpt lat="45.7399136759" lon="7.3287569359"><ele>593.27</ele><time>2014-09-03T18:50:28Z</time></trkpt><trkpt lat="45.7398635522" lon="7.3286944069"><ele>592.79</ele><time>2014-09-03T18:50:33Z</time></trkpt><trkpt lat="45.7398410048" lon="7.3286958318"><ele>592.31</ele><time>2014-09-03T18:50:35Z</time></trkpt><trkpt lat="45.7398154400" lon="7.3287120089"><ele>591.83</ele><time>2014-09-03T18:50:36Z</time></trkpt><trkpt lat="45.7397954073" lon="7.3287293594"><ele>591.83</ele><time>2014-09-03T18:50:38Z</time></trkpt><trkpt lat="45.7395965885" lon="7.3289057985"><ele>590.87</ele><time>2014-09-03T18:50:48Z</time></trkpt><trkpt lat="45.7395817526" lon="7.3289179523"><ele>590.87</ele><time>2014-09-03T18:50:49Z</time></trkpt><trkpt lat="45.7395582832" lon="7.3289260827"><ele>591.35</ele><time>2014-09-03T18:50:50Z</time></trkpt><trkpt lat="45.7395351492" lon="7.3289366439"><ele>590.87</ele><time>2014-09-03T18:50:51Z</time></trkpt><trkpt lat="45.7395116799" lon="7.3289570957"><ele>590.87</ele><time>2014-09-03T18:50:52Z</time></trkpt><trkpt lat="45.7394959219" lon="7.3289827444"><ele>590.87</ele><time>2014-09-03T18:50:53Z</time></trkpt><trkpt lat="45.7394916471" lon="7.3290971573"><ele>590.39</ele><time>2014-09-03T18:50:56Z</time></trkpt><trkpt lat="45.7394959219" lon="7.3291225545"><ele>590.39</ele><time>2014-09-03T18:50:57Z</time></trkpt><trkpt lat="45.7395042200" lon="7.3291479517"><ele>589.91</ele><time>2014-09-03T18:50:58Z</time></trkpt><trkpt lat="45.7395117637" lon="7.3291659728"><ele>590.39</ele><time>2014-09-03T18:50:59Z</time></trkpt><trkpt lat="45.7395178825" lon="7.3291883525"><ele>590.39</ele><time>2014-09-03T18:51:00Z</time></trkpt><trkpt lat="45.7395208161" lon="7.3292134143"><ele>590.39</ele><time>2014-09-03T18:51:01Z</time></trkpt><trkpt lat="45.7395162899" lon="7.3292572517"><ele>589.91</ele><time>2014-09-03T18:51:02Z</time></trkpt><trkpt lat="45.7395086624" lon="7.3292867560"><ele>589.91</ele><time>2014-09-03T18:51:03Z</time></trkpt><trkpt lat="45.7394985203" lon="7.3293257318"><ele>589.43</ele><time>2014-09-03T18:51:04Z</time></trkpt><trkpt lat="45.7394884620" lon="7.3293608520"><ele>589.43</ele><time>2014-09-03T18:51:05Z</time></trkpt><trkpt lat="45.7393168844" lon="7.3301178217"><ele>589.91</ele><time>2014-09-03T18:51:19Z</time></trkpt><trkpt lat="45.7392496616" lon="7.3305976018"><ele>589.91</ele><time>2014-09-03T18:51:28Z</time></trkpt><trkpt lat="45.7392499130" lon="7.3306587059"><ele>589.91</ele><time>2014-09-03T18:51:29Z</time></trkpt><trkpt lat="45.7392520923" lon="7.3307179660"><ele>590.39</ele><time>2014-09-03T18:51:30Z</time></trkpt><trkpt lat="45.7392508350" lon="7.3308367375"><ele>590.39</ele><time>2014-09-03T18:51:32Z</time></trkpt><trkpt lat="45.7392227557" lon="7.3317267280"><ele>589.91</ele><time>2014-09-03T18:51:48Z</time></trkpt><trkpt lat="45.7392187323" lon="7.3324653413"><ele>588.46</ele><time>2014-09-03T18:52:02Z</time></trkpt><trkpt lat="45.7392102666" lon="7.3332903720"><ele>587.02</ele><time>2014-09-03T18:52:19Z</time></trkpt><trkpt lat="45.7391929161" lon="7.3340013251"><ele>585.10</ele><time>2014-09-03T18:52:34Z</time></trkpt><trkpt lat="45.7392094284" lon="7.3347984441"><ele>581.73</ele><time>2014-09-03T18:52:48Z</time></trkpt><trkpt lat="45.7393096760" lon="7.3356964812"><ele>581.25</ele><time>2014-09-03T18:53:03Z</time></trkpt><trkpt lat="45.7394623943" lon="7.3366066720"><ele>580.29</ele><time>2014-09-03T18:53:21Z</time></trkpt><trkpt lat="45.7396037970" lon="7.3369156290"><ele>580.77</ele><time>2014-09-03T18:53:32Z</time></trkpt><trkpt lat="45.7397877797" lon="7.3372821696"><ele>581.73</ele><time>2014-09-03T18:53:45Z</time></trkpt><trkpt lat="45.7401114888" lon="7.3380402289"><ele>583.18</ele><time>2014-09-03T18:54:03Z</time></trkpt><trkpt lat="45.7401663903" lon="7.3388398625"><ele>584.62</ele><time>2014-09-03T18:54:21Z</time></trkpt><trkpt lat="45.7401189487" lon="7.3395529110"><ele>583.18</ele><time>2014-09-03T18:54:36Z</time></trkpt><trkpt lat="45.7400463615" lon="7.3405431490"><ele>580.29</ele><time>2014-09-03T18:54:48Z</time></trkpt><trkpt lat="45.7400496304" lon="7.3419350479"><ele>575.97</ele><time>2014-09-03T18:55:03Z</time></trkpt><trkpt lat="45.7400979940" lon="7.3433298804"><ele>572.12</ele><time>2014-09-03T18:55:19Z</time></trkpt><trkpt lat="45.7399963215" lon="7.3442145064"><ele>569.72</ele><time>2014-09-03T18:55:32Z</time></trkpt><trkpt lat="45.7398544159" lon="7.3454650026"><ele>567.32</ele><time>2014-09-03T18:55:48Z</time></trkpt><trkpt lat="45.7399072219" lon="7.3466248903"><ele>565.87</ele><time>2014-09-03T18:56:05Z</time></trkpt><trkpt lat="45.7399113290" lon="7.3476746399"><ele>565.39</ele><time>2014-09-03T18:56:22Z</time></trkpt><trkpt lat="45.7396606263" lon="7.3478996102"><ele>565.39</ele><time>2014-09-03T18:56:32Z</time></trkpt><trkpt lat="45.7394390926" lon="7.3479252588"><ele>565.87</ele><time>2014-09-03T18:56:40Z</time></trkpt><trkpt lat="45.7394299563" lon="7.3479546793"><ele>565.87</ele><time>2014-09-03T18:56:41Z</time></trkpt><trkpt lat="45.7394531742" lon="7.3479918111"><ele>566.35</ele><time>2014-09-03T18:56:43Z</time></trkpt><trkpt lat="45.7394815888" lon="7.3479908053"><ele>566.83</ele><time>2014-09-03T18:56:44Z</time></trkpt><trkpt lat="45.7395276893" lon="7.3479852732"><ele>567.32</ele><time>2014-09-03T18:56:45Z</time></trkpt><trkpt lat="45.7395520806" lon="7.3479827587"><ele>567.80</ele><time>2014-09-03T18:56:46Z</time></trkpt><trkpt lat="45.7397514861" lon="7.3480002768"><ele>570.68</ele><time>2014-09-03T18:56:57Z</time></trkpt><trkpt lat="45.7397938147" lon="7.3480126821"><ele>570.20</ele><time>2014-09-03T18:57:12Z</time></trkpt><trkpt lat="45.7398154400" lon="7.3480250034"><ele>570.68</ele><time>2014-09-03T18:57:13Z</time></trkpt><trkpt lat="45.7398456149" lon="7.3480567709"><ele>571.16</ele><time>2014-09-03T18:57:14Z</time></trkpt><trkpt lat="45.7398727722" lon="7.3481140193"><ele>571.16</ele><time>2014-09-03T18:57:16Z</time></trkpt><trkpt lat="45.7398857642" lon="7.3481872771"><ele>570.68</ele><time>2014-09-03T18:57:17Z</time></trkpt><trkpt lat="45.7398855127" lon="7.3482626304"><ele>570.20</ele><time>2014-09-03T18:57:18Z</time></trkpt><trkpt lat="45.7398837525" lon="7.3483267520"><ele>570.20</ele><time>2014-09-03T18:57:19Z</time></trkpt><trkpt lat="45.7398619596" lon="7.3493913375"><ele>567.32</ele><time>2014-09-03T18:57:36Z</time></trkpt><trkpt lat="45.7398348022" lon="7.3502905481"><ele>564.43</ele><time>2014-09-03T18:57:50Z</time></trkpt><trkpt lat="45.7397956587" lon="7.3503218964"><ele>564.43</ele><time>2014-09-03T18:57:52Z</time></trkpt><trkpt lat="45.7397612929" lon="7.3503283504"><ele>563.95</ele><time>2014-09-03T18:57:53Z</time></trkpt><trkpt lat="45.7393744681" lon="7.3505833279"><ele>561.07</ele><time>2014-09-03T18:58:05Z</time></trkpt><trkpt lat="45.7392646652" lon="7.3506694939"><ele>560.59</ele><time>2014-09-03T18:58:08Z</time></trkpt><trkpt lat="45.7392310537" lon="7.3506919574"><ele>560.59</ele><time>2014-09-03T18:58:09Z</time></trkpt><trkpt lat="45.7391992025" lon="7.3507059552"><ele>560.59</ele><time>2014-09-03T18:58:10Z</time></trkpt><trkpt lat="45.7391674351" lon="7.3507256526"><ele>560.59</ele><time>2014-09-03T18:58:11Z</time></trkpt><trkpt lat="45.7391384337" lon="7.3507533129"><ele>560.59</ele><time>2014-09-03T18:58:12Z</time></trkpt><trkpt lat="45.7391116116" lon="7.3507847451"><ele>560.59</ele><time>2014-09-03T18:58:13Z</time></trkpt><trkpt lat="45.7390890643" lon="7.3508227151"><ele>560.59</ele><time>2014-09-03T18:58:14Z</time></trkpt><trkpt lat="45.7390726358" lon="7.3508623615"><ele>560.11</ele><time>2014-09-03T18:58:15Z</time></trkpt><trkpt lat="45.7390606496" lon="7.3508921172"><ele>560.11</ele><time>2014-09-03T18:58:16Z</time></trkpt><trkpt lat="45.7390443888" lon="7.3509255610"><ele>560.11</ele><time>2014-09-03T18:58:17Z</time></trkpt><trkpt lat="45.7390294690" lon="7.3509584181"><ele>560.11</ele><time>2014-09-03T18:58:18Z</time></trkpt><trkpt lat="45.7390177343" lon="7.3509912752"><ele>560.11</ele><time>2014-09-03T18:58:19Z</time></trkpt><trkpt lat="45.7390042394" lon="7.3510274850"><ele>560.59</ele><time>2014-09-03T18:58:20Z</time></trkpt><trkpt lat="45.7389884815" lon="7.3510680534"><ele>560.59</ele><time>2014-09-03T18:58:21Z</time></trkpt><trkpt lat="45.7387665287" lon="7.3518106062"><ele>560.59</ele><time>2014-09-03T18:58:36Z</time></trkpt><trkpt lat="45.7385392115" lon="7.3526178673"><ele>560.59</ele><time>2014-09-03T18:58:50Z</time></trkpt><trkpt lat="45.7383373752" lon="7.3531978950"><ele>559.62</ele><time>2014-09-03T18:59:04Z</time></trkpt><trkpt lat="45.7383227069" lon="7.3532259744"><ele>559.14</ele><time>2014-09-03T18:59:06Z</time></trkpt><trkpt lat="45.7382684760" lon="7.3531131539"><ele>559.14</ele><time>2014-09-03T18:59:11Z</time></trkpt><trkpt lat="45.7382393070" lon="7.3530723341"><ele>559.14</ele><time>2014-09-03T18:59:13Z</time></trkpt><trkpt lat="45.7382175140" lon="7.3530496191"><ele>559.62</ele><time>2014-09-03T18:59:14Z</time></trkpt><trkpt lat="45.7380290050" lon="7.3529526405"><ele>559.62</ele><time>2014-09-03T18:59:23Z</time></trkpt><trkpt lat="45.7380124088" lon="7.3528756946"><ele>559.62</ele><time>2014-09-03T18:59:25Z</time></trkpt><trkpt lat="45.7380167674" lon="7.3528407421"><ele>559.62</ele><time>2014-09-03T18:59:26Z</time></trkpt><trkpt lat="45.7380264066" lon="7.3527911212"><ele>559.62</ele><time>2014-09-03T18:59:28Z</time></trkpt><trkpt lat="45.7380934618" lon="7.3526546638"><ele>559.62</ele><time>2014-09-03T18:59:34Z</time></trkpt><trkpt lat="45.7381004188" lon="7.3526601121"><ele>559.62</ele><time>2014-09-03T18:59:35Z</time></trkpt><trkpt lat="45.7381028496" lon="7.3526834976"><ele>559.62</ele><time>2014-09-03T18:59:36Z</time></trkpt><trkpt lat="45.7380890194" lon="7.3527337890"><ele>559.62</ele><time>2014-09-03T18:59:38Z</time></trkpt><trkpt lat="45.7380424999" lon="7.3527988326"><ele>559.62</ele><time>2014-09-03T18:59:41Z</time></trkpt><trkpt lat="45.7380544022" lon="7.3529973999"><ele>560.11</ele><time>2014-09-03T18:59:46Z</time></trkpt><trkpt lat="45.7381481957" lon="7.3530151695"><ele>562.03</ele><time>2014-09-03T18:59:50Z</time></trkpt><trkpt lat="45.7381658815" lon="7.3530159239"><ele>562.51</ele><time>2014-09-03T18:59:51Z</time></trkpt><trkpt lat="45.7382126525" lon="7.3530296702"><ele>564.43</ele><time>2014-09-03T18:59:53Z</time></trkpt><trkpt lat="45.7382290810" lon="7.3530542292"><ele>564.91</ele><time>2014-09-03T18:59:54Z</time></trkpt><trkpt lat="45.7382383011" lon="7.3530775309"><ele>564.91</ele><time>2014-09-03T18:59:55Z</time></trkpt><trkpt lat="45.7382491138" lon="7.3531062808"><ele>564.91</ele><time>2014-09-03T18:59:56Z</time></trkpt><trkpt lat="45.7382590044" lon="7.3531283252"><ele>564.91</ele><time>2014-09-03T18:59:57Z</time></trkpt><trkpt lat="45.7382813003" lon="7.3531530518"><ele>564.91</ele><time>2014-09-03T18:59:59Z</time></trkpt><trkpt lat="45.7382956333" lon="7.3531860765"><ele>564.91</ele><time>2014-09-03T19:00:00Z</time></trkpt><trkpt lat="45.7382908557" lon="7.3532580771"><ele>563.95</ele><time>2014-09-03T19:00:01Z</time></trkpt><trkpt lat="45.7382750977" lon="7.3533107154"><ele>563.47</ele><time>2014-09-03T19:00:02Z</time></trkpt><trkpt lat="45.7382534724" lon="7.3533617612"><ele>562.99</ele><time>2014-09-03T19:00:03Z</time></trkpt><trkpt lat="45.7382316794" lon="7.3534133099"><ele>562.51</ele><time>2014-09-03T19:00:04Z</time></trkpt><trkpt lat="45.7381342817" lon="7.3535531200"><ele>561.07</ele><time>2014-09-03T19:00:08Z</time></trkpt><trkpt lat="45.7380218804" lon="7.3534815386"><ele>560.59</ele><time>2014-09-03T19:00:12Z</time></trkpt><trkpt lat="45.7378872670" lon="7.3528531473"><ele>559.62</ele><time>2014-09-03T19:00:24Z</time></trkpt><trkpt lat="45.7378958166" lon="7.3528135009"><ele>559.62</ele><time>2014-09-03T19:00:25Z</time></trkpt><trkpt lat="45.7379085571" lon="7.3527439311"><ele>559.62</ele><time>2014-09-03T19:00:26Z</time></trkpt><trkpt lat="45.7380061224" lon="7.3522182181"><ele>559.62</ele><time>2014-09-03T19:00:36Z</time></trkpt><trkpt lat="45.7380220480" lon="7.3521970119"><ele>559.14</ele><time>2014-09-03T19:00:37Z</time></trkpt><trkpt lat="45.7380536478" lon="7.3521514144"><ele>559.62</ele><time>2014-09-03T19:00:40Z</time></trkpt><trkpt lat="45.7380552404" lon="7.3521267716"><ele>559.62</ele><time>2014-09-03T19:00:41Z</time></trkpt><trkpt lat="45.7380493730" lon="7.3520982731"><ele>559.62</ele><time>2014-09-03T19:00:42Z</time></trkpt><trkpt lat="45.7380430866" lon="7.3520625662"><ele>559.62</ele><time>2014-09-03T19:00:43Z</time></trkpt><trkpt lat="45.7380394824" lon="7.3520213272"><ele>559.62</ele><time>2014-09-03T19:00:44Z</time></trkpt><trkpt lat="45.7380414102" lon="7.3519806750"><ele>559.62</ele><time>2014-09-03T19:00:45Z</time></trkpt><trkpt lat="45.7380479481" lon="7.3519387655"><ele>560.11</ele><time>2014-09-03T19:00:46Z</time></trkpt><trkpt lat="45.7380573358" lon="7.3518958502"><ele>560.11</ele><time>2014-09-03T19:00:47Z</time></trkpt><trkpt lat="45.7381683122" lon="7.3513173312"><ele>560.59</ele><time>2014-09-03T19:01:03Z</time></trkpt><trkpt lat="45.7382264826" lon="7.3508787062"><ele>561.07</ele><time>2014-09-03T19:01:15Z</time></trkpt><trkpt lat="45.7382974774" lon="7.3503765464"><ele>562.03</ele><time>2014-09-03T19:01:26Z</time></trkpt><trkpt lat="45.7382939570" lon="7.3495681118"><ele>563.95</ele><time>2014-09-03T19:01:43Z</time></trkpt><trkpt lat="45.7382266503" lon="7.3487485293"><ele>565.39</ele><time>2014-09-03T19:01:59Z</time></trkpt><trkpt lat="45.7382626086" lon="7.3487113975"><ele>565.39</ele><time>2014-09-03T19:02:00Z</time></trkpt><trkpt lat="45.7382875867" lon="7.3487079609"><ele>565.39</ele><time>2014-09-03T19:02:01Z</time></trkpt><trkpt lat="45.7383168396" lon="7.3487086315"><ele>565.39</ele><time>2014-09-03T19:02:02Z</time></trkpt><trkpt lat="45.7383524626" lon="7.3487098049"><ele>565.39</ele><time>2014-09-03T19:02:03Z</time></trkpt><trkpt lat="45.7383878343" lon="7.3487073742"><ele>565.39</ele><time>2014-09-03T19:02:04Z</time></trkpt><trkpt lat="45.7386461645" lon="7.3487272393"><ele>564.43</ele><time>2014-09-03T19:02:11Z</time></trkpt><trkpt lat="45.7386661973" lon="7.3486980703"><ele>564.43</ele><time>2014-09-03T19:02:12Z</time></trkpt><trkpt lat="45.7386768423" lon="7.3486641236"><ele>564.43</ele><time>2014-09-03T19:02:13Z</time></trkpt><trkpt lat="45.7386800274" lon="7.3486338649"><ele>564.43</ele><time>2014-09-03T19:02:14Z</time></trkpt><trkpt lat="45.7386799436" lon="7.3486055341"><ele>564.91</ele><time>2014-09-03T19:02:15Z</time></trkpt><trkpt lat="45.7386884093" lon="7.3485427536"><ele>564.43</ele><time>2014-09-03T19:02:27Z</time></trkpt><trkpt lat="45.7386719808" lon="7.3485770356"><ele>563.95</ele><time>2014-09-03T19:02:39Z</time></trkpt><trkpt lat="45.7387101185" lon="7.3487036023"><ele>564.43</ele><time>2014-09-03T19:02:44Z</time></trkpt><trkpt lat="45.7387195062" lon="7.3487101402"><ele>564.43</ele><time>2014-09-03T19:02:45Z</time></trkpt><trkpt lat="45.7387367729" lon="7.3487201985"><ele>564.91</ele><time>2014-09-03T19:02:46Z</time></trkpt><trkpt lat="45.7387507707" lon="7.3487306759"><ele>564.91</ele><time>2014-09-03T19:02:47Z</time></trkpt><trkpt lat="45.7387644332" lon="7.3487373814"><ele>565.39</ele><time>2014-09-03T19:02:48Z</time></trkpt><trkpt lat="45.7387851365" lon="7.3487207014"><ele>564.43</ele><time>2014-09-03T19:02:58Z</time></trkpt><trkpt lat="45.7388050854" lon="7.3487206176"><ele>563.47</ele><time>2014-09-03T19:03:37Z</time></trkpt><trkpt lat="45.7388093602" lon="7.3487146664"><ele>561.55</ele><time>2014-09-03T19:04:11Z</time></trkpt><trkpt lat="45.7387807779" lon="7.3487392254"><ele>561.55</ele><time>2014-09-03T19:04:31Z</time></trkpt><trkpt lat="45.7385273930" lon="7.3487087153"><ele>561.07</ele><time>2014-09-03T19:04:42Z</time></trkpt><trkpt lat="45.7382444199" lon="7.3486721702"><ele>562.03</ele><time>2014-09-03T19:04:53Z</time></trkpt><trkpt lat="45.7382257283" lon="7.3486900236"><ele>562.03</ele><time>2014-09-03T19:04:54Z</time></trkpt><trkpt lat="45.7382116467" lon="7.3487256467"><ele>561.55</ele><time>2014-09-03T19:04:55Z</time></trkpt><trkpt lat="45.7382025942" lon="7.3487923667"><ele>561.55</ele><time>2014-09-03T19:04:57Z</time></trkpt><trkpt lat="45.7382025104" lon="7.3488596734"><ele>562.03</ele><time>2014-09-03T19:04:58Z</time></trkpt><trkpt lat="45.7382035162" lon="7.3489038460"><ele>562.03</ele><time>2014-09-03T19:04:59Z</time></trkpt><trkpt lat="45.7382785343" lon="7.3500183038"><ele>563.47</ele><time>2014-09-03T19:05:15Z</time></trkpt><trkpt lat="45.7381478604" lon="7.3511985596"><ele>562.99</ele><time>2014-09-03T19:05:30Z</time></trkpt><trkpt lat="45.7380299270" lon="7.3518619034"><ele>561.55</ele><time>2014-09-03T19:05:41Z</time></trkpt><trkpt lat="45.7378288452" lon="7.3529012594"><ele>561.55</ele><time>2014-09-03T19:05:58Z</time></trkpt><trkpt lat="45.7376436889" lon="7.3531455081"><ele>559.14</ele><time>2014-09-03T19:06:06Z</time></trkpt><trkpt lat="45.7376244105" lon="7.3532633577"><ele>558.66</ele><time>2014-09-03T19:06:08Z</time></trkpt><trkpt lat="45.7376116700" lon="7.3541090079"><ele>558.66</ele><time>2014-09-03T19:06:22Z</time></trkpt><trkpt lat="45.7376170345" lon="7.3541420326"><ele>558.18</ele><time>2014-09-03T19:06:23Z</time></trkpt><trkpt lat="45.7376261707" lon="7.3541546892"><ele>558.18</ele><time>2014-09-03T19:06:24Z</time></trkpt><trkpt lat="45.7376444433" lon="7.3541458044"><ele>558.18</ele><time>2014-09-03T19:06:25Z</time></trkpt><trkpt lat="45.7376482151" lon="7.3536853865"><ele>557.70</ele><time>2014-09-03T19:06:35Z</time></trkpt><trkpt lat="45.7376556750" lon="7.3536212649"><ele>557.70</ele><time>2014-09-03T19:06:36Z</time></trkpt><trkpt lat="45.7376669906" lon="7.3535688780"><ele>557.70</ele><time>2014-09-03T19:06:37Z</time></trkpt><trkpt lat="45.7378663961" lon="7.3530755192"><ele>557.22</ele><time>2014-09-03T19:06:50Z</time></trkpt><trkpt lat="45.7375882845" lon="7.3532657884"><ele>556.26</ele><time>2014-09-03T19:07:02Z</time></trkpt><trkpt lat="45.7375862729" lon="7.3534252122"><ele>556.74</ele><time>2014-09-03T19:07:05Z</time></trkpt><trkpt lat="45.7375868596" lon="7.3534807842"><ele>556.74</ele><time>2014-09-03T19:07:06Z</time></trkpt><trkpt lat="45.7375569362" lon="7.3541901447"><ele>556.26</ele><time>2014-09-03T19:07:18Z</time></trkpt><trkpt lat="45.7374654897" lon="7.3552997410"><ele>556.26</ele><time>2014-09-03T19:07:36Z</time></trkpt><trkpt lat="45.7372883800" lon="7.3564169649"><ele>555.30</ele><time>2014-09-03T19:07:53Z</time></trkpt><trkpt lat="45.7371165510" lon="7.3573423270"><ele>554.34</ele><time>2014-09-03T19:08:08Z</time></trkpt><trkpt lat="45.7371236756" lon="7.3583569564"><ele>554.34</ele><time>2014-09-03T19:08:23Z</time></trkpt><trkpt lat="45.7371222507" lon="7.3591307737"><ele>553.86</ele><time>2014-09-03T19:08:37Z</time></trkpt><trkpt lat="45.7370975241" lon="7.3592544906"><ele>553.86</ele><time>2014-09-03T19:08:39Z</time></trkpt><trkpt lat="45.7367834542" lon="7.3598529585"><ele>555.78</ele><time>2014-09-03T19:08:53Z</time></trkpt><trkpt lat="45.7362058572" lon="7.3599620908"><ele>556.26</ele><time>2014-09-03T19:09:08Z</time></trkpt><trkpt lat="45.7356329542" lon="7.3599342629"><ele>556.26</ele><time>2014-09-03T19:09:20Z</time></trkpt><trkpt lat="45.7354926411" lon="7.3599394597"><ele>555.78</ele><time>2014-09-03T19:09:23Z</time></trkpt><trkpt lat="45.7345531974" lon="7.3598869890"><ele>554.82</ele><time>2014-09-03T19:09:43Z</time></trkpt><trkpt lat="45.7345031574" lon="7.3598764278"><ele>554.82</ele><time>2014-09-03T19:09:44Z</time></trkpt><trkpt lat="45.7344534528" lon="7.3598677944"><ele>554.82</ele><time>2014-09-03T19:09:45Z</time></trkpt><trkpt lat="45.7336466946" lon="7.3596015014"><ele>552.90</ele><time>2014-09-03T19:10:02Z</time></trkpt><trkpt lat="45.7335770410" lon="7.3596069496"><ele>552.90</ele><time>2014-09-03T19:10:04Z</time></trkpt><trkpt lat="45.7335429266" lon="7.3596370406"><ele>552.90</ele><time>2014-09-03T19:10:05Z</time></trkpt><trkpt lat="45.7335314434" lon="7.3597155791"><ele>552.41</ele><time>2014-09-03T19:10:07Z</time></trkpt><trkpt lat="45.7335457765" lon="7.3597470112"><ele>552.41</ele><time>2014-09-03T19:10:08Z</time></trkpt><trkpt lat="45.7335698325" lon="7.3597739171"><ele>552.41</ele><time>2014-09-03T19:10:09Z</time></trkpt><trkpt lat="45.7336174417" lon="7.3598040082"><ele>552.41</ele><time>2014-09-03T19:10:10Z</time></trkpt><trkpt lat="45.7336552441" lon="7.3598180059"><ele>552.41</ele><time>2014-09-03T19:10:11Z</time></trkpt><trkpt lat="45.7336979918" lon="7.3598315008"><ele>552.41</ele><time>2014-09-03T19:10:12Z</time></trkpt><trkpt lat="45.7337420806" lon="7.3598516174"><ele>552.41</ele><time>2014-09-03T19:10:13Z</time></trkpt><trkpt lat="45.7337829005" lon="7.3598791100"><ele>552.90</ele><time>2014-09-03T19:10:14Z</time></trkpt><trkpt lat="45.7338202000" lon="7.3599141464"><ele>552.90</ele><time>2014-09-03T19:10:15Z</time></trkpt><trkpt lat="45.7338889316" lon="7.3600021563"><ele>552.90</ele><time>2014-09-03T19:10:17Z</time></trkpt><trkpt lat="45.7339038514" lon="7.3600366898"><ele>552.90</ele><time>2014-09-03T19:10:18Z</time></trkpt><trkpt lat="45.7339160889" lon="7.3600861430"><ele>552.90</ele><time>2014-09-03T19:10:19Z</time></trkpt><trkpt lat="45.7339402288" lon="7.3606020492"><ele>553.38</ele><time>2014-09-03T19:10:32Z</time></trkpt><trkpt lat="45.7339579146" lon="7.3606564477"><ele>554.82</ele><time>2014-09-03T19:10:42Z</time></trkpt><trkpt lat="45.7339300867" lon="7.3606473114"><ele>557.70</ele><time>2014-09-03T19:10:58Z</time></trkpt><trkpt lat="45.7338640373" lon="7.3606768996"><ele>561.55</ele><time>2014-09-03T19:11:41Z</time></trkpt><trkpt lat="45.7338549849" lon="7.3606991954"><ele>562.51</ele><time>2014-09-03T19:12:27Z</time></trkpt><trkpt lat="45.7339092996" lon="7.3606819287"><ele>558.18</ele><time>2014-09-03T19:13:03Z</time></trkpt><trkpt lat="45.7338906918" lon="7.3606819287"><ele>558.18</ele><time>2014-09-03T19:13:47Z</time></trkpt><trkpt lat="45.7339056116" lon="7.3606856167"><ele>557.22</ele><time>2014-09-03T19:14:18Z</time></trkpt><trkpt lat="45.7339289971" lon="7.3607007880"><ele>558.66</ele><time>2014-09-03T19:14:38Z</time></trkpt><trkpt lat="45.7339486945" lon="7.3606942501"><ele>559.62</ele><time>2014-09-03T19:15:05Z</time></trkpt><trkpt lat="45.7339517958" lon="7.3607005365"><ele>559.14</ele><time>2014-09-03T19:15:29Z</time></trkpt><trkpt lat="45.7339561544" lon="7.3607021291"><ele>559.14</ele><time>2014-09-03T19:16:00Z</time></trkpt><trkpt lat="45.7339407317" lon="7.3607054818"><ele>560.59</ele><time>2014-09-03T19:16:24Z</time></trkpt><trkpt lat="45.7339333557" lon="7.3607178871"><ele>560.11</ele><time>2014-09-03T19:16:25Z</time></trkpt><trkpt lat="45.7338821422" lon="7.3609482218"><ele>558.66</ele><time>2014-09-03T19:16:35Z</time></trkpt><trkpt lat="45.7338872552" lon="7.3609741218"><ele>558.18</ele><time>2014-09-03T19:16:36Z</time></trkpt><trkpt lat="45.7338922843" lon="7.3614131659"><ele>556.74</ele><time>2014-09-03T19:16:50Z</time></trkpt><trkpt lat="45.7339351159" lon="7.3616236355"><ele>557.70</ele><time>2014-09-03T19:16:57Z</time></trkpt><trkpt lat="45.7340056077" lon="7.3617139086"><ele>558.18</ele><time>2014-09-03T19:17:05Z</time></trkpt><trkpt lat="45.7340062782" lon="7.3618092947"><ele>557.22</ele><time>2014-09-03T19:17:17Z</time></trkpt><trkpt lat="45.7340147439" lon="7.3618189339"><ele>557.70</ele><time>2014-09-03T19:17:50Z</time></trkpt><trkpt lat="45.7339881733" lon="7.3618334346"><ele>552.90</ele><time>2014-09-03T19:18:29Z</time></trkpt><trkpt lat="45.7340358663" lon="7.3618025053"><ele>555.78</ele><time>2014-09-03T19:19:10Z</time></trkpt><trkpt lat="45.7340023387" lon="7.3618320096"><ele>559.14</ele><time>2014-09-03T19:20:05Z</time></trkpt><trkpt lat="45.7340194378" lon="7.3618517909"><ele>556.74</ele><time>2014-09-03T19:20:54Z</time></trkpt><trkpt lat="45.7339962199" lon="7.3618315067"><ele>556.74</ele><time>2014-09-03T19:21:42Z</time></trkpt><trkpt lat="45.7339883409" lon="7.3618424870"><ele>554.82</ele><time>2014-09-03T19:22:30Z</time></trkpt><trkpt lat="45.7340274006" lon="7.3618461750"><ele>557.22</ele><time>2014-09-03T19:23:18Z</time></trkpt><trkpt lat="45.7340008300" lon="7.3618341889"><ele>558.66</ele><time>2014-09-03T19:24:10Z</time></trkpt><trkpt lat="45.7340380456" lon="7.3618489411"><ele>561.07</ele><time>2014-09-03T19:24:55Z</time></trkpt><trkpt lat="45.7340181805" lon="7.3618411459"><ele>560.59</ele><time>2014-09-03T19:25:43Z</time></trkpt><trkpt lat="45.7340285741" lon="7.3618496954"><ele>558.66</ele><time>2014-09-03T19:26:25Z</time></trkpt><trkpt lat="45.7339966390" lon="7.3618625198"><ele>560.11</ele><time>2014-09-03T19:27:06Z</time></trkpt><trkpt lat="45.7340265624" lon="7.3618641123"><ele>563.47</ele><time>2014-09-03T19:28:04Z</time></trkpt><trkpt lat="45.7340172585" lon="7.3618573230"><ele>554.34</ele><time>2014-09-03T19:29:01Z</time></trkpt><trkpt lat="45.7340244669" lon="7.3618577421"><ele>552.41</ele><time>2014-09-03T19:29:38Z</time></trkpt><trkpt lat="45.7340211142" lon="7.3618491087"><ele>558.66</ele><time>2014-09-03T19:30:23Z</time></trkpt><trkpt lat="45.7340208627" lon="7.3618564010"><ele>554.34</ele><time>2014-09-03T19:31:09Z</time></trkpt><trkpt lat="45.7340076193" lon="7.3618238792"><ele>552.41</ele><time>2014-09-03T19:31:47Z</time></trkpt><trkpt lat="45.7339995727" lon="7.3618233763"><ele>553.86</ele><time>2014-09-03T19:32:21Z</time></trkpt><trkpt lat="45.7340003271" lon="7.3618330155"><ele>555.30</ele><time>2014-09-03T19:33:04Z</time></trkpt><trkpt lat="45.7339981478" lon="7.3618600052"><ele>553.86</ele><time>2014-09-03T19:33:46Z</time></trkpt><trkpt lat="45.7339848205" lon="7.3618004099"><ele>550.97</ele><time>2014-09-03T19:34:39Z</time></trkpt><trkpt lat="45.7339842338" lon="7.3618197720"><ele>550.97</ele><time>2014-09-03T19:35:27Z</time></trkpt><trkpt lat="45.7340170909" lon="7.3618096299"><ele>551.93</ele><time>2014-09-03T19:36:07Z</time></trkpt><trkpt lat="45.7340287417" lon="7.3617929500"><ele>551.45</ele><time>2014-09-03T19:36:50Z</time></trkpt><trkpt lat="45.7339971419" lon="7.3618362844"><ele>553.86</ele><time>2014-09-03T19:37:29Z</time></trkpt><trkpt lat="45.7340275683" lon="7.3618408944"><ele>552.90</ele><time>2014-09-03T19:38:05Z</time></trkpt><trkpt lat="45.7340048533" lon="7.3618108872"><ele>552.41</ele><time>2014-09-03T19:38:42Z</time></trkpt><trkpt lat="45.7339992374" lon="7.3618229572"><ele>550.01</ele><time>2014-09-03T19:39:34Z</time></trkpt><trkpt lat="45.7340132352" lon="7.3618111387"><ele>552.41</ele><time>2014-09-03T19:40:14Z</time></trkpt><trkpt lat="45.7340215333" lon="7.3618091270"><ele>552.90</ele><time>2014-09-03T19:41:04Z</time></trkpt><trkpt lat="45.7340243831" lon="7.3618186824"><ele>552.41</ele><time>2014-09-03T19:41:46Z</time></trkpt><trkpt lat="45.7339836471" lon="7.3618465103"><ele>551.45</ele><time>2014-09-03T19:42:23Z</time></trkpt><trkpt lat="45.7340492774" lon="7.3617930338"><ele>558.18</ele><time>2014-09-03T19:43:12Z</time></trkpt><trkpt lat="45.7340274006" lon="7.3618382961"><ele>555.30</ele><time>2014-09-03T19:44:00Z</time></trkpt><trkpt lat="45.7339958847" lon="7.3618219513"><ele>555.78</ele><time>2014-09-03T19:44:49Z</time></trkpt><trkpt lat="45.7340299990" lon="7.3618470132"><ele>560.11</ele><time>2014-09-03T19:45:31Z</time></trkpt><trkpt lat="45.7340549771" lon="7.3618201073"><ele>562.51</ele><time>2014-09-03T19:46:07Z</time></trkpt><trkpt lat="45.7340700645" lon="7.3618343566"><ele>556.74</ele><time>2014-09-03T19:46:54Z</time></trkpt><trkpt lat="45.7340582460" lon="7.3618272319"><ele>551.45</ele><time>2014-09-03T19:47:31Z</time></trkpt><trkpt lat="45.7340391353" lon="7.3617947940"><ele>547.13</ele><time>2014-09-03T19:48:01Z</time></trkpt><trkpt lat="45.7340279873" lon="7.3618629389"><ele>556.74</ele><time>2014-09-03T19:48:51Z</time></trkpt><trkpt lat="45.7340450864" lon="7.3618242983"><ele>559.14</ele><time>2014-09-03T19:49:33Z</time></trkpt><trkpt lat="45.7340522110" lon="7.3618191853"><ele>554.82</ele><time>2014-09-03T19:50:26Z</time></trkpt><trkpt lat="45.7340355311" lon="7.3618363682"><ele>554.82</ele><time>2014-09-03T19:51:06Z</time></trkpt><trkpt lat="45.7340092119" lon="7.3618520424"><ele>553.86</ele><time>2014-09-03T19:51:44Z</time></trkpt><trkpt lat="45.7340157498" lon="7.3618508689"><ele>548.57</ele><time>2014-09-03T19:52:27Z</time></trkpt><trkpt lat="45.7340238802" lon="7.3618662916"><ele>553.38</ele><time>2014-09-03T19:53:04Z</time></trkpt><trkpt lat="45.7339997403" lon="7.3618258908"><ele>548.57</ele><time>2014-09-03T19:53:40Z</time></trkpt><trkpt lat="45.7340126485" lon="7.3618576583"><ele>545.69</ele><time>2014-09-03T19:54:20Z</time></trkpt><trkpt lat="45.7340382971" lon="7.3618201073"><ele>552.90</ele><time>2014-09-03T19:54:55Z</time></trkpt><trkpt lat="45.7340444159" lon="7.3618367873"><ele>550.97</ele><time>2014-09-03T19:55:31Z</time></trkpt><trkpt lat="45.7340491097" lon="7.3618270643"><ele>552.41</ele><time>2014-09-03T19:56:00Z</time></trkpt><trkpt lat="45.7340247184" lon="7.3618426546"><ele>550.97</ele><time>2014-09-03T19:56:39Z</time></trkpt><trkpt lat="45.7340224553" lon="7.3618281540"><ele>550.01</ele><time>2014-09-03T19:57:10Z</time></trkpt><trkpt lat="45.7340789493" lon="7.3618216999"><ele>550.01</ele><time>2014-09-03T19:57:50Z</time></trkpt><trkpt lat="45.7340266462" lon="7.3618277349"><ele>550.49</ele><time>2014-09-03T19:58:31Z</time></trkpt><trkpt lat="45.7339794561" lon="7.3617968056"><ele>550.01</ele><time>2014-09-03T19:59:14Z</time></trkpt><trkpt lat="45.7340116426" lon="7.3618476838"><ele>548.57</ele><time>2014-09-03T19:59:44Z</time></trkpt><trkpt lat="45.7340413146" lon="7.3618290760"><ele>548.09</ele><time>2014-09-03T20:00:28Z</time></trkpt><trkpt lat="45.7339870837" lon="7.3618441634"><ele>548.09</ele><time>2014-09-03T20:01:10Z</time></trkpt><trkpt lat="45.7339808811" lon="7.3618214484"><ele>545.20</ele><time>2014-09-03T20:01:32Z</time></trkpt><trkpt lat="45.7340032607" lon="7.3618534673"><ele>544.24</ele><time>2014-09-03T20:02:11Z</time></trkpt><trkpt lat="45.7339972258" lon="7.3618275672"><ele>549.53</ele><time>2014-09-03T20:02:55Z</time></trkpt><trkpt lat="45.7340043504" lon="7.3618149944"><ele>546.65</ele><time>2014-09-03T20:03:48Z</time></trkpt><trkpt lat="45.7339838147" lon="7.3618568201"><ele>545.20</ele><time>2014-09-03T20:04:38Z</time></trkpt><trkpt lat="45.7339796238" lon="7.3618562333"><ele>545.20</ele><time>2014-09-03T20:05:23Z</time></trkpt><trkpt lat="45.7340084575" lon="7.3618320934"><ele>548.09</ele><time>2014-09-03T20:06:11Z</time></trkpt><trkpt lat="45.7339757681" lon="7.3618539702"><ele>546.65</ele><time>2014-09-03T20:07:03Z</time></trkpt><trkpt lat="45.7339813001" lon="7.3618188500"><ele>546.17</ele><time>2014-09-03T20:07:44Z</time></trkpt><trkpt lat="45.7340035122" lon="7.3618377931"><ele>547.13</ele><time>2014-09-03T20:08:26Z</time></trkpt><trkpt lat="45.7339760195" lon="7.3618359491"><ele>549.05</ele><time>2014-09-03T20:09:06Z</time></trkpt><trkpt lat="45.7339814678" lon="7.3618330993"><ele>547.61</ele><time>2014-09-03T20:09:51Z</time></trkpt><trkpt lat="45.7339933701" lon="7.3618158326"><ele>547.61</ele><time>2014-09-03T20:10:39Z</time></trkpt><trkpt lat="45.7340037636" lon="7.3618435767"><ele>543.28</ele><time>2014-09-03T20:11:35Z</time></trkpt><trkpt lat="45.7340416498" lon="7.3618425708"><ele>542.80</ele><time>2014-09-03T20:12:26Z</time></trkpt><trkpt lat="45.7340218686" lon="7.3618318420"><ele>550.97</ele><time>2014-09-03T20:13:16Z</time></trkpt><trkpt lat="45.7340325974" lon="7.3617652059"><ele>553.86</ele><time>2014-09-03T20:14:10Z</time></trkpt><trkpt lat="45.7340344414" lon="7.3618216999"><ele>556.74</ele><time>2014-09-03T20:14:57Z</time></trkpt><trkpt lat="45.7340321783" lon="7.3617843166"><ele>552.41</ele><time>2014-09-03T20:15:35Z</time></trkpt><trkpt lat="45.7340304181" lon="7.3618328478"><ele>549.53</ele><time>2014-09-03T20:16:19Z</time></trkpt><trkpt lat="45.7340303343" lon="7.3618323449"><ele>550.49</ele><time>2014-09-03T20:16:57Z</time></trkpt><trkpt lat="45.7340378780" lon="7.3618235439"><ele>551.45</ele><time>2014-09-03T20:17:42Z</time></trkpt><trkpt lat="45.7339964714" lon="7.3618165031"><ele>555.30</ele><time>2014-09-03T20:18:25Z</time></trkpt><trkpt lat="45.7339970581" lon="7.3618110549"><ele>549.05</ele><time>2014-09-03T20:19:21Z</time></trkpt><trkpt lat="45.7340265624" lon="7.3618135694"><ele>550.97</ele><time>2014-09-03T20:20:04Z</time></trkpt><trkpt lat="45.7340261433" lon="7.3618060257"><ele>552.90</ele><time>2014-09-03T20:20:51Z</time></trkpt><trkpt lat="45.7340383809" lon="7.3618263099"><ele>553.38</ele><time>2014-09-03T20:21:47Z</time></trkpt><trkpt lat="45.7340742555" lon="7.3618307523"><ele>550.97</ele><time>2014-09-03T20:22:28Z</time></trkpt><trkpt lat="45.7340460084" lon="7.3618161678"><ele>549.05</ele><time>2014-09-03T20:23:11Z</time></trkpt><trkpt lat="45.7340382971" lon="7.3617818858"><ele>552.41</ele><time>2014-09-03T20:23:34Z</time></trkpt><trkpt lat="45.7340349443" lon="7.3617776949"><ele>551.93</ele><time>2014-09-03T20:23:50Z</time></trkpt><trkpt lat="45.7340314239" lon="7.3617995717"><ele>551.45</ele><time>2014-09-03T20:23:52Z</time></trkpt></trkseg><trkseg><trkpt lat="45.7340755966" lon="7.3618285730"><ele>551.93</ele><time>2014-09-03T20:59:08Z</time></trkpt><trkpt lat="45.7340735849" lon="7.3617793713"><ele>553.86</ele><time>2014-09-03T20:59:18Z</time></trkpt></trkseg></trk></gpx>